<?xml version="1.0" encoding="UTF-8" standalone="no" ?>
<gpx xmlns="http://www.topografix.com/GPX/1/1" xmlns:xsi="http://www.w3.org/2001/XMLSchema-instance" xsi:schemaLocation="http://www.topografix.com/GPX/1/1 http://www.topografix.com/GPX/1/1/gpx.xsd" version="1.1" creator="VisuGPX - https://www.visugpx.com">
  <metadata>
    <name>Alaric 20-1170.gpx</name>
  </metadata>
  <trk>
    <name><![CDATA[Alaric enneigé.gpx]]></name>
    <extensions>
      <line xmlns="http://www.topografix.com/GPX/gpx_style/0/2">
        <color>00ff59</color>
        <width>4</width>
      </line>
    </extensions>
    <trkseg>
      <trkpt lat="43.17429" lon="2.64337">
        <ele>123.5</ele>
        <time>2023-01-29T11:58:13+0100</time>
      </trkpt>
      <trkpt lat="43.17431" lon="2.64328">
        <ele>122.6</ele>
        <time>2023-01-29T11:58:10+0100</time>
      </trkpt>
      <trkpt lat="43.17433" lon="2.64322">
        <ele>122.2</ele>
      </trkpt>
      <trkpt lat="43.17434" lon="2.64315">
        <ele>121.7</ele>
      </trkpt>
      <trkpt lat="43.17435" lon="2.64308">
        <ele>121.2</ele>
      </trkpt>
      <trkpt lat="43.17436" lon="2.64302">
        <ele>120.9</ele>
        <time>2023-01-29T11:58:03+0100</time>
      </trkpt>
      <trkpt lat="43.17436" lon="2.64295">
        <ele>120.7</ele>
      </trkpt>
      <trkpt lat="43.17435" lon="2.64289">
        <ele>120.6</ele>
      </trkpt>
      <trkpt lat="43.17435" lon="2.64282">
        <ele>120.5</ele>
      </trkpt>
      <trkpt lat="43.17434" lon="2.64276">
        <ele>120.5</ele>
        <time>2023-01-29T11:57:56+0100</time>
      </trkpt>
      <trkpt lat="43.17427" lon="2.64269">
        <ele>121.2</ele>
      </trkpt>
      <trkpt lat="43.1742" lon="2.64263">
        <ele>122</ele>
        <time>2023-01-29T11:57:50+0100</time>
      </trkpt>
      <trkpt lat="43.17415" lon="2.6426">
        <ele>122.3</ele>
      </trkpt>
      <trkpt lat="43.17411" lon="2.64258">
        <ele>122.5</ele>
      </trkpt>
      <trkpt lat="43.17406" lon="2.64255">
        <ele>122.7</ele>
      </trkpt>
      <trkpt lat="43.17402" lon="2.64253">
        <ele>122.8</ele>
        <time>2023-01-29T11:57:43+0100</time>
      </trkpt>
      <trkpt lat="43.17397" lon="2.64251">
        <ele>122.9</ele>
      </trkpt>
      <trkpt lat="43.17392" lon="2.64249">
        <ele>123</ele>
      </trkpt>
      <trkpt lat="43.17387" lon="2.64247">
        <ele>123.3</ele>
      </trkpt>
      <trkpt lat="43.17382" lon="2.64246">
        <ele>123.8</ele>
        <time>2023-01-29T11:57:36+0100</time>
      </trkpt>
      <trkpt lat="43.17375" lon="2.64245">
        <ele>124.3</ele>
      </trkpt>
      <trkpt lat="43.17368" lon="2.64244">
        <ele>124.8</ele>
        <time>2023-01-29T11:57:31+0100</time>
      </trkpt>
      <trkpt lat="43.17361" lon="2.64244">
        <ele>125.2</ele>
        <time>2023-01-29T11:57:29+0100</time>
      </trkpt>
      <trkpt lat="43.17355" lon="2.64246">
        <ele>125.6</ele>
      </trkpt>
      <trkpt lat="43.17348" lon="2.64247">
        <ele>126</ele>
        <time>2023-01-29T11:57:25+0100</time>
      </trkpt>
      <trkpt lat="43.17341" lon="2.64249">
        <ele>126.5</ele>
      </trkpt>
      <trkpt lat="43.17333" lon="2.64251">
        <ele>127.1</ele>
        <time>2023-01-29T11:57:20+0100</time>
      </trkpt>
      <trkpt lat="43.17327" lon="2.64252">
        <ele>127.5</ele>
        <time>2023-01-29T11:57:18+0100</time>
      </trkpt>
      <trkpt lat="43.17324" lon="2.64253">
        <ele>127.8</ele>
        <time>2023-01-29T11:57:17+0100</time>
      </trkpt>
      <trkpt lat="43.17318" lon="2.64253">
        <ele>128.3</ele>
        <time>2023-01-29T11:57:15+0100</time>
      </trkpt>
      <trkpt lat="43.17312" lon="2.64255">
        <ele>128.8</ele>
        <time>2023-01-29T11:57:13+0100</time>
      </trkpt>
      <trkpt lat="43.17305" lon="2.64258">
        <ele>129.6</ele>
      </trkpt>
      <trkpt lat="43.17297" lon="2.6426">
        <ele>130.6</ele>
        <time>2023-01-29T11:57:07+0100</time>
      </trkpt>
      <trkpt lat="43.17292" lon="2.64262">
        <ele>131.1</ele>
        <time>2023-01-29T11:57:05+0100</time>
      </trkpt>
      <trkpt lat="43.17285" lon="2.64264">
        <ele>131.9</ele>
      </trkpt>
      <trkpt lat="43.17278" lon="2.64266">
        <ele>132.6</ele>
        <time>2023-01-29T11:57:00+0100</time>
      </trkpt>
      <trkpt lat="43.17273" lon="2.64267">
        <ele>132.9</ele>
      </trkpt>
      <trkpt lat="43.17268" lon="2.64267">
        <ele>133.1</ele>
        <time>2023-01-29T11:56:56+0100</time>
      </trkpt>
      <trkpt lat="43.17259" lon="2.64267">
        <ele>133.5</ele>
        <time>2023-01-29T11:56:53+0100</time>
      </trkpt>
      <trkpt lat="43.17251" lon="2.64268">
        <ele>134</ele>
        <time>2023-01-29T11:56:50+0100</time>
      </trkpt>
      <trkpt lat="43.17242" lon="2.64269">
        <ele>135</ele>
        <time>2023-01-29T11:56:47+0100</time>
      </trkpt>
      <trkpt lat="43.17234" lon="2.6427">
        <ele>136.1</ele>
      </trkpt>
      <trkpt lat="43.17226" lon="2.64272">
        <ele>137</ele>
        <time>2023-01-29T11:56:41+0100</time>
      </trkpt>
      <trkpt lat="43.17223" lon="2.64272">
        <ele>137.4</ele>
        <time>2023-01-29T11:56:40+0100</time>
      </trkpt>
      <trkpt lat="43.17214" lon="2.64273">
        <ele>138.3</ele>
        <time>2023-01-29T11:56:37+0100</time>
      </trkpt>
      <trkpt lat="43.17206" lon="2.64273">
        <ele>139.3</ele>
        <time>2023-01-29T11:56:34+0100</time>
      </trkpt>
      <trkpt lat="43.17199" lon="2.64274">
        <ele>140.2</ele>
      </trkpt>
      <trkpt lat="43.17191" lon="2.64274">
        <ele>140.7</ele>
        <time>2023-01-29T11:56:28+0100</time>
      </trkpt>
      <trkpt lat="43.17186" lon="2.64274">
        <ele>140.9</ele>
        <time>2023-01-29T11:56:26+0100</time>
      </trkpt>
      <trkpt lat="43.17181" lon="2.64273">
        <ele>141.1</ele>
      </trkpt>
      <trkpt lat="43.17176" lon="2.64273">
        <ele>141.3</ele>
      </trkpt>
      <trkpt lat="43.17171" lon="2.64272">
        <ele>141.5</ele>
      </trkpt>
      <trkpt lat="43.17166" lon="2.64272">
        <ele>141.6</ele>
        <time>2023-01-29T11:56:18+0100</time>
      </trkpt>
      <trkpt lat="43.17162" lon="2.64269">
        <ele>141.8</ele>
      </trkpt>
      <trkpt lat="43.17158" lon="2.64266">
        <ele>142</ele>
      </trkpt>
      <trkpt lat="43.17154" lon="2.64263">
        <ele>142.1</ele>
      </trkpt>
      <trkpt lat="43.1715" lon="2.6426">
        <ele>142.1</ele>
        <time>2023-01-29T11:56:12+0100</time>
      </trkpt>
      <trkpt lat="43.17146" lon="2.64257">
        <ele>142.1</ele>
      </trkpt>
      <trkpt lat="43.17142" lon="2.64255">
        <ele>142</ele>
        <time>2023-01-29T11:56:09+0100</time>
      </trkpt>
      <trkpt lat="43.17137" lon="2.64253">
        <ele>142</ele>
      </trkpt>
      <trkpt lat="43.17132" lon="2.64251">
        <ele>142.2</ele>
      </trkpt>
      <trkpt lat="43.17128" lon="2.6425">
        <ele>142.4</ele>
      </trkpt>
      <trkpt lat="43.17123" lon="2.64248">
        <ele>142.6</ele>
        <time>2023-01-29T11:56:02+0100</time>
      </trkpt>
      <trkpt lat="43.17115" lon="2.64247">
        <ele>143</ele>
        <time>2023-01-29T11:55:59+0100</time>
      </trkpt>
      <trkpt lat="43.1711" lon="2.64246">
        <ele>143.2</ele>
      </trkpt>
      <trkpt lat="43.17105" lon="2.64245">
        <ele>143.2</ele>
      </trkpt>
      <trkpt lat="43.171" lon="2.64244">
        <ele>143.3</ele>
      </trkpt>
      <trkpt lat="43.17096" lon="2.64243">
        <ele>143.4</ele>
        <time>2023-01-29T11:55:52+0100</time>
      </trkpt>
      <trkpt lat="43.17088" lon="2.6424">
        <ele>143.7</ele>
        <time>2023-01-29T11:55:49+0100</time>
      </trkpt>
      <trkpt lat="43.17083" lon="2.64238">
        <ele>143.8</ele>
      </trkpt>
      <trkpt lat="43.17079" lon="2.64237">
        <ele>144.2</ele>
      </trkpt>
      <trkpt lat="43.17074" lon="2.64235">
        <ele>144.6</ele>
      </trkpt>
      <trkpt lat="43.1707" lon="2.64233">
        <ele>145</ele>
        <time>2023-01-29T11:55:43+0100</time>
      </trkpt>
      <trkpt lat="43.17064" lon="2.64231">
        <ele>145.5</ele>
        <time>2023-01-29T11:55:41+0100</time>
      </trkpt>
      <trkpt lat="43.17059" lon="2.6423">
        <ele>146</ele>
      </trkpt>
      <trkpt lat="43.17054" lon="2.64228">
        <ele>146.4</ele>
      </trkpt>
      <trkpt lat="43.17049" lon="2.64227">
        <ele>146.7</ele>
      </trkpt>
      <trkpt lat="43.17045" lon="2.64225">
        <ele>147.1</ele>
        <time>2023-01-29T11:55:34+0100</time>
      </trkpt>
      <trkpt lat="43.17036" lon="2.64224">
        <ele>147.5</ele>
        <time>2023-01-29T11:55:31+0100</time>
      </trkpt>
      <trkpt lat="43.17029" lon="2.64223">
        <ele>147.9</ele>
      </trkpt>
      <trkpt lat="43.17022" lon="2.64221">
        <ele>148.4</ele>
        <time>2023-01-29T11:55:26+0100</time>
      </trkpt>
      <trkpt lat="43.17017" lon="2.6422">
        <ele>148.7</ele>
      </trkpt>
      <trkpt lat="43.17012" lon="2.64219">
        <ele>149.1</ele>
      </trkpt>
      <trkpt lat="43.17007" lon="2.64218">
        <ele>149.5</ele>
      </trkpt>
      <trkpt lat="43.17002" lon="2.64217">
        <ele>149.9</ele>
        <time>2023-01-29T11:55:18+0100</time>
      </trkpt>
      <trkpt lat="43.17" lon="2.64216">
        <ele>150.1</ele>
        <time>2023-01-29T11:55:17+0100</time>
      </trkpt>
      <trkpt lat="43.16995" lon="2.64215">
        <ele>150.8</ele>
        <time>2023-01-29T11:55:15+0100</time>
      </trkpt>
      <trkpt lat="43.16987" lon="2.64214">
        <ele>151.8</ele>
        <time>2023-01-29T11:55:12+0100</time>
      </trkpt>
      <trkpt lat="43.1698" lon="2.64212">
        <ele>152.8</ele>
        <time>2023-01-29T11:55:09+0100</time>
      </trkpt>
      <trkpt lat="43.16975" lon="2.64211">
        <ele>153.5</ele>
      </trkpt>
      <trkpt lat="43.16969" lon="2.64209">
        <ele>154.1</ele>
        <time>2023-01-29T11:55:05+0100</time>
      </trkpt>
      <trkpt lat="43.16962" lon="2.64207">
        <ele>154.9</ele>
        <time>2023-01-29T11:55:02+0100</time>
      </trkpt>
      <trkpt lat="43.16955" lon="2.64205">
        <ele>155.7</ele>
        <time>2023-01-29T11:54:59+0100</time>
      </trkpt>
      <trkpt lat="43.16951" lon="2.64202">
        <ele>156.4</ele>
        <time>2023-01-29T11:54:57+0100</time>
      </trkpt>
      <trkpt lat="43.16947" lon="2.64198">
        <ele>157.3</ele>
        <time>2023-01-29T11:54:55+0100</time>
      </trkpt>
      <trkpt lat="43.16943" lon="2.64195">
        <ele>157.9</ele>
      </trkpt>
      <trkpt lat="43.16939" lon="2.64192">
        <ele>158.6</ele>
      </trkpt>
      <trkpt lat="43.16935" lon="2.64189">
        <ele>159.3</ele>
      </trkpt>
      <trkpt lat="43.16931" lon="2.64186">
        <ele>160</ele>
        <time>2023-01-29T11:54:48+0100</time>
      </trkpt>
      <trkpt lat="43.16926" lon="2.64183">
        <ele>160.7</ele>
      </trkpt>
      <trkpt lat="43.16921" lon="2.6418">
        <ele>161.5</ele>
        <time>2023-01-29T11:54:44+0100</time>
      </trkpt>
      <trkpt lat="43.16916" lon="2.64176">
        <ele>162.3</ele>
      </trkpt>
      <trkpt lat="43.1691" lon="2.64173">
        <ele>162.9</ele>
        <time>2023-01-29T11:54:40+0100</time>
      </trkpt>
      <trkpt lat="43.16905" lon="2.6417">
        <ele>163.5</ele>
      </trkpt>
      <trkpt lat="43.169" lon="2.64167">
        <ele>163.9</ele>
        <time>2023-01-29T11:54:36+0100</time>
      </trkpt>
      <trkpt lat="43.16893" lon="2.64163">
        <ele>164.4</ele>
        <time>2023-01-29T11:54:33+0100</time>
      </trkpt>
      <trkpt lat="43.16889" lon="2.6416">
        <ele>164.7</ele>
      </trkpt>
      <trkpt lat="43.16884" lon="2.64158">
        <ele>165.1</ele>
      </trkpt>
      <trkpt lat="43.1688" lon="2.64156">
        <ele>165.5</ele>
      </trkpt>
      <trkpt lat="43.16876" lon="2.64154">
        <ele>165.9</ele>
        <time>2023-01-29T11:54:25+0100</time>
      </trkpt>
      <trkpt lat="43.16872" lon="2.64151">
        <ele>166.3</ele>
      </trkpt>
      <trkpt lat="43.16867" lon="2.64148">
        <ele>166.8</ele>
        <time>2023-01-29T11:54:20+0100</time>
      </trkpt>
      <trkpt lat="43.16863" lon="2.64146">
        <ele>167.2</ele>
      </trkpt>
      <trkpt lat="43.16858" lon="2.64143">
        <ele>167.6</ele>
      </trkpt>
      <trkpt lat="43.16854" lon="2.6414">
        <ele>167.8</ele>
      </trkpt>
      <trkpt lat="43.1685" lon="2.64138">
        <ele>168.2</ele>
        <time>2023-01-29T11:54:07+0100</time>
      </trkpt>
      <trkpt lat="43.16842" lon="2.64134">
        <ele>168.6</ele>
      </trkpt>
      <trkpt lat="43.16834" lon="2.64131">
        <ele>169.1</ele>
        <time>2023-01-29T11:54:01+0100</time>
      </trkpt>
      <trkpt lat="43.16828" lon="2.64127">
        <ele>169.4</ele>
      </trkpt>
      <trkpt lat="43.16821" lon="2.64124">
        <ele>169.8</ele>
        <time>2023-01-29T11:53:56+0100</time>
      </trkpt>
      <trkpt lat="43.16816" lon="2.64121">
        <ele>170.1</ele>
      </trkpt>
      <trkpt lat="43.1681" lon="2.64118">
        <ele>170.5</ele>
        <time>2023-01-29T11:53:52+0100</time>
      </trkpt>
      <trkpt lat="43.16805" lon="2.64118">
        <ele>170.7</ele>
      </trkpt>
      <trkpt lat="43.16799" lon="2.64117">
        <ele>171.4</ele>
        <time>2023-01-29T11:53:48+0100</time>
      </trkpt>
      <trkpt lat="43.16793" lon="2.64118">
        <ele>171.9</ele>
        <time>2023-01-29T11:53:46+0100</time>
      </trkpt>
      <trkpt lat="43.16786" lon="2.64118">
        <ele>172.8</ele>
      </trkpt>
      <trkpt lat="43.16778" lon="2.64118">
        <ele>173.7</ele>
        <time>2023-01-29T11:53:40+0100</time>
      </trkpt>
      <trkpt lat="43.16772" lon="2.64117">
        <ele>174.5</ele>
      </trkpt>
      <trkpt lat="43.16766" lon="2.64117">
        <ele>175.3</ele>
        <time>2023-01-29T11:53:36+0100</time>
      </trkpt>
      <trkpt lat="43.16759" lon="2.64116">
        <ele>176.2</ele>
      </trkpt>
      <trkpt lat="43.16752" lon="2.64114">
        <ele>177.2</ele>
        <time>2023-01-29T11:53:31+0100</time>
      </trkpt>
      <trkpt lat="43.16746" lon="2.64115">
        <ele>177.6</ele>
      </trkpt>
      <trkpt lat="43.1674" lon="2.64115">
        <ele>178</ele>
        <time>2023-01-29T11:53:27+0100</time>
      </trkpt>
      <trkpt lat="43.16735" lon="2.64113">
        <ele>178.6</ele>
      </trkpt>
      <trkpt lat="43.16731" lon="2.64112">
        <ele>179.2</ele>
        <time>2023-01-29T11:53:24+0100</time>
      </trkpt>
      <trkpt lat="43.16726" lon="2.64109">
        <ele>179.8</ele>
      </trkpt>
      <trkpt lat="43.1672" lon="2.64106">
        <ele>180.3</ele>
        <time>2023-01-29T11:53:20+0100</time>
      </trkpt>
      <trkpt lat="43.16716" lon="2.64106">
        <ele>180.5</ele>
      </trkpt>
      <trkpt lat="43.16711" lon="2.64106">
        <ele>180.7</ele>
        <time>2023-01-29T11:53:17+0100</time>
      </trkpt>
      <trkpt lat="43.16702" lon="2.64107">
        <ele>181.1</ele>
        <time>2023-01-29T11:53:14+0100</time>
      </trkpt>
      <trkpt lat="43.16698" lon="2.64106">
        <ele>181.4</ele>
        <time>2023-01-29T11:53:12+0100</time>
      </trkpt>
      <trkpt lat="43.16694" lon="2.64104">
        <ele>181.8</ele>
        <time>2023-01-29T11:53:10+0100</time>
      </trkpt>
      <trkpt lat="43.16691" lon="2.64099">
        <ele>182.5</ele>
        <time>2023-01-29T11:53:08+0100</time>
      </trkpt>
      <trkpt lat="43.16687" lon="2.64094">
        <ele>183.2</ele>
        <time>2023-01-29T11:53:06+0100</time>
      </trkpt>
      <trkpt lat="43.16681" lon="2.64085">
        <ele>184.7</ele>
        <time>2023-01-29T11:53:02+0100</time>
      </trkpt>
      <trkpt lat="43.1668" lon="2.64079">
        <ele>185.7</ele>
        <time>2023-01-29T11:53:00+0100</time>
      </trkpt>
      <trkpt lat="43.16678" lon="2.64073">
        <ele>186.7</ele>
        <time>2023-01-29T11:52:58+0100</time>
      </trkpt>
      <trkpt lat="43.16676" lon="2.64068">
        <ele>187.7</ele>
        <time>2023-01-29T11:52:56+0100</time>
      </trkpt>
      <trkpt lat="43.16674" lon="2.64062">
        <ele>188.9</ele>
        <time>2023-01-29T11:52:54+0100</time>
      </trkpt>
      <trkpt lat="43.16672" lon="2.64057">
        <ele>190</ele>
        <time>2023-01-29T11:52:52+0100</time>
      </trkpt>
      <trkpt lat="43.16669" lon="2.64047">
        <ele>191.6</ele>
        <time>2023-01-29T11:52:49+0100</time>
      </trkpt>
      <trkpt lat="43.16667" lon="2.64041">
        <ele>192.6</ele>
        <time>2023-01-29T11:52:47+0100</time>
      </trkpt>
      <trkpt lat="43.16664" lon="2.64035">
        <ele>193.4</ele>
        <time>2023-01-29T11:52:45+0100</time>
      </trkpt>
      <trkpt lat="43.16662" lon="2.64025">
        <ele>194.9</ele>
        <time>2023-01-29T11:52:42+0100</time>
      </trkpt>
      <trkpt lat="43.16661" lon="2.64019">
        <ele>196.1</ele>
        <time>2023-01-29T11:52:40+0100</time>
      </trkpt>
      <trkpt lat="43.1666" lon="2.64016">
        <ele>196.6</ele>
        <time>2023-01-29T11:52:39+0100</time>
      </trkpt>
      <trkpt lat="43.16658" lon="2.64005">
        <ele>198.8</ele>
        <time>2023-01-29T11:52:23+0100</time>
      </trkpt>
      <trkpt lat="43.16659" lon="2.64003">
        <ele>198.9</ele>
        <time>2023-01-29T11:52:20+0100</time>
      </trkpt>
      <trkpt lat="43.16662" lon="2.63998">
        <ele>199.4</ele>
      </trkpt>
      <trkpt lat="43.16664" lon="2.63992">
        <ele>200.2</ele>
        <time>2023-01-29T11:52:13+0100</time>
      </trkpt>
      <trkpt lat="43.16669" lon="2.63986">
        <ele>200.8</ele>
      </trkpt>
      <trkpt lat="43.16673" lon="2.6398">
        <ele>201.7</ele>
        <time>2023-01-29T11:52:04+0100</time>
      </trkpt>
      <trkpt lat="43.16677" lon="2.63976">
        <ele>202.2</ele>
        <time>2023-01-29T11:52:01+0100</time>
      </trkpt>
      <trkpt lat="43.16683" lon="2.63969">
        <ele>203.3</ele>
        <time>2023-01-29T11:51:58+0100</time>
      </trkpt>
      <trkpt lat="43.16687" lon="2.63961">
        <ele>205</ele>
        <time>2023-01-29T11:51:55+0100</time>
      </trkpt>
      <trkpt lat="43.1669" lon="2.63957">
        <ele>205.9</ele>
        <time>2023-01-29T11:51:53+0100</time>
      </trkpt>
      <trkpt lat="43.16692" lon="2.63952">
        <ele>207</ele>
        <time>2023-01-29T11:51:51+0100</time>
      </trkpt>
      <trkpt lat="43.16693" lon="2.63948">
        <ele>208.1</ele>
        <time>2023-01-29T11:51:49+0100</time>
      </trkpt>
      <trkpt lat="43.16692" lon="2.63947">
        <ele>208.7</ele>
        <time>2023-01-29T11:51:48+0100</time>
      </trkpt>
      <trkpt lat="43.16686" lon="2.63947">
        <ele>209.2</ele>
        <time>2023-01-29T11:51:44+0100</time>
      </trkpt>
      <trkpt lat="43.16681" lon="2.63947">
        <ele>209.6</ele>
        <time>2023-01-29T11:51:41+0100</time>
      </trkpt>
      <trkpt lat="43.16678" lon="2.63945">
        <ele>210.7</ele>
        <time>2023-01-29T11:51:38+0100</time>
      </trkpt>
      <trkpt lat="43.16671" lon="2.63943">
        <ele>212</ele>
        <time>2023-01-29T11:51:34+0100</time>
      </trkpt>
      <trkpt lat="43.16664" lon="2.63941">
        <ele>213.8</ele>
        <time>2023-01-29T11:51:24+0100</time>
      </trkpt>
      <trkpt lat="43.16661" lon="2.63939">
        <ele>215.1</ele>
        <time>2023-01-29T11:51:18+0100</time>
      </trkpt>
      <trkpt lat="43.16656" lon="2.63935">
        <ele>217.2</ele>
        <time>2023-01-29T11:51:12+0100</time>
      </trkpt>
      <trkpt lat="43.16651" lon="2.63933">
        <ele>218.7</ele>
        <time>2023-01-29T11:51:07+0100</time>
      </trkpt>
      <trkpt lat="43.1665" lon="2.63932">
        <ele>219</ele>
        <time>2023-01-29T11:51:06+0100</time>
      </trkpt>
      <trkpt lat="43.16647" lon="2.63932">
        <ele>219.7</ele>
        <time>2023-01-29T11:51:03+0100</time>
      </trkpt>
      <trkpt lat="43.16642" lon="2.63931">
        <ele>220.4</ele>
        <time>2023-01-29T11:50:59+0100</time>
      </trkpt>
      <trkpt lat="43.16636" lon="2.63929">
        <ele>222</ele>
        <time>2023-01-29T11:50:55+0100</time>
      </trkpt>
      <trkpt lat="43.16633" lon="2.63929">
        <ele>222.9</ele>
        <time>2023-01-29T11:50:52+0100</time>
      </trkpt>
      <trkpt lat="43.16631" lon="2.63929">
        <ele>223.1</ele>
        <time>2023-01-29T11:50:51+0100</time>
      </trkpt>
      <trkpt lat="43.16627" lon="2.63928">
        <ele>224.1</ele>
        <time>2023-01-29T11:50:48+0100</time>
      </trkpt>
      <trkpt lat="43.16622" lon="2.63929">
        <ele>224.6</ele>
        <time>2023-01-29T11:50:45+0100</time>
      </trkpt>
      <trkpt lat="43.16617" lon="2.63929">
        <ele>225.8</ele>
        <time>2023-01-29T11:50:41+0100</time>
      </trkpt>
      <trkpt lat="43.16609" lon="2.63931">
        <ele>226.6</ele>
      </trkpt>
      <trkpt lat="43.166" lon="2.63934">
        <ele>227</ele>
        <time>2023-01-29T11:50:32+0100</time>
      </trkpt>
      <trkpt lat="43.16592" lon="2.63938">
        <ele>227</ele>
        <time>2023-01-29T11:50:28+0100</time>
      </trkpt>
      <trkpt lat="43.16588" lon="2.63939">
        <ele>227.5</ele>
      </trkpt>
      <trkpt lat="43.16583" lon="2.63939">
        <ele>227.9</ele>
      </trkpt>
      <trkpt lat="43.16579" lon="2.6394">
        <ele>228.6</ele>
      </trkpt>
      <trkpt lat="43.16574" lon="2.6394">
        <ele>229.2</ele>
        <time>2023-01-29T11:50:20+0100</time>
      </trkpt>
      <trkpt lat="43.1657" lon="2.63938">
        <ele>230.2</ele>
      </trkpt>
      <trkpt lat="43.16566" lon="2.63935">
        <ele>231</ele>
        <time>2023-01-29T11:50:16+0100</time>
      </trkpt>
      <trkpt lat="43.16562" lon="2.6393">
        <ele>231.8</ele>
        <time>2023-01-29T11:50:13+0100</time>
      </trkpt>
      <trkpt lat="43.16561" lon="2.63925">
        <ele>232.3</ele>
        <time>2023-01-29T11:50:11+0100</time>
      </trkpt>
      <trkpt lat="43.1656" lon="2.63919">
        <ele>232.7</ele>
        <time>2023-01-29T11:50:09+0100</time>
      </trkpt>
      <trkpt lat="43.16556" lon="2.63916">
        <ele>233.3</ele>
        <time>2023-01-29T11:50:07+0100</time>
      </trkpt>
      <trkpt lat="43.16554" lon="2.63914">
        <ele>234</ele>
        <time>2023-01-29T11:50:06+0100</time>
      </trkpt>
      <trkpt lat="43.16552" lon="2.63914">
        <ele>234.4</ele>
        <time>2023-01-29T11:50:05+0100</time>
      </trkpt>
      <trkpt lat="43.16544" lon="2.63915">
        <ele>235.2</ele>
        <time>2023-01-29T11:50:01+0100</time>
      </trkpt>
      <trkpt lat="43.16537" lon="2.63916">
        <ele>235.8</ele>
        <time>2023-01-29T11:49:57+0100</time>
      </trkpt>
      <trkpt lat="43.1653" lon="2.63917">
        <ele>236.8</ele>
        <time>2023-01-29T11:49:54+0100</time>
      </trkpt>
      <trkpt lat="43.16523" lon="2.63912">
        <ele>238.7</ele>
        <time>2023-01-29T11:49:51+0100</time>
      </trkpt>
      <trkpt lat="43.16518" lon="2.63905">
        <ele>240.5</ele>
        <time>2023-01-29T11:49:48+0100</time>
      </trkpt>
      <trkpt lat="43.16515" lon="2.63901">
        <ele>241.4</ele>
        <time>2023-01-29T11:49:46+0100</time>
      </trkpt>
      <trkpt lat="43.1651" lon="2.63895">
        <ele>242.4</ele>
        <time>2023-01-29T11:49:43+0100</time>
      </trkpt>
      <trkpt lat="43.16506" lon="2.63889">
        <ele>243</ele>
        <time>2023-01-29T11:49:40+0100</time>
      </trkpt>
      <trkpt lat="43.16502" lon="2.63886">
        <ele>243.7</ele>
        <time>2023-01-29T11:49:38+0100</time>
      </trkpt>
      <trkpt lat="43.165" lon="2.63885">
        <ele>243.9</ele>
        <time>2023-01-29T11:49:37+0100</time>
      </trkpt>
      <trkpt lat="43.16493" lon="2.6388">
        <ele>245.6</ele>
        <time>2023-01-29T11:49:34+0100</time>
      </trkpt>
      <trkpt lat="43.16489" lon="2.63874">
        <ele>247.1</ele>
        <time>2023-01-29T11:49:31+0100</time>
      </trkpt>
      <trkpt lat="43.16486" lon="2.63868">
        <ele>248.5</ele>
        <time>2023-01-29T11:49:28+0100</time>
      </trkpt>
      <trkpt lat="43.16481" lon="2.63862">
        <ele>249.5</ele>
        <time>2023-01-29T11:49:25+0100</time>
      </trkpt>
      <trkpt lat="43.16477" lon="2.63856">
        <ele>250.9</ele>
        <time>2023-01-29T11:49:22+0100</time>
      </trkpt>
      <trkpt lat="43.16472" lon="2.63851">
        <ele>252.1</ele>
        <time>2023-01-29T11:49:19+0100</time>
      </trkpt>
      <trkpt lat="43.16467" lon="2.63845">
        <ele>253.5</ele>
        <time>2023-01-29T11:49:16+0100</time>
      </trkpt>
      <trkpt lat="43.16465" lon="2.63841">
        <ele>254.4</ele>
        <time>2023-01-29T11:49:14+0100</time>
      </trkpt>
      <trkpt lat="43.16461" lon="2.63836">
        <ele>255.4</ele>
      </trkpt>
      <trkpt lat="43.16458" lon="2.63832">
        <ele>256.5</ele>
        <time>2023-01-29T11:49:09+0100</time>
      </trkpt>
      <trkpt lat="43.16453" lon="2.63827">
        <ele>257.5</ele>
      </trkpt>
      <trkpt lat="43.16447" lon="2.63822">
        <ele>258.5</ele>
        <time>2023-01-29T11:49:01+0100</time>
      </trkpt>
      <trkpt lat="43.1644" lon="2.6382">
        <ele>259</ele>
        <time>2023-01-29T11:48:57+0100</time>
      </trkpt>
      <trkpt lat="43.16435" lon="2.63816">
        <ele>259.9</ele>
      </trkpt>
      <trkpt lat="43.1643" lon="2.63813">
        <ele>260.7</ele>
        <time>2023-01-29T11:48:50+0100</time>
      </trkpt>
      <trkpt lat="43.16427" lon="2.63812">
        <ele>261.1</ele>
        <time>2023-01-29T11:48:47+0100</time>
      </trkpt>
      <trkpt lat="43.16425" lon="2.63811">
        <ele>261.5</ele>
        <time>2023-01-29T11:48:45+0100</time>
      </trkpt>
      <trkpt lat="43.16421" lon="2.63808">
        <ele>262.2</ele>
        <time>2023-01-29T11:48:42+0100</time>
      </trkpt>
      <trkpt lat="43.16419" lon="2.63808">
        <ele>262.3</ele>
        <time>2023-01-29T11:48:41+0100</time>
      </trkpt>
      <trkpt lat="43.16415" lon="2.63806">
        <ele>263</ele>
      </trkpt>
      <trkpt lat="43.1641" lon="2.63805">
        <ele>263.8</ele>
      </trkpt>
      <trkpt lat="43.16406" lon="2.63804">
        <ele>264.5</ele>
      </trkpt>
      <trkpt lat="43.16402" lon="2.63802">
        <ele>265.2</ele>
        <time>2023-01-29T11:48:27+0100</time>
      </trkpt>
      <trkpt lat="43.16399" lon="2.63803">
        <ele>265.3</ele>
        <time>2023-01-29T11:48:25+0100</time>
      </trkpt>
      <trkpt lat="43.16394" lon="2.63808">
        <ele>264.9</ele>
        <time>2023-01-29T11:48:21+0100</time>
      </trkpt>
      <trkpt lat="43.16388" lon="2.63811">
        <ele>265</ele>
        <time>2023-01-29T11:48:15+0100</time>
      </trkpt>
      <trkpt lat="43.16382" lon="2.63814">
        <ele>265.2</ele>
        <time>2023-01-29T11:48:11+0100</time>
      </trkpt>
      <trkpt lat="43.16381" lon="2.63813">
        <ele>265.4</ele>
        <time>2023-01-29T11:48:10+0100</time>
      </trkpt>
      <trkpt lat="43.16379" lon="2.63811">
        <ele>266.2</ele>
        <time>2023-01-29T11:48:07+0100</time>
      </trkpt>
      <trkpt lat="43.16373" lon="2.63806">
        <ele>268.2</ele>
        <time>2023-01-29T11:48:01+0100</time>
      </trkpt>
      <trkpt lat="43.1637" lon="2.63803">
        <ele>269</ele>
        <time>2023-01-29T11:47:58+0100</time>
      </trkpt>
      <trkpt lat="43.16368" lon="2.63803">
        <ele>269.3</ele>
        <time>2023-01-29T11:47:57+0100</time>
      </trkpt>
      <trkpt lat="43.16364" lon="2.63801">
        <ele>270.1</ele>
        <time>2023-01-29T11:47:53+0100</time>
      </trkpt>
      <trkpt lat="43.1636" lon="2.63799">
        <ele>271</ele>
        <time>2023-01-29T11:47:47+0100</time>
      </trkpt>
      <trkpt lat="43.16353" lon="2.63799">
        <ele>271.9</ele>
      </trkpt>
      <trkpt lat="43.16346" lon="2.63799">
        <ele>272.8</ele>
        <time>2023-01-29T11:46:54+0100</time>
      </trkpt>
      <trkpt lat="43.16346" lon="2.63801">
        <ele>272.7</ele>
        <time>2023-01-29T11:46:53+0100</time>
      </trkpt>
      <trkpt lat="43.16346" lon="2.63803">
        <ele>272.5</ele>
        <time>2023-01-29T11:46:51+0100</time>
      </trkpt>
      <trkpt lat="43.16345" lon="2.63806">
        <ele>272.2</ele>
        <time>2023-01-29T11:46:48+0100</time>
      </trkpt>
      <trkpt lat="43.16344" lon="2.63808">
        <ele>271.8</ele>
        <time>2023-01-29T11:46:46+0100</time>
      </trkpt>
      <trkpt lat="43.16343" lon="2.63814">
        <ele>270.7</ele>
        <time>2023-01-29T11:46:41+0100</time>
      </trkpt>
      <trkpt lat="43.16343" lon="2.63818">
        <ele>269.7</ele>
        <time>2023-01-29T11:46:37+0100</time>
      </trkpt>
      <trkpt lat="43.16341" lon="2.63824">
        <ele>268.3</ele>
        <time>2023-01-29T11:46:31+0100</time>
      </trkpt>
      <trkpt lat="43.1634" lon="2.63831">
        <ele>267</ele>
        <time>2023-01-29T11:46:26+0100</time>
      </trkpt>
      <trkpt lat="43.16339" lon="2.63836">
        <ele>265.7</ele>
        <time>2023-01-29T11:46:21+0100</time>
      </trkpt>
      <trkpt lat="43.16337" lon="2.63841">
        <ele>264.5</ele>
        <time>2023-01-29T11:46:16+0100</time>
      </trkpt>
      <trkpt lat="43.16336" lon="2.63846">
        <ele>263.5</ele>
        <time>2023-01-29T11:46:12+0100</time>
      </trkpt>
      <trkpt lat="43.16335" lon="2.6385">
        <ele>262.5</ele>
        <time>2023-01-29T11:46:08+0100</time>
      </trkpt>
      <trkpt lat="43.16333" lon="2.63854">
        <ele>261.8</ele>
        <time>2023-01-29T11:46:04+0100</time>
      </trkpt>
      <trkpt lat="43.16331" lon="2.63859">
        <ele>260.2</ele>
        <time>2023-01-29T11:45:58+0100</time>
      </trkpt>
      <trkpt lat="43.16329" lon="2.63861">
        <ele>259.4</ele>
        <time>2023-01-29T11:45:55+0100</time>
      </trkpt>
      <trkpt lat="43.16329" lon="2.63864">
        <ele>258.7</ele>
        <time>2023-01-29T11:45:52+0100</time>
      </trkpt>
      <trkpt lat="43.16327" lon="2.63867">
        <ele>257.4</ele>
        <time>2023-01-29T11:45:48+0100</time>
      </trkpt>
      <trkpt lat="43.16326" lon="2.63871">
        <ele>256.2</ele>
        <time>2023-01-29T11:45:44+0100</time>
      </trkpt>
      <trkpt lat="43.16324" lon="2.63874">
        <ele>255.2</ele>
        <time>2023-01-29T11:45:40+0100</time>
      </trkpt>
      <trkpt lat="43.16323" lon="2.63877">
        <ele>254.1</ele>
        <time>2023-01-29T11:45:36+0100</time>
      </trkpt>
      <trkpt lat="43.16322" lon="2.6388">
        <ele>253</ele>
        <time>2023-01-29T11:45:32+0100</time>
      </trkpt>
      <trkpt lat="43.16321" lon="2.63885">
        <ele>251.5</ele>
        <time>2023-01-29T11:45:26+0100</time>
      </trkpt>
      <trkpt lat="43.1632" lon="2.63887">
        <ele>250.7</ele>
        <time>2023-01-29T11:45:22+0100</time>
      </trkpt>
      <trkpt lat="43.1632" lon="2.6389">
        <ele>249.7</ele>
        <time>2023-01-29T11:45:18+0100</time>
      </trkpt>
      <trkpt lat="43.16318" lon="2.63893">
        <ele>248.4</ele>
        <time>2023-01-29T11:45:13+0100</time>
      </trkpt>
      <trkpt lat="43.16311" lon="2.63897">
        <ele>246.1</ele>
        <time>2023-01-29T11:44:39+0100</time>
      </trkpt>
      <trkpt lat="43.16309" lon="2.63899">
        <ele>245.2</ele>
        <time>2023-01-29T11:44:34+0100</time>
      </trkpt>
      <trkpt lat="43.16307" lon="2.63901">
        <ele>244.3</ele>
        <time>2023-01-29T11:44:30+0100</time>
      </trkpt>
      <trkpt lat="43.16305" lon="2.63901">
        <ele>243.8</ele>
        <time>2023-01-29T11:44:26+0100</time>
      </trkpt>
      <trkpt lat="43.16302" lon="2.63902">
        <ele>243.2</ele>
        <time>2023-01-29T11:44:21+0100</time>
      </trkpt>
      <trkpt lat="43.163" lon="2.63903">
        <ele>242.7</ele>
        <time>2023-01-29T11:44:17+0100</time>
      </trkpt>
      <trkpt lat="43.16298" lon="2.63904">
        <ele>241.9</ele>
        <time>2023-01-29T11:44:13+0100</time>
      </trkpt>
      <trkpt lat="43.16296" lon="2.63906">
        <ele>241</ele>
        <time>2023-01-29T11:44:09+0100</time>
      </trkpt>
      <trkpt lat="43.16293" lon="2.63907">
        <ele>240.1</ele>
        <time>2023-01-29T11:44:04+0100</time>
      </trkpt>
      <trkpt lat="43.16292" lon="2.63909">
        <ele>239.1</ele>
        <time>2023-01-29T11:44:00+0100</time>
      </trkpt>
      <trkpt lat="43.1629" lon="2.63911">
        <ele>238.2</ele>
        <time>2023-01-29T11:43:57+0100</time>
      </trkpt>
      <trkpt lat="43.16289" lon="2.63912">
        <ele>237.4</ele>
        <time>2023-01-29T11:43:53+0100</time>
      </trkpt>
      <trkpt lat="43.16287" lon="2.63915">
        <ele>235.9</ele>
        <time>2023-01-29T11:43:48+0100</time>
      </trkpt>
      <trkpt lat="43.16286" lon="2.63918">
        <ele>234.5</ele>
        <time>2023-01-29T11:43:43+0100</time>
      </trkpt>
      <trkpt lat="43.16285" lon="2.63921">
        <ele>233.4</ele>
        <time>2023-01-29T11:43:38+0100</time>
      </trkpt>
      <trkpt lat="43.16284" lon="2.63923">
        <ele>232.7</ele>
        <time>2023-01-29T11:43:35+0100</time>
      </trkpt>
      <trkpt lat="43.16284" lon="2.63923">
        <ele>232.5</ele>
        <time>2023-01-29T11:43:34+0100</time>
      </trkpt>
      <trkpt lat="43.16283" lon="2.63928">
        <ele>230.7</ele>
        <time>2023-01-29T11:43:29+0100</time>
      </trkpt>
      <trkpt lat="43.16279" lon="2.63933">
        <ele>228</ele>
        <time>2023-01-29T11:43:23+0100</time>
      </trkpt>
      <trkpt lat="43.16274" lon="2.63936">
        <ele>226.7</ele>
        <time>2023-01-29T11:43:18+0100</time>
      </trkpt>
      <trkpt lat="43.16269" lon="2.6394">
        <ele>225.7</ele>
        <time>2023-01-29T11:43:11+0100</time>
      </trkpt>
      <trkpt lat="43.16264" lon="2.63944">
        <ele>224.8</ele>
        <time>2023-01-29T11:42:28+0100</time>
      </trkpt>
      <trkpt lat="43.16265" lon="2.63944">
        <ele>224.6</ele>
        <time>2023-01-29T11:42:24+0100</time>
      </trkpt>
      <trkpt lat="43.16262" lon="2.63947">
        <ele>223.8</ele>
        <time>2023-01-29T11:42:19+0100</time>
      </trkpt>
      <trkpt lat="43.16259" lon="2.6395">
        <ele>223</ele>
        <time>2023-01-29T11:42:15+0100</time>
      </trkpt>
      <trkpt lat="43.16257" lon="2.63951">
        <ele>222.7</ele>
        <time>2023-01-29T11:42:13+0100</time>
      </trkpt>
      <trkpt lat="43.16256" lon="2.63952">
        <ele>222.2</ele>
        <time>2023-01-29T11:42:11+0100</time>
      </trkpt>
      <trkpt lat="43.16254" lon="2.63954">
        <ele>221.4</ele>
        <time>2023-01-29T11:42:08+0100</time>
      </trkpt>
      <trkpt lat="43.16254" lon="2.63955">
        <ele>221.1</ele>
        <time>2023-01-29T11:42:07+0100</time>
      </trkpt>
      <trkpt lat="43.16253" lon="2.63956">
        <ele>220.8</ele>
        <time>2023-01-29T11:42:06+0100</time>
      </trkpt>
      <trkpt lat="43.16253" lon="2.63957">
        <ele>220.5</ele>
        <time>2023-01-29T11:42:05+0100</time>
      </trkpt>
      <trkpt lat="43.16252" lon="2.63958">
        <ele>220.1</ele>
        <time>2023-01-29T11:42:03+0100</time>
      </trkpt>
      <trkpt lat="43.16251" lon="2.63959">
        <ele>219.7</ele>
        <time>2023-01-29T11:42:02+0100</time>
      </trkpt>
      <trkpt lat="43.16247" lon="2.63964">
        <ele>217.5</ele>
        <time>2023-01-29T11:41:52+0100</time>
      </trkpt>
      <trkpt lat="43.16248" lon="2.63965">
        <ele>217.1</ele>
        <time>2023-01-29T11:41:45+0100</time>
      </trkpt>
      <trkpt lat="43.16245" lon="2.63968">
        <ele>215.8</ele>
        <time>2023-01-29T11:41:39+0100</time>
      </trkpt>
      <trkpt lat="43.16242" lon="2.63969">
        <ele>214.8</ele>
        <time>2023-01-29T11:41:34+0100</time>
      </trkpt>
      <trkpt lat="43.16238" lon="2.6397">
        <ele>213.9</ele>
        <time>2023-01-29T11:41:29+0100</time>
      </trkpt>
      <trkpt lat="43.16235" lon="2.63971">
        <ele>212.8</ele>
        <time>2023-01-29T11:41:25+0100</time>
      </trkpt>
      <trkpt lat="43.16232" lon="2.63971">
        <ele>212.2</ele>
        <time>2023-01-29T11:41:21+0100</time>
      </trkpt>
      <trkpt lat="43.1623" lon="2.63971">
        <ele>211.7</ele>
        <time>2023-01-29T11:41:17+0100</time>
      </trkpt>
      <trkpt lat="43.16228" lon="2.6397">
        <ele>211.7</ele>
        <time>2023-01-29T11:41:13+0100</time>
      </trkpt>
      <trkpt lat="43.16226" lon="2.6397">
        <ele>211.5</ele>
        <time>2023-01-29T11:41:09+0100</time>
      </trkpt>
      <trkpt lat="43.16222" lon="2.63969">
        <ele>211</ele>
        <time>2023-01-29T11:41:03+0100</time>
      </trkpt>
      <trkpt lat="43.1622" lon="2.63969">
        <ele>210.1</ele>
        <time>2023-01-29T11:40:58+0100</time>
      </trkpt>
      <trkpt lat="43.16216" lon="2.63969">
        <ele>208.8</ele>
        <time>2023-01-29T11:40:53+0100</time>
      </trkpt>
      <trkpt lat="43.16212" lon="2.63969">
        <ele>207.7</ele>
        <time>2023-01-29T11:40:48+0100</time>
      </trkpt>
      <trkpt lat="43.16209" lon="2.63968">
        <ele>206.8</ele>
        <time>2023-01-29T11:40:43+0100</time>
      </trkpt>
      <trkpt lat="43.16206" lon="2.63968">
        <ele>205.7</ele>
        <time>2023-01-29T11:40:39+0100</time>
      </trkpt>
      <trkpt lat="43.16202" lon="2.63969">
        <ele>203.9</ele>
        <time>2023-01-29T11:40:34+0100</time>
      </trkpt>
      <trkpt lat="43.16198" lon="2.63971">
        <ele>201.9</ele>
        <time>2023-01-29T11:40:29+0100</time>
      </trkpt>
      <trkpt lat="43.16195" lon="2.63972">
        <ele>200.4</ele>
        <time>2023-01-29T11:40:24+0100</time>
      </trkpt>
      <trkpt lat="43.16197" lon="2.63979">
        <ele>199.6</ele>
      </trkpt>
      <trkpt lat="43.162" lon="2.63985">
        <ele>198.8</ele>
        <time>2023-01-29T11:39:47+0100</time>
      </trkpt>
      <trkpt lat="43.162" lon="2.63987">
        <ele>198.6</ele>
        <time>2023-01-29T11:39:40+0100</time>
      </trkpt>
      <trkpt lat="43.16201" lon="2.63988">
        <ele>198.6</ele>
        <time>2023-01-29T11:39:36+0100</time>
      </trkpt>
      <trkpt lat="43.16201" lon="2.63989">
        <ele>198.5</ele>
        <time>2023-01-29T11:39:34+0100</time>
      </trkpt>
      <trkpt lat="43.16202" lon="2.63995">
        <ele>197.4</ele>
        <time>2023-01-29T11:39:30+0100</time>
      </trkpt>
      <trkpt lat="43.16203" lon="2.63999">
        <ele>196.6</ele>
        <time>2023-01-29T11:39:27+0100</time>
      </trkpt>
      <trkpt lat="43.16201" lon="2.64004">
        <ele>195.4</ele>
        <time>2023-01-29T11:39:22+0100</time>
      </trkpt>
      <trkpt lat="43.162" lon="2.64011">
        <ele>194</ele>
        <time>2023-01-29T11:39:17+0100</time>
      </trkpt>
      <trkpt lat="43.16198" lon="2.64018">
        <ele>192.3</ele>
        <time>2023-01-29T11:38:31+0100</time>
      </trkpt>
      <trkpt lat="43.16198" lon="2.64018">
        <ele>192.5</ele>
        <time>2023-01-29T11:38:18+0100</time>
      </trkpt>
      <trkpt lat="43.16197" lon="2.64024">
        <ele>191.2</ele>
        <time>2023-01-29T11:38:12+0100</time>
      </trkpt>
      <trkpt lat="43.16196" lon="2.64033">
        <ele>190</ele>
        <time>2023-01-29T11:38:06+0100</time>
      </trkpt>
      <trkpt lat="43.16196" lon="2.64037">
        <ele>189.8</ele>
        <time>2023-01-29T11:38:04+0100</time>
      </trkpt>
      <trkpt lat="43.16197" lon="2.64038">
        <ele>189.8</ele>
        <time>2023-01-29T11:38:03+0100</time>
      </trkpt>
      <trkpt lat="43.16196" lon="2.6404">
        <ele>189.7</ele>
        <time>2023-01-29T11:38:02+0100</time>
      </trkpt>
      <trkpt lat="43.16194" lon="2.64042">
        <ele>188.9</ele>
        <time>2023-01-29T11:37:59+0100</time>
      </trkpt>
      <trkpt lat="43.16191" lon="2.64044">
        <ele>188.3</ele>
        <time>2023-01-29T11:37:55+0100</time>
      </trkpt>
      <trkpt lat="43.16189" lon="2.64044">
        <ele>188</ele>
        <time>2023-01-29T11:37:53+0100</time>
      </trkpt>
      <trkpt lat="43.16188" lon="2.64044">
        <ele>187.8</ele>
        <time>2023-01-29T11:37:52+0100</time>
      </trkpt>
      <trkpt lat="43.16187" lon="2.64046">
        <ele>187.5</ele>
        <time>2023-01-29T11:37:50+0100</time>
      </trkpt>
      <trkpt lat="43.16185" lon="2.64048">
        <ele>187</ele>
        <time>2023-01-29T11:37:47+0100</time>
      </trkpt>
      <trkpt lat="43.16181" lon="2.64045">
        <ele>186.6</ele>
      </trkpt>
      <trkpt lat="43.16176" lon="2.64042">
        <ele>186</ele>
        <time>2023-01-29T11:37:40+0100</time>
      </trkpt>
      <trkpt lat="43.16175" lon="2.6404">
        <ele>185.9</ele>
        <time>2023-01-29T11:36:58+0100</time>
      </trkpt>
      <trkpt lat="43.16175" lon="2.6404">
        <ele>185.9</ele>
        <time>2023-01-29T11:36:55+0100</time>
      </trkpt>
      <trkpt lat="43.16169" lon="2.64033">
        <ele>185.3</ele>
        <time>2023-01-29T11:36:43+0100</time>
      </trkpt>
      <trkpt lat="43.16161" lon="2.64028">
        <ele>184</ele>
        <time>2023-01-29T11:36:36+0100</time>
      </trkpt>
      <trkpt lat="43.16157" lon="2.64023">
        <ele>184.1</ele>
        <time>2023-01-29T11:36:30+0100</time>
      </trkpt>
      <trkpt lat="43.16155" lon="2.64022">
        <ele>183.8</ele>
        <time>2023-01-29T11:36:23+0100</time>
      </trkpt>
      <trkpt lat="43.16155" lon="2.64022">
        <ele>183.8</ele>
        <time>2023-01-29T11:36:21+0100</time>
      </trkpt>
      <trkpt lat="43.16153" lon="2.64023">
        <ele>183.4</ele>
        <time>2023-01-29T11:36:19+0100</time>
      </trkpt>
      <trkpt lat="43.16149" lon="2.64022">
        <ele>182.9</ele>
        <time>2023-01-29T11:36:15+0100</time>
      </trkpt>
      <trkpt lat="43.16144" lon="2.64021">
        <ele>182.3</ele>
      </trkpt>
      <trkpt lat="43.16139" lon="2.64021">
        <ele>181.7</ele>
      </trkpt>
      <trkpt lat="43.16134" lon="2.64021">
        <ele>181.6</ele>
      </trkpt>
      <trkpt lat="43.1613" lon="2.6402">
        <ele>181.5</ele>
        <time>2023-01-29T11:36:02+0100</time>
      </trkpt>
      <trkpt lat="43.16123" lon="2.64021">
        <ele>181</ele>
        <time>2023-01-29T11:35:52+0100</time>
      </trkpt>
      <trkpt lat="43.16122" lon="2.6402">
        <ele>181.2</ele>
        <time>2023-01-29T11:35:48+0100</time>
      </trkpt>
      <trkpt lat="43.16122" lon="2.64019">
        <ele>181.3</ele>
        <time>2023-01-29T11:35:46+0100</time>
      </trkpt>
      <trkpt lat="43.16119" lon="2.64022">
        <ele>180.4</ele>
        <time>2023-01-29T11:35:42+0100</time>
      </trkpt>
      <trkpt lat="43.16115" lon="2.64026">
        <ele>179</ele>
        <time>2023-01-29T11:35:38+0100</time>
      </trkpt>
      <trkpt lat="43.16112" lon="2.64032">
        <ele>177.4</ele>
        <time>2023-01-29T11:35:33+0100</time>
      </trkpt>
      <trkpt lat="43.16111" lon="2.64034">
        <ele>176.8</ele>
        <time>2023-01-29T11:35:30+0100</time>
      </trkpt>
      <trkpt lat="43.1611" lon="2.64035">
        <ele>176.6</ele>
        <time>2023-01-29T11:35:28+0100</time>
      </trkpt>
      <trkpt lat="43.1611" lon="2.64037">
        <ele>176.3</ele>
        <time>2023-01-29T11:35:25+0100</time>
      </trkpt>
      <trkpt lat="43.16107" lon="2.64047">
        <ele>175</ele>
        <time>2023-01-29T11:35:16+0100</time>
      </trkpt>
      <trkpt lat="43.16104" lon="2.64051">
        <ele>174.8</ele>
        <time>2023-01-29T11:35:13+0100</time>
      </trkpt>
      <trkpt lat="43.16098" lon="2.64059">
        <ele>175.4</ele>
        <time>2023-01-29T11:35:08+0100</time>
      </trkpt>
      <trkpt lat="43.16093" lon="2.64066">
        <ele>176.3</ele>
        <time>2023-01-29T11:35:05+0100</time>
      </trkpt>
      <trkpt lat="43.16086" lon="2.64074">
        <ele>177.4</ele>
        <time>2023-01-29T11:35:02+0100</time>
      </trkpt>
      <trkpt lat="43.16082" lon="2.64078">
        <ele>178.2</ele>
        <time>2023-01-29T11:35:00+0100</time>
      </trkpt>
      <trkpt lat="43.1608" lon="2.64084">
        <ele>178.8</ele>
      </trkpt>
      <trkpt lat="43.16078" lon="2.6409">
        <ele>180.1</ele>
        <time>2023-01-29T11:34:56+0100</time>
      </trkpt>
      <trkpt lat="43.16076" lon="2.64096">
        <ele>181.1</ele>
        <time>2023-01-29T11:34:54+0100</time>
      </trkpt>
      <trkpt lat="43.16074" lon="2.64103">
        <ele>182.3</ele>
        <time>2023-01-29T11:34:52+0100</time>
      </trkpt>
      <trkpt lat="43.16072" lon="2.64111">
        <ele>183.7</ele>
        <time>2023-01-29T11:34:49+0100</time>
      </trkpt>
      <trkpt lat="43.16069" lon="2.64117">
        <ele>184.8</ele>
        <time>2023-01-29T11:34:47+0100</time>
      </trkpt>
      <trkpt lat="43.16067" lon="2.64122">
        <ele>185.9</ele>
        <time>2023-01-29T11:34:45+0100</time>
      </trkpt>
      <trkpt lat="43.16063" lon="2.64128">
        <ele>187.2</ele>
        <time>2023-01-29T11:34:42+0100</time>
      </trkpt>
      <trkpt lat="43.16061" lon="2.64132">
        <ele>188.1</ele>
        <time>2023-01-29T11:34:40+0100</time>
      </trkpt>
      <trkpt lat="43.16058" lon="2.64136">
        <ele>189.1</ele>
        <time>2023-01-29T11:34:38+0100</time>
      </trkpt>
      <trkpt lat="43.16056" lon="2.64142">
        <ele>190.3</ele>
        <time>2023-01-29T11:34:36+0100</time>
      </trkpt>
      <trkpt lat="43.16051" lon="2.64149">
        <ele>191.9</ele>
        <time>2023-01-29T11:34:33+0100</time>
      </trkpt>
      <trkpt lat="43.16047" lon="2.64154">
        <ele>192.9</ele>
        <time>2023-01-29T11:34:31+0100</time>
      </trkpt>
      <trkpt lat="43.16041" lon="2.64162">
        <ele>194.6</ele>
        <time>2023-01-29T11:34:27+0100</time>
      </trkpt>
      <trkpt lat="43.16036" lon="2.64169">
        <ele>196.1</ele>
        <time>2023-01-29T11:34:21+0100</time>
      </trkpt>
      <trkpt lat="43.16036" lon="2.6417">
        <ele>196.2</ele>
        <time>2023-01-29T11:34:19+0100</time>
      </trkpt>
      <trkpt lat="43.16031" lon="2.64171">
        <ele>197.1</ele>
      </trkpt>
      <trkpt lat="43.16027" lon="2.64172">
        <ele>198</ele>
        <time>2023-01-29T11:34:12+0100</time>
      </trkpt>
      <trkpt lat="43.16022" lon="2.64175">
        <ele>199.1</ele>
        <time>2023-01-29T11:34:08+0100</time>
      </trkpt>
      <trkpt lat="43.16021" lon="2.64175">
        <ele>199.3</ele>
        <time>2023-01-29T11:34:07+0100</time>
      </trkpt>
      <trkpt lat="43.16017" lon="2.64175">
        <ele>200</ele>
        <time>2023-01-29T11:34:02+0100</time>
      </trkpt>
      <trkpt lat="43.1601" lon="2.6417">
        <ele>200.7</ele>
        <time>2023-01-29T11:33:55+0100</time>
      </trkpt>
      <trkpt lat="43.16007" lon="2.64169">
        <ele>200.9</ele>
        <time>2023-01-29T11:33:52+0100</time>
      </trkpt>
      <trkpt lat="43.16006" lon="2.64167">
        <ele>200.9</ele>
        <time>2023-01-29T11:33:50+0100</time>
      </trkpt>
      <trkpt lat="43.16002" lon="2.64164">
        <ele>201.4</ele>
      </trkpt>
      <trkpt lat="43.15998" lon="2.64161">
        <ele>202.1</ele>
        <time>2023-01-29T11:33:39+0100</time>
      </trkpt>
      <trkpt lat="43.15992" lon="2.64157">
        <ele>203.1</ele>
        <time>2023-01-29T11:33:21+0100</time>
      </trkpt>
      <trkpt lat="43.15988" lon="2.64152">
        <ele>203.5</ele>
        <time>2023-01-29T11:33:14+0100</time>
      </trkpt>
      <trkpt lat="43.15981" lon="2.64146">
        <ele>204.3</ele>
        <time>2023-01-29T11:33:10+0100</time>
      </trkpt>
      <trkpt lat="43.15977" lon="2.64143">
        <ele>204.6</ele>
      </trkpt>
      <trkpt lat="43.15973" lon="2.64139">
        <ele>204.9</ele>
        <time>2023-01-29T11:33:06+0100</time>
      </trkpt>
      <trkpt lat="43.15969" lon="2.64135">
        <ele>205.6</ele>
      </trkpt>
      <trkpt lat="43.15964" lon="2.64131">
        <ele>206.3</ele>
        <time>2023-01-29T11:33:01+0100</time>
      </trkpt>
      <trkpt lat="43.15959" lon="2.64127">
        <ele>206.8</ele>
      </trkpt>
      <trkpt lat="43.15955" lon="2.64123">
        <ele>207.2</ele>
        <time>2023-01-29T11:32:56+0100</time>
      </trkpt>
      <trkpt lat="43.15949" lon="2.64119">
        <ele>207.7</ele>
      </trkpt>
      <trkpt lat="43.15942" lon="2.64115">
        <ele>208.2</ele>
        <time>2023-01-29T11:32:51+0100</time>
      </trkpt>
      <trkpt lat="43.15936" lon="2.64111">
        <ele>209.1</ele>
      </trkpt>
      <trkpt lat="43.15929" lon="2.64106">
        <ele>209.9</ele>
        <time>2023-01-29T11:32:46+0100</time>
      </trkpt>
      <trkpt lat="43.15923" lon="2.64103">
        <ele>210.6</ele>
      </trkpt>
      <trkpt lat="43.15917" lon="2.64099">
        <ele>211.3</ele>
        <time>2023-01-29T11:32:42+0100</time>
      </trkpt>
      <trkpt lat="43.15911" lon="2.64095">
        <ele>212.1</ele>
      </trkpt>
      <trkpt lat="43.15906" lon="2.64091">
        <ele>213</ele>
        <time>2023-01-29T11:32:37+0100</time>
      </trkpt>
      <trkpt lat="43.15898" lon="2.64085">
        <ele>214.3</ele>
        <time>2023-01-29T11:32:34+0100</time>
      </trkpt>
      <trkpt lat="43.15895" lon="2.64082">
        <ele>214.6</ele>
        <time>2023-01-29T11:32:32+0100</time>
      </trkpt>
      <trkpt lat="43.15892" lon="2.64078">
        <ele>214.7</ele>
        <time>2023-01-29T11:32:30+0100</time>
      </trkpt>
      <trkpt lat="43.15889" lon="2.64075">
        <ele>214.8</ele>
        <time>2023-01-29T11:32:28+0100</time>
      </trkpt>
      <trkpt lat="43.15884" lon="2.64069">
        <ele>215</ele>
        <time>2023-01-29T11:32:25+0100</time>
      </trkpt>
      <trkpt lat="43.1588" lon="2.64066">
        <ele>215.5</ele>
        <time>2023-01-29T11:32:23+0100</time>
      </trkpt>
      <trkpt lat="43.15875" lon="2.64063">
        <ele>216</ele>
        <time>2023-01-29T11:32:21+0100</time>
      </trkpt>
      <trkpt lat="43.15871" lon="2.64061">
        <ele>216.7</ele>
        <time>2023-01-29T11:32:19+0100</time>
      </trkpt>
      <trkpt lat="43.15866" lon="2.64059">
        <ele>217.5</ele>
        <time>2023-01-29T11:32:17+0100</time>
      </trkpt>
      <trkpt lat="43.15858" lon="2.64055">
        <ele>218.4</ele>
        <time>2023-01-29T11:32:14+0100</time>
      </trkpt>
      <trkpt lat="43.15854" lon="2.64053">
        <ele>219</ele>
        <time>2023-01-29T11:32:12+0100</time>
      </trkpt>
      <trkpt lat="43.15847" lon="2.64051">
        <ele>219.9</ele>
        <time>2023-01-29T11:32:03+0100</time>
      </trkpt>
      <trkpt lat="43.15847" lon="2.64053">
        <ele>220.2</ele>
        <time>2023-01-29T11:31:59+0100</time>
      </trkpt>
      <trkpt lat="43.15847" lon="2.64053">
        <ele>220.3</ele>
        <time>2023-01-29T11:31:58+0100</time>
      </trkpt>
      <trkpt lat="43.15845" lon="2.64053">
        <ele>220.7</ele>
        <time>2023-01-29T11:31:56+0100</time>
      </trkpt>
      <trkpt lat="43.15841" lon="2.64051">
        <ele>221.3</ele>
      </trkpt>
      <trkpt lat="43.15836" lon="2.6405">
        <ele>222</ele>
      </trkpt>
      <trkpt lat="43.15832" lon="2.64049">
        <ele>222.6</ele>
      </trkpt>
      <trkpt lat="43.15827" lon="2.64048">
        <ele>223</ele>
        <time>2023-01-29T11:31:48+0100</time>
      </trkpt>
      <trkpt lat="43.15823" lon="2.64046">
        <ele>223.3</ele>
      </trkpt>
      <trkpt lat="43.15818" lon="2.64044">
        <ele>223.7</ele>
      </trkpt>
      <trkpt lat="43.15814" lon="2.64042">
        <ele>224.1</ele>
      </trkpt>
      <trkpt lat="43.15809" lon="2.6404">
        <ele>224.5</ele>
        <time>2023-01-29T11:31:42+0100</time>
      </trkpt>
      <trkpt lat="43.15801" lon="2.64035">
        <ele>225.1</ele>
      </trkpt>
      <trkpt lat="43.15794" lon="2.6403">
        <ele>225.9</ele>
        <time>2023-01-29T11:31:36+0100</time>
      </trkpt>
      <trkpt lat="43.15787" lon="2.64025">
        <ele>226.5</ele>
        <time>2023-01-29T11:31:33+0100</time>
      </trkpt>
      <trkpt lat="43.15781" lon="2.64021">
        <ele>227.3</ele>
        <time>2023-01-29T11:31:30+0100</time>
      </trkpt>
      <trkpt lat="43.15773" lon="2.64016">
        <ele>228.1</ele>
        <time>2023-01-29T11:31:27+0100</time>
      </trkpt>
      <trkpt lat="43.15765" lon="2.64013">
        <ele>229.1</ele>
        <time>2023-01-29T11:31:24+0100</time>
      </trkpt>
      <trkpt lat="43.15759" lon="2.64009">
        <ele>229.7</ele>
        <time>2023-01-29T11:31:21+0100</time>
      </trkpt>
      <trkpt lat="43.15755" lon="2.64006">
        <ele>229.9</ele>
        <time>2023-01-29T11:31:19+0100</time>
      </trkpt>
      <trkpt lat="43.15751" lon="2.64002">
        <ele>230.2</ele>
        <time>2023-01-29T11:31:17+0100</time>
      </trkpt>
      <trkpt lat="43.15746" lon="2.64001">
        <ele>230.5</ele>
        <time>2023-01-29T11:31:15+0100</time>
      </trkpt>
      <trkpt lat="43.15741" lon="2.64001">
        <ele>231.1</ele>
      </trkpt>
      <trkpt lat="43.15736" lon="2.64002">
        <ele>231.8</ele>
      </trkpt>
      <trkpt lat="43.15731" lon="2.64002">
        <ele>232.4</ele>
      </trkpt>
      <trkpt lat="43.15726" lon="2.64003">
        <ele>233.1</ele>
        <time>2023-01-29T11:31:07+0100</time>
      </trkpt>
      <trkpt lat="43.15721" lon="2.64004">
        <ele>233.8</ele>
      </trkpt>
      <trkpt lat="43.15716" lon="2.64005">
        <ele>234.1</ele>
        <time>2023-01-29T11:31:03+0100</time>
      </trkpt>
      <trkpt lat="43.15709" lon="2.64008">
        <ele>234.9</ele>
      </trkpt>
      <trkpt lat="43.15701" lon="2.64011">
        <ele>235.7</ele>
        <time>2023-01-29T11:30:56+0100</time>
      </trkpt>
      <trkpt lat="43.15699" lon="2.64012">
        <ele>235.9</ele>
        <time>2023-01-29T11:30:55+0100</time>
      </trkpt>
      <trkpt lat="43.15694" lon="2.64012">
        <ele>236.2</ele>
      </trkpt>
      <trkpt lat="43.15689" lon="2.64013">
        <ele>236.5</ele>
      </trkpt>
      <trkpt lat="43.15684" lon="2.64013">
        <ele>236.7</ele>
      </trkpt>
      <trkpt lat="43.15679" lon="2.64014">
        <ele>237</ele>
        <time>2023-01-29T11:30:47+0100</time>
      </trkpt>
      <trkpt lat="43.15673" lon="2.64015">
        <ele>237.5</ele>
      </trkpt>
      <trkpt lat="43.15667" lon="2.64016">
        <ele>237.9</ele>
        <time>2023-01-29T11:30:42+0100</time>
      </trkpt>
      <trkpt lat="43.15662" lon="2.64017">
        <ele>238.5</ele>
      </trkpt>
      <trkpt lat="43.15657" lon="2.64017">
        <ele>239</ele>
        <time>2023-01-29T11:30:38+0100</time>
      </trkpt>
      <trkpt lat="43.15652" lon="2.64016">
        <ele>239.5</ele>
      </trkpt>
      <trkpt lat="43.15646" lon="2.64015">
        <ele>239.9</ele>
        <time>2023-01-29T11:30:34+0100</time>
      </trkpt>
      <trkpt lat="43.1564" lon="2.64014">
        <ele>240.4</ele>
      </trkpt>
      <trkpt lat="43.15634" lon="2.64013">
        <ele>240.8</ele>
        <time>2023-01-29T11:30:27+0100</time>
      </trkpt>
      <trkpt lat="43.15629" lon="2.64014">
        <ele>241.6</ele>
        <time>2023-01-29T11:30:24+0100</time>
      </trkpt>
      <trkpt lat="43.15621" lon="2.64014">
        <ele>242.5</ele>
        <time>2023-01-29T11:30:20+0100</time>
      </trkpt>
      <trkpt lat="43.15613" lon="2.64015">
        <ele>243.5</ele>
        <time>2023-01-29T11:30:16+0100</time>
      </trkpt>
      <trkpt lat="43.15608" lon="2.64015">
        <ele>244.3</ele>
        <time>2023-01-29T11:30:13+0100</time>
      </trkpt>
      <trkpt lat="43.15604" lon="2.64015">
        <ele>245.3</ele>
        <time>2023-01-29T11:30:10+0100</time>
      </trkpt>
      <trkpt lat="43.15599" lon="2.64014">
        <ele>246.2</ele>
        <time>2023-01-29T11:30:07+0100</time>
      </trkpt>
      <trkpt lat="43.15592" lon="2.64012">
        <ele>247.2</ele>
        <time>2023-01-29T11:30:03+0100</time>
      </trkpt>
      <trkpt lat="43.15588" lon="2.64011">
        <ele>247.7</ele>
      </trkpt>
      <trkpt lat="43.15584" lon="2.64009">
        <ele>248.1</ele>
        <time>2023-01-29T11:29:58+0100</time>
      </trkpt>
      <trkpt lat="43.15576" lon="2.64008">
        <ele>249</ele>
        <time>2023-01-29T11:29:54+0100</time>
      </trkpt>
      <trkpt lat="43.15571" lon="2.64006">
        <ele>249.6</ele>
      </trkpt>
      <trkpt lat="43.15565" lon="2.64005">
        <ele>250.2</ele>
        <time>2023-01-29T11:29:42+0100</time>
      </trkpt>
      <trkpt lat="43.15558" lon="2.64003">
        <ele>251.1</ele>
        <time>2023-01-29T11:29:38+0100</time>
      </trkpt>
      <trkpt lat="43.15552" lon="2.64">
        <ele>251.4</ele>
      </trkpt>
      <trkpt lat="43.15546" lon="2.63997">
        <ele>251.8</ele>
        <time>2023-01-29T11:29:32+0100</time>
      </trkpt>
      <trkpt lat="43.15542" lon="2.63993">
        <ele>252</ele>
        <time>2023-01-29T11:29:30+0100</time>
      </trkpt>
      <trkpt lat="43.15538" lon="2.63991">
        <ele>252.3</ele>
      </trkpt>
      <trkpt lat="43.15533" lon="2.63989">
        <ele>252.6</ele>
      </trkpt>
      <trkpt lat="43.15529" lon="2.63986">
        <ele>252.9</ele>
      </trkpt>
      <trkpt lat="43.15525" lon="2.63984">
        <ele>253.3</ele>
        <time>2023-01-29T11:29:23+0100</time>
      </trkpt>
      <trkpt lat="43.1552" lon="2.63984">
        <ele>253.8</ele>
      </trkpt>
      <trkpt lat="43.15515" lon="2.63984">
        <ele>254.3</ele>
      </trkpt>
      <trkpt lat="43.15511" lon="2.63984">
        <ele>254.9</ele>
      </trkpt>
      <trkpt lat="43.15506" lon="2.63984">
        <ele>255.4</ele>
        <time>2023-01-29T11:29:15+0100</time>
      </trkpt>
      <trkpt lat="43.15501" lon="2.63983">
        <ele>255.8</ele>
      </trkpt>
      <trkpt lat="43.15496" lon="2.63982">
        <ele>256.5</ele>
      </trkpt>
      <trkpt lat="43.15491" lon="2.63981">
        <ele>257.4</ele>
      </trkpt>
      <trkpt lat="43.15487" lon="2.6398">
        <ele>258.2</ele>
        <time>2023-01-29T11:29:07+0100</time>
      </trkpt>
      <trkpt lat="43.15482" lon="2.63979">
        <ele>258.9</ele>
        <time>2023-01-29T11:29:04+0100</time>
      </trkpt>
      <trkpt lat="43.15477" lon="2.63977">
        <ele>259.8</ele>
        <time>2023-01-29T11:29:00+0100</time>
      </trkpt>
      <trkpt lat="43.15471" lon="2.63975">
        <ele>260.7</ele>
        <time>2023-01-29T11:28:57+0100</time>
      </trkpt>
      <trkpt lat="43.15468" lon="2.63974">
        <ele>261.1</ele>
        <time>2023-01-29T11:28:54+0100</time>
      </trkpt>
      <trkpt lat="43.15462" lon="2.63973">
        <ele>261.9</ele>
        <time>2023-01-29T11:28:50+0100</time>
      </trkpt>
      <trkpt lat="43.15456" lon="2.6397">
        <ele>262.6</ele>
        <time>2023-01-29T11:28:46+0100</time>
      </trkpt>
      <trkpt lat="43.15452" lon="2.63969">
        <ele>263</ele>
        <time>2023-01-29T11:28:42+0100</time>
      </trkpt>
      <trkpt lat="43.15448" lon="2.63967">
        <ele>263.6</ele>
        <time>2023-01-29T11:28:38+0100</time>
      </trkpt>
      <trkpt lat="43.15442" lon="2.63966">
        <ele>264.4</ele>
      </trkpt>
      <trkpt lat="43.15436" lon="2.63965">
        <ele>265.2</ele>
        <time>2023-01-29T11:28:29+0100</time>
      </trkpt>
      <trkpt lat="43.15431" lon="2.63965">
        <ele>265.9</ele>
      </trkpt>
      <trkpt lat="43.15427" lon="2.63964">
        <ele>266.6</ele>
      </trkpt>
      <trkpt lat="43.15422" lon="2.63964">
        <ele>267.3</ele>
      </trkpt>
      <trkpt lat="43.15417" lon="2.63964">
        <ele>268</ele>
        <time>2023-01-29T11:28:21+0100</time>
      </trkpt>
      <trkpt lat="43.15413" lon="2.63959">
        <ele>268.3</ele>
      </trkpt>
      <trkpt lat="43.15409" lon="2.63955">
        <ele>268.8</ele>
        <time>2023-01-29T11:28:15+0100</time>
      </trkpt>
      <trkpt lat="43.15406" lon="2.63946">
        <ele>267.9</ele>
        <time>2023-01-29T11:28:10+0100</time>
      </trkpt>
      <trkpt lat="43.15402" lon="2.6394">
        <ele>268.5</ele>
      </trkpt>
      <trkpt lat="43.15399" lon="2.63935">
        <ele>269.1</ele>
        <time>2023-01-29T11:28:04+0100</time>
      </trkpt>
      <trkpt lat="43.15396" lon="2.63928">
        <ele>269.4</ele>
      </trkpt>
      <trkpt lat="43.15393" lon="2.63922">
        <ele>269.6</ele>
        <time>2023-01-29T11:27:58+0100</time>
      </trkpt>
      <trkpt lat="43.1539" lon="2.63912">
        <ele>269.7</ele>
        <time>2023-01-29T11:27:54+0100</time>
      </trkpt>
      <trkpt lat="43.1539" lon="2.6391">
        <ele>269.9</ele>
        <time>2023-01-29T11:27:53+0100</time>
      </trkpt>
      <trkpt lat="43.15388" lon="2.63905">
        <ele>270.2</ele>
        <time>2023-01-29T11:27:51+0100</time>
      </trkpt>
      <trkpt lat="43.15384" lon="2.63898">
        <ele>271.3</ele>
        <time>2023-01-29T11:27:48+0100</time>
      </trkpt>
      <trkpt lat="43.15383" lon="2.63891">
        <ele>271.7</ele>
        <time>2023-01-29T11:27:45+0100</time>
      </trkpt>
      <trkpt lat="43.15379" lon="2.63881">
        <ele>272.6</ele>
        <time>2023-01-29T11:27:41+0100</time>
      </trkpt>
      <trkpt lat="43.15377" lon="2.63875">
        <ele>273.4</ele>
        <time>2023-01-29T11:27:38+0100</time>
      </trkpt>
      <trkpt lat="43.15374" lon="2.63869">
        <ele>274.7</ele>
        <time>2023-01-29T11:27:35+0100</time>
      </trkpt>
      <trkpt lat="43.15369" lon="2.6386">
        <ele>276.7</ele>
        <time>2023-01-29T11:27:31+0100</time>
      </trkpt>
      <trkpt lat="43.15366" lon="2.63852">
        <ele>278.2</ele>
        <time>2023-01-29T11:27:28+0100</time>
      </trkpt>
      <trkpt lat="43.1536" lon="2.63844">
        <ele>280.4</ele>
        <time>2023-01-29T11:27:24+0100</time>
      </trkpt>
      <trkpt lat="43.15357" lon="2.63836">
        <ele>282</ele>
        <time>2023-01-29T11:27:20+0100</time>
      </trkpt>
      <trkpt lat="43.15355" lon="2.63833">
        <ele>282.7</ele>
        <time>2023-01-29T11:27:18+0100</time>
      </trkpt>
      <trkpt lat="43.15354" lon="2.63831">
        <ele>283</ele>
        <time>2023-01-29T11:27:17+0100</time>
      </trkpt>
      <trkpt lat="43.15352" lon="2.63828">
        <ele>283.9</ele>
        <time>2023-01-29T11:27:15+0100</time>
      </trkpt>
      <trkpt lat="43.15349" lon="2.63826">
        <ele>284.8</ele>
        <time>2023-01-29T11:27:13+0100</time>
      </trkpt>
      <trkpt lat="43.15343" lon="2.63828">
        <ele>286.2</ele>
        <time>2023-01-29T11:27:08+0100</time>
      </trkpt>
      <trkpt lat="43.15337" lon="2.63831">
        <ele>287.4</ele>
        <time>2023-01-29T11:27:04+0100</time>
      </trkpt>
      <trkpt lat="43.15333" lon="2.63833">
        <ele>288.2</ele>
      </trkpt>
      <trkpt lat="43.15329" lon="2.63836">
        <ele>289.2</ele>
        <time>2023-01-29T11:26:59+0100</time>
      </trkpt>
      <trkpt lat="43.15324" lon="2.63838">
        <ele>290.2</ele>
      </trkpt>
      <trkpt lat="43.1532" lon="2.6384">
        <ele>291.2</ele>
        <time>2023-01-29T11:26:54+0100</time>
      </trkpt>
      <trkpt lat="43.15314" lon="2.63841">
        <ele>292.6</ele>
        <time>2023-01-29T11:26:51+0100</time>
      </trkpt>
      <trkpt lat="43.15309" lon="2.63841">
        <ele>293.9</ele>
        <time>2023-01-29T11:26:48+0100</time>
      </trkpt>
      <trkpt lat="43.15306" lon="2.63844">
        <ele>294.4</ele>
        <time>2023-01-29T11:26:45+0100</time>
      </trkpt>
      <trkpt lat="43.15301" lon="2.63846">
        <ele>295.1</ele>
        <time>2023-01-29T11:26:42+0100</time>
      </trkpt>
      <trkpt lat="43.15296" lon="2.63847">
        <ele>296.3</ele>
        <time>2023-01-29T11:26:38+0100</time>
      </trkpt>
      <trkpt lat="43.15292" lon="2.63848">
        <ele>297.3</ele>
        <time>2023-01-29T11:26:35+0100</time>
      </trkpt>
      <trkpt lat="43.15286" lon="2.6385">
        <ele>298.5</ele>
        <time>2023-01-29T11:26:31+0100</time>
      </trkpt>
      <trkpt lat="43.15283" lon="2.6385">
        <ele>299.3</ele>
        <time>2023-01-29T11:26:29+0100</time>
      </trkpt>
      <trkpt lat="43.15277" lon="2.63852">
        <ele>300.5</ele>
        <time>2023-01-29T11:26:26+0100</time>
      </trkpt>
      <trkpt lat="43.15273" lon="2.63853">
        <ele>301.1</ele>
        <time>2023-01-29T11:26:23+0100</time>
      </trkpt>
      <trkpt lat="43.1527" lon="2.63855">
        <ele>301.6</ele>
        <time>2023-01-29T11:26:20+0100</time>
      </trkpt>
      <trkpt lat="43.15266" lon="2.63856">
        <ele>302.1</ele>
        <time>2023-01-29T11:26:18+0100</time>
      </trkpt>
      <trkpt lat="43.15264" lon="2.63856">
        <ele>302.7</ele>
        <time>2023-01-29T11:26:16+0100</time>
      </trkpt>
      <trkpt lat="43.1526" lon="2.63856">
        <ele>303.6</ele>
        <time>2023-01-29T11:26:14+0100</time>
      </trkpt>
      <trkpt lat="43.15257" lon="2.63855">
        <ele>304.6</ele>
        <time>2023-01-29T11:26:12+0100</time>
      </trkpt>
      <trkpt lat="43.15253" lon="2.63855">
        <ele>305.5</ele>
        <time>2023-01-29T11:26:10+0100</time>
      </trkpt>
      <trkpt lat="43.15252" lon="2.63856">
        <ele>305.8</ele>
        <time>2023-01-29T11:26:07+0100</time>
      </trkpt>
      <trkpt lat="43.1525" lon="2.63856">
        <ele>306.3</ele>
        <time>2023-01-29T11:26:06+0100</time>
      </trkpt>
      <trkpt lat="43.15243" lon="2.63859">
        <ele>307.1</ele>
      </trkpt>
      <trkpt lat="43.15237" lon="2.63863">
        <ele>308</ele>
        <time>2023-01-29T11:25:40+0100</time>
      </trkpt>
      <trkpt lat="43.15238" lon="2.63863">
        <ele>307.8</ele>
        <time>2023-01-29T11:25:39+0100</time>
      </trkpt>
      <trkpt lat="43.15243" lon="2.63858">
        <ele>307.4</ele>
        <time>2023-01-29T11:25:33+0100</time>
      </trkpt>
      <trkpt lat="43.15247" lon="2.63853">
        <ele>307.6</ele>
      </trkpt>
      <trkpt lat="43.15251" lon="2.63848">
        <ele>307.6</ele>
        <time>2023-01-29T11:25:29+0100</time>
      </trkpt>
      <trkpt lat="43.15257" lon="2.63841">
        <ele>307.9</ele>
      </trkpt>
      <trkpt lat="43.15263" lon="2.63833">
        <ele>308.4</ele>
        <time>2023-01-29T11:25:23+0100</time>
      </trkpt>
      <trkpt lat="43.15266" lon="2.63828">
        <ele>308.7</ele>
      </trkpt>
      <trkpt lat="43.15269" lon="2.63824">
        <ele>308.9</ele>
      </trkpt>
      <trkpt lat="43.15272" lon="2.63819">
        <ele>309.1</ele>
      </trkpt>
      <trkpt lat="43.15275" lon="2.63815">
        <ele>309.1</ele>
        <time>2023-01-29T11:25:16+0100</time>
      </trkpt>
      <trkpt lat="43.15278" lon="2.63809">
        <ele>309.4</ele>
      </trkpt>
      <trkpt lat="43.15281" lon="2.63803">
        <ele>309.5</ele>
        <time>2023-01-29T11:25:12+0100</time>
      </trkpt>
      <trkpt lat="43.15282" lon="2.63796">
        <ele>309.9</ele>
      </trkpt>
      <trkpt lat="43.15283" lon="2.6379">
        <ele>310.4</ele>
      </trkpt>
      <trkpt lat="43.15284" lon="2.63784">
        <ele>310.8</ele>
      </trkpt>
      <trkpt lat="43.15285" lon="2.63778">
        <ele>311.3</ele>
        <time>2023-01-29T11:25:05+0100</time>
      </trkpt>
      <trkpt lat="43.15286" lon="2.63774">
        <ele>311.5</ele>
        <time>2023-01-29T11:25:04+0100</time>
      </trkpt>
      <trkpt lat="43.15288" lon="2.63768">
        <ele>311.8</ele>
      </trkpt>
      <trkpt lat="43.1529" lon="2.63762">
        <ele>312</ele>
      </trkpt>
      <trkpt lat="43.15291" lon="2.63756">
        <ele>312.3</ele>
      </trkpt>
      <trkpt lat="43.15293" lon="2.6375">
        <ele>312.5</ele>
        <time>2023-01-29T11:24:57+0100</time>
      </trkpt>
      <trkpt lat="43.15298" lon="2.63741">
        <ele>312.3</ele>
        <time>2023-01-29T11:24:54+0100</time>
      </trkpt>
      <trkpt lat="43.15302" lon="2.63737">
        <ele>311.6</ele>
      </trkpt>
      <trkpt lat="43.15306" lon="2.63733">
        <ele>310.8</ele>
      </trkpt>
      <trkpt lat="43.1531" lon="2.63729">
        <ele>310.2</ele>
      </trkpt>
      <trkpt lat="43.15314" lon="2.63725">
        <ele>309.6</ele>
        <time>2023-01-29T11:24:47+0100</time>
      </trkpt>
      <trkpt lat="43.1532" lon="2.63716">
        <ele>309.7</ele>
        <time>2023-01-29T11:24:44+0100</time>
      </trkpt>
      <trkpt lat="43.15321" lon="2.6371">
        <ele>310.2</ele>
      </trkpt>
      <trkpt lat="43.15323" lon="2.63704">
        <ele>310.7</ele>
      </trkpt>
      <trkpt lat="43.15325" lon="2.63698">
        <ele>311.2</ele>
      </trkpt>
      <trkpt lat="43.15326" lon="2.63692">
        <ele>311.1</ele>
        <time>2023-01-29T11:24:37+0100</time>
      </trkpt>
      <trkpt lat="43.15327" lon="2.63688">
        <ele>311.2</ele>
        <time>2023-01-29T11:24:36+0100</time>
      </trkpt>
      <trkpt lat="43.15326" lon="2.63682">
        <ele>311.6</ele>
      </trkpt>
      <trkpt lat="43.15326" lon="2.63676">
        <ele>312.2</ele>
      </trkpt>
      <trkpt lat="43.15325" lon="2.63669">
        <ele>312.7</ele>
      </trkpt>
      <trkpt lat="43.15325" lon="2.63663">
        <ele>312.8</ele>
        <time>2023-01-29T11:24:29+0100</time>
      </trkpt>
      <trkpt lat="43.15322" lon="2.63653">
        <ele>313.5</ele>
      </trkpt>
      <trkpt lat="43.1532" lon="2.63644">
        <ele>314</ele>
        <time>2023-01-29T11:24:24+0100</time>
      </trkpt>
      <trkpt lat="43.15316" lon="2.63634">
        <ele>315.9</ele>
        <time>2023-01-29T11:24:21+0100</time>
      </trkpt>
      <trkpt lat="43.15313" lon="2.63627">
        <ele>316.9</ele>
        <time>2023-01-29T11:24:19+0100</time>
      </trkpt>
      <trkpt lat="43.15311" lon="2.6362">
        <ele>317.4</ele>
      </trkpt>
      <trkpt lat="43.15308" lon="2.63613">
        <ele>317.9</ele>
        <time>2023-01-29T11:24:15+0100</time>
      </trkpt>
      <trkpt lat="43.15304" lon="2.63605">
        <ele>319.5</ele>
      </trkpt>
      <trkpt lat="43.15299" lon="2.63596">
        <ele>321.1</ele>
        <time>2023-01-29T11:24:10+0100</time>
      </trkpt>
      <trkpt lat="43.15297" lon="2.6359">
        <ele>321.7</ele>
      </trkpt>
      <trkpt lat="43.15294" lon="2.63584">
        <ele>322</ele>
      </trkpt>
      <trkpt lat="43.15291" lon="2.63578">
        <ele>322</ele>
      </trkpt>
      <trkpt lat="43.15289" lon="2.63571">
        <ele>321.8</ele>
        <time>2023-01-29T11:24:02+0100</time>
      </trkpt>
      <trkpt lat="43.15288" lon="2.63565">
        <ele>320.7</ele>
      </trkpt>
      <trkpt lat="43.15288" lon="2.63559">
        <ele>319.5</ele>
        <time>2023-01-29T11:23:30+0100</time>
      </trkpt>
      <trkpt lat="43.15288" lon="2.63557">
        <ele>319.1</ele>
        <time>2023-01-29T11:23:20+0100</time>
      </trkpt>
      <trkpt lat="43.15281" lon="2.6355">
        <ele>321.3</ele>
        <time>2023-01-29T11:22:45+0100</time>
      </trkpt>
      <trkpt lat="43.15278" lon="2.63546">
        <ele>322.2</ele>
        <time>2023-01-29T11:22:43+0100</time>
      </trkpt>
      <trkpt lat="43.15275" lon="2.63535">
        <ele>323.9</ele>
        <time>2023-01-29T11:22:22+0100</time>
      </trkpt>
      <trkpt lat="43.15269" lon="2.63532">
        <ele>326</ele>
        <time>2023-01-29T11:22:13+0100</time>
      </trkpt>
      <trkpt lat="43.15265" lon="2.63531">
        <ele>327.5</ele>
        <time>2023-01-29T11:22:09+0100</time>
      </trkpt>
      <trkpt lat="43.15261" lon="2.63526">
        <ele>329.7</ele>
        <time>2023-01-29T11:22:01+0100</time>
      </trkpt>
      <trkpt lat="43.15261" lon="2.63525">
        <ele>330</ele>
        <time>2023-01-29T11:22:00+0100</time>
      </trkpt>
      <trkpt lat="43.15259" lon="2.63524">
        <ele>330.8</ele>
        <time>2023-01-29T11:21:58+0100</time>
      </trkpt>
      <trkpt lat="43.15256" lon="2.63522">
        <ele>332.4</ele>
        <time>2023-01-29T11:21:55+0100</time>
      </trkpt>
      <trkpt lat="43.15253" lon="2.6352">
        <ele>333.6</ele>
        <time>2023-01-29T11:21:51+0100</time>
      </trkpt>
      <trkpt lat="43.15249" lon="2.63517">
        <ele>335.4</ele>
        <time>2023-01-29T11:21:46+0100</time>
      </trkpt>
      <trkpt lat="43.15245" lon="2.63514">
        <ele>337.9</ele>
        <time>2023-01-29T11:21:42+0100</time>
      </trkpt>
      <trkpt lat="43.1524" lon="2.63512">
        <ele>340.4</ele>
        <time>2023-01-29T11:21:35+0100</time>
      </trkpt>
      <trkpt lat="43.15238" lon="2.63509">
        <ele>341.4</ele>
        <time>2023-01-29T11:21:32+0100</time>
      </trkpt>
      <trkpt lat="43.15236" lon="2.6351">
        <ele>342.2</ele>
        <time>2023-01-29T11:21:29+0100</time>
      </trkpt>
      <trkpt lat="43.15234" lon="2.63512">
        <ele>342.6</ele>
        <time>2023-01-29T11:21:24+0100</time>
      </trkpt>
      <trkpt lat="43.15234" lon="2.63513">
        <ele>342.9</ele>
        <time>2023-01-29T11:21:21+0100</time>
      </trkpt>
      <trkpt lat="43.15231" lon="2.63513">
        <ele>344.2</ele>
        <time>2023-01-29T11:21:18+0100</time>
      </trkpt>
      <trkpt lat="43.15228" lon="2.63518">
        <ele>345.4</ele>
        <time>2023-01-29T11:21:12+0100</time>
      </trkpt>
      <trkpt lat="43.15226" lon="2.63523">
        <ele>346.5</ele>
        <time>2023-01-29T11:21:09+0100</time>
      </trkpt>
      <trkpt lat="43.15225" lon="2.63526">
        <ele>347.3</ele>
        <time>2023-01-29T11:21:07+0100</time>
      </trkpt>
      <trkpt lat="43.15224" lon="2.63533">
        <ele>348.2</ele>
        <time>2023-01-29T11:21:01+0100</time>
      </trkpt>
      <trkpt lat="43.15226" lon="2.63544">
        <ele>348.1</ele>
        <time>2023-01-29T11:20:57+0100</time>
      </trkpt>
      <trkpt lat="43.15226" lon="2.63551">
        <ele>348.4</ele>
        <time>2023-01-29T11:20:54+0100</time>
      </trkpt>
      <trkpt lat="43.15226" lon="2.63557">
        <ele>349.2</ele>
        <time>2023-01-29T11:20:52+0100</time>
      </trkpt>
      <trkpt lat="43.15226" lon="2.6356">
        <ele>349.2</ele>
        <time>2023-01-29T11:20:50+0100</time>
      </trkpt>
      <trkpt lat="43.15224" lon="2.63566">
        <ele>350.6</ele>
        <time>2023-01-29T11:20:47+0100</time>
      </trkpt>
      <trkpt lat="43.15222" lon="2.63573">
        <ele>352.5</ele>
        <time>2023-01-29T11:20:43+0100</time>
      </trkpt>
      <trkpt lat="43.15221" lon="2.63577">
        <ele>352.9</ele>
        <time>2023-01-29T11:20:40+0100</time>
      </trkpt>
      <trkpt lat="43.1522" lon="2.63582">
        <ele>353.7</ele>
        <time>2023-01-29T11:20:38+0100</time>
      </trkpt>
      <trkpt lat="43.15221" lon="2.63584">
        <ele>353.7</ele>
        <time>2023-01-29T11:20:37+0100</time>
      </trkpt>
      <trkpt lat="43.1522" lon="2.63586">
        <ele>354.1</ele>
        <time>2023-01-29T11:20:36+0100</time>
      </trkpt>
      <trkpt lat="43.15217" lon="2.63589">
        <ele>355.3</ele>
        <time>2023-01-29T11:20:34+0100</time>
      </trkpt>
      <trkpt lat="43.15213" lon="2.63594">
        <ele>356.7</ele>
        <time>2023-01-29T11:20:31+0100</time>
      </trkpt>
      <trkpt lat="43.15209" lon="2.63598">
        <ele>358.2</ele>
        <time>2023-01-29T11:20:28+0100</time>
      </trkpt>
      <trkpt lat="43.15206" lon="2.636">
        <ele>358.9</ele>
        <time>2023-01-29T11:20:26+0100</time>
      </trkpt>
      <trkpt lat="43.15204" lon="2.63602">
        <ele>359.5</ele>
        <time>2023-01-29T11:20:24+0100</time>
      </trkpt>
      <trkpt lat="43.15203" lon="2.63602">
        <ele>359.8</ele>
        <time>2023-01-29T11:20:22+0100</time>
      </trkpt>
      <trkpt lat="43.15201" lon="2.63602">
        <ele>360.4</ele>
        <time>2023-01-29T11:20:19+0100</time>
      </trkpt>
      <trkpt lat="43.15199" lon="2.63603">
        <ele>360.9</ele>
        <time>2023-01-29T11:20:16+0100</time>
      </trkpt>
      <trkpt lat="43.15198" lon="2.63605">
        <ele>361.4</ele>
        <time>2023-01-29T11:20:13+0100</time>
      </trkpt>
      <trkpt lat="43.15194" lon="2.63601">
        <ele>362.4</ele>
        <time>2023-01-29T11:20:10+0100</time>
      </trkpt>
      <trkpt lat="43.1519" lon="2.63598">
        <ele>363.1</ele>
        <time>2023-01-29T11:20:05+0100</time>
      </trkpt>
      <trkpt lat="43.15185" lon="2.63589">
        <ele>364</ele>
        <time>2023-01-29T11:20:00+0100</time>
      </trkpt>
      <trkpt lat="43.15182" lon="2.63584">
        <ele>364.8</ele>
        <time>2023-01-29T11:19:57+0100</time>
      </trkpt>
      <trkpt lat="43.15181" lon="2.63579">
        <ele>365.2</ele>
        <time>2023-01-29T11:19:55+0100</time>
      </trkpt>
      <trkpt lat="43.15181" lon="2.63574">
        <ele>365.4</ele>
        <time>2023-01-29T11:19:53+0100</time>
      </trkpt>
      <trkpt lat="43.15181" lon="2.63572">
        <ele>365.6</ele>
        <time>2023-01-29T11:19:52+0100</time>
      </trkpt>
      <trkpt lat="43.1518" lon="2.63567">
        <ele>366</ele>
        <time>2023-01-29T11:19:50+0100</time>
      </trkpt>
      <trkpt lat="43.15179" lon="2.63561">
        <ele>366.6</ele>
        <time>2023-01-29T11:19:47+0100</time>
      </trkpt>
      <trkpt lat="43.15179" lon="2.63556">
        <ele>367</ele>
        <time>2023-01-29T11:19:44+0100</time>
      </trkpt>
      <trkpt lat="43.15177" lon="2.63551">
        <ele>367.3</ele>
        <time>2023-01-29T11:19:42+0100</time>
      </trkpt>
      <trkpt lat="43.15176" lon="2.63549">
        <ele>367.6</ele>
        <time>2023-01-29T11:19:41+0100</time>
      </trkpt>
      <trkpt lat="43.15174" lon="2.63547">
        <ele>368.2</ele>
        <time>2023-01-29T11:19:40+0100</time>
      </trkpt>
      <trkpt lat="43.15171" lon="2.63542">
        <ele>369.2</ele>
      </trkpt>
      <trkpt lat="43.15168" lon="2.63538">
        <ele>370.2</ele>
      </trkpt>
      <trkpt lat="43.15165" lon="2.63534">
        <ele>371</ele>
      </trkpt>
      <trkpt lat="43.15162" lon="2.63529">
        <ele>371.5</ele>
        <time>2023-01-29T11:19:30+0100</time>
      </trkpt>
      <trkpt lat="43.15157" lon="2.63521">
        <ele>372.2</ele>
      </trkpt>
      <trkpt lat="43.15152" lon="2.63513">
        <ele>373.2</ele>
        <time>2023-01-29T11:19:24+0100</time>
      </trkpt>
      <trkpt lat="43.15146" lon="2.63509">
        <ele>374.2</ele>
      </trkpt>
      <trkpt lat="43.15141" lon="2.63504">
        <ele>375.3</ele>
        <time>2023-01-29T11:19:20+0100</time>
      </trkpt>
      <trkpt lat="43.15137" lon="2.63502">
        <ele>375.9</ele>
        <time>2023-01-29T11:19:18+0100</time>
      </trkpt>
      <trkpt lat="43.15136" lon="2.635">
        <ele>376.1</ele>
        <time>2023-01-29T11:19:17+0100</time>
      </trkpt>
      <trkpt lat="43.15129" lon="2.63494">
        <ele>376.9</ele>
        <time>2023-01-29T11:19:13+0100</time>
      </trkpt>
      <trkpt lat="43.15124" lon="2.63485">
        <ele>378.2</ele>
        <time>2023-01-29T11:19:10+0100</time>
      </trkpt>
      <trkpt lat="43.15119" lon="2.6348">
        <ele>379.2</ele>
        <time>2023-01-29T11:19:08+0100</time>
      </trkpt>
      <trkpt lat="43.15114" lon="2.63478">
        <ele>379.8</ele>
        <time>2023-01-29T11:19:06+0100</time>
      </trkpt>
      <trkpt lat="43.15108" lon="2.63474">
        <ele>380.4</ele>
        <time>2023-01-29T11:19:02+0100</time>
      </trkpt>
      <trkpt lat="43.15105" lon="2.6347">
        <ele>380.7</ele>
      </trkpt>
      <trkpt lat="43.15102" lon="2.63465">
        <ele>381</ele>
        <time>2023-01-29T11:18:54+0100</time>
      </trkpt>
      <trkpt lat="43.15101" lon="2.63461">
        <ele>381.3</ele>
        <time>2023-01-29T11:18:51+0100</time>
      </trkpt>
      <trkpt lat="43.151" lon="2.63454">
        <ele>382.2</ele>
        <time>2023-01-29T11:18:48+0100</time>
      </trkpt>
      <trkpt lat="43.15097" lon="2.63449">
        <ele>382.8</ele>
        <time>2023-01-29T11:18:46+0100</time>
      </trkpt>
      <trkpt lat="43.15095" lon="2.63442">
        <ele>383.9</ele>
        <time>2023-01-29T11:18:43+0100</time>
      </trkpt>
      <trkpt lat="43.15092" lon="2.63437">
        <ele>385</ele>
      </trkpt>
      <trkpt lat="43.1509" lon="2.63432">
        <ele>386</ele>
        <time>2023-01-29T11:18:38+0100</time>
      </trkpt>
      <trkpt lat="43.15088" lon="2.63427">
        <ele>386.9</ele>
        <time>2023-01-29T11:18:36+0100</time>
      </trkpt>
      <trkpt lat="43.15088" lon="2.63424">
        <ele>387.4</ele>
        <time>2023-01-29T11:18:35+0100</time>
      </trkpt>
      <trkpt lat="43.15086" lon="2.63417">
        <ele>388.7</ele>
        <time>2023-01-29T11:18:32+0100</time>
      </trkpt>
      <trkpt lat="43.15084" lon="2.63412">
        <ele>389.9</ele>
        <time>2023-01-29T11:18:29+0100</time>
      </trkpt>
      <trkpt lat="43.15083" lon="2.63411">
        <ele>390</ele>
        <time>2023-01-29T11:18:28+0100</time>
      </trkpt>
      <trkpt lat="43.15079" lon="2.63406">
        <ele>390.6</ele>
        <time>2023-01-29T11:18:25+0100</time>
      </trkpt>
      <trkpt lat="43.15073" lon="2.63397">
        <ele>391.9</ele>
        <time>2023-01-29T11:18:21+0100</time>
      </trkpt>
      <trkpt lat="43.15068" lon="2.6339">
        <ele>393.2</ele>
        <time>2023-01-29T11:18:18+0100</time>
      </trkpt>
      <trkpt lat="43.15063" lon="2.63381">
        <ele>395.2</ele>
        <time>2023-01-29T11:18:15+0100</time>
      </trkpt>
      <trkpt lat="43.15058" lon="2.63372">
        <ele>397.4</ele>
        <time>2023-01-29T11:18:12+0100</time>
      </trkpt>
      <trkpt lat="43.15055" lon="2.63367">
        <ele>398.6</ele>
      </trkpt>
      <trkpt lat="43.15052" lon="2.63362">
        <ele>399.8</ele>
        <time>2023-01-29T11:18:09+0100</time>
      </trkpt>
      <trkpt lat="43.1505" lon="2.63358">
        <ele>400.7</ele>
        <time>2023-01-29T11:18:08+0100</time>
      </trkpt>
      <trkpt lat="43.15045" lon="2.63356">
        <ele>401.5</ele>
      </trkpt>
      <trkpt lat="43.15041" lon="2.63353">
        <ele>402.2</ele>
      </trkpt>
      <trkpt lat="43.15036" lon="2.6335">
        <ele>403</ele>
      </trkpt>
      <trkpt lat="43.15032" lon="2.63348">
        <ele>403.8</ele>
        <time>2023-01-29T11:18:02+0100</time>
      </trkpt>
      <trkpt lat="43.15028" lon="2.63345">
        <ele>404.7</ele>
        <time>2023-01-29T11:18:00+0100</time>
      </trkpt>
      <trkpt lat="43.15023" lon="2.63344">
        <ele>405.3</ele>
        <time>2023-01-29T11:17:58+0100</time>
      </trkpt>
      <trkpt lat="43.15018" lon="2.63343">
        <ele>406</ele>
        <time>2023-01-29T11:17:57+0100</time>
      </trkpt>
      <trkpt lat="43.15017" lon="2.63343">
        <ele>406.1</ele>
        <time>2023-01-29T11:17:56+0100</time>
      </trkpt>
      <trkpt lat="43.15012" lon="2.63344">
        <ele>406.4</ele>
        <time>2023-01-29T11:17:53+0100</time>
      </trkpt>
      <trkpt lat="43.15003" lon="2.63345">
        <ele>406.8</ele>
        <time>2023-01-29T11:17:49+0100</time>
      </trkpt>
      <trkpt lat="43.14999" lon="2.63344">
        <ele>407.4</ele>
        <time>2023-01-29T11:17:47+0100</time>
      </trkpt>
      <trkpt lat="43.14996" lon="2.63343">
        <ele>408.7</ele>
        <time>2023-01-29T11:17:45+0100</time>
      </trkpt>
      <trkpt lat="43.14988" lon="2.63342">
        <ele>410.9</ele>
        <time>2023-01-29T11:17:42+0100</time>
      </trkpt>
      <trkpt lat="43.14985" lon="2.63345">
        <ele>411</ele>
        <time>2023-01-29T11:17:39+0100</time>
      </trkpt>
      <trkpt lat="43.14978" lon="2.63346">
        <ele>412.2</ele>
        <time>2023-01-29T11:17:35+0100</time>
      </trkpt>
      <trkpt lat="43.14972" lon="2.63353">
        <ele>412</ele>
        <time>2023-01-29T11:17:30+0100</time>
      </trkpt>
      <trkpt lat="43.14967" lon="2.6336">
        <ele>411.8</ele>
        <time>2023-01-29T11:17:26+0100</time>
      </trkpt>
      <trkpt lat="43.14959" lon="2.63364">
        <ele>412.7</ele>
      </trkpt>
      <trkpt lat="43.14952" lon="2.63369">
        <ele>413.7</ele>
        <time>2023-01-29T11:17:20+0100</time>
      </trkpt>
      <trkpt lat="43.14945" lon="2.63372">
        <ele>415</ele>
        <time>2023-01-29T11:17:17+0100</time>
      </trkpt>
      <trkpt lat="43.14942" lon="2.63374">
        <ele>415.6</ele>
        <time>2023-01-29T11:17:14+0100</time>
      </trkpt>
      <trkpt lat="43.14941" lon="2.63377">
        <ele>415.4</ele>
        <time>2023-01-29T11:17:12+0100</time>
      </trkpt>
      <trkpt lat="43.14941" lon="2.6338">
        <ele>415.1</ele>
        <time>2023-01-29T11:17:10+0100</time>
      </trkpt>
      <trkpt lat="43.14938" lon="2.63382">
        <ele>415.9</ele>
        <time>2023-01-29T11:17:09+0100</time>
      </trkpt>
      <trkpt lat="43.14937" lon="2.63384">
        <ele>415.8</ele>
        <time>2023-01-29T11:17:07+0100</time>
      </trkpt>
      <trkpt lat="43.14941" lon="2.63389">
        <ele>413.7</ele>
        <time>2023-01-29T11:17:05+0100</time>
      </trkpt>
      <trkpt lat="43.14941" lon="2.63392">
        <ele>413.4</ele>
        <time>2023-01-29T11:17:03+0100</time>
      </trkpt>
      <trkpt lat="43.14938" lon="2.63396">
        <ele>414.3</ele>
        <time>2023-01-29T11:17:00+0100</time>
      </trkpt>
      <trkpt lat="43.14937" lon="2.63405">
        <ele>414</ele>
        <time>2023-01-29T11:16:56+0100</time>
      </trkpt>
      <trkpt lat="43.14936" lon="2.63411">
        <ele>413.9</ele>
        <time>2023-01-29T11:16:53+0100</time>
      </trkpt>
      <trkpt lat="43.14936" lon="2.63418">
        <ele>413.2</ele>
        <time>2023-01-29T11:16:50+0100</time>
      </trkpt>
      <trkpt lat="43.14933" lon="2.63423">
        <ele>414.1</ele>
      </trkpt>
      <trkpt lat="43.1493" lon="2.63427">
        <ele>415.1</ele>
      </trkpt>
      <trkpt lat="43.14927" lon="2.63432">
        <ele>416.1</ele>
      </trkpt>
      <trkpt lat="43.14924" lon="2.63437">
        <ele>416.9</ele>
        <time>2023-01-29T11:16:41+0100</time>
      </trkpt>
      <trkpt lat="43.1492" lon="2.63447">
        <ele>417.9</ele>
        <time>2023-01-29T11:16:35+0100</time>
      </trkpt>
      <trkpt lat="43.14918" lon="2.63451">
        <ele>418.4</ele>
        <time>2023-01-29T11:16:33+0100</time>
      </trkpt>
      <trkpt lat="43.14917" lon="2.6346">
        <ele>419</ele>
        <time>2023-01-29T11:16:29+0100</time>
      </trkpt>
      <trkpt lat="43.14915" lon="2.63462">
        <ele>419.4</ele>
        <time>2023-01-29T11:16:28+0100</time>
      </trkpt>
      <trkpt lat="43.1491" lon="2.63471">
        <ele>421.1</ele>
      </trkpt>
      <trkpt lat="43.14904" lon="2.6348">
        <ele>422.7</ele>
        <time>2023-01-29T11:16:19+0100</time>
      </trkpt>
      <trkpt lat="43.14901" lon="2.63483">
        <ele>423.3</ele>
        <time>2023-01-29T11:16:17+0100</time>
      </trkpt>
      <trkpt lat="43.14897" lon="2.63487">
        <ele>424.3</ele>
        <time>2023-01-29T11:16:15+0100</time>
      </trkpt>
      <trkpt lat="43.14893" lon="2.63491">
        <ele>425.4</ele>
        <time>2023-01-29T11:16:12+0100</time>
      </trkpt>
      <trkpt lat="43.14886" lon="2.63497">
        <ele>426.7</ele>
        <time>2023-01-29T11:16:08+0100</time>
      </trkpt>
      <trkpt lat="43.14882" lon="2.635">
        <ele>427.6</ele>
        <time>2023-01-29T11:16:05+0100</time>
      </trkpt>
      <trkpt lat="43.1488" lon="2.63501">
        <ele>427.9</ele>
        <time>2023-01-29T11:16:01+0100</time>
      </trkpt>
      <trkpt lat="43.14877" lon="2.63498">
        <ele>428.6</ele>
        <time>2023-01-29T11:15:58+0100</time>
      </trkpt>
      <trkpt lat="43.14875" lon="2.63495">
        <ele>429.4</ele>
        <time>2023-01-29T11:15:55+0100</time>
      </trkpt>
      <trkpt lat="43.14871" lon="2.63492">
        <ele>430.3</ele>
        <time>2023-01-29T11:15:52+0100</time>
      </trkpt>
      <trkpt lat="43.14868" lon="2.63488">
        <ele>431.2</ele>
        <time>2023-01-29T11:15:48+0100</time>
      </trkpt>
      <trkpt lat="43.14865" lon="2.6349">
        <ele>431.8</ele>
        <time>2023-01-29T11:15:45+0100</time>
      </trkpt>
      <trkpt lat="43.14863" lon="2.63491">
        <ele>432.2</ele>
        <time>2023-01-29T11:15:43+0100</time>
      </trkpt>
      <trkpt lat="43.14862" lon="2.63491">
        <ele>432.4</ele>
        <time>2023-01-29T11:15:42+0100</time>
      </trkpt>
      <trkpt lat="43.14861" lon="2.63491">
        <ele>432.7</ele>
        <time>2023-01-29T11:15:41+0100</time>
      </trkpt>
      <trkpt lat="43.1486" lon="2.63487">
        <ele>433.3</ele>
        <time>2023-01-29T11:15:39+0100</time>
      </trkpt>
      <trkpt lat="43.14855" lon="2.63478">
        <ele>434.9</ele>
        <time>2023-01-29T11:15:33+0100</time>
      </trkpt>
      <trkpt lat="43.14854" lon="2.63478">
        <ele>435.1</ele>
        <time>2023-01-29T11:15:30+0100</time>
      </trkpt>
      <trkpt lat="43.14852" lon="2.63478">
        <ele>435.5</ele>
        <time>2023-01-29T11:15:27+0100</time>
      </trkpt>
      <trkpt lat="43.14851" lon="2.63475">
        <ele>435.9</ele>
        <time>2023-01-29T11:15:24+0100</time>
      </trkpt>
      <trkpt lat="43.14848" lon="2.6347">
        <ele>436.9</ele>
        <time>2023-01-29T11:15:21+0100</time>
      </trkpt>
      <trkpt lat="43.14844" lon="2.63465">
        <ele>438.3</ele>
        <time>2023-01-29T11:15:18+0100</time>
      </trkpt>
      <trkpt lat="43.1484" lon="2.63456">
        <ele>439.7</ele>
      </trkpt>
      <trkpt lat="43.14837" lon="2.63446">
        <ele>441.1</ele>
        <time>2023-01-29T11:15:01+0100</time>
      </trkpt>
      <trkpt lat="43.14841" lon="2.6344">
        <ele>440.9</ele>
        <time>2023-01-29T11:14:56+0100</time>
      </trkpt>
      <trkpt lat="43.1484" lon="2.63435">
        <ele>441.6</ele>
        <time>2023-01-29T11:14:53+0100</time>
      </trkpt>
      <trkpt lat="43.14837" lon="2.63433">
        <ele>442.4</ele>
        <time>2023-01-29T11:14:50+0100</time>
      </trkpt>
      <trkpt lat="43.14831" lon="2.63439">
        <ele>443.2</ele>
        <time>2023-01-29T11:14:45+0100</time>
      </trkpt>
      <trkpt lat="43.14828" lon="2.63442">
        <ele>443.3</ele>
        <time>2023-01-29T11:14:42+0100</time>
      </trkpt>
      <trkpt lat="43.14825" lon="2.6344">
        <ele>444.1</ele>
        <time>2023-01-29T11:14:37+0100</time>
      </trkpt>
      <trkpt lat="43.1482" lon="2.63442">
        <ele>444.6</ele>
        <time>2023-01-29T11:14:34+0100</time>
      </trkpt>
      <trkpt lat="43.14815" lon="2.63448">
        <ele>445</ele>
        <time>2023-01-29T11:14:31+0100</time>
      </trkpt>
      <trkpt lat="43.14809" lon="2.63451">
        <ele>445.6</ele>
        <time>2023-01-29T11:14:27+0100</time>
      </trkpt>
      <trkpt lat="43.14803" lon="2.63458">
        <ele>445.8</ele>
        <time>2023-01-29T11:14:23+0100</time>
      </trkpt>
      <trkpt lat="43.14797" lon="2.63459">
        <ele>446.3</ele>
        <time>2023-01-29T11:14:19+0100</time>
      </trkpt>
      <trkpt lat="43.14791" lon="2.63463">
        <ele>446.4</ele>
        <time>2023-01-29T11:14:15+0100</time>
      </trkpt>
      <trkpt lat="43.14783" lon="2.63466">
        <ele>446.7</ele>
        <time>2023-01-29T11:14:11+0100</time>
      </trkpt>
      <trkpt lat="43.14777" lon="2.63466">
        <ele>447.2</ele>
        <time>2023-01-29T11:14:08+0100</time>
      </trkpt>
      <trkpt lat="43.14773" lon="2.63465">
        <ele>447.6</ele>
      </trkpt>
      <trkpt lat="43.14768" lon="2.63464">
        <ele>447.9</ele>
      </trkpt>
      <trkpt lat="43.14763" lon="2.63463">
        <ele>448.2</ele>
      </trkpt>
      <trkpt lat="43.14759" lon="2.63462">
        <ele>448.5</ele>
        <time>2023-01-29T11:13:58+0100</time>
      </trkpt>
      <trkpt lat="43.14755" lon="2.63463">
        <ele>448.6</ele>
        <time>2023-01-29T11:13:56+0100</time>
      </trkpt>
      <trkpt lat="43.14748" lon="2.63463">
        <ele>448.6</ele>
      </trkpt>
      <trkpt lat="43.14741" lon="2.63464">
        <ele>448.4</ele>
        <time>2023-01-29T11:13:49+0100</time>
      </trkpt>
      <trkpt lat="43.14733" lon="2.63464">
        <ele>448.3</ele>
      </trkpt>
      <trkpt lat="43.14725" lon="2.63465">
        <ele>448.1</ele>
        <time>2023-01-29T11:13:40+0100</time>
      </trkpt>
      <trkpt lat="43.14716" lon="2.63465">
        <ele>447.6</ele>
      </trkpt>
      <trkpt lat="43.14707" lon="2.63465">
        <ele>447</ele>
        <time>2023-01-29T11:13:28+0100</time>
      </trkpt>
      <trkpt lat="43.14706" lon="2.63464">
        <ele>447</ele>
        <time>2023-01-29T11:13:27+0100</time>
      </trkpt>
      <trkpt lat="43.14704" lon="2.63461">
        <ele>447.3</ele>
        <time>2023-01-29T11:13:25+0100</time>
      </trkpt>
      <trkpt lat="43.14703" lon="2.63457">
        <ele>447.8</ele>
        <time>2023-01-29T11:13:23+0100</time>
      </trkpt>
      <trkpt lat="43.14701" lon="2.63449">
        <ele>448.8</ele>
        <time>2023-01-29T11:13:19+0100</time>
      </trkpt>
      <trkpt lat="43.14699" lon="2.63443">
        <ele>449.6</ele>
        <time>2023-01-29T11:13:15+0100</time>
      </trkpt>
      <trkpt lat="43.14697" lon="2.63436">
        <ele>450.4</ele>
        <time>2023-01-29T11:13:11+0100</time>
      </trkpt>
      <trkpt lat="43.14694" lon="2.6343">
        <ele>451</ele>
        <time>2023-01-29T11:13:08+0100</time>
      </trkpt>
      <trkpt lat="43.14694" lon="2.63423">
        <ele>452</ele>
      </trkpt>
      <trkpt lat="43.14693" lon="2.63416">
        <ele>453</ele>
        <time>2023-01-29T11:13:01+0100</time>
      </trkpt>
      <trkpt lat="43.14693" lon="2.63413">
        <ele>453.6</ele>
        <time>2023-01-29T11:12:59+0100</time>
      </trkpt>
      <trkpt lat="43.14691" lon="2.63409">
        <ele>454.2</ele>
        <time>2023-01-29T11:12:55+0100</time>
      </trkpt>
      <trkpt lat="43.1469" lon="2.63407">
        <ele>454.5</ele>
        <time>2023-01-29T11:12:54+0100</time>
      </trkpt>
      <trkpt lat="43.1469" lon="2.63402">
        <ele>455.6</ele>
        <time>2023-01-29T11:12:51+0100</time>
      </trkpt>
      <trkpt lat="43.14691" lon="2.63396">
        <ele>457</ele>
        <time>2023-01-29T11:12:47+0100</time>
      </trkpt>
      <trkpt lat="43.1469" lon="2.63391">
        <ele>457.9</ele>
        <time>2023-01-29T11:12:44+0100</time>
      </trkpt>
      <trkpt lat="43.14689" lon="2.63389">
        <ele>458.1</ele>
        <time>2023-01-29T11:12:42+0100</time>
      </trkpt>
      <trkpt lat="43.14687" lon="2.63386">
        <ele>458.6</ele>
        <time>2023-01-29T11:12:40+0100</time>
      </trkpt>
      <trkpt lat="43.14686" lon="2.63384">
        <ele>458.9</ele>
        <time>2023-01-29T11:12:39+0100</time>
      </trkpt>
      <trkpt lat="43.14686" lon="2.63381">
        <ele>459.9</ele>
        <time>2023-01-29T11:12:37+0100</time>
      </trkpt>
      <trkpt lat="43.14686" lon="2.63372">
        <ele>462.1</ele>
        <time>2023-01-29T11:12:29+0100</time>
      </trkpt>
      <trkpt lat="43.14686" lon="2.63371">
        <ele>462.3</ele>
        <time>2023-01-29T11:12:26+0100</time>
      </trkpt>
      <trkpt lat="43.14686" lon="2.6337">
        <ele>462.5</ele>
        <time>2023-01-29T11:12:25+0100</time>
      </trkpt>
      <trkpt lat="43.14684" lon="2.63368">
        <ele>462.8</ele>
        <time>2023-01-29T11:12:23+0100</time>
      </trkpt>
      <trkpt lat="43.14681" lon="2.63363">
        <ele>463.6</ele>
        <time>2023-01-29T11:12:20+0100</time>
      </trkpt>
      <trkpt lat="43.14678" lon="2.63357">
        <ele>464.9</ele>
        <time>2023-01-29T11:12:17+0100</time>
      </trkpt>
      <trkpt lat="43.14677" lon="2.63353">
        <ele>465.9</ele>
        <time>2023-01-29T11:12:15+0100</time>
      </trkpt>
      <trkpt lat="43.14677" lon="2.63351">
        <ele>466.3</ele>
        <time>2023-01-29T11:12:14+0100</time>
      </trkpt>
      <trkpt lat="43.14677" lon="2.63349">
        <ele>466.9</ele>
        <time>2023-01-29T11:12:13+0100</time>
      </trkpt>
      <trkpt lat="43.14678" lon="2.63348">
        <ele>467.6</ele>
        <time>2023-01-29T11:12:12+0100</time>
      </trkpt>
      <trkpt lat="43.14679" lon="2.63346">
        <ele>468.2</ele>
        <time>2023-01-29T11:12:11+0100</time>
      </trkpt>
      <trkpt lat="43.1468" lon="2.63344">
        <ele>468.7</ele>
        <time>2023-01-29T11:12:10+0100</time>
      </trkpt>
      <trkpt lat="43.14681" lon="2.63343">
        <ele>469.3</ele>
        <time>2023-01-29T11:12:09+0100</time>
      </trkpt>
      <trkpt lat="43.14681" lon="2.63341">
        <ele>469.8</ele>
        <time>2023-01-29T11:12:08+0100</time>
      </trkpt>
      <trkpt lat="43.1468" lon="2.63339">
        <ele>470.4</ele>
        <time>2023-01-29T11:12:07+0100</time>
      </trkpt>
      <trkpt lat="43.14678" lon="2.63335">
        <ele>471.3</ele>
        <time>2023-01-29T11:12:05+0100</time>
      </trkpt>
      <trkpt lat="43.14677" lon="2.63331">
        <ele>472.2</ele>
        <time>2023-01-29T11:12:03+0100</time>
      </trkpt>
      <trkpt lat="43.14673" lon="2.63325">
        <ele>473.7</ele>
        <time>2023-01-29T11:11:59+0100</time>
      </trkpt>
      <trkpt lat="43.14669" lon="2.6332">
        <ele>474.7</ele>
      </trkpt>
      <trkpt lat="43.14665" lon="2.63315">
        <ele>475.6</ele>
        <time>2023-01-29T11:11:54+0100</time>
      </trkpt>
      <trkpt lat="43.14661" lon="2.63311">
        <ele>475.9</ele>
      </trkpt>
      <trkpt lat="43.14656" lon="2.63308">
        <ele>476.1</ele>
      </trkpt>
      <trkpt lat="43.14652" lon="2.63304">
        <ele>476.4</ele>
      </trkpt>
      <trkpt lat="43.14648" lon="2.633">
        <ele>476.7</ele>
        <time>2023-01-29T11:11:46+0100</time>
      </trkpt>
      <trkpt lat="43.14642" lon="2.63297">
        <ele>476.6</ele>
        <time>2023-01-29T11:11:42+0100</time>
      </trkpt>
      <trkpt lat="43.14638" lon="2.63295">
        <ele>476.7</ele>
      </trkpt>
      <trkpt lat="43.14633" lon="2.63292">
        <ele>476.9</ele>
      </trkpt>
      <trkpt lat="43.14629" lon="2.63289">
        <ele>477</ele>
      </trkpt>
      <trkpt lat="43.14625" lon="2.63286">
        <ele>477.1</ele>
        <time>2023-01-29T11:11:33+0100</time>
      </trkpt>
      <trkpt lat="43.14621" lon="2.63286">
        <ele>476.5</ele>
        <time>2023-01-29T11:11:31+0100</time>
      </trkpt>
      <trkpt lat="43.14616" lon="2.63283">
        <ele>476.2</ele>
        <time>2023-01-29T11:11:28+0100</time>
      </trkpt>
      <trkpt lat="43.14611" lon="2.63282">
        <ele>475.6</ele>
      </trkpt>
      <trkpt lat="43.14607" lon="2.63281">
        <ele>475.2</ele>
      </trkpt>
      <trkpt lat="43.14602" lon="2.63281">
        <ele>474.8</ele>
      </trkpt>
      <trkpt lat="43.14598" lon="2.6328">
        <ele>474.5</ele>
        <time>2023-01-29T11:11:18+0100</time>
      </trkpt>
      <trkpt lat="43.14592" lon="2.63275">
        <ele>475.1</ele>
      </trkpt>
      <trkpt lat="43.14585" lon="2.63271">
        <ele>475.6</ele>
        <time>2023-01-29T11:11:11+0100</time>
      </trkpt>
      <trkpt lat="43.14579" lon="2.63267">
        <ele>476.2</ele>
        <time>2023-01-29T11:11:07+0100</time>
      </trkpt>
      <trkpt lat="43.14575" lon="2.63264">
        <ele>477</ele>
        <time>2023-01-29T11:11:04+0100</time>
      </trkpt>
      <trkpt lat="43.14568" lon="2.63259">
        <ele>478.2</ele>
        <time>2023-01-29T11:10:59+0100</time>
      </trkpt>
      <trkpt lat="43.14563" lon="2.63255">
        <ele>478.9</ele>
        <time>2023-01-29T11:10:55+0100</time>
      </trkpt>
      <trkpt lat="43.14558" lon="2.63256">
        <ele>478</ele>
        <time>2023-01-29T11:10:52+0100</time>
      </trkpt>
      <trkpt lat="43.14553" lon="2.63254">
        <ele>478.4</ele>
        <time>2023-01-29T11:10:49+0100</time>
      </trkpt>
      <trkpt lat="43.14548" lon="2.63247">
        <ele>480.4</ele>
        <time>2023-01-29T11:10:44+0100</time>
      </trkpt>
      <trkpt lat="43.14547" lon="2.63245">
        <ele>481</ele>
        <time>2023-01-29T11:10:42+0100</time>
      </trkpt>
      <trkpt lat="43.14547" lon="2.63243">
        <ele>481.5</ele>
        <time>2023-01-29T11:10:40+0100</time>
      </trkpt>
      <trkpt lat="43.14547" lon="2.6324">
        <ele>482.5</ele>
        <time>2023-01-29T11:10:37+0100</time>
      </trkpt>
      <trkpt lat="43.14548" lon="2.63237">
        <ele>483.7</ele>
        <time>2023-01-29T11:10:34+0100</time>
      </trkpt>
      <trkpt lat="43.14548" lon="2.63231">
        <ele>485.3</ele>
        <time>2023-01-29T11:10:30+0100</time>
      </trkpt>
      <trkpt lat="43.14547" lon="2.63226">
        <ele>487</ele>
        <time>2023-01-29T11:10:24+0100</time>
      </trkpt>
      <trkpt lat="43.14546" lon="2.63225">
        <ele>487.2</ele>
        <time>2023-01-29T11:10:20+0100</time>
      </trkpt>
      <trkpt lat="43.14545" lon="2.63222">
        <ele>488</ele>
        <time>2023-01-29T11:10:16+0100</time>
      </trkpt>
      <trkpt lat="43.14545" lon="2.63218">
        <ele>489.4</ele>
        <time>2023-01-29T11:10:08+0100</time>
      </trkpt>
      <trkpt lat="43.14546" lon="2.63217">
        <ele>489.9</ele>
        <time>2023-01-29T11:10:05+0100</time>
      </trkpt>
      <trkpt lat="43.14543" lon="2.63212">
        <ele>491.6</ele>
        <time>2023-01-29T11:10:00+0100</time>
      </trkpt>
      <trkpt lat="43.1454" lon="2.63209">
        <ele>492.6</ele>
        <time>2023-01-29T11:09:57+0100</time>
      </trkpt>
      <trkpt lat="43.14538" lon="2.63206">
        <ele>493.8</ele>
        <time>2023-01-29T11:09:54+0100</time>
      </trkpt>
      <trkpt lat="43.14536" lon="2.63202">
        <ele>495.4</ele>
        <time>2023-01-29T11:09:51+0100</time>
      </trkpt>
      <trkpt lat="43.14534" lon="2.63199">
        <ele>496.5</ele>
        <time>2023-01-29T11:09:47+0100</time>
      </trkpt>
      <trkpt lat="43.14532" lon="2.63197">
        <ele>497.2</ele>
        <time>2023-01-29T11:09:43+0100</time>
      </trkpt>
      <trkpt lat="43.1453" lon="2.63194">
        <ele>498.1</ele>
        <time>2023-01-29T11:09:39+0100</time>
      </trkpt>
      <trkpt lat="43.14528" lon="2.6319">
        <ele>500</ele>
        <time>2023-01-29T11:09:34+0100</time>
      </trkpt>
      <trkpt lat="43.14527" lon="2.63189">
        <ele>500.5</ele>
        <time>2023-01-29T11:09:30+0100</time>
      </trkpt>
      <trkpt lat="43.14528" lon="2.63187">
        <ele>501.4</ele>
        <time>2023-01-29T11:09:26+0100</time>
      </trkpt>
      <trkpt lat="43.14527" lon="2.63183">
        <ele>503.1</ele>
        <time>2023-01-29T11:09:21+0100</time>
      </trkpt>
      <trkpt lat="43.14526" lon="2.63181">
        <ele>504.2</ele>
        <time>2023-01-29T11:09:17+0100</time>
      </trkpt>
      <trkpt lat="43.14525" lon="2.63179">
        <ele>504.9</ele>
        <time>2023-01-29T11:09:13+0100</time>
      </trkpt>
      <trkpt lat="43.14523" lon="2.63178">
        <ele>505.5</ele>
        <time>2023-01-29T11:09:09+0100</time>
      </trkpt>
      <trkpt lat="43.14515" lon="2.63173">
        <ele>507.9</ele>
        <time>2023-01-29T11:08:59+0100</time>
      </trkpt>
      <trkpt lat="43.14515" lon="2.63171">
        <ele>509</ele>
        <time>2023-01-29T11:08:53+0100</time>
      </trkpt>
      <trkpt lat="43.14514" lon="2.63169">
        <ele>509.8</ele>
        <time>2023-01-29T11:08:49+0100</time>
      </trkpt>
      <trkpt lat="43.14514" lon="2.6317">
        <ele>509.4</ele>
        <time>2023-01-29T11:08:46+0100</time>
      </trkpt>
      <trkpt lat="43.14513" lon="2.63169">
        <ele>509.6</ele>
        <time>2023-01-29T11:08:45+0100</time>
      </trkpt>
      <trkpt lat="43.14512" lon="2.63169">
        <ele>509.8</ele>
        <time>2023-01-29T11:08:43+0100</time>
      </trkpt>
      <trkpt lat="43.14511" lon="2.63167">
        <ele>510.7</ele>
        <time>2023-01-29T11:08:41+0100</time>
      </trkpt>
      <trkpt lat="43.14505" lon="2.63167">
        <ele>510.7</ele>
        <time>2023-01-29T11:08:37+0100</time>
      </trkpt>
      <trkpt lat="43.14497" lon="2.63166">
        <ele>511.2</ele>
        <time>2023-01-29T11:08:32+0100</time>
      </trkpt>
      <trkpt lat="43.14493" lon="2.63166">
        <ele>511.3</ele>
        <time>2023-01-29T11:08:28+0100</time>
      </trkpt>
      <trkpt lat="43.14486" lon="2.63164">
        <ele>511.8</ele>
        <time>2023-01-29T11:08:23+0100</time>
      </trkpt>
      <trkpt lat="43.14482" lon="2.6316">
        <ele>512.3</ele>
        <time>2023-01-29T11:08:16+0100</time>
      </trkpt>
      <trkpt lat="43.14479" lon="2.63157">
        <ele>512.7</ele>
        <time>2023-01-29T11:08:07+0100</time>
      </trkpt>
      <trkpt lat="43.14482" lon="2.63152">
        <ele>514</ele>
        <time>2023-01-29T11:08:01+0100</time>
      </trkpt>
      <trkpt lat="43.14486" lon="2.63149">
        <ele>515.4</ele>
        <time>2023-01-29T11:07:57+0100</time>
      </trkpt>
      <trkpt lat="43.14487" lon="2.63148">
        <ele>516</ele>
        <time>2023-01-29T11:07:55+0100</time>
      </trkpt>
      <trkpt lat="43.14488" lon="2.63146">
        <ele>516.7</ele>
        <time>2023-01-29T11:07:53+0100</time>
      </trkpt>
      <trkpt lat="43.14492" lon="2.63143">
        <ele>518.3</ele>
        <time>2023-01-29T11:07:49+0100</time>
      </trkpt>
      <trkpt lat="43.14499" lon="2.63143">
        <ele>520.4</ele>
        <time>2023-01-29T11:07:39+0100</time>
      </trkpt>
      <trkpt lat="43.14501" lon="2.63142">
        <ele>520.7</ele>
        <time>2023-01-29T11:07:37+0100</time>
      </trkpt>
      <trkpt lat="43.14501" lon="2.63142">
        <ele>520.9</ele>
        <time>2023-01-29T11:07:36+0100</time>
      </trkpt>
      <trkpt lat="43.14504" lon="2.63142">
        <ele>521.5</ele>
        <time>2023-01-29T11:07:33+0100</time>
      </trkpt>
      <trkpt lat="43.14508" lon="2.63141">
        <ele>522.7</ele>
      </trkpt>
      <trkpt lat="43.14513" lon="2.6314">
        <ele>524</ele>
        <time>2023-01-29T11:07:26+0100</time>
      </trkpt>
      <trkpt lat="43.14516" lon="2.63139">
        <ele>524.7</ele>
        <time>2023-01-29T11:07:23+0100</time>
      </trkpt>
      <trkpt lat="43.14519" lon="2.63139">
        <ele>525.3</ele>
        <time>2023-01-29T11:07:21+0100</time>
      </trkpt>
      <trkpt lat="43.14522" lon="2.63139">
        <ele>525.8</ele>
        <time>2023-01-29T11:07:18+0100</time>
      </trkpt>
      <trkpt lat="43.14525" lon="2.63138">
        <ele>526.4</ele>
        <time>2023-01-29T11:07:16+0100</time>
      </trkpt>
      <trkpt lat="43.14527" lon="2.63137">
        <ele>526.6</ele>
        <time>2023-01-29T11:07:14+0100</time>
      </trkpt>
      <trkpt lat="43.14531" lon="2.63137">
        <ele>527.1</ele>
        <time>2023-01-29T11:07:09+0100</time>
      </trkpt>
      <trkpt lat="43.14533" lon="2.63137">
        <ele>527.3</ele>
        <time>2023-01-29T11:07:07+0100</time>
      </trkpt>
      <trkpt lat="43.14537" lon="2.63137">
        <ele>527.6</ele>
      </trkpt>
      <trkpt lat="43.14542" lon="2.63136">
        <ele>527.9</ele>
      </trkpt>
      <trkpt lat="43.14546" lon="2.63135">
        <ele>528.3</ele>
      </trkpt>
      <trkpt lat="43.14551" lon="2.63134">
        <ele>528.7</ele>
        <time>2023-01-29T11:06:53+0100</time>
      </trkpt>
      <trkpt lat="43.14556" lon="2.63133">
        <ele>529.2</ele>
      </trkpt>
      <trkpt lat="43.14561" lon="2.63132">
        <ele>529.8</ele>
        <time>2023-01-29T11:06:48+0100</time>
      </trkpt>
      <trkpt lat="43.14567" lon="2.63129">
        <ele>530.8</ele>
        <time>2023-01-29T11:06:44+0100</time>
      </trkpt>
      <trkpt lat="43.14573" lon="2.63129">
        <ele>531.5</ele>
      </trkpt>
      <trkpt lat="43.14578" lon="2.63128">
        <ele>532.2</ele>
        <time>2023-01-29T11:06:38+0100</time>
      </trkpt>
      <trkpt lat="43.14584" lon="2.63126">
        <ele>533.4</ele>
        <time>2023-01-29T11:06:32+0100</time>
      </trkpt>
      <trkpt lat="43.14586" lon="2.63122">
        <ele>534.4</ele>
        <time>2023-01-29T11:06:27+0100</time>
      </trkpt>
      <trkpt lat="43.14587" lon="2.6312">
        <ele>534.9</ele>
        <time>2023-01-29T11:06:24+0100</time>
      </trkpt>
      <trkpt lat="43.1459" lon="2.63118">
        <ele>536</ele>
        <time>2023-01-29T11:06:21+0100</time>
      </trkpt>
      <trkpt lat="43.14595" lon="2.63113">
        <ele>537.7</ele>
        <time>2023-01-29T11:06:17+0100</time>
      </trkpt>
      <trkpt lat="43.14596" lon="2.63112">
        <ele>538.3</ele>
        <time>2023-01-29T11:06:16+0100</time>
      </trkpt>
      <trkpt lat="43.14598" lon="2.63107">
        <ele>538.5</ele>
        <time>2023-01-29T11:06:14+0100</time>
      </trkpt>
      <trkpt lat="43.14599" lon="2.63106">
        <ele>538.6</ele>
        <time>2023-01-29T11:06:13+0100</time>
      </trkpt>
      <trkpt lat="43.146" lon="2.63104">
        <ele>538.7</ele>
        <time>2023-01-29T11:06:12+0100</time>
      </trkpt>
      <trkpt lat="43.14605" lon="2.63104">
        <ele>539.5</ele>
        <time>2023-01-29T11:06:09+0100</time>
      </trkpt>
      <trkpt lat="43.14609" lon="2.63103">
        <ele>540.2</ele>
        <time>2023-01-29T11:06:07+0100</time>
      </trkpt>
      <trkpt lat="43.14616" lon="2.63102">
        <ele>542.1</ele>
        <time>2023-01-29T11:06:03+0100</time>
      </trkpt>
      <trkpt lat="43.14616" lon="2.63101">
        <ele>542.3</ele>
        <time>2023-01-29T11:06:02+0100</time>
      </trkpt>
      <trkpt lat="43.14618" lon="2.63102">
        <ele>542.9</ele>
        <time>2023-01-29T11:06:00+0100</time>
      </trkpt>
      <trkpt lat="43.1462" lon="2.63102">
        <ele>543.4</ele>
        <time>2023-01-29T11:05:59+0100</time>
      </trkpt>
      <trkpt lat="43.14627" lon="2.63098">
        <ele>545.9</ele>
        <time>2023-01-29T11:05:54+0100</time>
      </trkpt>
      <trkpt lat="43.1463" lon="2.63094">
        <ele>547.1</ele>
        <time>2023-01-29T11:05:51+0100</time>
      </trkpt>
      <trkpt lat="43.14632" lon="2.63091">
        <ele>547.8</ele>
        <time>2023-01-29T11:05:49+0100</time>
      </trkpt>
      <trkpt lat="43.14634" lon="2.63087">
        <ele>548.8</ele>
        <time>2023-01-29T11:05:46+0100</time>
      </trkpt>
      <trkpt lat="43.14636" lon="2.63083">
        <ele>549.9</ele>
        <time>2023-01-29T11:05:43+0100</time>
      </trkpt>
      <trkpt lat="43.14639" lon="2.63078">
        <ele>550.5</ele>
        <time>2023-01-29T11:05:36+0100</time>
      </trkpt>
      <trkpt lat="43.14639" lon="2.63078">
        <ele>550.5</ele>
        <time>2023-01-29T11:05:32+0100</time>
      </trkpt>
      <trkpt lat="43.1464" lon="2.63078">
        <ele>551.1</ele>
        <time>2023-01-29T11:05:29+0100</time>
      </trkpt>
      <trkpt lat="43.14645" lon="2.63076">
        <ele>553.4</ele>
        <time>2023-01-29T11:05:15+0100</time>
      </trkpt>
      <trkpt lat="43.14646" lon="2.63073">
        <ele>553.5</ele>
        <time>2023-01-29T11:05:11+0100</time>
      </trkpt>
      <trkpt lat="43.14647" lon="2.63071">
        <ele>554.1</ele>
        <time>2023-01-29T11:05:07+0100</time>
      </trkpt>
      <trkpt lat="43.1465" lon="2.63071">
        <ele>555.2</ele>
        <time>2023-01-29T11:05:04+0100</time>
      </trkpt>
      <trkpt lat="43.14654" lon="2.6307">
        <ele>556.9</ele>
        <time>2023-01-29T11:05:00+0100</time>
      </trkpt>
      <trkpt lat="43.14656" lon="2.63069">
        <ele>558.2</ele>
        <time>2023-01-29T11:04:57+0100</time>
      </trkpt>
      <trkpt lat="43.14662" lon="2.63068">
        <ele>560.8</ele>
        <time>2023-01-29T11:04:52+0100</time>
      </trkpt>
      <trkpt lat="43.14664" lon="2.63067">
        <ele>561.3</ele>
        <time>2023-01-29T11:04:51+0100</time>
      </trkpt>
      <trkpt lat="43.14668" lon="2.63064">
        <ele>562.7</ele>
        <time>2023-01-29T11:04:45+0100</time>
      </trkpt>
      <trkpt lat="43.14671" lon="2.63062">
        <ele>563.2</ele>
        <time>2023-01-29T11:04:42+0100</time>
      </trkpt>
      <trkpt lat="43.14673" lon="2.63061">
        <ele>563.6</ele>
        <time>2023-01-29T11:04:39+0100</time>
      </trkpt>
      <trkpt lat="43.14674" lon="2.6306">
        <ele>563.9</ele>
        <time>2023-01-29T11:04:37+0100</time>
      </trkpt>
      <trkpt lat="43.14676" lon="2.6306">
        <ele>564.6</ele>
        <time>2023-01-29T11:04:34+0100</time>
      </trkpt>
      <trkpt lat="43.14679" lon="2.63061">
        <ele>565.6</ele>
        <time>2023-01-29T11:04:30+0100</time>
      </trkpt>
      <trkpt lat="43.14683" lon="2.63062">
        <ele>567</ele>
        <time>2023-01-29T11:04:25+0100</time>
      </trkpt>
      <trkpt lat="43.14686" lon="2.63062">
        <ele>568</ele>
        <time>2023-01-29T11:04:22+0100</time>
      </trkpt>
      <trkpt lat="43.14689" lon="2.63062">
        <ele>569</ele>
        <time>2023-01-29T11:04:19+0100</time>
      </trkpt>
      <trkpt lat="43.14693" lon="2.63063">
        <ele>570.4</ele>
        <time>2023-01-29T11:04:15+0100</time>
      </trkpt>
      <trkpt lat="43.14697" lon="2.63065">
        <ele>571.2</ele>
        <time>2023-01-29T11:04:11+0100</time>
      </trkpt>
      <trkpt lat="43.147" lon="2.63069">
        <ele>571.6</ele>
        <time>2023-01-29T11:04:08+0100</time>
      </trkpt>
      <trkpt lat="43.14706" lon="2.6307">
        <ele>572.8</ele>
        <time>2023-01-29T11:04:03+0100</time>
      </trkpt>
      <trkpt lat="43.14709" lon="2.63066">
        <ele>573.6</ele>
        <time>2023-01-29T11:03:59+0100</time>
      </trkpt>
      <trkpt lat="43.1471" lon="2.63065">
        <ele>573.9</ele>
        <time>2023-01-29T11:03:57+0100</time>
      </trkpt>
      <trkpt lat="43.14716" lon="2.63065">
        <ele>575.1</ele>
        <time>2023-01-29T11:03:53+0100</time>
      </trkpt>
      <trkpt lat="43.14722" lon="2.63067">
        <ele>576.1</ele>
      </trkpt>
      <trkpt lat="43.14728" lon="2.63069">
        <ele>576.3</ele>
        <time>2023-01-29T11:03:45+0100</time>
      </trkpt>
      <trkpt lat="43.14729" lon="2.63069">
        <ele>576.4</ele>
        <time>2023-01-29T11:03:44+0100</time>
      </trkpt>
      <trkpt lat="43.1473" lon="2.6307">
        <ele>576.4</ele>
        <time>2023-01-29T11:03:43+0100</time>
      </trkpt>
      <trkpt lat="43.14733" lon="2.63071">
        <ele>576.4</ele>
        <time>2023-01-29T11:03:41+0100</time>
      </trkpt>
      <trkpt lat="43.14735" lon="2.6307">
        <ele>576.6</ele>
        <time>2023-01-29T11:03:39+0100</time>
      </trkpt>
      <trkpt lat="43.14736" lon="2.63067">
        <ele>576.9</ele>
        <time>2023-01-29T11:03:37+0100</time>
      </trkpt>
      <trkpt lat="43.14739" lon="2.6306">
        <ele>577.8</ele>
      </trkpt>
      <trkpt lat="43.14742" lon="2.63053">
        <ele>578.7</ele>
        <time>2023-01-29T11:03:28+0100</time>
      </trkpt>
      <trkpt lat="43.14744" lon="2.63048">
        <ele>579.3</ele>
        <time>2023-01-29T11:03:25+0100</time>
      </trkpt>
      <trkpt lat="43.14744" lon="2.63046">
        <ele>579.6</ele>
        <time>2023-01-29T11:03:24+0100</time>
      </trkpt>
      <trkpt lat="43.14745" lon="2.6304">
        <ele>580.2</ele>
        <time>2023-01-29T11:03:21+0100</time>
      </trkpt>
      <trkpt lat="43.14749" lon="2.63037">
        <ele>580.9</ele>
        <time>2023-01-29T11:03:18+0100</time>
      </trkpt>
      <trkpt lat="43.14756" lon="2.63031">
        <ele>580.7</ele>
        <time>2023-01-29T11:03:12+0100</time>
      </trkpt>
      <trkpt lat="43.14759" lon="2.63026">
        <ele>581</ele>
        <time>2023-01-29T11:03:09+0100</time>
      </trkpt>
      <trkpt lat="43.14765" lon="2.63024">
        <ele>580.5</ele>
      </trkpt>
      <trkpt lat="43.1477" lon="2.63023">
        <ele>580.1</ele>
        <time>2023-01-29T11:03:02+0100</time>
      </trkpt>
      <trkpt lat="43.14773" lon="2.63018">
        <ele>580.7</ele>
        <time>2023-01-29T11:02:59+0100</time>
      </trkpt>
      <trkpt lat="43.14776" lon="2.6301">
        <ele>582.1</ele>
        <time>2023-01-29T11:02:55+0100</time>
      </trkpt>
      <trkpt lat="43.14775" lon="2.63003">
        <ele>583.5</ele>
        <time>2023-01-29T11:02:52+0100</time>
      </trkpt>
      <trkpt lat="43.14776" lon="2.62996">
        <ele>584.8</ele>
        <time>2023-01-29T11:02:48+0100</time>
      </trkpt>
      <trkpt lat="43.14776" lon="2.62993">
        <ele>585.3</ele>
        <time>2023-01-29T11:02:46+0100</time>
      </trkpt>
      <trkpt lat="43.14776" lon="2.62991">
        <ele>585.6</ele>
        <time>2023-01-29T11:02:45+0100</time>
      </trkpt>
      <trkpt lat="43.14775" lon="2.62986">
        <ele>586.5</ele>
        <time>2023-01-29T11:02:42+0100</time>
      </trkpt>
      <trkpt lat="43.14775" lon="2.62982">
        <ele>587.2</ele>
        <time>2023-01-29T11:02:38+0100</time>
      </trkpt>
      <trkpt lat="43.14777" lon="2.62978">
        <ele>587.9</ele>
        <time>2023-01-29T11:02:34+0100</time>
      </trkpt>
      <trkpt lat="43.14777" lon="2.62977">
        <ele>588.1</ele>
        <time>2023-01-29T11:02:30+0100</time>
      </trkpt>
      <trkpt lat="43.14777" lon="2.62977">
        <ele>588.2</ele>
        <time>2023-01-29T11:02:29+0100</time>
      </trkpt>
      <trkpt lat="43.14778" lon="2.62974">
        <ele>588.7</ele>
        <time>2023-01-29T11:02:25+0100</time>
      </trkpt>
      <trkpt lat="43.1478" lon="2.62965">
        <ele>589.9</ele>
        <time>2023-01-29T11:02:19+0100</time>
      </trkpt>
      <trkpt lat="43.14779" lon="2.62958">
        <ele>591</ele>
        <time>2023-01-29T11:02:15+0100</time>
      </trkpt>
      <trkpt lat="43.1478" lon="2.62952">
        <ele>591.9</ele>
        <time>2023-01-29T11:02:12+0100</time>
      </trkpt>
      <trkpt lat="43.1478" lon="2.62944">
        <ele>593.1</ele>
        <time>2023-01-29T11:02:08+0100</time>
      </trkpt>
      <trkpt lat="43.14783" lon="2.62936">
        <ele>593.6</ele>
        <time>2023-01-29T11:02:03+0100</time>
      </trkpt>
      <trkpt lat="43.14788" lon="2.62927">
        <ele>594.2</ele>
        <time>2023-01-29T11:01:57+0100</time>
      </trkpt>
      <trkpt lat="43.14787" lon="2.62915">
        <ele>595</ele>
      </trkpt>
      <trkpt lat="43.14786" lon="2.62904">
        <ele>595.3</ele>
        <time>2023-01-29T11:01:45+0100</time>
      </trkpt>
      <trkpt lat="43.14787" lon="2.62895">
        <ele>595.5</ele>
      </trkpt>
      <trkpt lat="43.14788" lon="2.62886">
        <ele>595.7</ele>
        <time>2023-01-29T11:01:36+0100</time>
      </trkpt>
      <trkpt lat="43.1479" lon="2.62881">
        <ele>595.9</ele>
        <time>2023-01-29T11:01:33+0100</time>
      </trkpt>
      <trkpt lat="43.1479" lon="2.62879">
        <ele>595.9</ele>
        <time>2023-01-29T11:01:31+0100</time>
      </trkpt>
      <trkpt lat="43.14787" lon="2.6287">
        <ele>596.3</ele>
        <time>2023-01-29T11:01:26+0100</time>
      </trkpt>
      <trkpt lat="43.14784" lon="2.62866">
        <ele>596.6</ele>
        <time>2023-01-29T11:01:22+0100</time>
      </trkpt>
      <trkpt lat="43.14782" lon="2.62858">
        <ele>597.1</ele>
        <time>2023-01-29T11:01:17+0100</time>
      </trkpt>
      <trkpt lat="43.14782" lon="2.62854">
        <ele>597.3</ele>
        <time>2023-01-29T11:01:15+0100</time>
      </trkpt>
      <trkpt lat="43.14786" lon="2.62843">
        <ele>597.8</ele>
      </trkpt>
      <trkpt lat="43.1479" lon="2.62832">
        <ele>598.2</ele>
        <time>2023-01-29T11:01:05+0100</time>
      </trkpt>
      <trkpt lat="43.14788" lon="2.62826">
        <ele>598.5</ele>
      </trkpt>
      <trkpt lat="43.14787" lon="2.6282">
        <ele>598.8</ele>
      </trkpt>
      <trkpt lat="43.14785" lon="2.62814">
        <ele>599.2</ele>
      </trkpt>
      <trkpt lat="43.14784" lon="2.62807">
        <ele>599.5</ele>
        <time>2023-01-29T11:00:54+0100</time>
      </trkpt>
      <trkpt lat="43.14779" lon="2.62798">
        <ele>599.9</ele>
        <time>2023-01-29T10:59:11+0100</time>
      </trkpt>
      <trkpt lat="43.14778" lon="2.62796">
        <ele>600</ele>
        <time>2023-01-29T10:58:45+0100</time>
      </trkpt>
      <trkpt lat="43.14777" lon="2.62797">
        <ele>599.9</ele>
        <time>2023-01-29T10:58:41+0100</time>
      </trkpt>
      <trkpt lat="43.14778" lon="2.62798">
        <ele>600</ele>
        <time>2023-01-29T10:58:39+0100</time>
      </trkpt>
      <trkpt lat="43.14782" lon="2.62799">
        <ele>599.8</ele>
        <time>2023-01-29T10:58:35+0100</time>
      </trkpt>
      <trkpt lat="43.14781" lon="2.62799">
        <ele>599.8</ele>
        <time>2023-01-29T10:58:17+0100</time>
      </trkpt>
      <trkpt lat="43.14781" lon="2.628">
        <ele>599.8</ele>
        <time>2023-01-29T10:58:14+0100</time>
      </trkpt>
      <trkpt lat="43.14781" lon="2.62799">
        <ele>599.8</ele>
        <time>2023-01-29T10:58:08+0100</time>
      </trkpt>
      <trkpt lat="43.14781" lon="2.62799">
        <ele>599.8</ele>
        <time>2023-01-29T10:58:02+0100</time>
      </trkpt>
      <trkpt lat="43.14783" lon="2.62799">
        <ele>599.7</ele>
        <time>2023-01-29T10:57:55+0100</time>
      </trkpt>
      <trkpt lat="43.14784" lon="2.628">
        <ele>599.6</ele>
        <time>2023-01-29T10:57:43+0100</time>
      </trkpt>
      <trkpt lat="43.14784" lon="2.628">
        <ele>599.6</ele>
        <time>2023-01-29T10:57:40+0100</time>
      </trkpt>
      <trkpt lat="43.14784" lon="2.628">
        <ele>599.6</ele>
        <time>2023-01-29T10:57:37+0100</time>
      </trkpt>
      <trkpt lat="43.14782" lon="2.628">
        <ele>599.7</ele>
        <time>2023-01-29T10:57:31+0100</time>
      </trkpt>
      <trkpt lat="43.14782" lon="2.62801">
        <ele>599.7</ele>
        <time>2023-01-29T10:57:13+0100</time>
      </trkpt>
      <trkpt lat="43.14782" lon="2.62801">
        <ele>599.7</ele>
        <time>2023-01-29T10:57:11+0100</time>
      </trkpt>
      <trkpt lat="43.14786" lon="2.62797">
        <ele>599.5</ele>
        <time>2023-01-29T10:56:51+0100</time>
      </trkpt>
      <trkpt lat="43.14782" lon="2.62797">
        <ele>599.7</ele>
        <time>2023-01-29T10:56:30+0100</time>
      </trkpt>
      <trkpt lat="43.1478" lon="2.62793">
        <ele>599.9</ele>
        <time>2023-01-29T10:56:22+0100</time>
      </trkpt>
      <trkpt lat="43.1478" lon="2.62792">
        <ele>599.9</ele>
        <time>2023-01-29T10:56:21+0100</time>
      </trkpt>
      <trkpt lat="43.14776" lon="2.62788">
        <ele>599.8</ele>
      </trkpt>
      <trkpt lat="43.14772" lon="2.62784">
        <ele>599.5</ele>
      </trkpt>
      <trkpt lat="43.14769" lon="2.6278">
        <ele>599</ele>
      </trkpt>
      <trkpt lat="43.14765" lon="2.62776">
        <ele>598.4</ele>
        <time>2023-01-29T10:56:06+0100</time>
      </trkpt>
      <trkpt lat="43.14763" lon="2.62774">
        <ele>598</ele>
        <time>2023-01-29T10:56:04+0100</time>
      </trkpt>
      <trkpt lat="43.14761" lon="2.62771">
        <ele>597.6</ele>
        <time>2023-01-29T10:56:02+0100</time>
      </trkpt>
      <trkpt lat="43.14757" lon="2.62767">
        <ele>596.9</ele>
        <time>2023-01-29T10:55:59+0100</time>
      </trkpt>
      <trkpt lat="43.14749" lon="2.62766">
        <ele>596</ele>
      </trkpt>
      <trkpt lat="43.14742" lon="2.62764">
        <ele>594.7</ele>
        <time>2023-01-29T10:55:49+0100</time>
      </trkpt>
      <trkpt lat="43.14737" lon="2.62763">
        <ele>593.8</ele>
        <time>2023-01-29T10:55:45+0100</time>
      </trkpt>
      <trkpt lat="43.14736" lon="2.62763">
        <ele>593.6</ele>
        <time>2023-01-29T10:55:44+0100</time>
      </trkpt>
      <trkpt lat="43.14732" lon="2.62761">
        <ele>593</ele>
        <time>2023-01-29T10:55:41+0100</time>
      </trkpt>
      <trkpt lat="43.14729" lon="2.62758">
        <ele>592.2</ele>
        <time>2023-01-29T10:55:37+0100</time>
      </trkpt>
      <trkpt lat="43.14724" lon="2.62755">
        <ele>591.5</ele>
      </trkpt>
      <trkpt lat="43.1472" lon="2.62752">
        <ele>591.1</ele>
      </trkpt>
      <trkpt lat="43.14716" lon="2.62749">
        <ele>591.2</ele>
      </trkpt>
      <trkpt lat="43.14711" lon="2.62746">
        <ele>591.2</ele>
        <time>2023-01-29T10:55:23+0100</time>
      </trkpt>
      <trkpt lat="43.14707" lon="2.62741">
        <ele>591.1</ele>
      </trkpt>
      <trkpt lat="43.14703" lon="2.62737">
        <ele>590.9</ele>
        <time>2023-01-29T10:55:15+0100</time>
      </trkpt>
      <trkpt lat="43.14701" lon="2.62733">
        <ele>590.7</ele>
        <time>2023-01-29T10:55:12+0100</time>
      </trkpt>
      <trkpt lat="43.147" lon="2.62732">
        <ele>590.6</ele>
        <time>2023-01-29T10:55:11+0100</time>
      </trkpt>
      <trkpt lat="43.14698" lon="2.62724">
        <ele>590.1</ele>
        <time>2023-01-29T10:55:05+0100</time>
      </trkpt>
      <trkpt lat="43.14697" lon="2.62718">
        <ele>589.5</ele>
        <time>2023-01-29T10:55:01+0100</time>
      </trkpt>
      <trkpt lat="43.14693" lon="2.62708">
        <ele>588.4</ele>
        <time>2023-01-29T10:54:55+0100</time>
      </trkpt>
      <trkpt lat="43.14688" lon="2.62699">
        <ele>587.2</ele>
        <time>2023-01-29T10:54:48+0100</time>
      </trkpt>
      <trkpt lat="43.14686" lon="2.62693">
        <ele>586.6</ele>
      </trkpt>
      <trkpt lat="43.14683" lon="2.62688">
        <ele>586.4</ele>
      </trkpt>
      <trkpt lat="43.14681" lon="2.62682">
        <ele>586.3</ele>
      </trkpt>
      <trkpt lat="43.14678" lon="2.62676">
        <ele>586.3</ele>
        <time>2023-01-29T10:54:39+0100</time>
      </trkpt>
      <trkpt lat="43.14677" lon="2.62666">
        <ele>586.3</ele>
      </trkpt>
      <trkpt lat="43.14676" lon="2.62655">
        <ele>586.8</ele>
        <time>2023-01-29T10:54:32+0100</time>
      </trkpt>
      <trkpt lat="43.14675" lon="2.62645">
        <ele>587.1</ele>
      </trkpt>
      <trkpt lat="43.14675" lon="2.62636">
        <ele>587.6</ele>
        <time>2023-01-29T10:54:26+0100</time>
      </trkpt>
      <trkpt lat="43.14671" lon="2.62631">
        <ele>588.2</ele>
      </trkpt>
      <trkpt lat="43.14668" lon="2.62627">
        <ele>588.8</ele>
      </trkpt>
      <trkpt lat="43.14664" lon="2.62622">
        <ele>589.1</ele>
      </trkpt>
      <trkpt lat="43.14661" lon="2.62618">
        <ele>589.3</ele>
        <time>2023-01-29T10:54:17+0100</time>
      </trkpt>
      <trkpt lat="43.14658" lon="2.62613">
        <ele>589.5</ele>
      </trkpt>
      <trkpt lat="43.14655" lon="2.62609">
        <ele>589.7</ele>
      </trkpt>
      <trkpt lat="43.14652" lon="2.62604">
        <ele>589.8</ele>
      </trkpt>
      <trkpt lat="43.14649" lon="2.62599">
        <ele>589.9</ele>
        <time>2023-01-29T10:54:08+0100</time>
      </trkpt>
      <trkpt lat="43.14646" lon="2.62594">
        <ele>590</ele>
      </trkpt>
      <trkpt lat="43.14643" lon="2.62588">
        <ele>590.1</ele>
      </trkpt>
      <trkpt lat="43.14641" lon="2.62582">
        <ele>590.1</ele>
      </trkpt>
      <trkpt lat="43.14638" lon="2.62577">
        <ele>589.9</ele>
        <time>2023-01-29T10:53:59+0100</time>
      </trkpt>
      <trkpt lat="43.14636" lon="2.62571">
        <ele>589.6</ele>
      </trkpt>
      <trkpt lat="43.14634" lon="2.62565">
        <ele>589.3</ele>
      </trkpt>
      <trkpt lat="43.14632" lon="2.62559">
        <ele>589.1</ele>
      </trkpt>
      <trkpt lat="43.1463" lon="2.62553">
        <ele>588.8</ele>
        <time>2023-01-29T10:53:50+0100</time>
      </trkpt>
      <trkpt lat="43.1463" lon="2.6255">
        <ele>588.6</ele>
        <time>2023-01-29T10:53:49+0100</time>
      </trkpt>
      <trkpt lat="43.14628" lon="2.62544">
        <ele>588.5</ele>
      </trkpt>
      <trkpt lat="43.14627" lon="2.62537">
        <ele>588.3</ele>
      </trkpt>
      <trkpt lat="43.14626" lon="2.62531">
        <ele>588.2</ele>
      </trkpt>
      <trkpt lat="43.14625" lon="2.62525">
        <ele>587.9</ele>
        <time>2023-01-29T10:53:40+0100</time>
      </trkpt>
      <trkpt lat="43.14625" lon="2.62514">
        <ele>587.4</ele>
      </trkpt>
      <trkpt lat="43.14624" lon="2.62503">
        <ele>586.9</ele>
        <time>2023-01-29T10:53:32+0100</time>
      </trkpt>
      <trkpt lat="43.14625" lon="2.62492">
        <ele>586.4</ele>
        <time>2023-01-29T10:53:27+0100</time>
      </trkpt>
      <trkpt lat="43.14625" lon="2.62482">
        <ele>585.7</ele>
      </trkpt>
      <trkpt lat="43.14625" lon="2.62472">
        <ele>585</ele>
        <time>2023-01-29T10:53:19+0100</time>
      </trkpt>
      <trkpt lat="43.14625" lon="2.6246">
        <ele>584.3</ele>
      </trkpt>
      <trkpt lat="43.14624" lon="2.62448">
        <ele>583.6</ele>
        <time>2023-01-29T10:53:10+0100</time>
      </trkpt>
      <trkpt lat="43.14625" lon="2.62439">
        <ele>583.3</ele>
      </trkpt>
      <trkpt lat="43.14625" lon="2.6243">
        <ele>583</ele>
        <time>2023-01-29T10:53:01+0100</time>
      </trkpt>
      <trkpt lat="43.14626" lon="2.62421">
        <ele>582.7</ele>
      </trkpt>
      <trkpt lat="43.14626" lon="2.62412">
        <ele>582.2</ele>
        <time>2023-01-29T10:52:51+0100</time>
      </trkpt>
      <trkpt lat="43.14626" lon="2.62407">
        <ele>581.8</ele>
        <time>2023-01-29T10:52:48+0100</time>
      </trkpt>
      <trkpt lat="43.14629" lon="2.62398">
        <ele>581.1</ele>
        <time>2023-01-29T10:52:42+0100</time>
      </trkpt>
      <trkpt lat="43.1463" lon="2.6239">
        <ele>580.4</ele>
      </trkpt>
      <trkpt lat="43.14631" lon="2.62382">
        <ele>579.9</ele>
        <time>2023-01-29T10:52:33+0100</time>
      </trkpt>
      <trkpt lat="43.1463" lon="2.62374">
        <ele>579.3</ele>
        <time>2023-01-29T10:52:29+0100</time>
      </trkpt>
      <trkpt lat="43.1463" lon="2.62365">
        <ele>578.6</ele>
      </trkpt>
      <trkpt lat="43.14629" lon="2.62355">
        <ele>577.9</ele>
        <time>2023-01-29T10:52:18+0100</time>
      </trkpt>
      <trkpt lat="43.14628" lon="2.62349">
        <ele>577.3</ele>
        <time>2023-01-29T10:52:14+0100</time>
      </trkpt>
      <trkpt lat="43.14628" lon="2.62341">
        <ele>576.8</ele>
        <time>2023-01-29T10:52:09+0100</time>
      </trkpt>
      <trkpt lat="43.14627" lon="2.62338">
        <ele>576.5</ele>
        <time>2023-01-29T10:52:07+0100</time>
      </trkpt>
      <trkpt lat="43.14628" lon="2.62332">
        <ele>576.1</ele>
      </trkpt>
      <trkpt lat="43.14628" lon="2.62325">
        <ele>575.9</ele>
      </trkpt>
      <trkpt lat="43.14629" lon="2.62319">
        <ele>575.8</ele>
      </trkpt>
      <trkpt lat="43.14629" lon="2.62313">
        <ele>575.6</ele>
        <time>2023-01-29T10:51:53+0100</time>
      </trkpt>
      <trkpt lat="43.1463" lon="2.62306">
        <ele>575.4</ele>
      </trkpt>
      <trkpt lat="43.14631" lon="2.623">
        <ele>575.2</ele>
      </trkpt>
      <trkpt lat="43.14632" lon="2.62293">
        <ele>575.1</ele>
      </trkpt>
      <trkpt lat="43.14633" lon="2.62287">
        <ele>574.9</ele>
        <time>2023-01-29T10:51:39+0100</time>
      </trkpt>
      <trkpt lat="43.14633" lon="2.62281">
        <ele>574.7</ele>
      </trkpt>
      <trkpt lat="43.14633" lon="2.62275">
        <ele>574.6</ele>
      </trkpt>
      <trkpt lat="43.14633" lon="2.62268">
        <ele>574.7</ele>
      </trkpt>
      <trkpt lat="43.14633" lon="2.62262">
        <ele>574.7</ele>
        <time>2023-01-29T10:51:27+0100</time>
      </trkpt>
      <trkpt lat="43.14632" lon="2.62252">
        <ele>574.7</ele>
      </trkpt>
      <trkpt lat="43.14631" lon="2.62241">
        <ele>575.1</ele>
        <time>2023-01-29T10:51:17+0100</time>
      </trkpt>
      <trkpt lat="43.14631" lon="2.62235">
        <ele>575.4</ele>
      </trkpt>
      <trkpt lat="43.14631" lon="2.62228">
        <ele>575.7</ele>
        <time>2023-01-29T10:51:11+0100</time>
      </trkpt>
      <trkpt lat="43.14631" lon="2.62221">
        <ele>576.1</ele>
      </trkpt>
      <trkpt lat="43.14631" lon="2.62215">
        <ele>576.6</ele>
        <time>2023-01-29T10:51:04+0100</time>
      </trkpt>
      <trkpt lat="43.1463" lon="2.62204">
        <ele>577.6</ele>
        <time>2023-01-29T10:50:58+0100</time>
      </trkpt>
      <trkpt lat="43.14629" lon="2.62195">
        <ele>578.3</ele>
        <time>2023-01-29T10:50:54+0100</time>
      </trkpt>
      <trkpt lat="43.14629" lon="2.62188">
        <ele>579</ele>
        <time>2023-01-29T10:50:51+0100</time>
      </trkpt>
      <trkpt lat="43.14629" lon="2.62186">
        <ele>579.2</ele>
        <time>2023-01-29T10:50:50+0100</time>
      </trkpt>
      <trkpt lat="43.14627" lon="2.62179">
        <ele>580</ele>
        <time>2023-01-29T10:50:46+0100</time>
      </trkpt>
      <trkpt lat="43.14626" lon="2.62175">
        <ele>580.5</ele>
        <time>2023-01-29T10:50:43+0100</time>
      </trkpt>
      <trkpt lat="43.14625" lon="2.62169">
        <ele>581.2</ele>
        <time>2023-01-29T10:50:39+0100</time>
      </trkpt>
      <trkpt lat="43.14624" lon="2.62157">
        <ele>582.1</ele>
      </trkpt>
      <trkpt lat="43.14622" lon="2.62145">
        <ele>582.9</ele>
        <time>2023-01-29T10:50:23+0100</time>
      </trkpt>
      <trkpt lat="43.14623" lon="2.62139">
        <ele>583.2</ele>
      </trkpt>
      <trkpt lat="43.14623" lon="2.62132">
        <ele>583.3</ele>
      </trkpt>
      <trkpt lat="43.14623" lon="2.62126">
        <ele>583.4</ele>
      </trkpt>
      <trkpt lat="43.14623" lon="2.6212">
        <ele>583.4</ele>
        <time>2023-01-29T10:50:10+0100</time>
      </trkpt>
      <trkpt lat="43.14622" lon="2.62114">
        <ele>583.6</ele>
      </trkpt>
      <trkpt lat="43.14621" lon="2.62107">
        <ele>583.6</ele>
      </trkpt>
      <trkpt lat="43.1462" lon="2.62101">
        <ele>583.7</ele>
      </trkpt>
      <trkpt lat="43.14619" lon="2.62095">
        <ele>583.7</ele>
        <time>2023-01-29T10:49:56+0100</time>
      </trkpt>
      <trkpt lat="43.14616" lon="2.62085">
        <ele>583.8</ele>
      </trkpt>
      <trkpt lat="43.14612" lon="2.62075">
        <ele>583.7</ele>
        <time>2023-01-29T10:49:45+0100</time>
      </trkpt>
      <trkpt lat="43.14612" lon="2.62063">
        <ele>583.3</ele>
      </trkpt>
      <trkpt lat="43.14611" lon="2.62052">
        <ele>582.7</ele>
        <time>2023-01-29T10:49:32+0100</time>
      </trkpt>
      <trkpt lat="43.14611" lon="2.62045">
        <ele>582.2</ele>
      </trkpt>
      <trkpt lat="43.14611" lon="2.62038">
        <ele>581.7</ele>
        <time>2023-01-29T10:49:25+0100</time>
      </trkpt>
      <trkpt lat="43.1461" lon="2.62029">
        <ele>581</ele>
        <time>2023-01-29T10:49:20+0100</time>
      </trkpt>
      <trkpt lat="43.14611" lon="2.62018">
        <ele>580.6</ele>
      </trkpt>
      <trkpt lat="43.14611" lon="2.62008">
        <ele>580.3</ele>
        <time>2023-01-29T10:49:08+0100</time>
      </trkpt>
      <trkpt lat="43.14609" lon="2.62">
        <ele>579.8</ele>
      </trkpt>
      <trkpt lat="43.14607" lon="2.61992">
        <ele>579.1</ele>
        <time>2023-01-29T10:48:59+0100</time>
      </trkpt>
      <trkpt lat="43.14606" lon="2.61984">
        <ele>578.4</ele>
      </trkpt>
      <trkpt lat="43.14605" lon="2.61976">
        <ele>577.8</ele>
        <time>2023-01-29T10:48:49+0100</time>
      </trkpt>
      <trkpt lat="43.14605" lon="2.61968">
        <ele>577.4</ele>
      </trkpt>
      <trkpt lat="43.14605" lon="2.61959">
        <ele>577.1</ele>
        <time>2023-01-29T10:48:40+0100</time>
      </trkpt>
      <trkpt lat="43.14603" lon="2.61951">
        <ele>576.7</ele>
      </trkpt>
      <trkpt lat="43.14602" lon="2.61943">
        <ele>576.2</ele>
        <time>2023-01-29T10:48:29+0100</time>
      </trkpt>
      <trkpt lat="43.14601" lon="2.61936">
        <ele>575.6</ele>
      </trkpt>
      <trkpt lat="43.14599" lon="2.61929">
        <ele>575</ele>
        <time>2023-01-29T10:48:20+0100</time>
      </trkpt>
      <trkpt lat="43.14598" lon="2.61923">
        <ele>574.5</ele>
      </trkpt>
      <trkpt lat="43.14596" lon="2.61917">
        <ele>573.9</ele>
        <time>2023-01-29T10:48:12+0100</time>
      </trkpt>
      <trkpt lat="43.14593" lon="2.61906">
        <ele>572.8</ele>
        <time>2023-01-29T10:48:06+0100</time>
      </trkpt>
      <trkpt lat="43.14591" lon="2.61898">
        <ele>572</ele>
        <time>2023-01-29T10:48:01+0100</time>
      </trkpt>
      <trkpt lat="43.1459" lon="2.61887">
        <ele>571.1</ele>
        <time>2023-01-29T10:47:53+0100</time>
      </trkpt>
      <trkpt lat="43.14589" lon="2.61879">
        <ele>570.4</ele>
        <time>2023-01-29T10:47:48+0100</time>
      </trkpt>
      <trkpt lat="43.14589" lon="2.61871">
        <ele>569.6</ele>
        <time>2023-01-29T10:47:43+0100</time>
      </trkpt>
      <trkpt lat="43.14589" lon="2.61865">
        <ele>569.1</ele>
      </trkpt>
      <trkpt lat="43.1459" lon="2.61858">
        <ele>568.5</ele>
        <time>2023-01-29T10:47:35+0100</time>
      </trkpt>
      <trkpt lat="43.1459" lon="2.61857">
        <ele>568.4</ele>
        <time>2023-01-29T10:47:34+0100</time>
      </trkpt>
      <trkpt lat="43.14591" lon="2.61848">
        <ele>567.6</ele>
        <time>2023-01-29T10:47:26+0100</time>
      </trkpt>
      <trkpt lat="43.14591" lon="2.61844">
        <ele>567.3</ele>
        <time>2023-01-29T10:47:22+0100</time>
      </trkpt>
      <trkpt lat="43.1459" lon="2.61837">
        <ele>566.8</ele>
      </trkpt>
      <trkpt lat="43.14589" lon="2.6183">
        <ele>566.3</ele>
        <time>2023-01-29T10:47:11+0100</time>
      </trkpt>
      <trkpt lat="43.14589" lon="2.61828">
        <ele>566.2</ele>
        <time>2023-01-29T10:47:10+0100</time>
      </trkpt>
      <trkpt lat="43.1459" lon="2.61822">
        <ele>565.8</ele>
      </trkpt>
      <trkpt lat="43.14591" lon="2.61816">
        <ele>565.4</ele>
      </trkpt>
      <trkpt lat="43.14591" lon="2.61809">
        <ele>565</ele>
      </trkpt>
      <trkpt lat="43.14592" lon="2.61803">
        <ele>564.7</ele>
        <time>2023-01-29T10:46:58+0100</time>
      </trkpt>
      <trkpt lat="43.14591" lon="2.61797">
        <ele>564.6</ele>
      </trkpt>
      <trkpt lat="43.1459" lon="2.61791">
        <ele>564.6</ele>
      </trkpt>
      <trkpt lat="43.1459" lon="2.61785">
        <ele>564.6</ele>
      </trkpt>
      <trkpt lat="43.14589" lon="2.61779">
        <ele>564.6</ele>
        <time>2023-01-29T10:46:48+0100</time>
      </trkpt>
      <trkpt lat="43.14587" lon="2.61769">
        <ele>564.7</ele>
        <time>2023-01-29T10:46:41+0100</time>
      </trkpt>
      <trkpt lat="43.14587" lon="2.61768">
        <ele>564.7</ele>
        <time>2023-01-29T10:46:40+0100</time>
      </trkpt>
      <trkpt lat="43.14584" lon="2.61758">
        <ele>564.9</ele>
      </trkpt>
      <trkpt lat="43.14581" lon="2.61747">
        <ele>564.8</ele>
        <time>2023-01-29T10:46:19+0100</time>
      </trkpt>
      <trkpt lat="43.14578" lon="2.61737">
        <ele>564.3</ele>
      </trkpt>
      <trkpt lat="43.14575" lon="2.61727">
        <ele>563.8</ele>
        <time>2023-01-29T10:45:42+0100</time>
      </trkpt>
      <trkpt lat="43.14577" lon="2.61726">
        <ele>564.1</ele>
        <time>2023-01-29T10:45:33+0100</time>
      </trkpt>
      <trkpt lat="43.1458" lon="2.61724">
        <ele>564.5</ele>
        <time>2023-01-29T10:45:29+0100</time>
        <extensions>
          <visugpx:TrkExtension xmlns:visugpx="https://www.visugpx.com/editgpx/">
            <visugpx:node>1</visugpx:node>
            </visugpx:TrkExtension>
        </extensions>
      </trkpt>
      <trkpt lat="43.14579" lon="2.61715">
        <ele>564.1</ele>
      </trkpt>
      <trkpt lat="43.14578" lon="2.61706">
        <ele>563.6</ele>
      </trkpt>
      <trkpt lat="43.14577" lon="2.61698">
        <ele>563.2</ele>
      </trkpt>
      <trkpt lat="43.14576" lon="2.61689">
        <ele>562.4</ele>
      </trkpt>
      <trkpt lat="43.14575" lon="2.6168">
        <ele>561.4</ele>
      </trkpt>
      <trkpt lat="43.14574" lon="2.61671">
        <ele>560.5</ele>
      </trkpt>
      <trkpt lat="43.14573" lon="2.61663">
        <ele>559.7</ele>
      </trkpt>
      <trkpt lat="43.14573" lon="2.61654">
        <ele>559.1</ele>
      </trkpt>
      <trkpt lat="43.14572" lon="2.61645">
        <ele>558.5</ele>
      </trkpt>
      <trkpt lat="43.14571" lon="2.61636">
        <ele>557.9</ele>
      </trkpt>
      <trkpt lat="43.1457" lon="2.61628">
        <ele>557.2</ele>
      </trkpt>
      <trkpt lat="43.14569" lon="2.61619">
        <ele>556.5</ele>
      </trkpt>
      <trkpt lat="43.14568" lon="2.6161">
        <ele>555.9</ele>
      </trkpt>
      <trkpt lat="43.14567" lon="2.61601">
        <ele>554.9</ele>
      </trkpt>
      <trkpt lat="43.14566" lon="2.61592">
        <ele>554</ele>
      </trkpt>
      <trkpt lat="43.14565" lon="2.61584">
        <ele>553</ele>
        <time>2019-03-03T10:53:57+0100</time>
      </trkpt>
      <trkpt lat="43.14557" lon="2.61579">
        <ele>552.8</ele>
        <time>2019-03-03T10:53:50+0100</time>
      </trkpt>
      <trkpt lat="43.14552" lon="2.61569">
        <ele>551.5</ele>
        <time>2019-03-03T10:53:43+0100</time>
      </trkpt>
      <trkpt lat="43.14547" lon="2.61562">
        <ele>550.1</ele>
      </trkpt>
      <trkpt lat="43.14543" lon="2.61554">
        <ele>548.7</ele>
        <time>2019-03-03T10:53:33+0100</time>
      </trkpt>
      <trkpt lat="43.14542" lon="2.61547">
        <ele>548</ele>
      </trkpt>
      <trkpt lat="43.14541" lon="2.61541">
        <ele>547.3</ele>
        <time>2019-03-03T10:53:20+0100</time>
      </trkpt>
      <trkpt lat="43.1454" lon="2.61534">
        <ele>546.6</ele>
      </trkpt>
      <trkpt lat="43.14538" lon="2.61528">
        <ele>545.9</ele>
        <time>2019-03-03T10:53:12+0100</time>
      </trkpt>
      <trkpt lat="43.14538" lon="2.61524">
        <ele>545.8</ele>
        <time>2019-03-03T10:53:08+0100</time>
      </trkpt>
      <trkpt lat="43.14537" lon="2.61518">
        <ele>545.5</ele>
      </trkpt>
      <trkpt lat="43.14536" lon="2.61511">
        <ele>545.2</ele>
        <time>2019-03-03T10:53:01+0100</time>
      </trkpt>
      <trkpt lat="43.14536" lon="2.615">
        <ele>545.1</ele>
      </trkpt>
      <trkpt lat="43.14536" lon="2.61489">
        <ele>544.9</ele>
        <time>2019-03-03T10:52:52+0100</time>
      </trkpt>
      <trkpt lat="43.14537" lon="2.61485">
        <ele>545</ele>
        <time>2019-03-03T10:52:50+0100</time>
      </trkpt>
      <trkpt lat="43.14532" lon="2.61475">
        <ele>544.3</ele>
        <time>2019-03-03T10:52:45+0100</time>
      </trkpt>
      <trkpt lat="43.14529" lon="2.61469">
        <ele>544</ele>
      </trkpt>
      <trkpt lat="43.14526" lon="2.61462">
        <ele>543.1</ele>
        <time>2019-03-03T10:52:39+0100</time>
      </trkpt>
      <trkpt lat="43.14524" lon="2.61452">
        <ele>542.2</ele>
      </trkpt>
      <trkpt lat="43.14522" lon="2.61442">
        <ele>541.3</ele>
        <time>2019-03-03T10:52:31+0100</time>
      </trkpt>
      <trkpt lat="43.14522" lon="2.61436">
        <ele>540.9</ele>
      </trkpt>
      <trkpt lat="43.14521" lon="2.61429">
        <ele>540.5</ele>
      </trkpt>
      <trkpt lat="43.14521" lon="2.61423">
        <ele>540.2</ele>
      </trkpt>
      <trkpt lat="43.1452" lon="2.61416">
        <ele>539.9</ele>
      </trkpt>
      <trkpt lat="43.1452" lon="2.6141">
        <ele>539.8</ele>
      </trkpt>
      <trkpt lat="43.14519" lon="2.61403">
        <ele>539.8</ele>
      </trkpt>
      <trkpt lat="43.14519" lon="2.61397">
        <ele>539.7</ele>
      </trkpt>
      <trkpt lat="43.14518" lon="2.61391">
        <ele>539.6</ele>
        <time>2019-03-03T10:52:12+0100</time>
      </trkpt>
      <trkpt lat="43.14517" lon="2.61382">
        <ele>539.4</ele>
      </trkpt>
      <trkpt lat="43.14516" lon="2.61374">
        <ele>539.3</ele>
        <time>2019-03-03T10:52:06+0100</time>
      </trkpt>
      <trkpt lat="43.14514" lon="2.61362">
        <ele>539</ele>
      </trkpt>
      <trkpt lat="43.14512" lon="2.61351">
        <ele>538.8</ele>
      </trkpt>
      <trkpt lat="43.1451" lon="2.6134">
        <ele>538.6</ele>
      </trkpt>
      <trkpt lat="43.14508" lon="2.61328">
        <ele>538.3</ele>
        <time>2019-03-03T10:51:49+0100</time>
      </trkpt>
      <trkpt lat="43.14507" lon="2.61316">
        <ele>537.6</ele>
        <time>2019-03-03T10:51:42+0100</time>
      </trkpt>
      <trkpt lat="43.14508" lon="2.6131">
        <ele>537.2</ele>
      </trkpt>
      <trkpt lat="43.14509" lon="2.61303">
        <ele>536.9</ele>
        <time>2019-03-03T10:51:35+0100</time>
      </trkpt>
      <trkpt lat="43.14508" lon="2.61294">
        <ele>536.6</ele>
        <time>2019-03-03T10:51:30+0100</time>
      </trkpt>
      <trkpt lat="43.14508" lon="2.61283">
        <ele>536.2</ele>
        <time>2019-03-03T10:51:24+0100</time>
      </trkpt>
      <trkpt lat="43.14508" lon="2.61276">
        <ele>535.8</ele>
      </trkpt>
      <trkpt lat="43.14508" lon="2.61268">
        <ele>535.1</ele>
        <time>2019-03-03T10:51:16+0100</time>
      </trkpt>
      <trkpt lat="43.14508" lon="2.61267">
        <ele>534.9</ele>
        <time>2019-03-03T10:51:15+0100</time>
      </trkpt>
      <trkpt lat="43.14503" lon="2.6126">
        <ele>534.2</ele>
      </trkpt>
      <trkpt lat="43.14499" lon="2.61253">
        <ele>533.4</ele>
        <time>2019-03-03T10:51:07+0100</time>
      </trkpt>
      <trkpt lat="43.14497" lon="2.61247">
        <ele>533</ele>
      </trkpt>
      <trkpt lat="43.14496" lon="2.61241">
        <ele>532.9</ele>
        <time>2019-03-03T10:51:01+0100</time>
      </trkpt>
      <trkpt lat="43.14492" lon="2.61237">
        <ele>532.7</ele>
        <time>2019-03-03T10:50:58+0100</time>
      </trkpt>
      <trkpt lat="43.1449" lon="2.61235">
        <ele>532.6</ele>
        <time>2019-03-03T10:50:56+0100</time>
      </trkpt>
      <trkpt lat="43.14489" lon="2.61233">
        <ele>532.5</ele>
        <time>2019-03-03T10:50:54+0100</time>
      </trkpt>
      <trkpt lat="43.14488" lon="2.6123">
        <ele>532.4</ele>
        <time>2019-03-03T10:50:52+0100</time>
      </trkpt>
      <trkpt lat="43.14486" lon="2.61227">
        <ele>532.2</ele>
        <time>2019-03-03T10:50:50+0100</time>
      </trkpt>
      <trkpt lat="43.14484" lon="2.61226">
        <ele>532</ele>
        <time>2019-03-03T10:50:48+0100</time>
      </trkpt>
      <trkpt lat="43.14483" lon="2.61223">
        <ele>531.8</ele>
        <time>2019-03-03T10:50:45+0100</time>
      </trkpt>
      <trkpt lat="43.14482" lon="2.61216">
        <ele>530.8</ele>
        <time>2019-03-03T10:50:40+0100</time>
      </trkpt>
      <trkpt lat="43.1448" lon="2.61209">
        <ele>529.9</ele>
        <time>2019-03-03T10:50:35+0100</time>
      </trkpt>
      <trkpt lat="43.14479" lon="2.61207">
        <ele>529.3</ele>
        <time>2019-03-03T10:50:33+0100</time>
      </trkpt>
      <trkpt lat="43.14477" lon="2.61201">
        <ele>528.4</ele>
        <time>2019-03-03T10:50:29+0100</time>
      </trkpt>
      <trkpt lat="43.14474" lon="2.61194">
        <ele>527.1</ele>
        <time>2019-03-03T10:50:23+0100</time>
      </trkpt>
      <trkpt lat="43.14473" lon="2.61192">
        <ele>526.9</ele>
        <time>2019-03-03T10:50:22+0100</time>
      </trkpt>
      <trkpt lat="43.14474" lon="2.61186">
        <ele>526.2</ele>
        <time>2019-03-03T10:50:17+0100</time>
      </trkpt>
      <trkpt lat="43.14474" lon="2.61176">
        <ele>525.2</ele>
        <time>2019-03-03T10:50:11+0100</time>
      </trkpt>
      <trkpt lat="43.14471" lon="2.61167">
        <ele>524</ele>
      </trkpt>
      <trkpt lat="43.14468" lon="2.61158">
        <ele>523.3</ele>
        <time>2019-03-03T10:50:01+0100</time>
      </trkpt>
      <trkpt lat="43.1447" lon="2.61149">
        <ele>522.6</ele>
      </trkpt>
      <trkpt lat="43.14472" lon="2.61139">
        <ele>522</ele>
        <time>2019-03-03T10:49:50+0100</time>
      </trkpt>
      <trkpt lat="43.14471" lon="2.61127">
        <ele>521.1</ele>
        <time>2019-03-03T10:49:44+0100</time>
      </trkpt>
      <trkpt lat="43.1447" lon="2.61119">
        <ele>520.5</ele>
      </trkpt>
      <trkpt lat="43.14468" lon="2.61112">
        <ele>519.9</ele>
        <time>2019-03-03T10:49:36+0100</time>
      </trkpt>
      <trkpt lat="43.14467" lon="2.61103">
        <ele>519.1</ele>
      </trkpt>
      <trkpt lat="43.14466" lon="2.61094">
        <ele>518.4</ele>
        <time>2019-03-03T10:49:27+0100</time>
      </trkpt>
      <trkpt lat="43.14463" lon="2.61082">
        <ele>517.3</ele>
        <time>2019-03-03T10:49:20+0100</time>
      </trkpt>
      <trkpt lat="43.14461" lon="2.61077">
        <ele>516.7</ele>
      </trkpt>
      <trkpt lat="43.14459" lon="2.61071">
        <ele>516.2</ele>
        <time>2019-03-03T10:49:13+0100</time>
      </trkpt>
      <trkpt lat="43.14458" lon="2.61063">
        <ele>515.5</ele>
        <time>2019-03-03T10:49:08+0100</time>
      </trkpt>
      <trkpt lat="43.14456" lon="2.61055">
        <ele>514.8</ele>
      </trkpt>
      <trkpt lat="43.14453" lon="2.61048">
        <ele>513.8</ele>
        <time>2019-03-03T10:48:59+0100</time>
      </trkpt>
      <trkpt lat="43.14454" lon="2.6104">
        <ele>513</ele>
      </trkpt>
      <trkpt lat="43.14454" lon="2.61033">
        <ele>512.2</ele>
        <time>2019-03-03T10:48:50+0100</time>
      </trkpt>
      <trkpt lat="43.14456" lon="2.61025">
        <ele>511.4</ele>
        <time>2019-03-03T10:48:45+0100</time>
      </trkpt>
      <trkpt lat="43.14456" lon="2.61015">
        <ele>510.1</ele>
        <time>2019-03-03T10:48:39+0100</time>
      </trkpt>
      <trkpt lat="43.14457" lon="2.61012">
        <ele>509.7</ele>
        <time>2019-03-03T10:48:37+0100</time>
      </trkpt>
      <trkpt lat="43.14457" lon="2.61006">
        <ele>508.9</ele>
        <time>2019-03-03T10:48:33+0100</time>
      </trkpt>
      <trkpt lat="43.14457" lon="2.61">
        <ele>508</ele>
        <time>2019-03-03T10:48:29+0100</time>
      </trkpt>
      <trkpt lat="43.14457" lon="2.60998">
        <ele>507.8</ele>
        <time>2019-03-03T10:48:28+0100</time>
      </trkpt>
      <trkpt lat="43.14453" lon="2.60989">
        <ele>506.8</ele>
        <time>2019-03-03T10:48:21+0100</time>
      </trkpt>
      <trkpt lat="43.14451" lon="2.60984">
        <ele>506.3</ele>
        <time>2019-03-03T10:48:16+0100</time>
      </trkpt>
      <trkpt lat="43.1445" lon="2.60977">
        <ele>505.7</ele>
        <time>2019-03-03T10:48:12+0100</time>
      </trkpt>
      <trkpt lat="43.1445" lon="2.60976">
        <ele>505.6</ele>
        <time>2019-03-03T10:48:11+0100</time>
      </trkpt>
      <trkpt lat="43.14446" lon="2.60971">
        <ele>505.6</ele>
        <time>2019-03-03T10:48:08+0100</time>
      </trkpt>
      <trkpt lat="43.14445" lon="2.60966">
        <ele>504.8</ele>
        <time>2019-03-03T10:48:04+0100</time>
      </trkpt>
      <trkpt lat="43.14444" lon="2.60964">
        <ele>504.6</ele>
        <time>2019-03-03T10:48:03+0100</time>
      </trkpt>
      <trkpt lat="43.14445" lon="2.60962">
        <ele>504.1</ele>
        <time>2019-03-03T10:48:01+0100</time>
      </trkpt>
      <trkpt lat="43.14445" lon="2.6096">
        <ele>503.6</ele>
        <time>2019-03-03T10:47:59+0100</time>
      </trkpt>
      <trkpt lat="43.14446" lon="2.60958">
        <ele>503.1</ele>
        <time>2019-03-03T10:47:57+0100</time>
      </trkpt>
      <trkpt lat="43.14447" lon="2.60954">
        <ele>502.3</ele>
        <time>2019-03-03T10:47:54+0100</time>
      </trkpt>
      <trkpt lat="43.14448" lon="2.60952">
        <ele>502</ele>
        <time>2019-03-03T10:47:53+0100</time>
      </trkpt>
      <trkpt lat="43.14448" lon="2.60947">
        <ele>501.1</ele>
        <time>2019-03-03T10:47:49+0100</time>
      </trkpt>
      <trkpt lat="43.14447" lon="2.60941">
        <ele>500.2</ele>
        <time>2019-03-03T10:47:45+0100</time>
      </trkpt>
      <trkpt lat="43.14447" lon="2.60936">
        <ele>499.3</ele>
        <time>2019-03-03T10:47:41+0100</time>
      </trkpt>
      <trkpt lat="43.14448" lon="2.60932">
        <ele>498.4</ele>
        <time>2019-03-03T10:47:37+0100</time>
      </trkpt>
      <trkpt lat="43.14448" lon="2.60926">
        <ele>497.5</ele>
        <time>2019-03-03T10:47:32+0100</time>
      </trkpt>
      <trkpt lat="43.14449" lon="2.60922">
        <ele>496.7</ele>
        <time>2019-03-03T10:47:28+0100</time>
      </trkpt>
      <trkpt lat="43.14452" lon="2.60915">
        <ele>495.5</ele>
        <time>2019-03-03T10:47:23+0100</time>
      </trkpt>
      <trkpt lat="43.14457" lon="2.60905">
        <ele>494</ele>
        <time>2019-03-03T10:47:16+0100</time>
      </trkpt>
      <trkpt lat="43.14458" lon="2.60894">
        <ele>492.6</ele>
        <time>2019-03-03T10:47:10+0100</time>
      </trkpt>
      <trkpt lat="43.1446" lon="2.60884">
        <ele>491.4</ele>
        <time>2019-03-03T10:47:05+0100</time>
      </trkpt>
      <trkpt lat="43.14462" lon="2.6088">
        <ele>490.9</ele>
        <time>2019-03-03T10:47:02+0100</time>
      </trkpt>
      <trkpt lat="43.14462" lon="2.60873">
        <ele>490.1</ele>
        <time>2019-03-03T10:46:58+0100</time>
      </trkpt>
      <trkpt lat="43.14459" lon="2.60864">
        <ele>488.9</ele>
        <time>2019-03-03T10:46:52+0100</time>
      </trkpt>
      <trkpt lat="43.14457" lon="2.60857">
        <ele>488</ele>
        <time>2019-03-03T10:46:47+0100</time>
      </trkpt>
      <trkpt lat="43.14455" lon="2.60846">
        <ele>486.8</ele>
        <time>2019-03-03T10:46:40+0100</time>
      </trkpt>
      <trkpt lat="43.14457" lon="2.6084">
        <ele>486.2</ele>
      </trkpt>
      <trkpt lat="43.14459" lon="2.60834">
        <ele>485.5</ele>
        <time>2019-03-03T10:46:33+0100</time>
      </trkpt>
      <trkpt lat="43.1446" lon="2.60826">
        <ele>484.5</ele>
        <time>2019-03-03T10:46:29+0100</time>
      </trkpt>
      <trkpt lat="43.14458" lon="2.60824">
        <ele>484.1</ele>
        <time>2019-03-03T10:46:27+0100</time>
      </trkpt>
      <trkpt lat="43.14455" lon="2.60817">
        <ele>483.2</ele>
        <time>2019-03-03T10:46:22+0100</time>
      </trkpt>
      <trkpt lat="43.1445" lon="2.6081">
        <ele>482.3</ele>
        <time>2019-03-03T10:46:16+0100</time>
      </trkpt>
      <trkpt lat="43.14447" lon="2.60805">
        <ele>481.9</ele>
      </trkpt>
      <trkpt lat="43.14443" lon="2.60801">
        <ele>481.2</ele>
        <time>2019-03-03T10:46:08+0100</time>
      </trkpt>
      <trkpt lat="43.14438" lon="2.60794">
        <ele>480</ele>
        <time>2019-03-03T10:46:03+0100</time>
      </trkpt>
      <trkpt lat="43.14437" lon="2.60793">
        <ele>479.8</ele>
        <time>2019-03-03T10:46:02+0100</time>
      </trkpt>
      <trkpt lat="43.14435" lon="2.60787">
        <ele>479</ele>
        <time>2019-03-03T10:45:58+0100</time>
      </trkpt>
      <trkpt lat="43.14433" lon="2.60782">
        <ele>478.4</ele>
        <time>2019-03-03T10:45:53+0100</time>
      </trkpt>
      <trkpt lat="43.14432" lon="2.60778">
        <ele>478</ele>
        <time>2019-03-03T10:45:49+0100</time>
      </trkpt>
      <trkpt lat="43.14431" lon="2.60776">
        <ele>477.7</ele>
        <time>2019-03-03T10:45:47+0100</time>
      </trkpt>
      <trkpt lat="43.14429" lon="2.60774">
        <ele>477.6</ele>
        <time>2019-03-03T10:45:46+0100</time>
      </trkpt>
      <trkpt lat="43.14426" lon="2.60769">
        <ele>477</ele>
        <time>2019-03-03T10:45:42+0100</time>
      </trkpt>
      <trkpt lat="43.14426" lon="2.60758">
        <ele>475.6</ele>
        <time>2019-03-03T10:45:33+0100</time>
      </trkpt>
      <trkpt lat="43.14425" lon="2.60754">
        <ele>475.2</ele>
        <time>2019-03-03T10:45:22+0100</time>
      </trkpt>
      <trkpt lat="43.14423" lon="2.60742">
        <ele>473.9</ele>
        <time>2019-03-03T10:45:15+0100</time>
      </trkpt>
      <trkpt lat="43.14419" lon="2.60737">
        <ele>473.5</ele>
      </trkpt>
      <trkpt lat="43.14416" lon="2.60733">
        <ele>472.8</ele>
      </trkpt>
      <trkpt lat="43.14412" lon="2.60728">
        <ele>471.2</ele>
      </trkpt>
      <trkpt lat="43.14409" lon="2.60724">
        <ele>469.8</ele>
        <time>2019-03-03T10:44:46+0100</time>
      </trkpt>
      <trkpt lat="43.14406" lon="2.6072">
        <ele>469.1</ele>
        <time>2019-03-03T10:44:41+0100</time>
      </trkpt>
      <trkpt lat="43.14406" lon="2.60719">
        <ele>468.9</ele>
        <time>2019-03-03T10:44:40+0100</time>
      </trkpt>
      <trkpt lat="43.14401" lon="2.60714">
        <ele>467.8</ele>
        <time>2019-03-03T10:44:34+0100</time>
      </trkpt>
      <trkpt lat="43.14397" lon="2.60709">
        <ele>467.4</ele>
        <time>2019-03-03T10:44:29+0100</time>
      </trkpt>
      <trkpt lat="43.14396" lon="2.60701">
        <ele>467.9</ele>
        <time>2019-03-03T10:44:19+0100</time>
      </trkpt>
      <trkpt lat="43.14395" lon="2.607">
        <ele>467.9</ele>
        <time>2019-03-03T10:44:18+0100</time>
      </trkpt>
      <trkpt lat="43.14395" lon="2.60704">
        <ele>467.5</ele>
        <time>2019-03-03T10:44:15+0100</time>
      </trkpt>
      <trkpt lat="43.144" lon="2.60707">
        <ele>468.1</ele>
      </trkpt>
      <trkpt lat="43.14405" lon="2.6071">
        <ele>468.9</ele>
      </trkpt>
      <trkpt lat="43.1441" lon="2.60712">
        <ele>469.8</ele>
      </trkpt>
      <trkpt lat="43.14415" lon="2.60715">
        <ele>471</ele>
      </trkpt>
      <trkpt lat="43.14419" lon="2.60718">
        <ele>471.5</ele>
      </trkpt>
      <trkpt lat="43.14424" lon="2.6072">
        <ele>471.5</ele>
      </trkpt>
      <trkpt lat="43.14429" lon="2.60723">
        <ele>471.6</ele>
      </trkpt>
      <trkpt lat="43.14434" lon="2.60725">
        <ele>471.7</ele>
        <time>2019-03-03T10:43:56+0100</time>
      </trkpt>
      <trkpt lat="43.14441" lon="2.60729">
        <ele>471.8</ele>
      </trkpt>
      <trkpt lat="43.14449" lon="2.60732">
        <ele>471.6</ele>
        <time>2019-03-03T10:43:50+0100</time>
      </trkpt>
      <trkpt lat="43.14452" lon="2.60739">
        <ele>472.2</ele>
      </trkpt>
      <trkpt lat="43.14456" lon="2.60747">
        <ele>472.8</ele>
        <time>2019-03-03T10:43:45+0100</time>
      </trkpt>
      <trkpt lat="43.1446" lon="2.60753">
        <ele>473.3</ele>
      </trkpt>
      <trkpt lat="43.14464" lon="2.60759">
        <ele>474</ele>
      </trkpt>
      <trkpt lat="43.14469" lon="2.60764">
        <ele>474.8</ele>
      </trkpt>
      <trkpt lat="43.14473" lon="2.6077">
        <ele>475.6</ele>
        <time>2019-03-03T10:43:35+0100</time>
      </trkpt>
      <trkpt lat="43.14475" lon="2.60772">
        <ele>475.7</ele>
        <time>2019-03-03T10:43:34+0100</time>
      </trkpt>
      <trkpt lat="43.1448" lon="2.60776">
        <ele>475.9</ele>
      </trkpt>
      <trkpt lat="43.14485" lon="2.6078">
        <ele>476</ele>
      </trkpt>
      <trkpt lat="43.1449" lon="2.60785">
        <ele>476.1</ele>
      </trkpt>
      <trkpt lat="43.14494" lon="2.60789">
        <ele>476.2</ele>
      </trkpt>
      <trkpt lat="43.14499" lon="2.60793">
        <ele>476.3</ele>
      </trkpt>
      <trkpt lat="43.14504" lon="2.60797">
        <ele>476.4</ele>
      </trkpt>
      <trkpt lat="43.14509" lon="2.60801">
        <ele>476.4</ele>
      </trkpt>
      <trkpt lat="43.14514" lon="2.60806">
        <ele>476.5</ele>
        <time>2019-03-03T10:43:14+0100</time>
      </trkpt>
      <trkpt lat="43.14522" lon="2.60808">
        <ele>476</ele>
        <time>2019-03-03T10:43:09+0100</time>
      </trkpt>
      <trkpt lat="43.14527" lon="2.60807">
        <ele>475.3</ele>
      </trkpt>
      <trkpt lat="43.14532" lon="2.60806">
        <ele>474.8</ele>
        <time>2019-03-03T10:43:02+0100</time>
      </trkpt>
      <trkpt lat="43.14539" lon="2.60806">
        <ele>474.3</ele>
      </trkpt>
      <trkpt lat="43.14546" lon="2.60807">
        <ele>473.8</ele>
        <time>2019-03-03T10:42:54+0100</time>
      </trkpt>
      <trkpt lat="43.14551" lon="2.60806">
        <ele>473.4</ele>
      </trkpt>
      <trkpt lat="43.14556" lon="2.60805">
        <ele>472.9</ele>
        <time>2019-03-03T10:42:48+0100</time>
      </trkpt>
      <trkpt lat="43.14563" lon="2.60803">
        <ele>472.3</ele>
        <time>2019-03-03T10:42:44+0100</time>
      </trkpt>
      <trkpt lat="43.14567" lon="2.60801">
        <ele>471.9</ele>
      </trkpt>
      <trkpt lat="43.14572" lon="2.60799">
        <ele>471.5</ele>
      </trkpt>
      <trkpt lat="43.14576" lon="2.60797">
        <ele>471.1</ele>
      </trkpt>
      <trkpt lat="43.1458" lon="2.60796">
        <ele>470.7</ele>
        <time>2019-03-03T10:42:33+0100</time>
      </trkpt>
      <trkpt lat="43.14586" lon="2.60793">
        <ele>470.2</ele>
      </trkpt>
      <trkpt lat="43.14591" lon="2.60791">
        <ele>469.8</ele>
      </trkpt>
      <trkpt lat="43.14596" lon="2.60789">
        <ele>469.5</ele>
      </trkpt>
      <trkpt lat="43.14601" lon="2.60787">
        <ele>469.1</ele>
        <time>2019-03-03T10:42:20+0100</time>
      </trkpt>
      <trkpt lat="43.14608" lon="2.60783">
        <ele>468.6</ele>
        <time>2019-03-03T10:42:16+0100</time>
      </trkpt>
      <trkpt lat="43.14611" lon="2.60775">
        <ele>467.8</ele>
      </trkpt>
      <trkpt lat="43.14615" lon="2.60768">
        <ele>467.1</ele>
        <time>2019-03-03T10:42:09+0100</time>
      </trkpt>
      <trkpt lat="43.1462" lon="2.60763">
        <ele>466.6</ele>
        <time>2019-03-03T10:42:06+0100</time>
      </trkpt>
      <trkpt lat="43.14627" lon="2.60756">
        <ele>465.8</ele>
        <time>2019-03-03T10:42:01+0100</time>
      </trkpt>
      <trkpt lat="43.14629" lon="2.6075">
        <ele>465.3</ele>
      </trkpt>
      <trkpt lat="43.14631" lon="2.60744">
        <ele>464.5</ele>
        <time>2019-03-03T10:41:55+0100</time>
      </trkpt>
      <trkpt lat="43.14632" lon="2.60732">
        <ele>463.1</ele>
        <time>2019-03-03T10:41:49+0100</time>
      </trkpt>
      <trkpt lat="43.14632" lon="2.6073">
        <ele>462.9</ele>
        <time>2019-03-03T10:41:48+0100</time>
      </trkpt>
      <trkpt lat="43.14636" lon="2.60719">
        <ele>461.7</ele>
        <time>2019-03-03T10:41:43+0100</time>
      </trkpt>
      <trkpt lat="43.1464" lon="2.60711">
        <ele>460.7</ele>
      </trkpt>
      <trkpt lat="43.14644" lon="2.60703">
        <ele>459.6</ele>
        <time>2019-03-03T10:41:36+0100</time>
      </trkpt>
      <trkpt lat="43.14649" lon="2.60697">
        <ele>458.6</ele>
      </trkpt>
      <trkpt lat="43.14654" lon="2.60691">
        <ele>457.6</ele>
        <time>2019-03-03T10:41:30+0100</time>
      </trkpt>
      <trkpt lat="43.14659" lon="2.60689">
        <ele>457.1</ele>
        <time>2019-03-03T10:41:26+0100</time>
      </trkpt>
      <trkpt lat="43.14666" lon="2.6069">
        <ele>456.8</ele>
      </trkpt>
      <trkpt lat="43.14672" lon="2.60691">
        <ele>456.2</ele>
        <time>2019-03-03T10:41:19+0100</time>
      </trkpt>
      <trkpt lat="43.14677" lon="2.60692">
        <ele>455.7</ele>
      </trkpt>
      <trkpt lat="43.14682" lon="2.60694">
        <ele>455.2</ele>
        <time>2019-03-03T10:41:13+0100</time>
      </trkpt>
      <trkpt lat="43.14687" lon="2.60697">
        <ele>455</ele>
      </trkpt>
      <trkpt lat="43.14692" lon="2.607">
        <ele>454.7</ele>
        <time>2019-03-03T10:41:07+0100</time>
      </trkpt>
      <trkpt lat="43.14697" lon="2.60705">
        <ele>454.2</ele>
      </trkpt>
      <trkpt lat="43.14702" lon="2.60709">
        <ele>453.6</ele>
        <time>2019-03-03T10:41:01+0100</time>
      </trkpt>
      <trkpt lat="43.14706" lon="2.60714">
        <ele>453</ele>
      </trkpt>
      <trkpt lat="43.14711" lon="2.60719">
        <ele>452.3</ele>
        <time>2019-03-03T10:40:55+0100</time>
      </trkpt>
      <trkpt lat="43.14714" lon="2.60727">
        <ele>452.3</ele>
        <time>2019-03-03T10:40:50+0100</time>
      </trkpt>
      <trkpt lat="43.14714" lon="2.60729">
        <ele>452.4</ele>
        <time>2019-03-03T10:40:49+0100</time>
      </trkpt>
      <trkpt lat="43.1472" lon="2.60734">
        <ele>451.8</ele>
        <time>2019-03-03T10:40:44+0100</time>
      </trkpt>
      <trkpt lat="43.14722" lon="2.60736">
        <ele>451.5</ele>
        <time>2019-03-03T10:40:43+0100</time>
      </trkpt>
      <trkpt lat="43.14726" lon="2.60733">
        <ele>451.1</ele>
      </trkpt>
      <trkpt lat="43.1473" lon="2.6073">
        <ele>450.7</ele>
      </trkpt>
      <trkpt lat="43.14735" lon="2.60727">
        <ele>450.2</ele>
      </trkpt>
      <trkpt lat="43.14739" lon="2.60724">
        <ele>449.6</ele>
        <time>2019-03-03T10:40:32+0100</time>
      </trkpt>
      <trkpt lat="43.14746" lon="2.60718">
        <ele>448.5</ele>
        <time>2019-03-03T10:40:27+0100</time>
      </trkpt>
      <trkpt lat="43.14752" lon="2.60714">
        <ele>447.6</ele>
        <time>2019-03-03T10:40:23+0100</time>
      </trkpt>
      <trkpt lat="43.14755" lon="2.6071">
        <ele>447.1</ele>
        <time>2019-03-03T10:40:20+0100</time>
      </trkpt>
      <trkpt lat="43.14759" lon="2.60703">
        <ele>446.1</ele>
      </trkpt>
      <trkpt lat="43.14763" lon="2.60695">
        <ele>445.1</ele>
        <time>2019-03-03T10:40:13+0100</time>
      </trkpt>
      <trkpt lat="43.14768" lon="2.60692">
        <ele>444.9</ele>
      </trkpt>
      <trkpt lat="43.14772" lon="2.60688">
        <ele>444.5</ele>
        <time>2019-03-03T10:40:07+0100</time>
      </trkpt>
      <trkpt lat="43.14777" lon="2.60683">
        <ele>443.9</ele>
      </trkpt>
      <trkpt lat="43.14782" lon="2.60678">
        <ele>443.3</ele>
        <time>2019-03-03T10:40:00+0100</time>
      </trkpt>
      <trkpt lat="43.14785" lon="2.6067">
        <ele>442.3</ele>
      </trkpt>
      <trkpt lat="43.14788" lon="2.60663">
        <ele>441.5</ele>
        <time>2019-03-03T10:39:53+0100</time>
      </trkpt>
      <trkpt lat="43.14788" lon="2.60657">
        <ele>440.9</ele>
        <time>2019-03-03T10:39:51+0100</time>
      </trkpt>
      <trkpt lat="43.14791" lon="2.6065">
        <ele>440.3</ele>
      </trkpt>
      <trkpt lat="43.14794" lon="2.60642">
        <ele>439.8</ele>
        <time>2019-03-03T10:39:45+0100</time>
      </trkpt>
      <trkpt lat="43.14799" lon="2.60635">
        <ele>439.6</ele>
        <time>2019-03-03T10:39:41+0100</time>
      </trkpt>
      <trkpt lat="43.14802" lon="2.60627">
        <ele>439.3</ele>
      </trkpt>
      <trkpt lat="43.14805" lon="2.60619">
        <ele>438.8</ele>
        <time>2019-03-03T10:39:34+0100</time>
      </trkpt>
      <trkpt lat="43.14808" lon="2.6061">
        <ele>438.1</ele>
      </trkpt>
      <trkpt lat="43.1481" lon="2.606">
        <ele>437.4</ele>
        <time>2019-03-03T10:39:27+0100</time>
      </trkpt>
      <trkpt lat="43.14812" lon="2.60594">
        <ele>436.9</ele>
      </trkpt>
      <trkpt lat="43.14813" lon="2.60587">
        <ele>436.5</ele>
        <time>2019-03-03T10:39:22+0100</time>
      </trkpt>
      <trkpt lat="43.14815" lon="2.60581">
        <ele>436.1</ele>
      </trkpt>
      <trkpt lat="43.14817" lon="2.60575">
        <ele>435.7</ele>
      </trkpt>
      <trkpt lat="43.14819" lon="2.60569">
        <ele>435.3</ele>
      </trkpt>
      <trkpt lat="43.14821" lon="2.60562">
        <ele>434.9</ele>
        <time>2019-03-03T10:39:13+0100</time>
      </trkpt>
      <trkpt lat="43.14822" lon="2.60556">
        <ele>434.5</ele>
      </trkpt>
      <trkpt lat="43.14824" lon="2.6055">
        <ele>434.2</ele>
      </trkpt>
      <trkpt lat="43.14826" lon="2.60544">
        <ele>434</ele>
      </trkpt>
      <trkpt lat="43.14828" lon="2.60538">
        <ele>433.8</ele>
        <time>2019-03-03T10:39:05+0100</time>
      </trkpt>
      <trkpt lat="43.14829" lon="2.60532">
        <ele>433.5</ele>
      </trkpt>
      <trkpt lat="43.1483" lon="2.60526">
        <ele>433.3</ele>
      </trkpt>
      <trkpt lat="43.14832" lon="2.6052">
        <ele>433.1</ele>
      </trkpt>
      <trkpt lat="43.14833" lon="2.60514">
        <ele>432.9</ele>
        <time>2019-03-03T10:38:49+0100</time>
      </trkpt>
      <trkpt lat="43.14833" lon="2.60508">
        <ele>432.6</ele>
        <time>2019-03-03T10:38:45+0100</time>
      </trkpt>
      <trkpt lat="43.14834" lon="2.60498">
        <ele>431.9</ele>
        <time>2019-03-03T10:38:32+0100</time>
      </trkpt>
      <trkpt lat="43.14836" lon="2.6049">
        <ele>431.4</ele>
        <time>2019-03-03T10:38:08+0100</time>
      </trkpt>
      <trkpt lat="43.14837" lon="2.6048">
        <ele>430.8</ele>
      </trkpt>
      <trkpt lat="43.14838" lon="2.60471">
        <ele>430.2</ele>
        <time>2019-03-03T10:37:54+0100</time>
      </trkpt>
      <trkpt lat="43.14839" lon="2.60465">
        <ele>429.9</ele>
        <time>2019-03-03T10:37:51+0100</time>
      </trkpt>
      <trkpt lat="43.14841" lon="2.60458">
        <ele>429.5</ele>
        <time>2019-03-03T10:37:47+0100</time>
      </trkpt>
      <trkpt lat="43.14843" lon="2.60451">
        <ele>429.2</ele>
        <time>2019-03-03T10:37:44+0100</time>
      </trkpt>
      <trkpt lat="43.14847" lon="2.60443">
        <ele>428.9</ele>
        <time>2019-03-03T10:37:39+0100</time>
      </trkpt>
      <trkpt lat="43.14848" lon="2.6044">
        <ele>428.8</ele>
        <time>2019-03-03T10:37:37+0100</time>
      </trkpt>
      <trkpt lat="43.14852" lon="2.60435">
        <ele>428.6</ele>
        <time>2019-03-03T10:37:32+0100</time>
      </trkpt>
      <trkpt lat="43.14854" lon="2.60433">
        <ele>428.6</ele>
        <time>2019-03-03T10:37:29+0100</time>
      </trkpt>
      <trkpt lat="43.14855" lon="2.60432">
        <ele>428.6</ele>
        <time>2019-03-03T10:37:27+0100</time>
      </trkpt>
      <trkpt lat="43.14859" lon="2.60428">
        <ele>428.6</ele>
      </trkpt>
      <trkpt lat="43.14864" lon="2.60423">
        <ele>428.5</ele>
      </trkpt>
      <trkpt lat="43.14868" lon="2.60419">
        <ele>428.2</ele>
      </trkpt>
      <trkpt lat="43.14872" lon="2.60415">
        <ele>427.8</ele>
        <time>2019-03-03T10:37:07+0100</time>
      </trkpt>
      <trkpt lat="43.14878" lon="2.60415">
        <ele>427.8</ele>
        <time>2019-03-03T10:37:03+0100</time>
      </trkpt>
      <trkpt lat="43.14883" lon="2.60412">
        <ele>427.5</ele>
      </trkpt>
      <trkpt lat="43.14889" lon="2.6041">
        <ele>427.3</ele>
      </trkpt>
      <trkpt lat="43.14895" lon="2.60408">
        <ele>427</ele>
      </trkpt>
      <trkpt lat="43.149" lon="2.60405">
        <ele>426.8</ele>
        <time>2019-03-03T10:36:42+0100</time>
      </trkpt>
      <trkpt lat="43.14908" lon="2.60401">
        <ele>426.3</ele>
        <time>2019-03-03T10:36:36+0100</time>
      </trkpt>
      <trkpt lat="43.14913" lon="2.60399">
        <ele>426</ele>
      </trkpt>
      <trkpt lat="43.14919" lon="2.60397">
        <ele>425.8</ele>
      </trkpt>
      <trkpt lat="43.14924" lon="2.60395">
        <ele>425.6</ele>
      </trkpt>
      <trkpt lat="43.1493" lon="2.60393">
        <ele>425.4</ele>
      </trkpt>
      <trkpt lat="43.14935" lon="2.60391">
        <ele>425.2</ele>
      </trkpt>
      <trkpt lat="43.14941" lon="2.60389">
        <ele>425</ele>
      </trkpt>
      <trkpt lat="43.14946" lon="2.60388">
        <ele>424.9</ele>
      </trkpt>
      <trkpt lat="43.14952" lon="2.60386">
        <ele>424.8</ele>
        <time>2019-03-03T10:36:13+0100</time>
      </trkpt>
      <trkpt lat="43.14955" lon="2.60386">
        <ele>424.8</ele>
        <time>2019-03-03T10:36:12+0100</time>
      </trkpt>
      <trkpt lat="43.14958" lon="2.60392">
        <ele>425.2</ele>
      </trkpt>
      <trkpt lat="43.14961" lon="2.60398">
        <ele>425.6</ele>
        <time>2019-03-03T10:36:08+0100</time>
      </trkpt>
      <trkpt lat="43.14962" lon="2.60407">
        <ele>426.3</ele>
        <time>2019-03-03T10:36:05+0100</time>
      </trkpt>
      <trkpt lat="43.14961" lon="2.60415">
        <ele>426.9</ele>
      </trkpt>
      <trkpt lat="43.14959" lon="2.60424">
        <ele>427.4</ele>
        <time>2019-03-03T10:36:00+0100</time>
      </trkpt>
      <trkpt lat="43.14958" lon="2.6043">
        <ele>427.7</ele>
      </trkpt>
      <trkpt lat="43.14957" lon="2.60436">
        <ele>428.1</ele>
        <time>2019-03-03T10:35:56+0100</time>
      </trkpt>
      <trkpt lat="43.14955" lon="2.60441">
        <ele>428.5</ele>
      </trkpt>
      <trkpt lat="43.14952" lon="2.60447">
        <ele>428.9</ele>
        <time>2019-03-03T10:35:52+0100</time>
      </trkpt>
      <trkpt lat="43.1495" lon="2.60456">
        <ele>429.6</ele>
      </trkpt>
      <trkpt lat="43.14948" lon="2.60464">
        <ele>430.3</ele>
        <time>2019-03-03T10:35:47+0100</time>
      </trkpt>
      <trkpt lat="43.14945" lon="2.60472">
        <ele>431</ele>
      </trkpt>
      <trkpt lat="43.14942" lon="2.60481">
        <ele>431.7</ele>
        <time>2019-03-03T10:35:42+0100</time>
      </trkpt>
      <trkpt lat="43.1494" lon="2.60488">
        <ele>432.4</ele>
      </trkpt>
      <trkpt lat="43.14938" lon="2.60495">
        <ele>433.1</ele>
        <time>2019-03-03T10:35:38+0100</time>
      </trkpt>
      <trkpt lat="43.14935" lon="2.60501">
        <ele>433.7</ele>
      </trkpt>
      <trkpt lat="43.14933" lon="2.60507">
        <ele>434.5</ele>
        <time>2019-03-03T10:35:34+0100</time>
      </trkpt>
      <trkpt lat="43.14931" lon="2.60518">
        <ele>435.6</ele>
      </trkpt>
      <trkpt lat="43.14929" lon="2.60529">
        <ele>436.6</ele>
        <time>2019-03-03T10:35:28+0100</time>
      </trkpt>
      <trkpt lat="43.14929" lon="2.6054">
        <ele>437.2</ele>
        <time>2019-03-03T10:35:24+0100</time>
      </trkpt>
      <trkpt lat="43.14929" lon="2.60547">
        <ele>437.7</ele>
      </trkpt>
      <trkpt lat="43.14929" lon="2.60555">
        <ele>438.1</ele>
      </trkpt>
      <trkpt lat="43.14928" lon="2.60562">
        <ele>438.4</ele>
      </trkpt>
      <trkpt lat="43.14928" lon="2.6057">
        <ele>438.7</ele>
        <time>2019-03-03T10:35:15+0100</time>
      </trkpt>
      <trkpt lat="43.14928" lon="2.60579">
        <ele>439</ele>
      </trkpt>
      <trkpt lat="43.14929" lon="2.60587">
        <ele>439.4</ele>
        <time>2019-03-03T10:35:10+0100</time>
      </trkpt>
      <trkpt lat="43.14932" lon="2.60596">
        <ele>439.8</ele>
      </trkpt>
      <trkpt lat="43.14934" lon="2.60605">
        <ele>440.3</ele>
      </trkpt>
      <trkpt lat="43.14937" lon="2.60614">
        <ele>440.6</ele>
      </trkpt>
      <trkpt lat="43.1494" lon="2.60622">
        <ele>440.7</ele>
        <time>2019-03-03T10:34:58+0100</time>
      </trkpt>
      <trkpt lat="43.14942" lon="2.60628">
        <ele>440.8</ele>
      </trkpt>
      <trkpt lat="43.14944" lon="2.60635">
        <ele>440.9</ele>
      </trkpt>
      <trkpt lat="43.14947" lon="2.60641">
        <ele>441</ele>
      </trkpt>
      <trkpt lat="43.14949" lon="2.60647">
        <ele>441.2</ele>
        <time>2019-03-03T10:34:47+0100</time>
      </trkpt>
      <trkpt lat="43.14955" lon="2.60653">
        <ele>441.1</ele>
      </trkpt>
      <trkpt lat="43.14961" lon="2.60658">
        <ele>440.8</ele>
        <time>2019-03-03T10:34:39+0100</time>
      </trkpt>
      <trkpt lat="43.14966" lon="2.60661">
        <ele>440.5</ele>
      </trkpt>
      <trkpt lat="43.1497" lon="2.60664">
        <ele>440.1</ele>
        <time>2019-03-03T10:34:33+0100</time>
      </trkpt>
      <trkpt lat="43.14978" lon="2.60668">
        <ele>439.4</ele>
      </trkpt>
      <trkpt lat="43.14986" lon="2.60671">
        <ele>438.6</ele>
        <time>2019-03-03T10:34:24+0100</time>
      </trkpt>
      <trkpt lat="43.1499" lon="2.60677">
        <ele>438.2</ele>
      </trkpt>
      <trkpt lat="43.14995" lon="2.60683">
        <ele>437.6</ele>
        <time>2019-03-03T10:34:18+0100</time>
      </trkpt>
      <trkpt lat="43.15" lon="2.60687">
        <ele>437</ele>
      </trkpt>
      <trkpt lat="43.15004" lon="2.60692">
        <ele>436.2</ele>
        <time>2019-03-03T10:34:12+0100</time>
      </trkpt>
      <trkpt lat="43.15011" lon="2.60697">
        <ele>435.1</ele>
        <time>2019-03-03T10:34:08+0100</time>
      </trkpt>
      <trkpt lat="43.15015" lon="2.60702">
        <ele>434.6</ele>
        <time>2019-03-03T10:34:05+0100</time>
      </trkpt>
      <trkpt lat="43.15017" lon="2.60708">
        <ele>434.4</ele>
      </trkpt>
      <trkpt lat="43.15019" lon="2.60714">
        <ele>434.2</ele>
        <time>2019-03-03T10:34:00+0100</time>
      </trkpt>
      <trkpt lat="43.15023" lon="2.6072">
        <ele>433.7</ele>
      </trkpt>
      <trkpt lat="43.15027" lon="2.60726">
        <ele>433.3</ele>
        <time>2019-03-03T10:33:53+0100</time>
      </trkpt>
      <trkpt lat="43.15031" lon="2.60731">
        <ele>432.6</ele>
      </trkpt>
      <trkpt lat="43.15036" lon="2.60737">
        <ele>432</ele>
      </trkpt>
      <trkpt lat="43.1504" lon="2.60742">
        <ele>431.2</ele>
      </trkpt>
      <trkpt lat="43.15044" lon="2.60748">
        <ele>430.4</ele>
        <time>2019-03-03T10:33:42+0100</time>
      </trkpt>
      <trkpt lat="43.15046" lon="2.60755">
        <ele>430.1</ele>
        <time>2019-03-03T10:33:39+0100</time>
      </trkpt>
      <trkpt lat="43.15049" lon="2.60762">
        <ele>429.5</ele>
      </trkpt>
      <trkpt lat="43.15051" lon="2.6077">
        <ele>429</ele>
        <time>2019-03-03T10:33:34+0100</time>
      </trkpt>
      <trkpt lat="43.15052" lon="2.60776">
        <ele>428.7</ele>
      </trkpt>
      <trkpt lat="43.15054" lon="2.60782">
        <ele>428.3</ele>
        <time>2019-03-03T10:33:29+0100</time>
      </trkpt>
      <trkpt lat="43.15053" lon="2.60787">
        <ele>428.3</ele>
        <time>2019-03-03T10:33:26+0100</time>
      </trkpt>
      <trkpt lat="43.1505" lon="2.60792">
        <ele>428.6</ele>
      </trkpt>
      <trkpt lat="43.15048" lon="2.60798">
        <ele>429</ele>
      </trkpt>
      <trkpt lat="43.15045" lon="2.60803">
        <ele>429.3</ele>
      </trkpt>
      <trkpt lat="43.15043" lon="2.60808">
        <ele>429.5</ele>
        <time>2019-03-03T10:33:18+0100</time>
      </trkpt>
      <trkpt lat="43.15038" lon="2.60816">
        <ele>430</ele>
      </trkpt>
      <trkpt lat="43.15032" lon="2.60824">
        <ele>430.5</ele>
      </trkpt>
      <trkpt lat="43.15027" lon="2.60832">
        <ele>431.2</ele>
      </trkpt>
      <trkpt lat="43.15022" lon="2.6084">
        <ele>431</ele>
        <time>2019-03-03T10:33:04+0100</time>
      </trkpt>
      <trkpt lat="43.15018" lon="2.60846">
        <ele>430.9</ele>
      </trkpt>
      <trkpt lat="43.15014" lon="2.60851">
        <ele>430.8</ele>
      </trkpt>
      <trkpt lat="43.1501" lon="2.60856">
        <ele>430.7</ele>
      </trkpt>
      <trkpt lat="43.15006" lon="2.60862">
        <ele>430.6</ele>
      </trkpt>
      <trkpt lat="43.15002" lon="2.60867">
        <ele>430.3</ele>
      </trkpt>
      <trkpt lat="43.14998" lon="2.60873">
        <ele>430.2</ele>
      </trkpt>
      <trkpt lat="43.14994" lon="2.60878">
        <ele>430.2</ele>
      </trkpt>
      <trkpt lat="43.14989" lon="2.60884">
        <ele>430.2</ele>
        <time>2019-03-03T10:32:47+0100</time>
      </trkpt>
      <trkpt lat="43.14985" lon="2.60889">
        <ele>430.3</ele>
      </trkpt>
      <trkpt lat="43.14981" lon="2.60894">
        <ele>430.5</ele>
      </trkpt>
      <trkpt lat="43.14976" lon="2.60899">
        <ele>430.6</ele>
      </trkpt>
      <trkpt lat="43.14972" lon="2.60904">
        <ele>430.8</ele>
        <time>2019-03-03T10:32:37+0100</time>
      </trkpt>
      <trkpt lat="43.14968" lon="2.6091">
        <ele>430.9</ele>
      </trkpt>
      <trkpt lat="43.14964" lon="2.60915">
        <ele>431</ele>
      </trkpt>
      <trkpt lat="43.1496" lon="2.60921">
        <ele>431.2</ele>
      </trkpt>
      <trkpt lat="43.14956" lon="2.60926">
        <ele>431.4</ele>
      </trkpt>
      <trkpt lat="43.14952" lon="2.60931">
        <ele>431.5</ele>
      </trkpt>
      <trkpt lat="43.14948" lon="2.60937">
        <ele>431.6</ele>
      </trkpt>
      <trkpt lat="43.14944" lon="2.60942">
        <ele>431.7</ele>
      </trkpt>
      <trkpt lat="43.1494" lon="2.60948">
        <ele>432</ele>
        <time>2019-03-03T10:32:19+0100</time>
      </trkpt>
      <trkpt lat="43.14935" lon="2.60954">
        <ele>432.6</ele>
      </trkpt>
      <trkpt lat="43.1493" lon="2.60961">
        <ele>433.1</ele>
      </trkpt>
      <trkpt lat="43.14925" lon="2.60968">
        <ele>433.7</ele>
      </trkpt>
      <trkpt lat="43.14921" lon="2.60975">
        <ele>434.8</ele>
        <time>2019-03-03T10:32:06+0100</time>
      </trkpt>
      <trkpt lat="43.1492" lon="2.60978">
        <ele>435.2</ele>
        <time>2019-03-03T10:32:04+0100</time>
      </trkpt>
      <trkpt lat="43.14922" lon="2.60985">
        <ele>434.7</ele>
        <time>2019-03-03T10:32:01+0100</time>
      </trkpt>
      <trkpt lat="43.14925" lon="2.6099">
        <ele>433.8</ele>
        <time>2019-03-03T10:31:59+0100</time>
      </trkpt>
      <trkpt lat="43.14928" lon="2.60997">
        <ele>433.1</ele>
      </trkpt>
      <trkpt lat="43.1493" lon="2.61004">
        <ele>432.3</ele>
        <time>2019-03-03T10:31:53+0100</time>
      </trkpt>
      <trkpt lat="43.1493" lon="2.61009">
        <ele>432.6</ele>
        <time>2019-03-03T10:31:51+0100</time>
      </trkpt>
      <trkpt lat="43.1493" lon="2.61016">
        <ele>433.2</ele>
      </trkpt>
      <trkpt lat="43.14929" lon="2.61023">
        <ele>433.9</ele>
        <time>2019-03-03T10:31:47+0100</time>
      </trkpt>
      <trkpt lat="43.14928" lon="2.6103">
        <ele>434.6</ele>
      </trkpt>
      <trkpt lat="43.14926" lon="2.61037">
        <ele>434.8</ele>
      </trkpt>
      <trkpt lat="43.14925" lon="2.61044">
        <ele>435.1</ele>
      </trkpt>
      <trkpt lat="43.14924" lon="2.61051">
        <ele>435.4</ele>
        <time>2019-03-03T10:31:37+0100</time>
      </trkpt>
      <trkpt lat="43.14923" lon="2.61062">
        <ele>435.5</ele>
      </trkpt>
      <trkpt lat="43.14922" lon="2.61074">
        <ele>435.5</ele>
        <time>2019-03-03T10:31:28+0100</time>
      </trkpt>
      <trkpt lat="43.1492" lon="2.6108">
        <ele>435.9</ele>
      </trkpt>
      <trkpt lat="43.14919" lon="2.61087">
        <ele>436.2</ele>
      </trkpt>
      <trkpt lat="43.14917" lon="2.61094">
        <ele>436.2</ele>
      </trkpt>
      <trkpt lat="43.14916" lon="2.611">
        <ele>436.2</ele>
        <time>2019-03-03T10:31:09+0100</time>
      </trkpt>
      <trkpt lat="43.14921" lon="2.61108">
        <ele>435.6</ele>
        <time>2019-03-03T10:31:01+0100</time>
      </trkpt>
      <trkpt lat="43.14925" lon="2.61105">
        <ele>435.8</ele>
      </trkpt>
      <trkpt lat="43.1493" lon="2.61103">
        <ele>435.6</ele>
        <time>2019-03-03T10:30:53+0100</time>
      </trkpt>
      <trkpt lat="43.14935" lon="2.611">
        <ele>434.7</ele>
        <time>2019-03-03T10:30:48+0100</time>
      </trkpt>
      <trkpt lat="43.14937" lon="2.61098">
        <ele>434</ele>
        <time>2019-03-03T10:30:46+0100</time>
      </trkpt>
      <trkpt lat="43.14937" lon="2.61095">
        <ele>433.1</ele>
        <time>2019-03-03T10:30:44+0100</time>
      </trkpt>
      <trkpt lat="43.14939" lon="2.61091">
        <ele>431.6</ele>
        <time>2019-03-03T10:30:40+0100</time>
      </trkpt>
      <trkpt lat="43.14941" lon="2.61088">
        <ele>429.9</ele>
        <time>2019-03-03T10:30:36+0100</time>
      </trkpt>
      <trkpt lat="43.14948" lon="2.61082">
        <ele>428</ele>
        <time>2019-03-03T10:30:29+0100</time>
      </trkpt>
      <trkpt lat="43.14952" lon="2.61077">
        <ele>428.5</ele>
      </trkpt>
      <trkpt lat="43.14955" lon="2.61072">
        <ele>428.4</ele>
        <time>2019-03-03T10:30:20+0100</time>
      </trkpt>
      <trkpt lat="43.1496" lon="2.61067">
        <ele>427.8</ele>
        <time>2019-03-03T10:30:15+0100</time>
      </trkpt>
      <trkpt lat="43.14962" lon="2.61063">
        <ele>426.9</ele>
        <time>2019-03-03T10:30:11+0100</time>
      </trkpt>
      <trkpt lat="43.14964" lon="2.61058">
        <ele>425.6</ele>
        <time>2019-03-03T10:30:06+0100</time>
      </trkpt>
      <trkpt lat="43.14965" lon="2.61055">
        <ele>424.6</ele>
        <time>2019-03-03T10:30:02+0100</time>
      </trkpt>
      <trkpt lat="43.14965" lon="2.61053">
        <ele>424.2</ele>
        <time>2019-03-03T10:30:01+0100</time>
      </trkpt>
      <trkpt lat="43.14966" lon="2.61049">
        <ele>423.3</ele>
        <time>2019-03-03T10:29:57+0100</time>
      </trkpt>
      <trkpt lat="43.14968" lon="2.61044">
        <ele>421.6</ele>
        <time>2019-03-03T10:29:52+0100</time>
      </trkpt>
      <trkpt lat="43.1497" lon="2.61041">
        <ele>420.5</ele>
        <time>2019-03-03T10:29:50+0100</time>
      </trkpt>
      <trkpt lat="43.14971" lon="2.61039">
        <ele>419.6</ele>
        <time>2019-03-03T10:29:48+0100</time>
      </trkpt>
      <trkpt lat="43.14972" lon="2.61033">
        <ele>417.5</ele>
        <time>2019-03-03T10:29:43+0100</time>
      </trkpt>
      <trkpt lat="43.14976" lon="2.61026">
        <ele>416.3</ele>
        <time>2019-03-03T10:29:37+0100</time>
      </trkpt>
      <trkpt lat="43.1498" lon="2.61023">
        <ele>416.5</ele>
      </trkpt>
      <trkpt lat="43.14985" lon="2.61021">
        <ele>416.4</ele>
      </trkpt>
      <trkpt lat="43.14989" lon="2.61018">
        <ele>416.2</ele>
      </trkpt>
      <trkpt lat="43.14994" lon="2.61016">
        <ele>415.7</ele>
        <time>2019-03-03T10:29:14+0100</time>
      </trkpt>
      <trkpt lat="43.14995" lon="2.61017">
        <ele>415.8</ele>
        <time>2019-03-03T10:29:08+0100</time>
      </trkpt>
      <trkpt lat="43.14996" lon="2.61016">
        <ele>415.7</ele>
        <time>2019-03-03T10:29:07+0100</time>
      </trkpt>
      <trkpt lat="43.14998" lon="2.61015">
        <ele>415.3</ele>
        <time>2019-03-03T10:29:05+0100</time>
      </trkpt>
      <trkpt lat="43.14999" lon="2.61014">
        <ele>415.1</ele>
        <time>2019-03-03T10:29:04+0100</time>
      </trkpt>
      <trkpt lat="43.15002" lon="2.61011">
        <ele>414.3</ele>
        <time>2019-03-03T10:29:00+0100</time>
      </trkpt>
      <trkpt lat="43.15005" lon="2.61009">
        <ele>413.9</ele>
        <time>2019-03-03T10:28:56+0100</time>
      </trkpt>
      <trkpt lat="43.1501" lon="2.61006">
        <ele>413</ele>
        <time>2019-03-03T10:28:51+0100</time>
      </trkpt>
      <trkpt lat="43.15014" lon="2.61004">
        <ele>412</ele>
        <time>2019-03-03T10:28:46+0100</time>
      </trkpt>
      <trkpt lat="43.15018" lon="2.61">
        <ele>410.5</ele>
        <time>2019-03-03T10:28:41+0100</time>
      </trkpt>
      <trkpt lat="43.15025" lon="2.60997">
        <ele>409.8</ele>
      </trkpt>
      <trkpt lat="43.15031" lon="2.60994">
        <ele>409.3</ele>
        <time>2019-03-03T10:28:29+0100</time>
      </trkpt>
      <trkpt lat="43.15037" lon="2.60991">
        <ele>408.7</ele>
      </trkpt>
      <trkpt lat="43.15043" lon="2.60987">
        <ele>407.8</ele>
        <time>2019-03-03T10:28:20+0100</time>
      </trkpt>
      <trkpt lat="43.15047" lon="2.60987">
        <ele>407.5</ele>
        <time>2019-03-03T10:28:17+0100</time>
      </trkpt>
      <trkpt lat="43.15054" lon="2.60984">
        <ele>406.4</ele>
        <time>2019-03-03T10:28:11+0100</time>
      </trkpt>
      <trkpt lat="43.15057" lon="2.60982">
        <ele>405.4</ele>
        <time>2019-03-03T10:28:07+0100</time>
      </trkpt>
      <trkpt lat="43.15061" lon="2.60978">
        <ele>404.1</ele>
        <time>2019-03-03T10:28:02+0100</time>
      </trkpt>
      <trkpt lat="43.15061" lon="2.60977">
        <ele>403.9</ele>
        <time>2019-03-03T10:28:01+0100</time>
      </trkpt>
      <trkpt lat="43.15061" lon="2.60976">
        <ele>403.3</ele>
        <time>2019-03-03T10:27:59+0100</time>
      </trkpt>
      <trkpt lat="43.15062" lon="2.60974">
        <ele>402.8</ele>
        <time>2019-03-03T10:27:57+0100</time>
      </trkpt>
      <trkpt lat="43.15064" lon="2.60972">
        <ele>402</ele>
        <time>2019-03-03T10:27:55+0100</time>
      </trkpt>
      <trkpt lat="43.15067" lon="2.60968">
        <ele>401.8</ele>
        <time>2019-03-03T10:27:50+0100</time>
      </trkpt>
      <trkpt lat="43.15072" lon="2.60966">
        <ele>401.5</ele>
      </trkpt>
      <trkpt lat="43.15076" lon="2.60964">
        <ele>401.1</ele>
        <time>2019-03-03T10:27:42+0100</time>
      </trkpt>
      <trkpt lat="43.15084" lon="2.60958">
        <ele>399.9</ele>
        <time>2019-03-03T10:27:35+0100</time>
      </trkpt>
      <trkpt lat="43.15085" lon="2.60957">
        <ele>399.7</ele>
        <time>2019-03-03T10:27:34+0100</time>
      </trkpt>
      <trkpt lat="43.1509" lon="2.60955">
        <ele>398.9</ele>
      </trkpt>
      <trkpt lat="43.15094" lon="2.60952">
        <ele>397.9</ele>
        <time>2019-03-03T10:27:27+0100</time>
      </trkpt>
      <trkpt lat="43.15098" lon="2.60951">
        <ele>397.3</ele>
        <time>2019-03-03T10:27:24+0100</time>
      </trkpt>
      <trkpt lat="43.151" lon="2.6095">
        <ele>396.9</ele>
        <time>2019-03-03T10:27:22+0100</time>
      </trkpt>
      <trkpt lat="43.15102" lon="2.60949">
        <ele>396.3</ele>
        <time>2019-03-03T10:27:20+0100</time>
      </trkpt>
      <trkpt lat="43.15106" lon="2.60947">
        <ele>395.3</ele>
        <time>2019-03-03T10:27:16+0100</time>
      </trkpt>
      <trkpt lat="43.1511" lon="2.60944">
        <ele>394.2</ele>
        <time>2019-03-03T10:27:11+0100</time>
      </trkpt>
      <trkpt lat="43.15116" lon="2.60939">
        <ele>393.4</ele>
        <time>2019-03-03T10:27:05+0100</time>
      </trkpt>
      <trkpt lat="43.15117" lon="2.60938">
        <ele>393.3</ele>
        <time>2019-03-03T10:27:04+0100</time>
      </trkpt>
      <trkpt lat="43.15121" lon="2.60937">
        <ele>392.7</ele>
        <time>2019-03-03T10:27:01+0100</time>
      </trkpt>
      <trkpt lat="43.15128" lon="2.60936">
        <ele>391.5</ele>
        <time>2019-03-03T10:26:55+0100</time>
      </trkpt>
      <trkpt lat="43.15131" lon="2.60937">
        <ele>391.1</ele>
        <time>2019-03-03T10:26:53+0100</time>
      </trkpt>
      <trkpt lat="43.15137" lon="2.60945">
        <ele>390.3</ele>
      </trkpt>
      <trkpt lat="43.15143" lon="2.60952">
        <ele>391.1</ele>
        <time>2019-03-03T10:26:42+0100</time>
      </trkpt>
      <trkpt lat="43.15145" lon="2.60955">
        <ele>391.8</ele>
        <time>2019-03-03T10:26:40+0100</time>
      </trkpt>
      <trkpt lat="43.15149" lon="2.60952">
        <ele>392</ele>
        <time>2019-03-03T10:26:34+0100</time>
      </trkpt>
      <trkpt lat="43.15154" lon="2.60944">
        <ele>391</ele>
      </trkpt>
      <trkpt lat="43.15159" lon="2.60935">
        <ele>389.9</ele>
        <time>2019-03-03T10:26:25+0100</time>
      </trkpt>
      <trkpt lat="43.15163" lon="2.6093">
        <ele>388.9</ele>
      </trkpt>
      <trkpt lat="43.15166" lon="2.60925">
        <ele>387.8</ele>
      </trkpt>
      <trkpt lat="43.1517" lon="2.6092">
        <ele>387.7</ele>
      </trkpt>
      <trkpt lat="43.15174" lon="2.60915">
        <ele>387.9</ele>
      </trkpt>
      <trkpt lat="43.15177" lon="2.6091">
        <ele>388.3</ele>
      </trkpt>
      <trkpt lat="43.15181" lon="2.60904">
        <ele>388.3</ele>
      </trkpt>
      <trkpt lat="43.15185" lon="2.60899">
        <ele>388</ele>
      </trkpt>
      <trkpt lat="43.15189" lon="2.60894">
        <ele>387.2</ele>
        <time>2019-03-03T10:26:04+0100</time>
      </trkpt>
      <trkpt lat="43.15191" lon="2.60893">
        <ele>386.9</ele>
        <time>2019-03-03T10:26:03+0100</time>
      </trkpt>
      <trkpt lat="43.15192" lon="2.60892">
        <ele>386.7</ele>
        <time>2019-03-03T10:26:02+0100</time>
      </trkpt>
      <trkpt lat="43.15196" lon="2.60887">
        <ele>386.5</ele>
        <time>2019-03-03T10:25:57+0100</time>
      </trkpt>
      <trkpt lat="43.15198" lon="2.60878">
        <ele>386</ele>
        <time>2019-03-03T10:25:51+0100</time>
      </trkpt>
      <trkpt lat="43.152" lon="2.60872">
        <ele>386</ele>
      </trkpt>
      <trkpt lat="43.15201" lon="2.60866">
        <ele>385.9</ele>
        <time>2019-03-03T10:25:44+0100</time>
      </trkpt>
      <trkpt lat="43.15204" lon="2.60859">
        <ele>386</ele>
        <time>2019-03-03T10:25:40+0100</time>
      </trkpt>
      <trkpt lat="43.15206" lon="2.60856">
        <ele>386.2</ele>
        <time>2019-03-03T10:25:38+0100</time>
      </trkpt>
      <trkpt lat="43.15206" lon="2.60852">
        <ele>385.7</ele>
        <time>2019-03-03T10:25:35+0100</time>
      </trkpt>
      <trkpt lat="43.15205" lon="2.60849">
        <ele>385.2</ele>
        <time>2019-03-03T10:25:32+0100</time>
      </trkpt>
      <trkpt lat="43.15207" lon="2.60843">
        <ele>385.1</ele>
      </trkpt>
      <trkpt lat="43.15209" lon="2.60838">
        <ele>384.8</ele>
        <time>2019-03-03T10:25:25+0100</time>
      </trkpt>
      <trkpt lat="43.15211" lon="2.60828">
        <ele>383.9</ele>
        <time>2019-03-03T10:25:19+0100</time>
      </trkpt>
      <trkpt lat="43.15214" lon="2.60819">
        <ele>383</ele>
        <time>2019-03-03T10:25:13+0100</time>
      </trkpt>
      <trkpt lat="43.15216" lon="2.60812">
        <ele>382</ele>
        <time>2019-03-03T10:25:08+0100</time>
      </trkpt>
      <trkpt lat="43.15217" lon="2.60805">
        <ele>380.9</ele>
      </trkpt>
      <trkpt lat="43.15218" lon="2.60798">
        <ele>379.9</ele>
        <time>2019-03-03T10:24:59+0100</time>
      </trkpt>
      <trkpt lat="43.15219" lon="2.60794">
        <ele>379.3</ele>
        <time>2019-03-03T10:24:57+0100</time>
      </trkpt>
      <trkpt lat="43.15223" lon="2.60786">
        <ele>377.8</ele>
        <time>2019-03-03T10:24:53+0100</time>
      </trkpt>
      <trkpt lat="43.15224" lon="2.60784">
        <ele>378</ele>
        <time>2019-03-03T10:24:52+0100</time>
      </trkpt>
      <trkpt lat="43.15228" lon="2.60777">
        <ele>378.4</ele>
      </trkpt>
      <trkpt lat="43.15231" lon="2.6077">
        <ele>379.2</ele>
      </trkpt>
      <trkpt lat="43.15234" lon="2.60763">
        <ele>379.6</ele>
      </trkpt>
      <trkpt lat="43.15238" lon="2.60755">
        <ele>379.7</ele>
        <time>2019-03-03T10:24:39+0100</time>
      </trkpt>
      <trkpt lat="43.15242" lon="2.60746">
        <ele>379.3</ele>
        <time>2019-03-03T10:24:34+0100</time>
      </trkpt>
      <trkpt lat="43.15242" lon="2.60745">
        <ele>379.1</ele>
        <time>2019-03-03T10:24:33+0100</time>
      </trkpt>
      <trkpt lat="43.15242" lon="2.60743">
        <ele>378.9</ele>
        <time>2019-03-03T10:24:32+0100</time>
      </trkpt>
      <trkpt lat="43.15241" lon="2.60737">
        <ele>377.8</ele>
        <time>2019-03-03T10:24:28+0100</time>
      </trkpt>
      <trkpt lat="43.15241" lon="2.60735">
        <ele>377.6</ele>
        <time>2019-03-03T10:24:27+0100</time>
      </trkpt>
      <trkpt lat="43.15242" lon="2.60734">
        <ele>377.4</ele>
        <time>2019-03-03T10:24:26+0100</time>
      </trkpt>
      <trkpt lat="43.15243" lon="2.60731">
        <ele>376.9</ele>
        <time>2019-03-03T10:24:24+0100</time>
      </trkpt>
      <trkpt lat="43.15245" lon="2.60724">
        <ele>375.8</ele>
      </trkpt>
      <trkpt lat="43.15247" lon="2.60718">
        <ele>374.6</ele>
        <time>2019-03-03T10:24:17+0100</time>
      </trkpt>
      <trkpt lat="43.15249" lon="2.60712">
        <ele>373.4</ele>
      </trkpt>
      <trkpt lat="43.15251" lon="2.60707">
        <ele>372.8</ele>
        <time>2019-03-03T10:24:11+0100</time>
      </trkpt>
      <trkpt lat="43.15252" lon="2.60697">
        <ele>371.6</ele>
        <time>2019-03-03T10:24:05+0100</time>
      </trkpt>
      <trkpt lat="43.15255" lon="2.60689">
        <ele>372.2</ele>
        <time>2019-03-03T10:24:00+0100</time>
      </trkpt>
      <trkpt lat="43.15256" lon="2.60686">
        <ele>372.5</ele>
        <time>2019-03-03T10:23:58+0100</time>
      </trkpt>
      <trkpt lat="43.15259" lon="2.60679">
        <ele>372.8</ele>
      </trkpt>
      <trkpt lat="43.15261" lon="2.60673">
        <ele>372.9</ele>
        <time>2019-03-03T10:23:50+0100</time>
      </trkpt>
      <trkpt lat="43.15262" lon="2.60671">
        <ele>373</ele>
        <time>2019-03-03T10:23:49+0100</time>
      </trkpt>
      <trkpt lat="43.15265" lon="2.60662">
        <ele>372.7</ele>
        <time>2019-03-03T10:23:43+0100</time>
      </trkpt>
      <trkpt lat="43.15268" lon="2.60654">
        <ele>372.4</ele>
        <time>2019-03-03T10:23:39+0100</time>
      </trkpt>
      <trkpt lat="43.15269" lon="2.60648">
        <ele>371.7</ele>
      </trkpt>
      <trkpt lat="43.15271" lon="2.60642">
        <ele>370.7</ele>
        <time>2019-03-03T10:23:31+0100</time>
      </trkpt>
      <trkpt lat="43.15272" lon="2.60638">
        <ele>370.1</ele>
        <time>2019-03-03T10:23:29+0100</time>
      </trkpt>
      <trkpt lat="43.15274" lon="2.60628">
        <ele>368.9</ele>
        <time>2019-03-03T10:23:23+0100</time>
      </trkpt>
      <trkpt lat="43.15275" lon="2.60623">
        <ele>368.1</ele>
        <time>2019-03-03T10:23:20+0100</time>
      </trkpt>
      <trkpt lat="43.15276" lon="2.60621">
        <ele>367.7</ele>
        <time>2019-03-03T10:23:18+0100</time>
      </trkpt>
      <trkpt lat="43.15276" lon="2.60619">
        <ele>367.5</ele>
        <time>2019-03-03T10:23:17+0100</time>
      </trkpt>
      <trkpt lat="43.15273" lon="2.60616">
        <ele>367.7</ele>
        <time>2019-03-03T10:23:15+0100</time>
      </trkpt>
      <trkpt lat="43.15272" lon="2.60615">
        <ele>367.7</ele>
        <time>2019-03-03T10:23:14+0100</time>
      </trkpt>
      <trkpt lat="43.15272" lon="2.60611">
        <ele>367.5</ele>
        <time>2019-03-03T10:23:12+0100</time>
      </trkpt>
      <trkpt lat="43.15273" lon="2.60602">
        <ele>366.4</ele>
      </trkpt>
      <trkpt lat="43.15274" lon="2.60592">
        <ele>365.1</ele>
        <time>2019-03-03T10:23:04+0100</time>
      </trkpt>
      <trkpt lat="43.15276" lon="2.60585">
        <ele>363.8</ele>
      </trkpt>
      <trkpt lat="43.15278" lon="2.60578">
        <ele>362.7</ele>
      </trkpt>
      <trkpt lat="43.15279" lon="2.60571">
        <ele>362.8</ele>
      </trkpt>
      <trkpt lat="43.15281" lon="2.60564">
        <ele>363.1</ele>
      </trkpt>
      <trkpt lat="43.15283" lon="2.60557">
        <ele>363.4</ele>
      </trkpt>
      <trkpt lat="43.15285" lon="2.6055">
        <ele>363.9</ele>
      </trkpt>
      <trkpt lat="43.15286" lon="2.60543">
        <ele>364.4</ele>
      </trkpt>
      <trkpt lat="43.15288" lon="2.60536">
        <ele>364.7</ele>
        <time>2019-03-03T10:22:41+0100</time>
      </trkpt>
      <trkpt lat="43.15292" lon="2.60527">
        <ele>365.5</ele>
        <time>2019-03-03T10:22:32+0100</time>
      </trkpt>
      <trkpt lat="43.15294" lon="2.6052">
        <ele>365.4</ele>
        <time>2019-03-03T10:22:21+0100</time>
      </trkpt>
      <trkpt lat="43.15297" lon="2.60511">
        <ele>364.9</ele>
        <time>2019-03-03T10:22:14+0100</time>
      </trkpt>
      <trkpt lat="43.15299" lon="2.60502">
        <ele>363.9</ele>
        <time>2019-03-03T10:22:09+0100</time>
      </trkpt>
      <trkpt lat="43.15302" lon="2.60495">
        <ele>363</ele>
      </trkpt>
      <trkpt lat="43.15304" lon="2.60489">
        <ele>362</ele>
        <time>2019-03-03T10:22:02+0100</time>
      </trkpt>
      <trkpt lat="43.15307" lon="2.6048">
        <ele>360.8</ele>
        <time>2019-03-03T10:21:58+0100</time>
      </trkpt>
      <trkpt lat="43.15308" lon="2.60476">
        <ele>360.8</ele>
        <time>2019-03-03T10:21:56+0100</time>
      </trkpt>
      <trkpt lat="43.15307" lon="2.60474">
        <ele>360</ele>
        <time>2019-03-03T10:21:54+0100</time>
      </trkpt>
      <trkpt lat="43.15302" lon="2.60467">
        <ele>359.1</ele>
        <time>2019-03-03T10:21:47+0100</time>
      </trkpt>
      <trkpt lat="43.15307" lon="2.60461">
        <ele>358.2</ele>
      </trkpt>
      <trkpt lat="43.15313" lon="2.60455">
        <ele>358.2</ele>
      </trkpt>
      <trkpt lat="43.15318" lon="2.60449">
        <ele>357.4</ele>
      </trkpt>
      <trkpt lat="43.15323" lon="2.60443">
        <ele>356</ele>
        <time>2019-03-03T10:21:30+0100</time>
      </trkpt>
      <trkpt lat="43.15325" lon="2.60443">
        <ele>356</ele>
        <time>2019-03-03T10:21:29+0100</time>
      </trkpt>
      <trkpt lat="43.15327" lon="2.6044">
        <ele>356</ele>
        <time>2019-03-03T10:21:27+0100</time>
      </trkpt>
      <trkpt lat="43.15333" lon="2.60436">
        <ele>355.7</ele>
      </trkpt>
      <trkpt lat="43.15339" lon="2.60432">
        <ele>355.5</ele>
        <time>2019-03-03T10:21:19+0100</time>
      </trkpt>
      <trkpt lat="43.15346" lon="2.60431">
        <ele>355.3</ele>
      </trkpt>
      <trkpt lat="43.15354" lon="2.6043">
        <ele>355.1</ele>
      </trkpt>
      <trkpt lat="43.15362" lon="2.6043">
        <ele>354.7</ele>
      </trkpt>
      <trkpt lat="43.1537" lon="2.60429">
        <ele>354.4</ele>
        <time>2019-03-03T10:21:05+0100</time>
      </trkpt>
      <trkpt lat="43.15378" lon="2.6043">
        <ele>354.3</ele>
      </trkpt>
      <trkpt lat="43.15387" lon="2.6043">
        <ele>354.4</ele>
        <time>2019-03-03T10:20:56+0100</time>
      </trkpt>
      <trkpt lat="43.15391" lon="2.6043">
        <ele>354.1</ele>
        <time>2019-03-03T10:20:54+0100</time>
      </trkpt>
      <trkpt lat="43.15396" lon="2.60429">
        <ele>354</ele>
      </trkpt>
      <trkpt lat="43.15402" lon="2.60429">
        <ele>353.9</ele>
      </trkpt>
      <trkpt lat="43.15407" lon="2.60429">
        <ele>353.8</ele>
      </trkpt>
      <trkpt lat="43.15413" lon="2.60429">
        <ele>353.7</ele>
      </trkpt>
      <trkpt lat="43.15418" lon="2.60428">
        <ele>353.5</ele>
      </trkpt>
      <trkpt lat="43.15424" lon="2.60428">
        <ele>353</ele>
      </trkpt>
      <trkpt lat="43.15429" lon="2.60428">
        <ele>352.4</ele>
      </trkpt>
      <trkpt lat="43.15435" lon="2.60428">
        <ele>351.9</ele>
        <time>2019-03-03T10:20:31+0100</time>
      </trkpt>
      <trkpt lat="43.15439" lon="2.60432">
        <ele>353</ele>
      </trkpt>
      <trkpt lat="43.15444" lon="2.60436">
        <ele>354.1</ele>
      </trkpt>
      <trkpt lat="43.15449" lon="2.60441">
        <ele>354.6</ele>
      </trkpt>
      <trkpt lat="43.15454" lon="2.60445">
        <ele>354.8</ele>
        <time>2019-03-03T10:20:20+0100</time>
      </trkpt>
      <trkpt lat="43.15456" lon="2.60445">
        <ele>354.2</ele>
        <time>2019-03-03T10:20:16+0100</time>
      </trkpt>
      <trkpt lat="43.1546" lon="2.60446">
        <ele>353.8</ele>
        <time>2019-03-03T10:20:12+0100</time>
      </trkpt>
      <trkpt lat="43.15467" lon="2.60448">
        <ele>352.8</ele>
        <time>2019-03-03T10:20:06+0100</time>
      </trkpt>
      <trkpt lat="43.15473" lon="2.6045">
        <ele>351.9</ele>
        <time>2019-03-03T10:20:01+0100</time>
      </trkpt>
      <trkpt lat="43.15477" lon="2.6045">
        <ele>351</ele>
        <time>2019-03-03T10:19:57+0100</time>
      </trkpt>
      <trkpt lat="43.15482" lon="2.60449">
        <ele>349.3</ele>
        <time>2019-03-03T10:19:51+0100</time>
      </trkpt>
      <trkpt lat="43.15486" lon="2.60451">
        <ele>348.4</ele>
        <time>2019-03-03T10:19:46+0100</time>
      </trkpt>
      <trkpt lat="43.15489" lon="2.6045">
        <ele>347.7</ele>
        <time>2019-03-03T10:19:44+0100</time>
      </trkpt>
      <trkpt lat="43.15494" lon="2.60449">
        <ele>345.9</ele>
        <time>2019-03-03T10:19:37+0100</time>
      </trkpt>
      <trkpt lat="43.15495" lon="2.60449">
        <ele>345.4</ele>
        <time>2019-03-03T10:19:31+0100</time>
      </trkpt>
      <trkpt lat="43.15497" lon="2.60448">
        <ele>345</ele>
        <time>2019-03-03T10:19:29+0100</time>
      </trkpt>
      <trkpt lat="43.15498" lon="2.60448">
        <ele>344.3</ele>
        <time>2019-03-03T10:19:27+0100</time>
      </trkpt>
      <trkpt lat="43.155" lon="2.60445">
        <ele>343.1</ele>
        <time>2019-03-03T10:19:23+0100</time>
      </trkpt>
      <trkpt lat="43.155" lon="2.60441">
        <ele>343.1</ele>
        <time>2019-03-03T10:19:19+0100</time>
      </trkpt>
      <trkpt lat="43.15507" lon="2.60434">
        <ele>343.6</ele>
        <time>2019-03-03T10:19:11+0100</time>
      </trkpt>
      <trkpt lat="43.15508" lon="2.60433">
        <ele>343.8</ele>
        <time>2019-03-03T10:19:10+0100</time>
      </trkpt>
      <trkpt lat="43.15511" lon="2.60432">
        <ele>344.1</ele>
        <time>2019-03-03T10:19:08+0100</time>
      </trkpt>
      <trkpt lat="43.15515" lon="2.60434">
        <ele>343.8</ele>
        <time>2019-03-03T10:19:06+0100</time>
      </trkpt>
      <trkpt lat="43.15517" lon="2.60442">
        <ele>341.8</ele>
        <time>2019-03-03T10:19:03+0100</time>
      </trkpt>
      <trkpt lat="43.15517" lon="2.60448">
        <ele>341.5</ele>
      </trkpt>
      <trkpt lat="43.15517" lon="2.60455">
        <ele>341.9</ele>
        <time>2019-03-03T10:18:57+0100</time>
      </trkpt>
      <trkpt lat="43.15521" lon="2.60463">
        <ele>341.3</ele>
        <time>2019-03-03T10:18:53+0100</time>
      </trkpt>
      <trkpt lat="43.15528" lon="2.60471">
        <ele>339.2</ele>
        <time>2019-03-03T10:18:49+0100</time>
      </trkpt>
      <trkpt lat="43.15529" lon="2.60474">
        <ele>339.3</ele>
        <time>2019-03-03T10:18:48+0100</time>
      </trkpt>
      <trkpt lat="43.15529" lon="2.60476">
        <ele>339.6</ele>
        <time>2019-03-03T10:18:47+0100</time>
      </trkpt>
      <trkpt lat="43.15525" lon="2.60479">
        <ele>341.4</ele>
      </trkpt>
      <trkpt lat="43.15521" lon="2.60483">
        <ele>343.5</ele>
        <time>2019-03-03T10:18:41+0100</time>
      </trkpt>
      <trkpt lat="43.15527" lon="2.6049">
        <ele>342.5</ele>
      </trkpt>
      <trkpt lat="43.15533" lon="2.60498">
        <ele>342.4</ele>
      </trkpt>
      <trkpt lat="43.1554" lon="2.60506">
        <ele>342.4</ele>
      </trkpt>
      <trkpt lat="43.15546" lon="2.60514">
        <ele>342.5</ele>
        <time>2019-03-03T10:18:22+0100</time>
      </trkpt>
      <trkpt lat="43.15549" lon="2.60517">
        <ele>342.6</ele>
        <time>2019-03-03T10:18:20+0100</time>
      </trkpt>
      <trkpt lat="43.1555" lon="2.60519">
        <ele>342.8</ele>
        <time>2019-03-03T10:18:19+0100</time>
      </trkpt>
      <trkpt lat="43.15556" lon="2.60525">
        <ele>342.4</ele>
      </trkpt>
      <trkpt lat="43.15561" lon="2.60531">
        <ele>343.3</ele>
        <time>2019-03-03T10:18:12+0100</time>
      </trkpt>
      <trkpt lat="43.15566" lon="2.60532">
        <ele>342.9</ele>
        <time>2019-03-03T10:18:08+0100</time>
      </trkpt>
      <trkpt lat="43.15567" lon="2.60532">
        <ele>342.7</ele>
        <time>2019-03-03T10:18:06+0100</time>
      </trkpt>
      <trkpt lat="43.15573" lon="2.6053">
        <ele>340.9</ele>
        <time>2019-03-03T10:18:00+0100</time>
      </trkpt>
      <trkpt lat="43.1558" lon="2.60532">
        <ele>340.2</ele>
        <time>2019-03-03T10:17:54+0100</time>
      </trkpt>
      <trkpt lat="43.15584" lon="2.60532">
        <ele>339.5</ele>
        <time>2019-03-03T10:17:51+0100</time>
      </trkpt>
      <trkpt lat="43.15585" lon="2.60532">
        <ele>339.3</ele>
        <time>2019-03-03T10:17:50+0100</time>
      </trkpt>
      <trkpt lat="43.15588" lon="2.60533">
        <ele>339</ele>
        <time>2019-03-03T10:17:46+0100</time>
      </trkpt>
      <trkpt lat="43.1559" lon="2.60531">
        <ele>338.2</ele>
        <time>2019-03-03T10:17:42+0100</time>
      </trkpt>
      <trkpt lat="43.15593" lon="2.6053">
        <ele>337.2</ele>
        <time>2019-03-03T10:17:38+0100</time>
      </trkpt>
      <trkpt lat="43.15595" lon="2.60527">
        <ele>336.3</ele>
        <time>2019-03-03T10:17:33+0100</time>
      </trkpt>
      <trkpt lat="43.15599" lon="2.60523">
        <ele>335.6</ele>
        <time>2019-03-03T10:17:28+0100</time>
      </trkpt>
      <trkpt lat="43.15605" lon="2.60524">
        <ele>334.9</ele>
        <time>2019-03-03T10:17:23+0100</time>
      </trkpt>
      <trkpt lat="43.15612" lon="2.60527">
        <ele>333.9</ele>
      </trkpt>
      <trkpt lat="43.15619" lon="2.6053">
        <ele>333.7</ele>
        <time>2019-03-03T10:17:16+0100</time>
      </trkpt>
      <trkpt lat="43.15625" lon="2.60531">
        <ele>333.3</ele>
      </trkpt>
      <trkpt lat="43.15631" lon="2.60531">
        <ele>333</ele>
        <time>2019-03-03T10:17:08+0100</time>
      </trkpt>
      <trkpt lat="43.15636" lon="2.60532">
        <ele>332.8</ele>
        <time>2019-03-03T10:17:03+0100</time>
      </trkpt>
      <trkpt lat="43.15644" lon="2.60529">
        <ele>330.7</ele>
        <time>2019-03-03T10:16:57+0100</time>
      </trkpt>
      <trkpt lat="43.15652" lon="2.60528">
        <ele>329.1</ele>
        <time>2019-03-03T10:16:50+0100</time>
      </trkpt>
      <trkpt lat="43.15658" lon="2.60529">
        <ele>328.6</ele>
      </trkpt>
      <trkpt lat="43.15664" lon="2.6053">
        <ele>328.1</ele>
        <time>2019-03-03T10:16:43+0100</time>
      </trkpt>
      <trkpt lat="43.15669" lon="2.60532">
        <ele>328.6</ele>
      </trkpt>
      <trkpt lat="43.15674" lon="2.60535">
        <ele>328.9</ele>
        <time>2019-03-03T10:16:37+0100</time>
      </trkpt>
      <trkpt lat="43.15678" lon="2.60541">
        <ele>330.4</ele>
      </trkpt>
      <trkpt lat="43.15683" lon="2.60547">
        <ele>331.6</ele>
        <time>2019-03-03T10:16:31+0100</time>
      </trkpt>
      <trkpt lat="43.15684" lon="2.60548">
        <ele>331.8</ele>
        <time>2019-03-03T10:16:30+0100</time>
      </trkpt>
      <trkpt lat="43.15688" lon="2.60549">
        <ele>331.3</ele>
        <time>2019-03-03T10:16:27+0100</time>
      </trkpt>
      <trkpt lat="43.15691" lon="2.60549">
        <ele>330.6</ele>
        <time>2019-03-03T10:16:24+0100</time>
      </trkpt>
      <trkpt lat="43.15692" lon="2.60549">
        <ele>330.3</ele>
        <time>2019-03-03T10:16:23+0100</time>
      </trkpt>
      <trkpt lat="43.157" lon="2.60547">
        <ele>328.6</ele>
        <time>2019-03-03T10:16:16+0100</time>
      </trkpt>
      <trkpt lat="43.15708" lon="2.60548">
        <ele>327.9</ele>
        <time>2019-03-03T10:16:10+0100</time>
      </trkpt>
      <trkpt lat="43.15713" lon="2.60547">
        <ele>327</ele>
        <time>2019-03-03T10:16:05+0100</time>
      </trkpt>
      <trkpt lat="43.1572" lon="2.60543">
        <ele>325.1</ele>
        <time>2019-03-03T10:15:58+0100</time>
      </trkpt>
      <trkpt lat="43.15721" lon="2.60543">
        <ele>324.9</ele>
        <time>2019-03-03T10:15:57+0100</time>
      </trkpt>
      <trkpt lat="43.15725" lon="2.60541">
        <ele>324.1</ele>
        <time>2019-03-03T10:15:53+0100</time>
      </trkpt>
      <trkpt lat="43.1573" lon="2.60539">
        <ele>323.1</ele>
        <time>2019-03-03T10:15:48+0100</time>
      </trkpt>
      <trkpt lat="43.15735" lon="2.60536">
        <ele>322</ele>
        <time>2019-03-03T10:15:44+0100</time>
      </trkpt>
      <trkpt lat="43.15738" lon="2.60535">
        <ele>321.3</ele>
        <time>2019-03-03T10:15:41+0100</time>
      </trkpt>
      <trkpt lat="43.15741" lon="2.60534">
        <ele>320.7</ele>
        <time>2019-03-03T10:15:39+0100</time>
      </trkpt>
      <trkpt lat="43.15742" lon="2.60533">
        <ele>319.9</ele>
        <time>2019-03-03T10:15:37+0100</time>
      </trkpt>
      <trkpt lat="43.1575" lon="2.60531">
        <ele>318.3</ele>
        <time>2019-03-03T10:15:31+0100</time>
      </trkpt>
      <trkpt lat="43.15759" lon="2.60528">
        <ele>315.8</ele>
        <time>2019-03-03T10:15:24+0100</time>
      </trkpt>
      <trkpt lat="43.1576" lon="2.60528">
        <ele>315.7</ele>
        <time>2019-03-03T10:15:23+0100</time>
      </trkpt>
      <trkpt lat="43.15764" lon="2.60529">
        <ele>315.6</ele>
        <time>2019-03-03T10:15:20+0100</time>
      </trkpt>
      <trkpt lat="43.15766" lon="2.60527">
        <ele>314.7</ele>
        <time>2019-03-03T10:15:16+0100</time>
      </trkpt>
      <trkpt lat="43.15769" lon="2.60526">
        <ele>314.5</ele>
        <time>2019-03-03T10:15:12+0100</time>
      </trkpt>
      <trkpt lat="43.15772" lon="2.60525">
        <ele>314</ele>
        <time>2019-03-03T10:15:07+0100</time>
      </trkpt>
      <trkpt lat="43.15779" lon="2.60523">
        <ele>313</ele>
        <time>2019-03-03T10:15:00+0100</time>
      </trkpt>
      <trkpt lat="43.15784" lon="2.60523">
        <ele>312</ele>
        <time>2019-03-03T10:14:55+0100</time>
      </trkpt>
      <trkpt lat="43.1579" lon="2.60524">
        <ele>310.9</ele>
        <time>2019-03-03T10:14:50+0100</time>
      </trkpt>
      <trkpt lat="43.15797" lon="2.60524">
        <ele>309.7</ele>
        <time>2019-03-03T10:14:45+0100</time>
      </trkpt>
      <trkpt lat="43.15801" lon="2.60524">
        <ele>308.9</ele>
        <time>2019-03-03T10:14:41+0100</time>
      </trkpt>
      <trkpt lat="43.15808" lon="2.60524">
        <ele>307.7</ele>
        <time>2019-03-03T10:14:35+0100</time>
      </trkpt>
      <trkpt lat="43.15815" lon="2.60526">
        <ele>306.4</ele>
      </trkpt>
      <trkpt lat="43.15822" lon="2.60528">
        <ele>305.2</ele>
        <time>2019-03-03T10:14:25+0100</time>
      </trkpt>
      <trkpt lat="43.15827" lon="2.60529">
        <ele>304.9</ele>
        <time>2019-03-03T10:14:21+0100</time>
      </trkpt>
      <trkpt lat="43.15831" lon="2.60528">
        <ele>303.5</ele>
        <time>2019-03-03T10:14:16+0100</time>
      </trkpt>
      <trkpt lat="43.15837" lon="2.60526">
        <ele>302.7</ele>
        <time>2019-03-03T10:14:10+0100</time>
      </trkpt>
      <trkpt lat="43.15846" lon="2.60526">
        <ele>301.8</ele>
      </trkpt>
      <trkpt lat="43.15854" lon="2.60526">
        <ele>300.8</ele>
        <time>2019-03-03T10:13:55+0100</time>
      </trkpt>
      <trkpt lat="43.15862" lon="2.60529">
        <ele>300.4</ele>
        <time>2019-03-03T10:13:30+0100</time>
      </trkpt>
      <trkpt lat="43.15863" lon="2.6053">
        <ele>300.6</ele>
        <time>2019-03-03T10:13:28+0100</time>
      </trkpt>
      <trkpt lat="43.15867" lon="2.6053">
        <ele>300.4</ele>
        <time>2019-03-03T10:13:24+0100</time>
      </trkpt>
      <trkpt lat="43.15871" lon="2.60527">
        <ele>299.3</ele>
        <time>2019-03-03T10:13:21+0100</time>
      </trkpt>
      <trkpt lat="43.15876" lon="2.60526">
        <ele>298.9</ele>
      </trkpt>
      <trkpt lat="43.15882" lon="2.60525">
        <ele>298.3</ele>
        <time>2019-03-03T10:13:13+0100</time>
      </trkpt>
      <trkpt lat="43.15886" lon="2.60525">
        <ele>298</ele>
        <time>2019-03-03T10:13:10+0100</time>
      </trkpt>
      <trkpt lat="43.1589" lon="2.60524">
        <ele>297.7</ele>
        <time>2019-03-03T10:13:07+0100</time>
      </trkpt>
      <trkpt lat="43.15895" lon="2.6052">
        <ele>297.5</ele>
        <time>2019-03-03T10:13:00+0100</time>
      </trkpt>
      <trkpt lat="43.15901" lon="2.60518">
        <ele>297.1</ele>
        <time>2019-03-03T10:12:55+0100</time>
      </trkpt>
      <trkpt lat="43.15903" lon="2.60518">
        <ele>297</ele>
        <time>2019-03-03T10:12:54+0100</time>
      </trkpt>
      <trkpt lat="43.15904" lon="2.60516">
        <ele>296.6</ele>
        <time>2019-03-03T10:12:52+0100</time>
      </trkpt>
      <trkpt lat="43.15906" lon="2.60514">
        <ele>296.1</ele>
        <time>2019-03-03T10:12:50+0100</time>
      </trkpt>
      <trkpt lat="43.15906" lon="2.60513">
        <ele>295.8</ele>
        <time>2019-03-03T10:12:49+0100</time>
      </trkpt>
      <trkpt lat="43.15912" lon="2.60508">
        <ele>294.1</ele>
        <time>2019-03-03T10:12:43+0100</time>
      </trkpt>
      <trkpt lat="43.15916" lon="2.60507">
        <ele>293.4</ele>
        <time>2019-03-03T10:12:40+0100</time>
      </trkpt>
      <trkpt lat="43.15917" lon="2.60507">
        <ele>293.3</ele>
        <time>2019-03-03T10:12:39+0100</time>
      </trkpt>
      <trkpt lat="43.15919" lon="2.60506">
        <ele>292.9</ele>
        <time>2019-03-03T10:12:37+0100</time>
      </trkpt>
      <trkpt lat="43.15921" lon="2.60504">
        <ele>292.2</ele>
        <time>2019-03-03T10:12:34+0100</time>
      </trkpt>
      <trkpt lat="43.15926" lon="2.60501">
        <ele>291.1</ele>
        <time>2019-03-03T10:12:29+0100</time>
      </trkpt>
      <trkpt lat="43.15931" lon="2.60499">
        <ele>290.5</ele>
        <time>2019-03-03T10:12:25+0100</time>
      </trkpt>
      <trkpt lat="43.15936" lon="2.60495">
        <ele>290</ele>
        <time>2019-03-03T10:12:20+0100</time>
      </trkpt>
      <trkpt lat="43.1594" lon="2.60492">
        <ele>289.4</ele>
        <time>2019-03-03T10:12:15+0100</time>
      </trkpt>
      <trkpt lat="43.15946" lon="2.60489">
        <ele>288.3</ele>
        <time>2019-03-03T10:12:09+0100</time>
      </trkpt>
      <trkpt lat="43.15949" lon="2.60486">
        <ele>287.7</ele>
        <time>2019-03-03T10:12:05+0100</time>
      </trkpt>
      <trkpt lat="43.15955" lon="2.60482">
        <ele>286.1</ele>
        <time>2019-03-03T10:11:58+0100</time>
      </trkpt>
      <trkpt lat="43.15961" lon="2.60477">
        <ele>283.8</ele>
        <time>2019-03-03T10:11:53+0100</time>
      </trkpt>
      <trkpt lat="43.15965" lon="2.60475">
        <ele>282.6</ele>
        <time>2019-03-03T10:11:49+0100</time>
      </trkpt>
      <trkpt lat="43.15971" lon="2.60468">
        <ele>280.2</ele>
        <time>2019-03-03T10:11:42+0100</time>
      </trkpt>
      <trkpt lat="43.15975" lon="2.60468">
        <ele>279.5</ele>
        <time>2019-03-03T10:11:38+0100</time>
      </trkpt>
      <trkpt lat="43.15976" lon="2.60466">
        <ele>279.2</ele>
        <time>2019-03-03T10:11:34+0100</time>
      </trkpt>
      <trkpt lat="43.15979" lon="2.60463">
        <ele>278.5</ele>
        <time>2019-03-03T10:11:29+0100</time>
      </trkpt>
      <trkpt lat="43.15982" lon="2.60462">
        <ele>277.9</ele>
        <time>2019-03-03T10:11:25+0100</time>
      </trkpt>
      <trkpt lat="43.15983" lon="2.60461">
        <ele>277.7</ele>
        <time>2019-03-03T10:11:24+0100</time>
      </trkpt>
      <trkpt lat="43.15986" lon="2.60458">
        <ele>276.7</ele>
        <time>2019-03-03T10:11:20+0100</time>
      </trkpt>
      <trkpt lat="43.15987" lon="2.60458">
        <ele>276.5</ele>
        <time>2019-03-03T10:11:18+0100</time>
      </trkpt>
      <trkpt lat="43.15989" lon="2.60458">
        <ele>276.3</ele>
        <time>2019-03-03T10:11:16+0100</time>
      </trkpt>
      <trkpt lat="43.15993" lon="2.60459">
        <ele>275.8</ele>
      </trkpt>
      <trkpt lat="43.15998" lon="2.6046">
        <ele>275.3</ele>
        <time>2019-03-03T10:11:10+0100</time>
      </trkpt>
      <trkpt lat="43.16" lon="2.6046">
        <ele>275</ele>
        <time>2019-03-03T10:11:09+0100</time>
      </trkpt>
      <trkpt lat="43.16002" lon="2.6046">
        <ele>274.7</ele>
        <time>2019-03-03T10:11:07+0100</time>
      </trkpt>
      <trkpt lat="43.16004" lon="2.6046">
        <ele>274.4</ele>
        <time>2019-03-03T10:11:06+0100</time>
      </trkpt>
      <trkpt lat="43.16006" lon="2.60458">
        <ele>273.6</ele>
        <time>2019-03-03T10:11:02+0100</time>
      </trkpt>
      <trkpt lat="43.16007" lon="2.60457">
        <ele>273.2</ele>
        <time>2019-03-03T10:11:00+0100</time>
      </trkpt>
      <trkpt lat="43.16008" lon="2.60456">
        <ele>272.9</ele>
        <time>2019-03-03T10:10:58+0100</time>
      </trkpt>
      <trkpt lat="43.16011" lon="2.60455">
        <ele>272.3</ele>
        <time>2019-03-03T10:10:55+0100</time>
      </trkpt>
      <trkpt lat="43.16012" lon="2.60455">
        <ele>271.9</ele>
        <time>2019-03-03T10:10:54+0100</time>
      </trkpt>
      <trkpt lat="43.16016" lon="2.60453">
        <ele>271.1</ele>
        <time>2019-03-03T10:10:50+0100</time>
      </trkpt>
      <trkpt lat="43.16017" lon="2.60453">
        <ele>270.9</ele>
        <time>2019-03-03T10:10:48+0100</time>
      </trkpt>
      <trkpt lat="43.16019" lon="2.60452">
        <ele>270.3</ele>
        <time>2019-03-03T10:10:45+0100</time>
      </trkpt>
      <trkpt lat="43.16028" lon="2.60456">
        <ele>270.3</ele>
        <time>2019-03-03T10:10:40+0100</time>
      </trkpt>
      <trkpt lat="43.16035" lon="2.60455">
        <ele>269.3</ele>
        <time>2019-03-03T10:10:35+0100</time>
      </trkpt>
      <trkpt lat="43.16041" lon="2.60455">
        <ele>268.3</ele>
        <time>2019-03-03T10:10:30+0100</time>
      </trkpt>
      <trkpt lat="43.16045" lon="2.60454">
        <ele>267.5</ele>
        <time>2019-03-03T10:10:26+0100</time>
      </trkpt>
      <trkpt lat="43.16049" lon="2.60451">
        <ele>265.8</ele>
        <time>2019-03-03T10:10:21+0100</time>
      </trkpt>
      <trkpt lat="43.1605" lon="2.60449">
        <ele>265</ele>
        <time>2019-03-03T10:10:19+0100</time>
      </trkpt>
      <trkpt lat="43.16059" lon="2.60447">
        <ele>262.7</ele>
        <time>2019-03-03T10:10:11+0100</time>
      </trkpt>
      <trkpt lat="43.16067" lon="2.60448">
        <ele>262.2</ele>
        <time>2019-03-03T10:10:06+0100</time>
      </trkpt>
      <trkpt lat="43.16071" lon="2.60447">
        <ele>261.6</ele>
        <time>2019-03-03T10:10:03+0100</time>
      </trkpt>
      <trkpt lat="43.16074" lon="2.60446">
        <ele>260.9</ele>
        <time>2019-03-03T10:10:00+0100</time>
      </trkpt>
      <trkpt lat="43.16075" lon="2.60447">
        <ele>260.9</ele>
        <time>2019-03-03T10:09:59+0100</time>
      </trkpt>
      <trkpt lat="43.16078" lon="2.60446">
        <ele>260.4</ele>
        <time>2019-03-03T10:09:56+0100</time>
      </trkpt>
      <trkpt lat="43.16084" lon="2.60445">
        <ele>259.3</ele>
        <time>2019-03-03T10:09:52+0100</time>
      </trkpt>
      <trkpt lat="43.16093" lon="2.60445">
        <ele>258.5</ele>
        <time>2019-03-03T10:09:46+0100</time>
      </trkpt>
      <trkpt lat="43.16097" lon="2.60445">
        <ele>258.1</ele>
        <time>2019-03-03T10:09:43+0100</time>
      </trkpt>
      <trkpt lat="43.16099" lon="2.60444">
        <ele>257.9</ele>
        <time>2019-03-03T10:09:41+0100</time>
      </trkpt>
      <trkpt lat="43.16104" lon="2.6044">
        <ele>257.2</ele>
        <time>2019-03-03T10:09:34+0100</time>
      </trkpt>
      <trkpt lat="43.16106" lon="2.60438">
        <ele>256.9</ele>
        <time>2019-03-03T10:09:32+0100</time>
      </trkpt>
      <trkpt lat="43.16109" lon="2.60436">
        <ele>256.4</ele>
        <time>2019-03-03T10:09:29+0100</time>
      </trkpt>
      <trkpt lat="43.16113" lon="2.60432">
        <ele>255.6</ele>
        <time>2019-03-03T10:09:25+0100</time>
      </trkpt>
      <trkpt lat="43.16117" lon="2.6043">
        <ele>255.3</ele>
        <time>2019-03-03T10:09:22+0100</time>
      </trkpt>
      <trkpt lat="43.16125" lon="2.60427">
        <ele>254.2</ele>
        <time>2019-03-03T10:09:16+0100</time>
      </trkpt>
      <trkpt lat="43.1613" lon="2.60424">
        <ele>252.9</ele>
      </trkpt>
      <trkpt lat="43.16134" lon="2.6042">
        <ele>251.2</ele>
        <time>2019-03-03T10:09:08+0100</time>
      </trkpt>
      <trkpt lat="43.16139" lon="2.60418">
        <ele>249.5</ele>
      </trkpt>
      <trkpt lat="43.16143" lon="2.60415">
        <ele>249.8</ele>
        <time>2019-03-03T10:09:02+0100</time>
      </trkpt>
      <trkpt lat="43.16147" lon="2.60414">
        <ele>250.3</ele>
        <time>2019-03-03T10:08:58+0100</time>
      </trkpt>
      <trkpt lat="43.1615" lon="2.6041">
        <ele>250.4</ele>
        <time>2019-03-03T10:08:54+0100</time>
      </trkpt>
      <trkpt lat="43.16151" lon="2.60408">
        <ele>250.2</ele>
        <time>2019-03-03T10:08:51+0100</time>
      </trkpt>
      <trkpt lat="43.16152" lon="2.60402">
        <ele>249.5</ele>
        <time>2019-03-03T10:08:47+0100</time>
      </trkpt>
      <trkpt lat="43.16152" lon="2.604">
        <ele>249.2</ele>
        <time>2019-03-03T10:08:45+0100</time>
      </trkpt>
      <trkpt lat="43.16152" lon="2.60397">
        <ele>248.7</ele>
        <time>2019-03-03T10:08:43+0100</time>
      </trkpt>
      <trkpt lat="43.16157" lon="2.60393">
        <ele>247</ele>
        <time>2019-03-03T10:08:38+0100</time>
      </trkpt>
      <trkpt lat="43.16162" lon="2.6039">
        <ele>245.1</ele>
        <time>2019-03-03T10:08:33+0100</time>
      </trkpt>
      <trkpt lat="43.16167" lon="2.60384">
        <ele>243.9</ele>
        <time>2019-03-03T10:08:27+0100</time>
      </trkpt>
      <trkpt lat="43.16172" lon="2.60382">
        <ele>244.1</ele>
        <time>2019-03-03T10:08:23+0100</time>
      </trkpt>
      <trkpt lat="43.16173" lon="2.60381">
        <ele>244.1</ele>
        <time>2019-03-03T10:08:22+0100</time>
      </trkpt>
      <trkpt lat="43.16177" lon="2.60378">
        <ele>243.9</ele>
        <time>2019-03-03T10:08:18+0100</time>
      </trkpt>
      <trkpt lat="43.1618" lon="2.60377">
        <ele>243.5</ele>
        <time>2019-03-03T10:08:16+0100</time>
      </trkpt>
      <trkpt lat="43.16181" lon="2.60376">
        <ele>243.3</ele>
        <time>2019-03-03T10:08:14+0100</time>
      </trkpt>
      <trkpt lat="43.16184" lon="2.60374">
        <ele>242.6</ele>
        <time>2019-03-03T10:08:11+0100</time>
      </trkpt>
      <trkpt lat="43.16185" lon="2.60374">
        <ele>242.3</ele>
        <time>2019-03-03T10:08:10+0100</time>
      </trkpt>
      <trkpt lat="43.16188" lon="2.60374">
        <ele>241.8</ele>
        <time>2019-03-03T10:08:06+0100</time>
      </trkpt>
      <trkpt lat="43.1619" lon="2.60375">
        <ele>241.9</ele>
        <time>2019-03-03T10:08:04+0100</time>
      </trkpt>
      <trkpt lat="43.16194" lon="2.60374">
        <ele>240.8</ele>
        <time>2019-03-03T10:07:59+0100</time>
      </trkpt>
      <trkpt lat="43.16196" lon="2.60371">
        <ele>239.1</ele>
        <time>2019-03-03T10:07:55+0100</time>
      </trkpt>
      <trkpt lat="43.162" lon="2.60369">
        <ele>237.9</ele>
        <time>2019-03-03T10:07:51+0100</time>
      </trkpt>
      <trkpt lat="43.16202" lon="2.60365">
        <ele>236</ele>
        <time>2019-03-03T10:07:46+0100</time>
      </trkpt>
      <trkpt lat="43.16206" lon="2.60363">
        <ele>234.4</ele>
        <time>2019-03-03T10:07:41+0100</time>
      </trkpt>
      <trkpt lat="43.16211" lon="2.60364">
        <ele>233.7</ele>
        <time>2019-03-03T10:07:36+0100</time>
      </trkpt>
      <trkpt lat="43.16216" lon="2.60364">
        <ele>232.9</ele>
        <time>2019-03-03T10:07:31+0100</time>
      </trkpt>
      <trkpt lat="43.16217" lon="2.60364">
        <ele>232.7</ele>
        <time>2019-03-03T10:07:30+0100</time>
      </trkpt>
      <trkpt lat="43.16219" lon="2.60364">
        <ele>231.8</ele>
        <time>2019-03-03T10:07:27+0100</time>
      </trkpt>
      <trkpt lat="43.16225" lon="2.60361">
        <ele>229.5</ele>
        <time>2019-03-03T10:07:22+0100</time>
      </trkpt>
      <trkpt lat="43.16232" lon="2.60359">
        <ele>228.2</ele>
        <time>2019-03-03T10:07:15+0100</time>
      </trkpt>
      <trkpt lat="43.16237" lon="2.60363">
        <ele>226.9</ele>
        <time>2019-03-03T10:07:10+0100</time>
      </trkpt>
      <trkpt lat="43.16243" lon="2.60363">
        <ele>225.5</ele>
        <time>2019-03-03T10:07:05+0100</time>
      </trkpt>
      <trkpt lat="43.16246" lon="2.60361">
        <ele>223.9</ele>
        <time>2019-03-03T10:07:01+0100</time>
      </trkpt>
      <trkpt lat="43.16249" lon="2.60358">
        <ele>224.4</ele>
        <time>2019-03-03T10:06:57+0100</time>
      </trkpt>
      <trkpt lat="43.16251" lon="2.60356">
        <ele>224.4</ele>
        <time>2019-03-03T10:06:55+0100</time>
      </trkpt>
      <trkpt lat="43.16254" lon="2.60355">
        <ele>224.4</ele>
        <time>2019-03-03T10:06:52+0100</time>
      </trkpt>
      <trkpt lat="43.1626" lon="2.60355">
        <ele>223.4</ele>
        <time>2019-03-03T10:06:47+0100</time>
      </trkpt>
      <trkpt lat="43.16265" lon="2.60352">
        <ele>223.2</ele>
        <time>2019-03-03T10:06:42+0100</time>
      </trkpt>
      <trkpt lat="43.1627" lon="2.60351">
        <ele>222.4</ele>
        <time>2019-03-03T10:06:37+0100</time>
      </trkpt>
      <trkpt lat="43.16273" lon="2.60351">
        <ele>221.6</ele>
        <time>2019-03-03T10:06:34+0100</time>
      </trkpt>
      <trkpt lat="43.16276" lon="2.60354">
        <ele>220.6</ele>
        <time>2019-03-03T10:06:31+0100</time>
      </trkpt>
      <trkpt lat="43.16277" lon="2.60356">
        <ele>220.1</ele>
        <time>2019-03-03T10:06:30+0100</time>
      </trkpt>
      <trkpt lat="43.16278" lon="2.60358">
        <ele>219.6</ele>
        <time>2019-03-03T10:06:29+0100</time>
      </trkpt>
      <trkpt lat="43.16284" lon="2.60361">
        <ele>217.9</ele>
        <time>2019-03-03T10:06:25+0100</time>
      </trkpt>
      <trkpt lat="43.16291" lon="2.60361">
        <ele>216.2</ele>
        <time>2019-03-03T10:06:19+0100</time>
      </trkpt>
      <trkpt lat="43.16295" lon="2.6036">
        <ele>215.4</ele>
        <time>2019-03-03T10:06:16+0100</time>
      </trkpt>
      <trkpt lat="43.16298" lon="2.6036">
        <ele>214.9</ele>
        <time>2019-03-03T10:06:14+0100</time>
      </trkpt>
      <trkpt lat="43.16303" lon="2.60358">
        <ele>213.9</ele>
        <time>2019-03-03T10:06:06+0100</time>
      </trkpt>
      <trkpt lat="43.16303" lon="2.60355">
        <ele>214.3</ele>
        <time>2019-03-03T10:06:02+0100</time>
      </trkpt>
      <trkpt lat="43.16304" lon="2.60355">
        <ele>214.1</ele>
        <time>2019-03-03T10:06:00+0100</time>
      </trkpt>
      <trkpt lat="43.16311" lon="2.60351">
        <ele>212.9</ele>
        <time>2019-03-03T10:05:55+0100</time>
      </trkpt>
      <trkpt lat="43.16318" lon="2.6035">
        <ele>211.3</ele>
        <time>2019-03-03T10:05:51+0100</time>
      </trkpt>
      <trkpt lat="43.16324" lon="2.6035">
        <ele>209.9</ele>
        <time>2019-03-03T10:05:47+0100</time>
      </trkpt>
      <trkpt lat="43.16332" lon="2.60351">
        <ele>208</ele>
        <time>2019-03-03T10:05:42+0100</time>
      </trkpt>
      <trkpt lat="43.1634" lon="2.60352">
        <ele>206.8</ele>
        <time>2019-03-03T10:05:37+0100</time>
      </trkpt>
      <trkpt lat="43.16345" lon="2.60351">
        <ele>206.3</ele>
      </trkpt>
      <trkpt lat="43.1635" lon="2.60349">
        <ele>205.7</ele>
        <time>2019-03-03T10:05:31+0100</time>
      </trkpt>
      <trkpt lat="43.16357" lon="2.60348">
        <ele>204.9</ele>
        <time>2019-03-03T10:05:27+0100</time>
      </trkpt>
      <trkpt lat="43.16359" lon="2.60349">
        <ele>204.7</ele>
        <time>2019-03-03T10:05:26+0100</time>
      </trkpt>
      <trkpt lat="43.16364" lon="2.60352">
        <ele>204</ele>
      </trkpt>
      <trkpt lat="43.16369" lon="2.60356">
        <ele>203.4</ele>
        <time>2019-03-03T10:05:20+0100</time>
      </trkpt>
      <trkpt lat="43.16378" lon="2.6036">
        <ele>202.3</ele>
      </trkpt>
      <trkpt lat="43.16386" lon="2.60364">
        <ele>201.4</ele>
        <time>2019-03-03T10:05:11+0100</time>
      </trkpt>
      <trkpt lat="43.16388" lon="2.60368">
        <ele>201.2</ele>
        <time>2019-03-03T10:05:09+0100</time>
      </trkpt>
      <trkpt lat="43.1639" lon="2.60374">
        <ele>200.9</ele>
      </trkpt>
      <trkpt lat="43.16392" lon="2.6038">
        <ele>200.7</ele>
      </trkpt>
      <trkpt lat="43.16393" lon="2.60386">
        <ele>200.5</ele>
      </trkpt>
      <trkpt lat="43.16395" lon="2.60391">
        <ele>200.4</ele>
        <time>2019-03-03T10:05:01+0100</time>
      </trkpt>
      <trkpt lat="43.16395" lon="2.60399">
        <ele>200.7</ele>
      </trkpt>
      <trkpt lat="43.16395" lon="2.60407">
        <ele>201</ele>
      </trkpt>
      <trkpt lat="43.16394" lon="2.60415">
        <ele>201.3</ele>
      </trkpt>
      <trkpt lat="43.16394" lon="2.60422">
        <ele>201.9</ele>
        <time>2019-03-03T10:04:48+0100</time>
        <extensions>
          <visugpx:TrkExtension xmlns:visugpx="https://www.visugpx.com/editgpx/">
            <visugpx:node>2</visugpx:node>
            </visugpx:TrkExtension>
        </extensions>
      </trkpt>
      <trkpt lat="43.16401" lon="2.60428">
        <ele>201.9</ele>
        <time>2023-01-29T09:53:46+0100</time>
        <extensions>
          <visugpx:TrkExtension xmlns:visugpx="https://www.visugpx.com/editgpx/">
            <visugpx:node>3</visugpx:node>
            </visugpx:TrkExtension>
        </extensions>
      </trkpt>
      <trkpt lat="43.16398" lon="2.60435">
        <ele>202.8</ele>
        <time>2023-01-29T09:54:15+0100</time>
      </trkpt>
      <trkpt lat="43.16397" lon="2.60441">
        <ele>203.4</ele>
      </trkpt>
      <trkpt lat="43.16396" lon="2.60447">
        <ele>204</ele>
        <time>2023-01-29T09:54:23+0100</time>
      </trkpt>
      <trkpt lat="43.16395" lon="2.60459">
        <ele>205.1</ele>
        <time>2023-01-29T09:54:31+0100</time>
      </trkpt>
      <trkpt lat="43.16393" lon="2.60467">
        <ele>205.8</ele>
        <time>2023-01-29T09:54:36+0100</time>
      </trkpt>
      <trkpt lat="43.16392" lon="2.60474">
        <ele>206.5</ele>
        <time>2023-01-29T09:54:42+0100</time>
      </trkpt>
      <trkpt lat="43.1639" lon="2.60485">
        <ele>207.9</ele>
        <time>2023-01-29T09:54:49+0100</time>
      </trkpt>
      <trkpt lat="43.1639" lon="2.60497">
        <ele>209.7</ele>
        <time>2023-01-29T09:54:56+0100</time>
      </trkpt>
      <trkpt lat="43.16391" lon="2.605">
        <ele>210.3</ele>
        <time>2023-01-29T09:54:58+0100</time>
      </trkpt>
      <trkpt lat="43.16394" lon="2.60505">
        <ele>211.4</ele>
        <time>2023-01-29T09:55:03+0100</time>
      </trkpt>
      <trkpt lat="43.16396" lon="2.60509">
        <ele>212.4</ele>
        <time>2023-01-29T09:55:07+0100</time>
      </trkpt>
      <trkpt lat="43.16396" lon="2.60514">
        <ele>213.3</ele>
        <time>2023-01-29T09:55:11+0100</time>
      </trkpt>
      <trkpt lat="43.16397" lon="2.60518">
        <ele>214.1</ele>
        <time>2023-01-29T09:55:14+0100</time>
      </trkpt>
      <trkpt lat="43.16399" lon="2.60523">
        <ele>215.3</ele>
        <time>2023-01-29T09:55:18+0100</time>
      </trkpt>
      <trkpt lat="43.164" lon="2.60527">
        <ele>216.1</ele>
        <time>2023-01-29T09:55:21+0100</time>
      </trkpt>
      <trkpt lat="43.16401" lon="2.60531">
        <ele>217.2</ele>
        <time>2023-01-29T09:55:25+0100</time>
      </trkpt>
      <trkpt lat="43.16404" lon="2.60534">
        <ele>218.5</ele>
        <time>2023-01-29T09:55:29+0100</time>
      </trkpt>
      <trkpt lat="43.16404" lon="2.60537">
        <ele>219.1</ele>
        <time>2023-01-29T09:55:31+0100</time>
      </trkpt>
      <trkpt lat="43.16404" lon="2.60541">
        <ele>219.9</ele>
        <time>2023-01-29T09:55:34+0100</time>
      </trkpt>
      <trkpt lat="43.16404" lon="2.60547">
        <ele>221.1</ele>
        <time>2023-01-29T09:55:39+0100</time>
      </trkpt>
      <trkpt lat="43.16405" lon="2.60549">
        <ele>221.5</ele>
        <time>2023-01-29T09:55:40+0100</time>
      </trkpt>
      <trkpt lat="43.16405" lon="2.60553">
        <ele>222.5</ele>
        <time>2023-01-29T09:55:43+0100</time>
      </trkpt>
      <trkpt lat="43.16407" lon="2.60556">
        <ele>223.7</ele>
        <time>2023-01-29T09:55:48+0100</time>
      </trkpt>
      <trkpt lat="43.16407" lon="2.6056">
        <ele>224.5</ele>
        <time>2023-01-29T09:55:52+0100</time>
      </trkpt>
      <trkpt lat="43.16408" lon="2.60563">
        <ele>225.4</ele>
        <time>2023-01-29T09:55:55+0100</time>
      </trkpt>
      <trkpt lat="43.16408" lon="2.60568">
        <ele>226.3</ele>
        <time>2023-01-29T09:55:58+0100</time>
      </trkpt>
      <trkpt lat="43.16409" lon="2.60575">
        <ele>228</ele>
        <time>2023-01-29T09:56:03+0100</time>
      </trkpt>
      <trkpt lat="43.16409" lon="2.60578">
        <ele>228.5</ele>
        <time>2023-01-29T09:56:10+0100</time>
      </trkpt>
      <trkpt lat="43.16406" lon="2.60577">
        <ele>227.7</ele>
        <time>2023-01-29T09:56:15+0100</time>
      </trkpt>
      <trkpt lat="43.16404" lon="2.60573">
        <ele>226.2</ele>
        <time>2023-01-29T09:56:21+0100</time>
      </trkpt>
      <trkpt lat="43.16405" lon="2.60575">
        <ele>226.9</ele>
        <time>2023-01-29T09:56:36+0100</time>
      </trkpt>
      <trkpt lat="43.16406" lon="2.60582">
        <ele>228.6</ele>
      </trkpt>
      <trkpt lat="43.16407" lon="2.60589">
        <ele>229.5</ele>
        <time>2023-01-29T09:56:50+0100</time>
      </trkpt>
      <trkpt lat="43.16407" lon="2.60591">
        <ele>229.8</ele>
        <time>2023-01-29T09:56:51+0100</time>
      </trkpt>
      <trkpt lat="43.16408" lon="2.60598">
        <ele>230.5</ele>
        <time>2023-01-29T09:56:55+0100</time>
      </trkpt>
      <trkpt lat="43.16407" lon="2.6061">
        <ele>231.1</ele>
        <time>2023-01-29T09:57:01+0100</time>
      </trkpt>
      <trkpt lat="43.16408" lon="2.60613">
        <ele>231.3</ele>
        <time>2023-01-29T09:57:03+0100</time>
      </trkpt>
      <trkpt lat="43.16407" lon="2.60615">
        <ele>231.2</ele>
        <time>2023-01-29T09:57:05+0100</time>
      </trkpt>
      <trkpt lat="43.16407" lon="2.60621">
        <ele>231</ele>
        <time>2023-01-29T09:57:08+0100</time>
      </trkpt>
      <trkpt lat="43.16408" lon="2.60624">
        <ele>231.1</ele>
        <time>2023-01-29T09:57:10+0100</time>
      </trkpt>
      <trkpt lat="43.16407" lon="2.6063">
        <ele>230.9</ele>
        <time>2023-01-29T09:57:14+0100</time>
      </trkpt>
      <trkpt lat="43.16411" lon="2.60638">
        <ele>230.9</ele>
        <time>2023-01-29T09:57:20+0100</time>
      </trkpt>
      <trkpt lat="43.16412" lon="2.60639">
        <ele>230.8</ele>
        <time>2023-01-29T09:57:21+0100</time>
      </trkpt>
      <trkpt lat="43.16413" lon="2.60651">
        <ele>230.2</ele>
        <time>2023-01-29T09:57:27+0100</time>
      </trkpt>
      <trkpt lat="43.16417" lon="2.60655">
        <ele>229.9</ele>
      </trkpt>
      <trkpt lat="43.16422" lon="2.60659">
        <ele>229.8</ele>
        <time>2023-01-29T09:57:34+0100</time>
      </trkpt>
      <trkpt lat="43.16424" lon="2.6066">
        <ele>229.7</ele>
        <time>2023-01-29T09:57:36+0100</time>
      </trkpt>
      <trkpt lat="43.16427" lon="2.60662">
        <ele>229.6</ele>
        <time>2023-01-29T09:57:38+0100</time>
      </trkpt>
      <trkpt lat="43.16429" lon="2.60665">
        <ele>229.2</ele>
        <time>2023-01-29T09:57:40+0100</time>
      </trkpt>
      <trkpt lat="43.1643" lon="2.60671">
        <ele>228.6</ele>
        <time>2023-01-29T09:57:42+0100</time>
      </trkpt>
      <trkpt lat="43.16433" lon="2.60677">
        <ele>227.8</ele>
      </trkpt>
      <trkpt lat="43.16435" lon="2.60683">
        <ele>227.1</ele>
        <time>2023-01-29T09:57:46+0100</time>
      </trkpt>
      <trkpt lat="43.16437" lon="2.6069">
        <ele>226.2</ele>
      </trkpt>
      <trkpt lat="43.16439" lon="2.60696">
        <ele>225.3</ele>
        <time>2023-01-29T09:57:50+0100</time>
      </trkpt>
      <trkpt lat="43.16442" lon="2.60705">
        <ele>224.4</ele>
        <time>2023-01-29T09:57:53+0100</time>
      </trkpt>
      <trkpt lat="43.16446" lon="2.60715">
        <ele>223.8</ele>
        <time>2023-01-29T09:57:56+0100</time>
      </trkpt>
      <trkpt lat="43.16449" lon="2.60721">
        <ele>223.6</ele>
      </trkpt>
      <trkpt lat="43.16451" lon="2.60727">
        <ele>223.1</ele>
        <time>2023-01-29T09:58:00+0100</time>
      </trkpt>
      <trkpt lat="43.16452" lon="2.60735">
        <ele>222.1</ele>
        <time>2023-01-29T09:58:03+0100</time>
      </trkpt>
      <trkpt lat="43.16455" lon="2.60742">
        <ele>221.2</ele>
        <time>2023-01-29T09:58:06+0100</time>
      </trkpt>
      <trkpt lat="43.1646" lon="2.60744">
        <ele>221</ele>
        <time>2023-01-29T09:58:08+0100</time>
      </trkpt>
      <trkpt lat="43.16465" lon="2.60745">
        <ele>220.9</ele>
        <time>2023-01-29T09:58:10+0100</time>
      </trkpt>
      <trkpt lat="43.16466" lon="2.60748">
        <ele>220.5</ele>
        <time>2023-01-29T09:58:11+0100</time>
      </trkpt>
      <trkpt lat="43.1647" lon="2.60755">
        <ele>219.3</ele>
        <time>2023-01-29T09:58:14+0100</time>
      </trkpt>
      <trkpt lat="43.16473" lon="2.60757">
        <ele>219</ele>
        <time>2023-01-29T09:58:15+0100</time>
      </trkpt>
      <trkpt lat="43.16475" lon="2.6076">
        <ele>218.8</ele>
        <time>2023-01-29T09:58:16+0100</time>
      </trkpt>
      <trkpt lat="43.16479" lon="2.60764">
        <ele>218.3</ele>
        <time>2023-01-29T09:58:18+0100</time>
      </trkpt>
      <trkpt lat="43.16483" lon="2.60768">
        <ele>217.8</ele>
        <time>2023-01-29T09:58:20+0100</time>
      </trkpt>
      <trkpt lat="43.16483" lon="2.60771">
        <ele>217.4</ele>
        <time>2023-01-29T09:58:21+0100</time>
      </trkpt>
      <trkpt lat="43.16487" lon="2.60778">
        <ele>215.9</ele>
        <time>2023-01-29T09:58:24+0100</time>
      </trkpt>
      <trkpt lat="43.16488" lon="2.6078">
        <ele>215.6</ele>
        <time>2023-01-29T09:58:25+0100</time>
      </trkpt>
      <trkpt lat="43.16493" lon="2.60784">
        <ele>215</ele>
        <time>2023-01-29T09:58:27+0100</time>
      </trkpt>
      <trkpt lat="43.16499" lon="2.60791">
        <ele>214.1</ele>
        <time>2023-01-29T09:58:31+0100</time>
      </trkpt>
      <trkpt lat="43.16503" lon="2.60799">
        <ele>213.3</ele>
      </trkpt>
      <trkpt lat="43.16507" lon="2.60807">
        <ele>212.4</ele>
        <time>2023-01-29T09:58:38+0100</time>
      </trkpt>
      <trkpt lat="43.16511" lon="2.60812">
        <ele>211.8</ele>
      </trkpt>
      <trkpt lat="43.16515" lon="2.60818">
        <ele>211.2</ele>
        <time>2023-01-29T09:58:42+0100</time>
      </trkpt>
      <trkpt lat="43.16515" lon="2.60821">
        <ele>210.6</ele>
        <time>2023-01-29T09:58:43+0100</time>
      </trkpt>
      <trkpt lat="43.16516" lon="2.60827">
        <ele>209.4</ele>
      </trkpt>
      <trkpt lat="43.16516" lon="2.60834">
        <ele>208.3</ele>
        <time>2023-01-29T09:58:47+0100</time>
      </trkpt>
      <trkpt lat="43.16517" lon="2.6084">
        <ele>207.1</ele>
        <time>2023-01-29T09:58:49+0100</time>
      </trkpt>
      <trkpt lat="43.16516" lon="2.60845">
        <ele>205.8</ele>
        <time>2023-01-29T09:58:51+0100</time>
      </trkpt>
      <trkpt lat="43.16517" lon="2.60852">
        <ele>204.5</ele>
        <time>2023-01-29T09:58:53+0100</time>
      </trkpt>
      <trkpt lat="43.16517" lon="2.60858">
        <ele>203.2</ele>
        <time>2023-01-29T09:58:55+0100</time>
      </trkpt>
      <trkpt lat="43.16518" lon="2.60863">
        <ele>202.3</ele>
        <time>2023-01-29T09:58:57+0100</time>
      </trkpt>
      <trkpt lat="43.1652" lon="2.60868">
        <ele>201.9</ele>
        <time>2023-01-29T09:58:59+0100</time>
      </trkpt>
      <trkpt lat="43.1652" lon="2.60871">
        <ele>201.5</ele>
        <time>2023-01-29T09:59:00+0100</time>
      </trkpt>
      <trkpt lat="43.1652" lon="2.60874">
        <ele>201.1</ele>
        <time>2023-01-29T09:59:01+0100</time>
      </trkpt>
      <trkpt lat="43.1652" lon="2.60885">
        <ele>199.6</ele>
        <time>2023-01-29T09:59:04+0100</time>
      </trkpt>
      <trkpt lat="43.16522" lon="2.60894">
        <ele>198.2</ele>
        <time>2023-01-29T09:59:07+0100</time>
      </trkpt>
      <trkpt lat="43.16524" lon="2.60902">
        <ele>196.8</ele>
        <time>2023-01-29T09:59:10+0100</time>
      </trkpt>
      <trkpt lat="43.16527" lon="2.60911">
        <ele>195.1</ele>
        <time>2023-01-29T09:59:13+0100</time>
      </trkpt>
      <trkpt lat="43.1653" lon="2.60918">
        <ele>194.2</ele>
        <time>2023-01-29T09:59:16+0100</time>
      </trkpt>
      <trkpt lat="43.16532" lon="2.60921">
        <ele>194.3</ele>
        <time>2023-01-29T09:59:17+0100</time>
      </trkpt>
      <trkpt lat="43.16537" lon="2.60928">
        <ele>194.1</ele>
        <time>2023-01-29T09:59:20+0100</time>
      </trkpt>
      <trkpt lat="43.16541" lon="2.60938">
        <ele>193.3</ele>
        <time>2023-01-29T09:59:23+0100</time>
      </trkpt>
      <trkpt lat="43.16543" lon="2.60945">
        <ele>192.5</ele>
        <time>2023-01-29T09:59:26+0100</time>
      </trkpt>
      <trkpt lat="43.16542" lon="2.60949">
        <ele>191.8</ele>
        <time>2023-01-29T09:59:28+0100</time>
      </trkpt>
      <trkpt lat="43.1654" lon="2.60956">
        <ele>190.8</ele>
        <time>2023-01-29T09:59:31+0100</time>
      </trkpt>
      <trkpt lat="43.1654" lon="2.60962">
        <ele>189.9</ele>
        <time>2023-01-29T09:59:33+0100</time>
      </trkpt>
      <trkpt lat="43.1654" lon="2.60967">
        <ele>189.2</ele>
        <time>2023-01-29T09:59:35+0100</time>
      </trkpt>
      <trkpt lat="43.16544" lon="2.60973">
        <ele>188.3</ele>
        <time>2023-01-29T09:59:39+0100</time>
      </trkpt>
      <trkpt lat="43.16546" lon="2.60977">
        <ele>187.5</ele>
        <time>2023-01-29T09:59:42+0100</time>
      </trkpt>
      <trkpt lat="43.16549" lon="2.60978">
        <ele>187.2</ele>
        <time>2023-01-29T09:59:44+0100</time>
      </trkpt>
      <trkpt lat="43.1655" lon="2.60979">
        <ele>187</ele>
        <time>2023-01-29T09:59:45+0100</time>
      </trkpt>
      <trkpt lat="43.16551" lon="2.60982">
        <ele>186.5</ele>
        <time>2023-01-29T09:59:47+0100</time>
      </trkpt>
      <trkpt lat="43.16552" lon="2.60986">
        <ele>185.8</ele>
        <time>2023-01-29T09:59:49+0100</time>
      </trkpt>
      <trkpt lat="43.16553" lon="2.60993">
        <ele>184.5</ele>
      </trkpt>
      <trkpt lat="43.16554" lon="2.61">
        <ele>183.1</ele>
        <time>2023-01-29T09:59:58+0100</time>
      </trkpt>
      <trkpt lat="43.16553" lon="2.61005">
        <ele>183.4</ele>
        <time>2023-01-29T10:00:03+0100</time>
      </trkpt>
      <trkpt lat="43.16546" lon="2.61011">
        <ele>184.4</ele>
      </trkpt>
      <trkpt lat="43.16538" lon="2.61016">
        <ele>185.6</ele>
        <time>2023-01-29T10:00:23+0100</time>
        <extensions>
          <visugpx:TrkExtension xmlns:visugpx="https://www.visugpx.com/editgpx/">
            <visugpx:node>4</visugpx:node>
            </visugpx:TrkExtension>
        </extensions>
      </trkpt>
      <trkpt lat="43.16533" lon="2.61013">
        <ele>185.8</ele>
      </trkpt>
      <trkpt lat="43.16529" lon="2.61009">
        <ele>185.9</ele>
      </trkpt>
      <trkpt lat="43.16524" lon="2.61006">
        <ele>186.5</ele>
      </trkpt>
      <trkpt lat="43.16519" lon="2.61003">
        <ele>187.4</ele>
      </trkpt>
      <trkpt lat="43.16514" lon="2.60999">
        <ele>188.5</ele>
      </trkpt>
      <trkpt lat="43.16509" lon="2.60996">
        <ele>190.1</ele>
      </trkpt>
      <trkpt lat="43.16505" lon="2.60992">
        <ele>191.5</ele>
      </trkpt>
      <trkpt lat="43.165" lon="2.60989">
        <ele>192.9</ele>
        <time>2019-03-03T09:53:41+0100</time>
        <extensions>
          <visugpx:TrkExtension xmlns:visugpx="https://www.visugpx.com/editgpx/">
            <visugpx:node>5</visugpx:node>
            </visugpx:TrkExtension>
        </extensions>
      </trkpt>
      <trkpt lat="43.16497" lon="2.60984">
        <ele>194.1</ele>
        <time>2019-03-03T09:53:37+0100</time>
      </trkpt>
      <trkpt lat="43.16493" lon="2.60978">
        <ele>195.5</ele>
        <time>2019-03-03T09:53:34+0100</time>
      </trkpt>
      <trkpt lat="43.16488" lon="2.60976">
        <ele>196.8</ele>
        <time>2019-03-03T09:53:32+0100</time>
      </trkpt>
      <trkpt lat="43.16483" lon="2.60976">
        <ele>198.1</ele>
        <time>2019-03-03T09:53:30+0100</time>
      </trkpt>
      <trkpt lat="43.16481" lon="2.60976">
        <ele>198.5</ele>
        <time>2019-03-03T09:53:29+0100</time>
      </trkpt>
      <trkpt lat="43.1648" lon="2.60976">
        <ele>198.9</ele>
        <time>2019-03-03T09:53:28+0100</time>
      </trkpt>
      <trkpt lat="43.16477" lon="2.60974">
        <ele>199.8</ele>
        <time>2019-03-03T09:53:26+0100</time>
      </trkpt>
      <trkpt lat="43.16474" lon="2.60973">
        <ele>200.6</ele>
        <time>2019-03-03T09:53:24+0100</time>
      </trkpt>
      <trkpt lat="43.16469" lon="2.60969">
        <ele>202.2</ele>
        <time>2019-03-03T09:53:21+0100</time>
      </trkpt>
      <trkpt lat="43.16464" lon="2.6097">
        <ele>204</ele>
        <time>2019-03-03T09:53:18+0100</time>
      </trkpt>
      <trkpt lat="43.16459" lon="2.60968">
        <ele>205.4</ele>
        <time>2019-03-03T09:53:15+0100</time>
      </trkpt>
      <trkpt lat="43.16455" lon="2.60966">
        <ele>206.7</ele>
        <time>2019-03-03T09:53:13+0100</time>
      </trkpt>
      <trkpt lat="43.16452" lon="2.60964">
        <ele>207.9</ele>
        <time>2019-03-03T09:53:11+0100</time>
      </trkpt>
      <trkpt lat="43.16447" lon="2.6096">
        <ele>209.6</ele>
        <time>2019-03-03T09:53:09+0100</time>
      </trkpt>
      <trkpt lat="43.1644" lon="2.60958">
        <ele>211.9</ele>
        <time>2019-03-03T09:53:07+0100</time>
      </trkpt>
      <trkpt lat="43.16435" lon="2.60957">
        <ele>213.2</ele>
        <time>2019-03-03T09:53:05+0100</time>
      </trkpt>
      <trkpt lat="43.16432" lon="2.60957">
        <ele>214</ele>
        <time>2019-03-03T09:53:03+0100</time>
      </trkpt>
      <trkpt lat="43.16429" lon="2.60956">
        <ele>215.2</ele>
        <time>2019-03-03T09:53:01+0100</time>
      </trkpt>
      <trkpt lat="43.16426" lon="2.60955">
        <ele>215.9</ele>
        <time>2019-03-03T09:52:59+0100</time>
      </trkpt>
      <trkpt lat="43.16423" lon="2.60953">
        <ele>216.9</ele>
        <time>2019-03-03T09:52:57+0100</time>
      </trkpt>
      <trkpt lat="43.1642" lon="2.60952">
        <ele>217.8</ele>
        <time>2019-03-03T09:52:55+0100</time>
      </trkpt>
      <trkpt lat="43.16417" lon="2.60949">
        <ele>218.8</ele>
        <time>2019-03-03T09:52:53+0100</time>
      </trkpt>
      <trkpt lat="43.16413" lon="2.60947">
        <ele>220.1</ele>
        <time>2019-03-03T09:52:50+0100</time>
      </trkpt>
      <trkpt lat="43.16411" lon="2.60946">
        <ele>220.5</ele>
        <time>2019-03-03T09:52:49+0100</time>
      </trkpt>
      <trkpt lat="43.16404" lon="2.60938">
        <ele>222.8</ele>
        <time>2019-03-03T09:52:45+0100</time>
      </trkpt>
      <trkpt lat="43.16402" lon="2.60933">
        <ele>223.7</ele>
        <time>2019-03-03T09:52:42+0100</time>
      </trkpt>
      <trkpt lat="43.16398" lon="2.6093">
        <ele>225.1</ele>
        <time>2019-03-03T09:52:40+0100</time>
      </trkpt>
      <trkpt lat="43.16393" lon="2.60927">
        <ele>226.5</ele>
        <time>2019-03-03T09:52:38+0100</time>
      </trkpt>
      <trkpt lat="43.16391" lon="2.60927">
        <ele>227.1</ele>
        <time>2019-03-03T09:52:37+0100</time>
      </trkpt>
      <trkpt lat="43.16388" lon="2.60928">
        <ele>227.8</ele>
        <time>2019-03-03T09:52:36+0100</time>
      </trkpt>
      <trkpt lat="43.16385" lon="2.60929">
        <ele>229</ele>
        <time>2019-03-03T09:52:34+0100</time>
      </trkpt>
      <trkpt lat="43.16381" lon="2.6093">
        <ele>230.2</ele>
        <time>2019-03-03T09:52:32+0100</time>
      </trkpt>
      <trkpt lat="43.16378" lon="2.60929">
        <ele>231.3</ele>
        <time>2019-03-03T09:52:30+0100</time>
      </trkpt>
      <trkpt lat="43.16373" lon="2.60932">
        <ele>232.8</ele>
        <time>2019-03-03T09:52:28+0100</time>
      </trkpt>
      <trkpt lat="43.16371" lon="2.60933">
        <ele>233.7</ele>
        <time>2019-03-03T09:52:26+0100</time>
      </trkpt>
      <trkpt lat="43.16368" lon="2.60932">
        <ele>234.5</ele>
        <time>2019-03-03T09:52:24+0100</time>
      </trkpt>
      <trkpt lat="43.16367" lon="2.60929">
        <ele>235.2</ele>
        <time>2019-03-03T09:52:22+0100</time>
      </trkpt>
      <trkpt lat="43.16364" lon="2.60926">
        <ele>236.1</ele>
        <time>2019-03-03T09:52:20+0100</time>
      </trkpt>
      <trkpt lat="43.16361" lon="2.60924">
        <ele>236.9</ele>
        <time>2019-03-03T09:52:18+0100</time>
      </trkpt>
      <trkpt lat="43.16359" lon="2.60922">
        <ele>237.7</ele>
        <time>2019-03-03T09:52:16+0100</time>
      </trkpt>
      <trkpt lat="43.16357" lon="2.60919">
        <ele>238.3</ele>
        <time>2019-03-03T09:52:14+0100</time>
      </trkpt>
      <trkpt lat="43.16355" lon="2.60919">
        <ele>238.9</ele>
        <time>2019-03-03T09:52:13+0100</time>
      </trkpt>
      <trkpt lat="43.16354" lon="2.60919">
        <ele>239.4</ele>
        <time>2019-03-03T09:52:12+0100</time>
      </trkpt>
      <trkpt lat="43.16351" lon="2.60917">
        <ele>240.4</ele>
        <time>2019-03-03T09:52:09+0100</time>
      </trkpt>
      <trkpt lat="43.16349" lon="2.60915">
        <ele>241</ele>
        <time>2019-03-03T09:52:08+0100</time>
      </trkpt>
      <trkpt lat="43.16347" lon="2.60916">
        <ele>241.8</ele>
        <time>2019-03-03T09:52:07+0100</time>
      </trkpt>
      <trkpt lat="43.16343" lon="2.60919">
        <ele>242.9</ele>
        <time>2019-03-03T09:52:05+0100</time>
      </trkpt>
      <trkpt lat="43.16339" lon="2.60921">
        <ele>244.1</ele>
        <time>2019-03-03T09:52:03+0100</time>
      </trkpt>
      <trkpt lat="43.16337" lon="2.60921">
        <ele>244.9</ele>
        <time>2019-03-03T09:52:01+0100</time>
      </trkpt>
      <trkpt lat="43.16335" lon="2.60921">
        <ele>245.6</ele>
        <time>2019-03-03T09:51:59+0100</time>
      </trkpt>
      <trkpt lat="43.16332" lon="2.60922">
        <ele>246.4</ele>
        <time>2019-03-03T09:51:57+0100</time>
      </trkpt>
      <trkpt lat="43.1633" lon="2.60927">
        <ele>247.4</ele>
        <time>2019-03-03T09:51:55+0100</time>
      </trkpt>
      <trkpt lat="43.16323" lon="2.60935">
        <ele>249.8</ele>
        <time>2019-03-03T09:51:52+0100</time>
      </trkpt>
      <trkpt lat="43.16317" lon="2.60942">
        <ele>251.8</ele>
        <time>2019-03-03T09:51:49+0100</time>
      </trkpt>
      <trkpt lat="43.16315" lon="2.60946">
        <ele>252.7</ele>
        <time>2019-03-03T09:51:47+0100</time>
      </trkpt>
      <trkpt lat="43.16311" lon="2.60949">
        <ele>254</ele>
        <time>2019-03-03T09:51:45+0100</time>
      </trkpt>
      <trkpt lat="43.16309" lon="2.6095">
        <ele>254.9</ele>
        <time>2019-03-03T09:51:43+0100</time>
      </trkpt>
      <trkpt lat="43.16306" lon="2.60954">
        <ele>255.9</ele>
        <time>2019-03-03T09:51:41+0100</time>
      </trkpt>
      <trkpt lat="43.16303" lon="2.60956">
        <ele>256.9</ele>
        <time>2019-03-03T09:51:39+0100</time>
      </trkpt>
      <trkpt lat="43.163" lon="2.60957">
        <ele>257.7</ele>
        <time>2019-03-03T09:51:38+0100</time>
      </trkpt>
      <trkpt lat="43.16298" lon="2.60959">
        <ele>258.4</ele>
        <time>2019-03-03T09:51:37+0100</time>
      </trkpt>
      <trkpt lat="43.16293" lon="2.60962">
        <ele>259.9</ele>
        <time>2019-03-03T09:51:35+0100</time>
      </trkpt>
      <trkpt lat="43.1629" lon="2.60964">
        <ele>261</ele>
        <time>2019-03-03T09:51:33+0100</time>
      </trkpt>
      <trkpt lat="43.16288" lon="2.60966">
        <ele>261.7</ele>
        <time>2019-03-03T09:51:31+0100</time>
      </trkpt>
      <trkpt lat="43.16286" lon="2.60966">
        <ele>262.3</ele>
        <time>2019-03-03T09:51:29+0100</time>
      </trkpt>
      <trkpt lat="43.16283" lon="2.60966">
        <ele>263.3</ele>
        <time>2019-03-03T09:51:27+0100</time>
      </trkpt>
      <trkpt lat="43.1628" lon="2.60966">
        <ele>264.4</ele>
        <time>2019-03-03T09:51:25+0100</time>
      </trkpt>
      <trkpt lat="43.16276" lon="2.60964">
        <ele>265.4</ele>
        <time>2019-03-03T09:51:23+0100</time>
      </trkpt>
      <trkpt lat="43.16272" lon="2.60964">
        <ele>266.7</ele>
        <time>2019-03-03T09:51:20+0100</time>
      </trkpt>
      <trkpt lat="43.16271" lon="2.60965">
        <ele>267.1</ele>
        <time>2019-03-03T09:51:19+0100</time>
      </trkpt>
      <trkpt lat="43.16268" lon="2.6097">
        <ele>267.9</ele>
        <time>2019-03-03T09:51:17+0100</time>
      </trkpt>
      <trkpt lat="43.16263" lon="2.60973">
        <ele>269.2</ele>
        <time>2019-03-03T09:51:15+0100</time>
      </trkpt>
      <trkpt lat="43.16262" lon="2.60973">
        <ele>269.7</ele>
        <time>2019-03-03T09:51:14+0100</time>
      </trkpt>
      <trkpt lat="43.1626" lon="2.60972">
        <ele>270</ele>
        <time>2019-03-03T09:51:13+0100</time>
      </trkpt>
      <trkpt lat="43.16257" lon="2.60968">
        <ele>271</ele>
        <time>2019-03-03T09:51:11+0100</time>
      </trkpt>
      <trkpt lat="43.16254" lon="2.60965">
        <ele>272.2</ele>
        <time>2019-03-03T09:51:09+0100</time>
      </trkpt>
      <trkpt lat="43.1625" lon="2.60963">
        <ele>273.2</ele>
        <time>2019-03-03T09:51:07+0100</time>
      </trkpt>
      <trkpt lat="43.16248" lon="2.60961">
        <ele>274</ele>
        <time>2019-03-03T09:51:05+0100</time>
      </trkpt>
      <trkpt lat="43.16246" lon="2.60958">
        <ele>274.6</ele>
        <time>2019-03-03T09:51:03+0100</time>
      </trkpt>
      <trkpt lat="43.16244" lon="2.60951">
        <ele>275.6</ele>
        <time>2019-03-03T09:51:00+0100</time>
      </trkpt>
      <trkpt lat="43.16237" lon="2.60946">
        <ele>277.7</ele>
        <time>2019-03-03T09:50:57+0100</time>
      </trkpt>
      <trkpt lat="43.16233" lon="2.60943">
        <ele>278.9</ele>
      </trkpt>
      <trkpt lat="43.16229" lon="2.6094">
        <ele>280.2</ele>
        <time>2019-03-03T09:50:53+0100</time>
      </trkpt>
      <trkpt lat="43.16226" lon="2.6094">
        <ele>281.1</ele>
        <time>2019-03-03T09:50:51+0100</time>
      </trkpt>
      <trkpt lat="43.16222" lon="2.60941">
        <ele>282.1</ele>
        <time>2019-03-03T09:50:49+0100</time>
      </trkpt>
      <trkpt lat="43.16219" lon="2.60941">
        <ele>282.9</ele>
        <time>2019-03-03T09:50:48+0100</time>
      </trkpt>
      <trkpt lat="43.16217" lon="2.60942">
        <ele>283.6</ele>
        <time>2019-03-03T09:50:46+0100</time>
      </trkpt>
      <trkpt lat="43.16213" lon="2.60939">
        <ele>284.7</ele>
        <time>2019-03-03T09:50:43+0100</time>
      </trkpt>
      <trkpt lat="43.16211" lon="2.60936">
        <ele>285.3</ele>
        <time>2019-03-03T09:50:41+0100</time>
      </trkpt>
      <trkpt lat="43.16209" lon="2.60935">
        <ele>285.7</ele>
        <time>2019-03-03T09:50:40+0100</time>
      </trkpt>
      <trkpt lat="43.16208" lon="2.60935">
        <ele>286.1</ele>
        <time>2019-03-03T09:50:39+0100</time>
      </trkpt>
      <trkpt lat="43.16206" lon="2.60933">
        <ele>286.6</ele>
        <time>2019-03-03T09:50:37+0100</time>
      </trkpt>
      <trkpt lat="43.16205" lon="2.60931">
        <ele>286.9</ele>
        <time>2019-03-03T09:50:36+0100</time>
      </trkpt>
      <trkpt lat="43.16199" lon="2.60927">
        <ele>288.3</ele>
        <time>2019-03-03T09:50:32+0100</time>
      </trkpt>
      <trkpt lat="43.16198" lon="2.60919">
        <ele>288.4</ele>
        <time>2019-03-03T09:50:28+0100</time>
      </trkpt>
      <trkpt lat="43.16194" lon="2.6091">
        <ele>289.6</ele>
        <time>2019-03-03T09:50:25+0100</time>
      </trkpt>
      <trkpt lat="43.1619" lon="2.60905">
        <ele>290.9</ele>
        <time>2019-03-03T09:50:23+0100</time>
      </trkpt>
      <trkpt lat="43.16182" lon="2.609">
        <ele>293</ele>
        <time>2019-03-03T09:50:20+0100</time>
      </trkpt>
      <trkpt lat="43.16177" lon="2.60899">
        <ele>294.2</ele>
        <time>2019-03-03T09:50:18+0100</time>
      </trkpt>
      <trkpt lat="43.16175" lon="2.609">
        <ele>294.7</ele>
        <time>2019-03-03T09:50:17+0100</time>
      </trkpt>
      <trkpt lat="43.16173" lon="2.60901">
        <ele>295.1</ele>
        <time>2019-03-03T09:50:16+0100</time>
      </trkpt>
      <trkpt lat="43.16166" lon="2.609">
        <ele>296.8</ele>
        <time>2019-03-03T09:50:13+0100</time>
      </trkpt>
      <trkpt lat="43.16164" lon="2.60899">
        <ele>297.4</ele>
        <time>2019-03-03T09:50:12+0100</time>
      </trkpt>
      <trkpt lat="43.16162" lon="2.60897">
        <ele>297.8</ele>
        <time>2019-03-03T09:50:11+0100</time>
      </trkpt>
      <trkpt lat="43.16159" lon="2.60894">
        <ele>298.6</ele>
        <time>2019-03-03T09:50:09+0100</time>
      </trkpt>
      <trkpt lat="43.16154" lon="2.60892">
        <ele>299.6</ele>
        <time>2019-03-03T09:50:07+0100</time>
      </trkpt>
      <trkpt lat="43.1615" lon="2.60891">
        <ele>300.7</ele>
        <time>2019-03-03T09:50:04+0100</time>
      </trkpt>
      <trkpt lat="43.16144" lon="2.60889">
        <ele>301.8</ele>
        <time>2019-03-03T09:50:01+0100</time>
      </trkpt>
      <trkpt lat="43.16141" lon="2.60887">
        <ele>302.6</ele>
        <time>2019-03-03T09:49:59+0100</time>
      </trkpt>
      <trkpt lat="43.16136" lon="2.60883">
        <ele>303.9</ele>
        <time>2019-03-03T09:49:56+0100</time>
      </trkpt>
      <trkpt lat="43.16131" lon="2.6088">
        <ele>305.2</ele>
        <time>2019-03-03T09:49:52+0100</time>
      </trkpt>
      <trkpt lat="43.16128" lon="2.60877">
        <ele>306.1</ele>
        <time>2019-03-03T09:49:50+0100</time>
      </trkpt>
      <trkpt lat="43.16124" lon="2.60874">
        <ele>307</ele>
        <time>2019-03-03T09:49:48+0100</time>
      </trkpt>
      <trkpt lat="43.16121" lon="2.6087">
        <ele>307.7</ele>
        <time>2019-03-03T09:49:46+0100</time>
      </trkpt>
      <trkpt lat="43.16119" lon="2.60864">
        <ele>308.2</ele>
        <time>2019-03-03T09:49:44+0100</time>
      </trkpt>
      <trkpt lat="43.16114" lon="2.60859">
        <ele>309.3</ele>
        <time>2019-03-03T09:49:41+0100</time>
      </trkpt>
      <trkpt lat="43.16113" lon="2.60857">
        <ele>309.7</ele>
        <time>2019-03-03T09:49:40+0100</time>
      </trkpt>
      <trkpt lat="43.1611" lon="2.60853">
        <ele>310.2</ele>
        <time>2019-03-03T09:49:38+0100</time>
      </trkpt>
      <trkpt lat="43.16109" lon="2.60847">
        <ele>310.5</ele>
      </trkpt>
      <trkpt lat="43.16107" lon="2.60841">
        <ele>310.8</ele>
      </trkpt>
      <trkpt lat="43.16105" lon="2.60835">
        <ele>311.1</ele>
      </trkpt>
      <trkpt lat="43.16103" lon="2.60829">
        <ele>311.2</ele>
      </trkpt>
      <trkpt lat="43.16102" lon="2.60823">
        <ele>311.3</ele>
      </trkpt>
      <trkpt lat="43.161" lon="2.60818">
        <ele>311.4</ele>
      </trkpt>
      <trkpt lat="43.16098" lon="2.60812">
        <ele>311.5</ele>
      </trkpt>
      <trkpt lat="43.16097" lon="2.60806">
        <ele>311.6</ele>
        <time>2019-03-03T09:49:20+0100</time>
      </trkpt>
      <trkpt lat="43.1609" lon="2.60799">
        <ele>313.2</ele>
        <time>2019-03-03T09:49:17+0100</time>
      </trkpt>
      <trkpt lat="43.16084" lon="2.60794">
        <ele>314.8</ele>
        <time>2019-03-03T09:49:14+0100</time>
      </trkpt>
      <trkpt lat="43.16079" lon="2.60788">
        <ele>316.1</ele>
        <time>2019-03-03T09:49:11+0100</time>
      </trkpt>
      <trkpt lat="43.16076" lon="2.60785">
        <ele>317</ele>
        <time>2019-03-03T09:49:09+0100</time>
      </trkpt>
      <trkpt lat="43.16071" lon="2.60781">
        <ele>318.2</ele>
        <time>2019-03-03T09:49:06+0100</time>
      </trkpt>
      <trkpt lat="43.16067" lon="2.60779">
        <ele>318.9</ele>
        <time>2019-03-03T09:49:04+0100</time>
      </trkpt>
      <trkpt lat="43.16062" lon="2.60775">
        <ele>320</ele>
        <time>2019-03-03T09:49:01+0100</time>
      </trkpt>
      <trkpt lat="43.16055" lon="2.60771">
        <ele>321.4</ele>
        <time>2019-03-03T09:48:58+0100</time>
      </trkpt>
      <trkpt lat="43.16048" lon="2.60766">
        <ele>322.7</ele>
        <time>2019-03-03T09:48:54+0100</time>
      </trkpt>
      <trkpt lat="43.16047" lon="2.60765">
        <ele>323</ele>
        <time>2019-03-03T09:48:53+0100</time>
      </trkpt>
      <trkpt lat="43.16045" lon="2.60761">
        <ele>323.5</ele>
        <time>2019-03-03T09:48:51+0100</time>
      </trkpt>
      <trkpt lat="43.16038" lon="2.60758">
        <ele>324.9</ele>
        <time>2019-03-03T09:48:48+0100</time>
      </trkpt>
      <trkpt lat="43.16034" lon="2.60755">
        <ele>325.6</ele>
        <time>2019-03-03T09:48:46+0100</time>
      </trkpt>
      <trkpt lat="43.16033" lon="2.60754">
        <ele>325.9</ele>
        <time>2019-03-03T09:48:45+0100</time>
      </trkpt>
      <trkpt lat="43.16028" lon="2.60754">
        <ele>326.8</ele>
        <time>2019-03-03T09:48:42+0100</time>
      </trkpt>
      <trkpt lat="43.16027" lon="2.60755">
        <ele>327.1</ele>
        <time>2019-03-03T09:48:41+0100</time>
      </trkpt>
      <trkpt lat="43.16025" lon="2.60756">
        <ele>327.3</ele>
        <time>2019-03-03T09:48:40+0100</time>
      </trkpt>
      <trkpt lat="43.16021" lon="2.60759">
        <ele>328</ele>
        <time>2019-03-03T09:48:33+0100</time>
      </trkpt>
      <trkpt lat="43.16018" lon="2.60759">
        <ele>328.5</ele>
        <time>2019-03-03T09:48:30+0100</time>
      </trkpt>
      <trkpt lat="43.16013" lon="2.60758">
        <ele>329.6</ele>
        <time>2019-03-03T09:48:27+0100</time>
      </trkpt>
      <trkpt lat="43.16011" lon="2.60758">
        <ele>330</ele>
        <time>2019-03-03T09:48:25+0100</time>
      </trkpt>
      <trkpt lat="43.16007" lon="2.60756">
        <ele>330.8</ele>
        <time>2019-03-03T09:48:22+0100</time>
      </trkpt>
      <trkpt lat="43.16001" lon="2.60755">
        <ele>331.9</ele>
        <time>2019-03-03T09:48:19+0100</time>
      </trkpt>
      <trkpt lat="43.15997" lon="2.60752">
        <ele>332.7</ele>
        <time>2019-03-03T09:47:58+0100</time>
      </trkpt>
      <trkpt lat="43.15992" lon="2.60755">
        <ele>333.7</ele>
        <time>2019-03-03T09:47:32+0100</time>
      </trkpt>
      <trkpt lat="43.1599" lon="2.60755">
        <ele>334.2</ele>
        <time>2019-03-03T09:47:26+0100</time>
      </trkpt>
      <trkpt lat="43.15988" lon="2.60757">
        <ele>334.5</ele>
        <time>2019-03-03T09:47:24+0100</time>
      </trkpt>
      <trkpt lat="43.15984" lon="2.60763">
        <ele>335.4</ele>
      </trkpt>
      <trkpt lat="43.1598" lon="2.60769">
        <ele>336.3</ele>
        <time>2019-03-03T09:47:18+0100</time>
      </trkpt>
      <trkpt lat="43.15976" lon="2.60775">
        <ele>337.2</ele>
      </trkpt>
      <trkpt lat="43.15972" lon="2.6078">
        <ele>338.1</ele>
        <time>2019-03-03T09:47:13+0100</time>
      </trkpt>
      <trkpt lat="43.15967" lon="2.60785">
        <ele>339.1</ele>
        <time>2019-03-03T09:47:10+0100</time>
      </trkpt>
      <trkpt lat="43.15961" lon="2.60791">
        <ele>340.4</ele>
        <time>2019-03-03T09:47:07+0100</time>
      </trkpt>
      <trkpt lat="43.15956" lon="2.60795">
        <ele>341.5</ele>
        <time>2019-03-03T09:47:05+0100</time>
      </trkpt>
      <trkpt lat="43.15951" lon="2.60797">
        <ele>342.7</ele>
        <time>2019-03-03T09:47:03+0100</time>
      </trkpt>
      <trkpt lat="43.15948" lon="2.60797">
        <ele>343.2</ele>
        <time>2019-03-03T09:47:02+0100</time>
      </trkpt>
      <trkpt lat="43.15944" lon="2.60796">
        <ele>344.2</ele>
        <time>2019-03-03T09:47:00+0100</time>
      </trkpt>
      <trkpt lat="43.15938" lon="2.60797">
        <ele>345.4</ele>
        <time>2019-03-03T09:46:56+0100</time>
      </trkpt>
      <trkpt lat="43.15934" lon="2.60798">
        <ele>346.3</ele>
        <time>2019-03-03T09:46:53+0100</time>
      </trkpt>
      <trkpt lat="43.1593" lon="2.60798">
        <ele>347.1</ele>
        <time>2019-03-03T09:46:50+0100</time>
      </trkpt>
      <trkpt lat="43.15926" lon="2.608">
        <ele>347.9</ele>
        <time>2019-03-03T09:46:48+0100</time>
      </trkpt>
      <trkpt lat="43.15922" lon="2.60801">
        <ele>348.9</ele>
      </trkpt>
      <trkpt lat="43.15917" lon="2.60802">
        <ele>349.9</ele>
        <time>2019-03-03T09:46:44+0100</time>
      </trkpt>
      <trkpt lat="43.15912" lon="2.60805">
        <ele>350.9</ele>
        <time>2019-03-03T09:46:41+0100</time>
      </trkpt>
      <trkpt lat="43.15907" lon="2.60813">
        <ele>351.7</ele>
        <time>2019-03-03T09:46:38+0100</time>
      </trkpt>
      <trkpt lat="43.15902" lon="2.6082">
        <ele>352.7</ele>
        <time>2019-03-03T09:46:35+0100</time>
      </trkpt>
      <trkpt lat="43.15897" lon="2.60821">
        <ele>353.5</ele>
      </trkpt>
      <trkpt lat="43.15893" lon="2.60822">
        <ele>354.3</ele>
        <time>2019-03-03T09:46:31+0100</time>
      </trkpt>
      <trkpt lat="43.15891" lon="2.60821">
        <ele>354.7</ele>
        <time>2019-03-03T09:46:30+0100</time>
      </trkpt>
      <trkpt lat="43.15888" lon="2.60816">
        <ele>355.2</ele>
      </trkpt>
      <trkpt lat="43.15885" lon="2.60811">
        <ele>355.6</ele>
      </trkpt>
      <trkpt lat="43.15882" lon="2.60805">
        <ele>356</ele>
      </trkpt>
      <trkpt lat="43.15879" lon="2.608">
        <ele>356.3</ele>
        <time>2019-03-03T09:46:22+0100</time>
      </trkpt>
      <trkpt lat="43.15873" lon="2.60793">
        <ele>356.8</ele>
        <time>2019-03-03T09:46:19+0100</time>
      </trkpt>
      <trkpt lat="43.15871" lon="2.60792">
        <ele>357.1</ele>
        <time>2019-03-03T09:46:18+0100</time>
      </trkpt>
      <trkpt lat="43.15867" lon="2.60793">
        <ele>357.7</ele>
        <time>2019-03-03T09:46:15+0100</time>
      </trkpt>
      <trkpt lat="43.15861" lon="2.60795">
        <ele>358.7</ele>
        <time>2019-03-03T09:46:11+0100</time>
      </trkpt>
      <trkpt lat="43.15856" lon="2.60795">
        <ele>359.5</ele>
        <time>2019-03-03T09:46:10+0100</time>
      </trkpt>
      <trkpt lat="43.15854" lon="2.60797">
        <ele>359.8</ele>
        <time>2019-03-03T09:46:08+0100</time>
      </trkpt>
      <trkpt lat="43.15853" lon="2.60798">
        <ele>359.9</ele>
        <time>2019-03-03T09:46:07+0100</time>
      </trkpt>
      <trkpt lat="43.15851" lon="2.60799">
        <ele>360.3</ele>
        <time>2019-03-03T09:46:06+0100</time>
      </trkpt>
      <trkpt lat="43.15849" lon="2.60802">
        <ele>360.7</ele>
        <time>2019-03-03T09:46:04+0100</time>
      </trkpt>
      <trkpt lat="43.15844" lon="2.60805">
        <ele>361.4</ele>
        <time>2019-03-03T09:46:01+0100</time>
      </trkpt>
      <trkpt lat="43.15836" lon="2.60804">
        <ele>362.6</ele>
        <time>2019-03-03T09:45:57+0100</time>
      </trkpt>
      <trkpt lat="43.15828" lon="2.60807">
        <ele>363.7</ele>
      </trkpt>
      <trkpt lat="43.1582" lon="2.60811">
        <ele>364.9</ele>
        <time>2019-03-03T09:45:50+0100</time>
      </trkpt>
      <trkpt lat="43.15816" lon="2.60812">
        <ele>365.5</ele>
        <time>2019-03-03T09:45:48+0100</time>
      </trkpt>
      <trkpt lat="43.15811" lon="2.60805">
        <ele>366.2</ele>
      </trkpt>
      <trkpt lat="43.15807" lon="2.60798">
        <ele>366.8</ele>
        <time>2019-03-03T09:45:41+0100</time>
      </trkpt>
      <trkpt lat="43.15803" lon="2.60794">
        <ele>367.3</ele>
      </trkpt>
      <trkpt lat="43.158" lon="2.6079">
        <ele>367.6</ele>
        <time>2019-03-03T09:45:37+0100</time>
      </trkpt>
      <trkpt lat="43.15797" lon="2.6079">
        <ele>367.9</ele>
        <time>2019-03-03T09:45:36+0100</time>
      </trkpt>
      <trkpt lat="43.15793" lon="2.6079">
        <ele>368.3</ele>
        <time>2019-03-03T09:45:34+0100</time>
      </trkpt>
      <trkpt lat="43.1579" lon="2.60784">
        <ele>368.6</ele>
      </trkpt>
      <trkpt lat="43.15788" lon="2.60778">
        <ele>368.9</ele>
        <time>2019-03-03T09:45:28+0100</time>
      </trkpt>
      <trkpt lat="43.15781" lon="2.60771">
        <ele>369.4</ele>
      </trkpt>
      <trkpt lat="43.15775" lon="2.60765">
        <ele>369.8</ele>
        <time>2019-03-03T09:45:22+0100</time>
      </trkpt>
      <trkpt lat="43.1577" lon="2.60764">
        <ele>370.3</ele>
      </trkpt>
      <trkpt lat="43.15766" lon="2.60763">
        <ele>370.8</ele>
        <time>2019-03-03T09:45:18+0100</time>
      </trkpt>
      <trkpt lat="43.1576" lon="2.60764">
        <ele>371.4</ele>
        <time>2019-03-03T09:45:16+0100</time>
      </trkpt>
      <trkpt lat="43.15756" lon="2.60768">
        <ele>372</ele>
      </trkpt>
      <trkpt lat="43.15752" lon="2.60773">
        <ele>372.6</ele>
        <time>2019-03-03T09:45:12+0100</time>
      </trkpt>
      <trkpt lat="43.15747" lon="2.60778">
        <ele>373.4</ele>
        <time>2019-03-03T09:45:09+0100</time>
      </trkpt>
      <trkpt lat="43.15742" lon="2.60784">
        <ele>373.9</ele>
      </trkpt>
      <trkpt lat="43.15737" lon="2.60791">
        <ele>374.4</ele>
        <time>2019-03-03T09:45:02+0100</time>
      </trkpt>
      <trkpt lat="43.15732" lon="2.60794">
        <ele>374.9</ele>
        <time>2019-03-03T09:44:58+0100</time>
      </trkpt>
      <trkpt lat="43.15727" lon="2.60795">
        <ele>375.5</ele>
      </trkpt>
      <trkpt lat="43.15722" lon="2.60796">
        <ele>376</ele>
        <time>2019-03-03T09:44:54+0100</time>
      </trkpt>
      <trkpt lat="43.15717" lon="2.60796">
        <ele>376.6</ele>
        <time>2019-03-03T09:44:51+0100</time>
      </trkpt>
      <trkpt lat="43.15715" lon="2.60795">
        <ele>376.8</ele>
        <time>2019-03-03T09:44:50+0100</time>
      </trkpt>
      <trkpt lat="43.15708" lon="2.60799">
        <ele>377.5</ele>
        <time>2019-03-03T09:44:47+0100</time>
      </trkpt>
      <trkpt lat="43.15704" lon="2.60804">
        <ele>378</ele>
      </trkpt>
      <trkpt lat="43.15699" lon="2.60808">
        <ele>378.6</ele>
        <time>2019-03-03T09:44:43+0100</time>
      </trkpt>
      <trkpt lat="43.15692" lon="2.60813">
        <ele>379.2</ele>
      </trkpt>
      <trkpt lat="43.15686" lon="2.60819">
        <ele>379.9</ele>
        <time>2019-03-03T09:44:38+0100</time>
      </trkpt>
      <trkpt lat="43.15679" lon="2.60822">
        <ele>380.6</ele>
      </trkpt>
      <trkpt lat="43.15673" lon="2.60826">
        <ele>381.3</ele>
        <time>2019-03-03T09:44:33+0100</time>
      </trkpt>
      <trkpt lat="43.15665" lon="2.60827">
        <ele>382.2</ele>
        <time>2019-03-03T09:44:30+0100</time>
      </trkpt>
      <trkpt lat="43.15659" lon="2.60829">
        <ele>382.8</ele>
      </trkpt>
      <trkpt lat="43.15654" lon="2.60832">
        <ele>383.4</ele>
        <time>2019-03-03T09:44:25+0100</time>
      </trkpt>
      <trkpt lat="43.15648" lon="2.60835">
        <ele>384</ele>
        <time>2019-03-03T09:44:22+0100</time>
      </trkpt>
      <trkpt lat="43.1564" lon="2.60839">
        <ele>384.9</ele>
        <time>2019-03-03T09:44:18+0100</time>
      </trkpt>
      <trkpt lat="43.15633" lon="2.6084">
        <ele>385.6</ele>
      </trkpt>
      <trkpt lat="43.15626" lon="2.6084">
        <ele>386.3</ele>
        <time>2019-03-03T09:44:12+0100</time>
      </trkpt>
      <trkpt lat="43.15621" lon="2.60843">
        <ele>386.9</ele>
        <time>2019-03-03T09:44:10+0100</time>
      </trkpt>
      <trkpt lat="43.15617" lon="2.60848">
        <ele>387.4</ele>
        <time>2019-03-03T09:44:08+0100</time>
      </trkpt>
      <trkpt lat="43.15614" lon="2.60851">
        <ele>387.7</ele>
        <time>2019-03-03T09:44:07+0100</time>
      </trkpt>
      <trkpt lat="43.15605" lon="2.60853">
        <ele>388.6</ele>
        <time>2019-03-03T09:44:04+0100</time>
      </trkpt>
      <trkpt lat="43.15603" lon="2.60855">
        <ele>388.9</ele>
        <time>2019-03-03T09:44:03+0100</time>
      </trkpt>
      <trkpt lat="43.15601" lon="2.60857">
        <ele>389.1</ele>
        <time>2019-03-03T09:44:02+0100</time>
      </trkpt>
      <trkpt lat="43.15595" lon="2.6086">
        <ele>389.7</ele>
      </trkpt>
      <trkpt lat="43.15589" lon="2.60863">
        <ele>390.2</ele>
        <time>2019-03-03T09:43:57+0100</time>
      </trkpt>
      <trkpt lat="43.15582" lon="2.60866">
        <ele>390.8</ele>
      </trkpt>
      <trkpt lat="43.15575" lon="2.60869">
        <ele>391.4</ele>
        <time>2019-03-03T09:43:52+0100</time>
      </trkpt>
      <trkpt lat="43.1557" lon="2.60871">
        <ele>391.9</ele>
      </trkpt>
      <trkpt lat="43.15564" lon="2.60873">
        <ele>392.5</ele>
        <time>2019-03-03T09:43:48+0100</time>
      </trkpt>
      <trkpt lat="43.15558" lon="2.60873">
        <ele>393.3</ele>
      </trkpt>
      <trkpt lat="43.15551" lon="2.60874">
        <ele>393.9</ele>
        <time>2019-03-03T09:43:43+0100</time>
      </trkpt>
      <trkpt lat="43.15546" lon="2.60873">
        <ele>394.3</ele>
      </trkpt>
      <trkpt lat="43.15541" lon="2.60872">
        <ele>394.6</ele>
        <time>2019-03-03T09:43:39+0100</time>
      </trkpt>
      <trkpt lat="43.15534" lon="2.60873">
        <ele>395.1</ele>
      </trkpt>
      <trkpt lat="43.15527" lon="2.60873">
        <ele>395.6</ele>
        <time>2019-03-03T09:43:34+0100</time>
      </trkpt>
      <trkpt lat="43.1552" lon="2.6088">
        <ele>395.8</ele>
        <time>2019-03-03T09:43:29+0100</time>
      </trkpt>
      <trkpt lat="43.15512" lon="2.60883">
        <ele>396.2</ele>
      </trkpt>
      <trkpt lat="43.15505" lon="2.60885">
        <ele>396.7</ele>
      </trkpt>
      <trkpt lat="43.15498" lon="2.60888">
        <ele>397.2</ele>
      </trkpt>
      <trkpt lat="43.15491" lon="2.6089">
        <ele>397.6</ele>
        <time>2019-03-03T09:43:21+0100</time>
      </trkpt>
      <trkpt lat="43.15483" lon="2.60896">
        <ele>397.8</ele>
        <time>2019-03-03T09:43:15+0100</time>
      </trkpt>
      <trkpt lat="43.15481" lon="2.60897">
        <ele>397.9</ele>
        <time>2019-03-03T09:43:14+0100</time>
      </trkpt>
      <trkpt lat="43.15475" lon="2.60901">
        <ele>398.3</ele>
      </trkpt>
      <trkpt lat="43.15469" lon="2.60906">
        <ele>398.7</ele>
        <time>2019-03-03T09:43:08+0100</time>
      </trkpt>
      <trkpt lat="43.15461" lon="2.60909">
        <ele>399.5</ele>
      </trkpt>
      <trkpt lat="43.15453" lon="2.60912">
        <ele>400.3</ele>
        <time>2019-03-03T09:43:02+0100</time>
      </trkpt>
      <trkpt lat="43.15447" lon="2.60914">
        <ele>400.8</ele>
      </trkpt>
      <trkpt lat="43.15442" lon="2.60916">
        <ele>401.3</ele>
      </trkpt>
      <trkpt lat="43.15437" lon="2.60918">
        <ele>401.7</ele>
      </trkpt>
      <trkpt lat="43.15432" lon="2.6092">
        <ele>402.1</ele>
        <time>2019-03-03T09:42:55+0100</time>
      </trkpt>
      <trkpt lat="43.15426" lon="2.60926">
        <ele>402.4</ele>
        <time>2019-03-03T09:42:52+0100</time>
      </trkpt>
      <trkpt lat="43.15425" lon="2.60927">
        <ele>402.6</ele>
        <time>2019-03-03T09:42:51+0100</time>
      </trkpt>
      <trkpt lat="43.15418" lon="2.6093">
        <ele>403.4</ele>
      </trkpt>
      <trkpt lat="43.15411" lon="2.60933">
        <ele>404.3</ele>
        <time>2019-03-03T09:42:47+0100</time>
      </trkpt>
      <trkpt lat="43.15403" lon="2.60935">
        <ele>405.3</ele>
      </trkpt>
      <trkpt lat="43.15396" lon="2.60937">
        <ele>406.3</ele>
        <time>2019-03-03T09:42:43+0100</time>
      </trkpt>
      <trkpt lat="43.15389" lon="2.60942">
        <ele>407.1</ele>
        <time>2019-03-03T09:42:40+0100</time>
      </trkpt>
      <trkpt lat="43.15387" lon="2.60942">
        <ele>407.3</ele>
        <time>2019-03-03T09:42:39+0100</time>
      </trkpt>
      <trkpt lat="43.15384" lon="2.60942">
        <ele>407.8</ele>
        <time>2019-03-03T09:42:37+0100</time>
      </trkpt>
      <trkpt lat="43.15382" lon="2.60943">
        <ele>408</ele>
        <time>2019-03-03T09:42:36+0100</time>
      </trkpt>
      <trkpt lat="43.15374" lon="2.60948">
        <ele>408.9</ele>
        <time>2019-03-03T09:42:32+0100</time>
      </trkpt>
      <trkpt lat="43.15369" lon="2.60953">
        <ele>409.5</ele>
        <time>2019-03-03T09:42:29+0100</time>
      </trkpt>
      <trkpt lat="43.15364" lon="2.60956">
        <ele>410.1</ele>
      </trkpt>
      <trkpt lat="43.15359" lon="2.60959">
        <ele>410.8</ele>
        <time>2019-03-03T09:42:24+0100</time>
      </trkpt>
      <trkpt lat="43.15352" lon="2.60965">
        <ele>411.6</ele>
      </trkpt>
      <trkpt lat="43.15344" lon="2.60971">
        <ele>412.4</ele>
        <time>2019-03-03T09:42:18+0100</time>
      </trkpt>
      <trkpt lat="43.15339" lon="2.60978">
        <ele>412.7</ele>
        <time>2019-03-03T09:42:15+0100</time>
      </trkpt>
      <trkpt lat="43.15337" lon="2.6098">
        <ele>413</ele>
        <time>2019-03-03T09:42:14+0100</time>
      </trkpt>
      <trkpt lat="43.15332" lon="2.60984">
        <ele>413.3</ele>
      </trkpt>
      <trkpt lat="43.15327" lon="2.60989">
        <ele>413.8</ele>
        <time>2019-03-03T09:42:09+0100</time>
      </trkpt>
      <trkpt lat="43.15324" lon="2.60994">
        <ele>414.2</ele>
        <time>2019-03-03T09:42:07+0100</time>
      </trkpt>
      <trkpt lat="43.1532" lon="2.61002">
        <ele>414.3</ele>
      </trkpt>
      <trkpt lat="43.15316" lon="2.61011">
        <ele>414.4</ele>
      </trkpt>
      <trkpt lat="43.15313" lon="2.6102">
        <ele>414.5</ele>
      </trkpt>
      <trkpt lat="43.15309" lon="2.61029">
        <ele>414.4</ele>
        <time>2019-03-03T09:41:52+0100</time>
      </trkpt>
      <trkpt lat="43.15305" lon="2.61037">
        <ele>414.4</ele>
      </trkpt>
      <trkpt lat="43.15302" lon="2.61045">
        <ele>414.4</ele>
      </trkpt>
      <trkpt lat="43.15298" lon="2.61052">
        <ele>414.4</ele>
      </trkpt>
      <trkpt lat="43.15294" lon="2.6106">
        <ele>414.1</ele>
        <time>2019-03-03T09:41:39+0100</time>
      </trkpt>
      <trkpt lat="43.15291" lon="2.61067">
        <ele>413.7</ele>
      </trkpt>
      <trkpt lat="43.15288" lon="2.61074">
        <ele>413.3</ele>
      </trkpt>
      <trkpt lat="43.15285" lon="2.61081">
        <ele>413</ele>
      </trkpt>
      <trkpt lat="43.15282" lon="2.61088">
        <ele>412.5</ele>
        <time>2019-03-03T09:41:27+0100</time>
      </trkpt>
      <trkpt lat="43.15279" lon="2.61093">
        <ele>412.4</ele>
      </trkpt>
      <trkpt lat="43.15275" lon="2.61098">
        <ele>412.5</ele>
      </trkpt>
      <trkpt lat="43.15272" lon="2.61104">
        <ele>412.5</ele>
      </trkpt>
      <trkpt lat="43.15268" lon="2.61109">
        <ele>412.7</ele>
        <time>2019-03-03T09:41:18+0100</time>
      </trkpt>
      <trkpt lat="43.15266" lon="2.61114">
        <ele>412.3</ele>
      </trkpt>
      <trkpt lat="43.15264" lon="2.6112">
        <ele>411.9</ele>
        <time>2019-03-03T09:41:12+0100</time>
      </trkpt>
      <trkpt lat="43.15262" lon="2.61123">
        <ele>411.9</ele>
        <time>2019-03-03T09:41:10+0100</time>
      </trkpt>
      <trkpt lat="43.15261" lon="2.61124">
        <ele>411.9</ele>
        <time>2019-03-03T09:41:09+0100</time>
      </trkpt>
      <trkpt lat="43.15258" lon="2.61132">
        <ele>411.9</ele>
        <time>2019-03-03T09:41:05+0100</time>
      </trkpt>
      <trkpt lat="43.15257" lon="2.61136">
        <ele>411.6</ele>
        <time>2019-03-03T09:41:03+0100</time>
      </trkpt>
      <trkpt lat="43.15257" lon="2.6114">
        <ele>411</ele>
        <time>2019-03-03T09:41:01+0100</time>
      </trkpt>
      <trkpt lat="43.15255" lon="2.61144">
        <ele>411</ele>
        <time>2019-03-03T09:40:59+0100</time>
      </trkpt>
      <trkpt lat="43.15253" lon="2.61149">
        <ele>410.4</ele>
        <time>2019-03-03T09:40:56+0100</time>
      </trkpt>
      <trkpt lat="43.1525" lon="2.61156">
        <ele>410.5</ele>
        <time>2019-03-03T09:40:53+0100</time>
      </trkpt>
      <trkpt lat="43.15246" lon="2.6116">
        <ele>410.7</ele>
        <time>2019-03-03T09:40:51+0100</time>
      </trkpt>
      <trkpt lat="43.15244" lon="2.61165">
        <ele>410.1</ele>
      </trkpt>
      <trkpt lat="43.15242" lon="2.61171">
        <ele>409.7</ele>
        <time>2019-03-03T09:40:44+0100</time>
      </trkpt>
      <trkpt lat="43.15242" lon="2.61175">
        <ele>409.3</ele>
        <time>2019-03-03T09:40:42+0100</time>
      </trkpt>
      <trkpt lat="43.15243" lon="2.6118">
        <ele>408.1</ele>
        <time>2019-03-03T09:40:40+0100</time>
      </trkpt>
      <trkpt lat="43.1524" lon="2.61186">
        <ele>408</ele>
      </trkpt>
      <trkpt lat="43.15238" lon="2.61193">
        <ele>407.8</ele>
        <time>2019-03-03T09:40:34+0100</time>
      </trkpt>
      <trkpt lat="43.15237" lon="2.61197">
        <ele>407.2</ele>
        <time>2019-03-03T09:40:32+0100</time>
      </trkpt>
      <trkpt lat="43.15238" lon="2.61207">
        <ele>405.2</ele>
        <time>2019-03-03T09:40:27+0100</time>
      </trkpt>
      <trkpt lat="43.15239" lon="2.61209">
        <ele>404.7</ele>
        <time>2019-03-03T09:40:26+0100</time>
      </trkpt>
      <trkpt lat="43.1524" lon="2.61213">
        <ele>403.6</ele>
        <time>2019-03-03T09:40:24+0100</time>
      </trkpt>
      <trkpt lat="43.1524" lon="2.61222">
        <ele>402.1</ele>
        <time>2019-03-03T09:40:20+0100</time>
      </trkpt>
      <trkpt lat="43.15238" lon="2.6123">
        <ele>401.5</ele>
      </trkpt>
      <trkpt lat="43.15236" lon="2.61237">
        <ele>401</ele>
        <time>2019-03-03T09:40:13+0100</time>
      </trkpt>
      <trkpt lat="43.15234" lon="2.61244">
        <ele>400.8</ele>
      </trkpt>
      <trkpt lat="43.15232" lon="2.6125">
        <ele>400.5</ele>
        <time>2019-03-03T09:40:06+0100</time>
      </trkpt>
      <trkpt lat="43.15232" lon="2.61252">
        <ele>400.4</ele>
        <time>2019-03-03T09:40:05+0100</time>
      </trkpt>
      <trkpt lat="43.1523" lon="2.61257">
        <ele>400</ele>
        <time>2019-03-03T09:40:02+0100</time>
      </trkpt>
      <trkpt lat="43.15226" lon="2.61262">
        <ele>400.5</ele>
        <time>2019-03-03T09:39:59+0100</time>
      </trkpt>
      <trkpt lat="43.15224" lon="2.61268">
        <ele>400.1</ele>
      </trkpt>
      <trkpt lat="43.15222" lon="2.61274">
        <ele>399.7</ele>
        <time>2019-03-03T09:39:51+0100</time>
      </trkpt>
      <trkpt lat="43.1522" lon="2.61276">
        <ele>399.9</ele>
        <time>2019-03-03T09:39:49+0100</time>
      </trkpt>
      <trkpt lat="43.15217" lon="2.61282">
        <ele>399.8</ele>
        <time>2019-03-03T09:39:45+0100</time>
      </trkpt>
      <trkpt lat="43.15214" lon="2.61285">
        <ele>399.9</ele>
        <time>2019-03-03T09:39:43+0100</time>
      </trkpt>
      <trkpt lat="43.15209" lon="2.61295">
        <ele>399</ele>
        <time>2019-03-03T09:39:38+0100</time>
      </trkpt>
      <trkpt lat="43.15207" lon="2.61301">
        <ele>398.5</ele>
        <time>2019-03-03T09:39:35+0100</time>
      </trkpt>
      <trkpt lat="43.15201" lon="2.61307">
        <ele>398.7</ele>
        <time>2019-03-03T09:39:31+0100</time>
      </trkpt>
      <trkpt lat="43.152" lon="2.61318">
        <ele>396.6</ele>
        <time>2019-03-03T09:39:24+0100</time>
      </trkpt>
      <trkpt lat="43.152" lon="2.61323">
        <ele>395.7</ele>
        <time>2019-03-03T09:39:21+0100</time>
      </trkpt>
      <trkpt lat="43.15199" lon="2.61326">
        <ele>395.4</ele>
        <time>2019-03-03T09:39:19+0100</time>
      </trkpt>
      <trkpt lat="43.152" lon="2.61333">
        <ele>393.6</ele>
        <time>2019-03-03T09:39:14+0100</time>
      </trkpt>
      <trkpt lat="43.15201" lon="2.61339">
        <ele>393.4</ele>
        <time>2019-03-03T09:39:10+0100</time>
      </trkpt>
      <trkpt lat="43.15205" lon="2.61339">
        <ele>392.5</ele>
        <time>2019-03-03T09:39:06+0100</time>
      </trkpt>
      <trkpt lat="43.15208" lon="2.61339">
        <ele>391.6</ele>
        <time>2019-03-03T09:39:02+0100</time>
      </trkpt>
      <trkpt lat="43.15211" lon="2.61338">
        <ele>390.9</ele>
        <time>2019-03-03T09:38:59+0100</time>
      </trkpt>
      <trkpt lat="43.15213" lon="2.61337">
        <ele>390.1</ele>
        <time>2019-03-03T09:38:55+0100</time>
      </trkpt>
      <trkpt lat="43.15216" lon="2.61336">
        <ele>389.1</ele>
        <time>2019-03-03T09:38:51+0100</time>
      </trkpt>
      <trkpt lat="43.15218" lon="2.61335">
        <ele>388.6</ele>
        <time>2019-03-03T09:38:48+0100</time>
      </trkpt>
      <trkpt lat="43.15222" lon="2.61333">
        <ele>387.2</ele>
        <time>2019-03-03T09:38:43+0100</time>
      </trkpt>
      <trkpt lat="43.15223" lon="2.61333">
        <ele>386.8</ele>
        <time>2019-03-03T09:38:42+0100</time>
      </trkpt>
      <trkpt lat="43.15226" lon="2.61333">
        <ele>386.1</ele>
        <time>2019-03-03T09:38:40+0100</time>
      </trkpt>
      <trkpt lat="43.15227" lon="2.61332">
        <ele>385.8</ele>
        <time>2019-03-03T09:38:39+0100</time>
      </trkpt>
      <trkpt lat="43.15234" lon="2.61332">
        <ele>384.1</ele>
        <time>2019-03-03T09:38:34+0100</time>
      </trkpt>
      <trkpt lat="43.15237" lon="2.61332">
        <ele>382.9</ele>
        <time>2019-03-03T09:38:31+0100</time>
      </trkpt>
      <trkpt lat="43.15239" lon="2.61332">
        <ele>382.6</ele>
        <time>2019-03-03T09:38:30+0100</time>
      </trkpt>
      <trkpt lat="43.15241" lon="2.61333">
        <ele>381.8</ele>
        <time>2019-03-03T09:38:28+0100</time>
      </trkpt>
      <trkpt lat="43.15243" lon="2.61332">
        <ele>381.3</ele>
        <time>2019-03-03T09:38:26+0100</time>
      </trkpt>
      <trkpt lat="43.15245" lon="2.61332">
        <ele>380.9</ele>
        <time>2019-03-03T09:38:25+0100</time>
      </trkpt>
      <trkpt lat="43.1525" lon="2.61332">
        <ele>379.2</ele>
        <time>2019-03-03T09:38:21+0100</time>
      </trkpt>
      <trkpt lat="43.15256" lon="2.61332">
        <ele>378</ele>
        <time>2019-03-03T09:38:17+0100</time>
      </trkpt>
      <trkpt lat="43.15258" lon="2.61331">
        <ele>377.6</ele>
        <time>2019-03-03T09:38:13+0100</time>
      </trkpt>
      <trkpt lat="43.15258" lon="2.61331">
        <ele>377.5</ele>
        <time>2019-03-03T09:38:12+0100</time>
      </trkpt>
      <trkpt lat="43.15261" lon="2.61331">
        <ele>376.8</ele>
        <time>2019-03-03T09:38:08+0100</time>
      </trkpt>
      <trkpt lat="43.15266" lon="2.61332">
        <ele>375.7</ele>
        <time>2019-03-03T09:38:03+0100</time>
      </trkpt>
      <trkpt lat="43.15266" lon="2.61332">
        <ele>375.6</ele>
        <time>2019-03-03T09:38:02+0100</time>
      </trkpt>
      <trkpt lat="43.15271" lon="2.61332">
        <ele>374.5</ele>
        <time>2019-03-03T09:37:58+0100</time>
      </trkpt>
      <trkpt lat="43.15273" lon="2.61332">
        <ele>374.1</ele>
        <time>2019-03-03T09:37:57+0100</time>
      </trkpt>
      <trkpt lat="43.15277" lon="2.6133">
        <ele>372.9</ele>
        <time>2019-03-03T09:37:52+0100</time>
      </trkpt>
      <trkpt lat="43.1528" lon="2.61323">
        <ele>372.7</ele>
        <time>2019-03-03T09:37:46+0100</time>
      </trkpt>
      <trkpt lat="43.15282" lon="2.61318">
        <ele>372.5</ele>
        <time>2019-03-03T09:37:42+0100</time>
      </trkpt>
      <trkpt lat="43.15283" lon="2.61316">
        <ele>372.5</ele>
        <time>2019-03-03T09:37:41+0100</time>
      </trkpt>
      <trkpt lat="43.15285" lon="2.6131">
        <ele>371.8</ele>
        <time>2019-03-03T09:37:36+0100</time>
      </trkpt>
      <trkpt lat="43.15287" lon="2.61307">
        <ele>371.6</ele>
        <time>2019-03-03T09:37:34+0100</time>
      </trkpt>
      <trkpt lat="43.15293" lon="2.61303">
        <ele>371.2</ele>
      </trkpt>
      <trkpt lat="43.15299" lon="2.61298">
        <ele>370</ele>
        <time>2019-03-03T09:37:24+0100</time>
      </trkpt>
      <trkpt lat="43.15304" lon="2.61293">
        <ele>367.9</ele>
        <time>2019-03-03T09:37:19+0100</time>
      </trkpt>
      <trkpt lat="43.15305" lon="2.61292">
        <ele>367</ele>
        <time>2019-03-03T09:37:17+0100</time>
      </trkpt>
      <trkpt lat="43.15307" lon="2.61289">
        <ele>366.5</ele>
        <time>2019-03-03T09:37:15+0100</time>
      </trkpt>
      <trkpt lat="43.15308" lon="2.61287">
        <ele>365.9</ele>
        <time>2019-03-03T09:37:14+0100</time>
      </trkpt>
      <trkpt lat="43.15309" lon="2.61281">
        <ele>364.1</ele>
        <time>2019-03-03T09:37:09+0100</time>
      </trkpt>
      <trkpt lat="43.1531" lon="2.61279">
        <ele>363.5</ele>
        <time>2019-03-03T09:37:07+0100</time>
      </trkpt>
      <trkpt lat="43.15313" lon="2.61275">
        <ele>363.6</ele>
        <time>2019-03-03T09:37:03+0100</time>
      </trkpt>
      <trkpt lat="43.15318" lon="2.61268">
        <ele>364</ele>
        <time>2019-03-03T09:36:58+0100</time>
      </trkpt>
      <trkpt lat="43.15325" lon="2.61262">
        <ele>363.7</ele>
        <time>2019-03-03T09:36:52+0100</time>
      </trkpt>
      <trkpt lat="43.15328" lon="2.61254">
        <ele>362</ele>
        <time>2019-03-03T09:36:47+0100</time>
      </trkpt>
      <trkpt lat="43.15329" lon="2.61248">
        <ele>360.8</ele>
        <time>2019-03-03T09:36:43+0100</time>
      </trkpt>
      <trkpt lat="43.15329" lon="2.61246">
        <ele>360.5</ele>
        <time>2019-03-03T09:36:42+0100</time>
      </trkpt>
      <trkpt lat="43.15332" lon="2.61241">
        <ele>359.2</ele>
        <time>2019-03-03T09:36:39+0100</time>
      </trkpt>
      <trkpt lat="43.15334" lon="2.61236">
        <ele>358</ele>
        <time>2019-03-03T09:36:36+0100</time>
      </trkpt>
      <trkpt lat="43.15338" lon="2.61226">
        <ele>356.1</ele>
        <time>2019-03-03T09:36:29+0100</time>
      </trkpt>
      <trkpt lat="43.15337" lon="2.61219">
        <ele>354.9</ele>
        <time>2019-03-03T09:36:24+0100</time>
      </trkpt>
      <trkpt lat="43.15337" lon="2.61212">
        <ele>354.3</ele>
        <time>2019-03-03T09:36:20+0100</time>
      </trkpt>
      <trkpt lat="43.15339" lon="2.61208">
        <ele>353.8</ele>
        <time>2019-03-03T09:36:16+0100</time>
      </trkpt>
      <trkpt lat="43.15339" lon="2.61206">
        <ele>353.5</ele>
        <time>2019-03-03T09:36:15+0100</time>
      </trkpt>
      <trkpt lat="43.15342" lon="2.61199">
        <ele>352.1</ele>
        <time>2019-03-03T09:36:10+0100</time>
      </trkpt>
      <trkpt lat="43.15345" lon="2.61194">
        <ele>350.9</ele>
        <time>2019-03-03T09:36:05+0100</time>
      </trkpt>
      <trkpt lat="43.15346" lon="2.61193">
        <ele>351.1</ele>
        <time>2019-03-03T09:36:04+0100</time>
      </trkpt>
      <trkpt lat="43.15349" lon="2.6119">
        <ele>351</ele>
        <time>2019-03-03T09:36:01+0100</time>
      </trkpt>
      <trkpt lat="43.15353" lon="2.61187">
        <ele>350.7</ele>
        <time>2019-03-03T09:35:57+0100</time>
      </trkpt>
      <trkpt lat="43.15354" lon="2.61186">
        <ele>350.7</ele>
        <time>2019-03-03T09:35:56+0100</time>
      </trkpt>
      <trkpt lat="43.15357" lon="2.61185">
        <ele>349.7</ele>
        <time>2019-03-03T09:35:52+0100</time>
      </trkpt>
      <trkpt lat="43.15358" lon="2.61185">
        <ele>349.7</ele>
        <time>2019-03-03T09:35:51+0100</time>
      </trkpt>
      <trkpt lat="43.15362" lon="2.61183">
        <ele>348.7</ele>
        <time>2019-03-03T09:35:47+0100</time>
      </trkpt>
      <trkpt lat="43.15364" lon="2.61182">
        <ele>348.6</ele>
        <time>2019-03-03T09:35:45+0100</time>
      </trkpt>
      <trkpt lat="43.15366" lon="2.61181">
        <ele>348.4</ele>
        <time>2019-03-03T09:35:42+0100</time>
      </trkpt>
      <trkpt lat="43.15368" lon="2.61179">
        <ele>348.5</ele>
        <time>2019-03-03T09:35:40+0100</time>
      </trkpt>
      <trkpt lat="43.15372" lon="2.61181">
        <ele>347.5</ele>
        <time>2019-03-03T09:35:37+0100</time>
      </trkpt>
      <trkpt lat="43.15375" lon="2.61181">
        <ele>346.8</ele>
        <time>2019-03-03T09:35:32+0100</time>
      </trkpt>
      <trkpt lat="43.15377" lon="2.6118">
        <ele>346.4</ele>
        <time>2019-03-03T09:35:29+0100</time>
      </trkpt>
      <trkpt lat="43.15379" lon="2.6118">
        <ele>346.2</ele>
        <time>2019-03-03T09:35:27+0100</time>
      </trkpt>
      <trkpt lat="43.15384" lon="2.6118">
        <ele>345.1</ele>
        <time>2019-03-03T09:35:24+0100</time>
      </trkpt>
      <trkpt lat="43.15388" lon="2.6118">
        <ele>344.4</ele>
        <time>2019-03-03T09:35:22+0100</time>
      </trkpt>
      <trkpt lat="43.15389" lon="2.6118">
        <ele>344.2</ele>
        <time>2019-03-03T09:35:21+0100</time>
      </trkpt>
      <trkpt lat="43.15392" lon="2.6118">
        <ele>343.7</ele>
        <time>2019-03-03T09:35:19+0100</time>
      </trkpt>
      <trkpt lat="43.15395" lon="2.61181">
        <ele>343</ele>
        <time>2019-03-03T09:35:15+0100</time>
      </trkpt>
      <trkpt lat="43.15402" lon="2.6118">
        <ele>342.3</ele>
        <time>2019-03-03T09:35:09+0100</time>
      </trkpt>
      <trkpt lat="43.15408" lon="2.61179">
        <ele>341.5</ele>
        <time>2019-03-03T09:35:04+0100</time>
      </trkpt>
      <trkpt lat="43.15413" lon="2.61181">
        <ele>340.5</ele>
        <time>2019-03-03T09:34:58+0100</time>
      </trkpt>
      <trkpt lat="43.15419" lon="2.61179">
        <ele>339.9</ele>
        <time>2019-03-03T09:34:54+0100</time>
      </trkpt>
      <trkpt lat="43.15424" lon="2.61179">
        <ele>338.2</ele>
      </trkpt>
      <trkpt lat="43.1543" lon="2.6118">
        <ele>336.6</ele>
        <time>2019-03-03T09:34:47+0100</time>
      </trkpt>
      <trkpt lat="43.15433" lon="2.61178">
        <ele>335.6</ele>
        <time>2019-03-03T09:34:45+0100</time>
      </trkpt>
      <trkpt lat="43.15439" lon="2.61177">
        <ele>334.1</ele>
      </trkpt>
      <trkpt lat="43.15444" lon="2.61176">
        <ele>332.4</ele>
        <time>2019-03-03T09:34:38+0100</time>
      </trkpt>
      <trkpt lat="43.15447" lon="2.61174">
        <ele>333</ele>
        <time>2019-03-03T09:34:36+0100</time>
      </trkpt>
      <trkpt lat="43.1545" lon="2.61169">
        <ele>333.3</ele>
        <time>2019-03-03T09:34:33+0100</time>
      </trkpt>
      <trkpt lat="43.15451" lon="2.61167">
        <ele>333.5</ele>
        <time>2019-03-03T09:34:32+0100</time>
      </trkpt>
      <trkpt lat="43.15455" lon="2.61159">
        <ele>334.7</ele>
        <time>2019-03-03T09:34:28+0100</time>
      </trkpt>
      <trkpt lat="43.15458" lon="2.61152">
        <ele>334.8</ele>
        <time>2019-03-03T09:34:24+0100</time>
      </trkpt>
      <trkpt lat="43.15463" lon="2.61148">
        <ele>333.5</ele>
      </trkpt>
      <trkpt lat="43.15468" lon="2.61144">
        <ele>331.2</ele>
        <time>2019-03-03T09:34:16+0100</time>
      </trkpt>
      <trkpt lat="43.15475" lon="2.61138">
        <ele>329</ele>
        <time>2019-03-03T09:34:11+0100</time>
      </trkpt>
      <trkpt lat="43.15477" lon="2.61135">
        <ele>329.6</ele>
        <time>2019-03-03T09:34:09+0100</time>
      </trkpt>
      <trkpt lat="43.1548" lon="2.61125">
        <ele>329.8</ele>
        <time>2019-03-03T09:34:05+0100</time>
      </trkpt>
      <trkpt lat="43.15479" lon="2.61116">
        <ele>329.1</ele>
      </trkpt>
      <trkpt lat="43.15479" lon="2.61107">
        <ele>329.4</ele>
        <time>2019-03-03T09:33:59+0100</time>
      </trkpt>
      <trkpt lat="43.15483" lon="2.61102">
        <ele>330.1</ele>
      </trkpt>
      <trkpt lat="43.15487" lon="2.61097">
        <ele>329.9</ele>
      </trkpt>
      <trkpt lat="43.1549" lon="2.61092">
        <ele>329</ele>
      </trkpt>
      <trkpt lat="43.15494" lon="2.61087">
        <ele>327.3</ele>
        <time>2019-03-03T09:33:47+0100</time>
      </trkpt>
      <trkpt lat="43.15497" lon="2.61082">
        <ele>325.6</ele>
        <time>2019-03-03T09:33:44+0100</time>
      </trkpt>
      <trkpt lat="43.15502" lon="2.61076">
        <ele>325.5</ele>
      </trkpt>
      <trkpt lat="43.15507" lon="2.6107">
        <ele>326.1</ele>
        <time>2019-03-03T09:33:35+0100</time>
      </trkpt>
      <trkpt lat="43.1551" lon="2.61065">
        <ele>325.9</ele>
      </trkpt>
      <trkpt lat="43.15514" lon="2.61061">
        <ele>325.1</ele>
        <time>2019-03-03T09:33:28+0100</time>
      </trkpt>
      <trkpt lat="43.1552" lon="2.61058">
        <ele>323.1</ele>
      </trkpt>
      <trkpt lat="43.15526" lon="2.61056">
        <ele>320.6</ele>
        <time>2019-03-03T09:33:19+0100</time>
      </trkpt>
      <trkpt lat="43.15534" lon="2.6105">
        <ele>321.8</ele>
        <time>2019-03-03T09:33:13+0100</time>
      </trkpt>
      <trkpt lat="43.15535" lon="2.6105">
        <ele>321.8</ele>
        <time>2019-03-03T09:33:12+0100</time>
      </trkpt>
      <trkpt lat="43.15542" lon="2.61051">
        <ele>320.3</ele>
        <time>2019-03-03T09:33:06+0100</time>
      </trkpt>
      <trkpt lat="43.15543" lon="2.61051">
        <ele>320.4</ele>
        <time>2019-03-03T09:33:05+0100</time>
      </trkpt>
      <trkpt lat="43.15551" lon="2.61053">
        <ele>318.5</ele>
        <time>2019-03-03T09:32:58+0100</time>
      </trkpt>
      <trkpt lat="43.15553" lon="2.61054">
        <ele>318.2</ele>
        <time>2019-03-03T09:32:56+0100</time>
      </trkpt>
      <trkpt lat="43.15559" lon="2.61058">
        <ele>317.4</ele>
        <time>2019-03-03T09:32:51+0100</time>
      </trkpt>
      <trkpt lat="43.15562" lon="2.61059">
        <ele>317.6</ele>
        <time>2019-03-03T09:32:49+0100</time>
      </trkpt>
      <trkpt lat="43.15564" lon="2.61061">
        <ele>317.9</ele>
        <time>2019-03-03T09:32:46+0100</time>
      </trkpt>
      <trkpt lat="43.15567" lon="2.61064">
        <ele>318.3</ele>
        <time>2019-03-03T09:32:43+0100</time>
      </trkpt>
      <trkpt lat="43.15569" lon="2.61065">
        <ele>318.3</ele>
        <time>2019-03-03T09:32:41+0100</time>
      </trkpt>
      <trkpt lat="43.15574" lon="2.61065">
        <ele>318</ele>
      </trkpt>
      <trkpt lat="43.15579" lon="2.61064">
        <ele>317.6</ele>
        <time>2019-03-03T09:32:35+0100</time>
      </trkpt>
      <trkpt lat="43.1558" lon="2.61064">
        <ele>317.5</ele>
        <time>2019-03-03T09:32:34+0100</time>
      </trkpt>
      <trkpt lat="43.15579" lon="2.61066">
        <ele>317.9</ele>
        <time>2019-03-03T09:32:24+0100</time>
      </trkpt>
      <trkpt lat="43.15579" lon="2.61066">
        <ele>317.9</ele>
        <time>2019-03-03T09:32:23+0100</time>
      </trkpt>
      <trkpt lat="43.15583" lon="2.61064">
        <ele>317.2</ele>
        <time>2019-03-03T09:32:19+0100</time>
      </trkpt>
      <trkpt lat="43.15586" lon="2.61062">
        <ele>316.6</ele>
        <time>2019-03-03T09:32:15+0100</time>
      </trkpt>
      <trkpt lat="43.15591" lon="2.6106">
        <ele>315.6</ele>
        <time>2019-03-03T09:32:10+0100</time>
      </trkpt>
      <trkpt lat="43.15592" lon="2.61059">
        <ele>315.1</ele>
        <time>2019-03-03T09:32:09+0100</time>
      </trkpt>
      <trkpt lat="43.15597" lon="2.61055">
        <ele>314</ele>
      </trkpt>
      <trkpt lat="43.15601" lon="2.61051">
        <ele>314.4</ele>
        <time>2019-03-03T09:32:02+0100</time>
      </trkpt>
      <trkpt lat="43.15605" lon="2.61049">
        <ele>314.2</ele>
        <time>2019-03-03T09:32:00+0100</time>
      </trkpt>
      <trkpt lat="43.15609" lon="2.61047">
        <ele>313.9</ele>
        <time>2019-03-03T09:31:56+0100</time>
      </trkpt>
      <trkpt lat="43.15617" lon="2.61044">
        <ele>313.6</ele>
        <time>2019-03-03T09:31:51+0100</time>
      </trkpt>
      <trkpt lat="43.15621" lon="2.61043">
        <ele>313.1</ele>
        <time>2019-03-03T09:31:47+0100</time>
      </trkpt>
      <trkpt lat="43.15625" lon="2.61043">
        <ele>312.7</ele>
        <time>2019-03-03T09:31:43+0100</time>
      </trkpt>
      <trkpt lat="43.15626" lon="2.61043">
        <ele>312.6</ele>
        <time>2019-03-03T09:31:42+0100</time>
      </trkpt>
      <trkpt lat="43.15633" lon="2.61039">
        <ele>311.4</ele>
        <time>2019-03-03T09:31:37+0100</time>
      </trkpt>
      <trkpt lat="43.15637" lon="2.61039">
        <ele>310.6</ele>
        <time>2019-03-03T09:31:34+0100</time>
      </trkpt>
      <trkpt lat="43.15638" lon="2.6104">
        <ele>310.5</ele>
        <time>2019-03-03T09:31:33+0100</time>
      </trkpt>
      <trkpt lat="43.15642" lon="2.6104">
        <ele>309.9</ele>
        <time>2019-03-03T09:31:30+0100</time>
      </trkpt>
      <trkpt lat="43.15644" lon="2.61037">
        <ele>309.2</ele>
        <time>2019-03-03T09:31:27+0100</time>
      </trkpt>
      <trkpt lat="43.15647" lon="2.61034">
        <ele>308.2</ele>
        <time>2019-03-03T09:31:24+0100</time>
      </trkpt>
      <trkpt lat="43.15651" lon="2.61029">
        <ele>306.6</ele>
        <time>2019-03-03T09:31:20+0100</time>
      </trkpt>
      <trkpt lat="43.15658" lon="2.61025">
        <ele>305.8</ele>
      </trkpt>
      <trkpt lat="43.15666" lon="2.61022">
        <ele>305.2</ele>
        <time>2019-03-03T09:31:09+0100</time>
      </trkpt>
      <trkpt lat="43.15668" lon="2.61021">
        <ele>305</ele>
        <time>2019-03-03T09:31:08+0100</time>
      </trkpt>
      <trkpt lat="43.15672" lon="2.61022">
        <ele>304.1</ele>
      </trkpt>
      <trkpt lat="43.15677" lon="2.61023">
        <ele>303.1</ele>
      </trkpt>
      <trkpt lat="43.15682" lon="2.61024">
        <ele>302.2</ele>
      </trkpt>
      <trkpt lat="43.15687" lon="2.61025">
        <ele>301.2</ele>
        <time>2019-03-03T09:30:59+0100</time>
      </trkpt>
      <trkpt lat="43.15692" lon="2.61028">
        <ele>299.5</ele>
      </trkpt>
      <trkpt lat="43.15696" lon="2.6103">
        <ele>299.9</ele>
        <time>2019-03-03T09:30:52+0100</time>
      </trkpt>
      <trkpt lat="43.15703" lon="2.61031">
        <ele>301.3</ele>
        <time>2019-03-03T09:30:46+0100</time>
      </trkpt>
      <trkpt lat="43.15707" lon="2.61034">
        <ele>301.8</ele>
        <time>2019-03-03T09:30:42+0100</time>
      </trkpt>
      <trkpt lat="43.1571" lon="2.61041">
        <ele>301.5</ele>
        <time>2019-03-03T09:30:36+0100</time>
      </trkpt>
      <trkpt lat="43.15711" lon="2.61044">
        <ele>301.2</ele>
        <time>2019-03-03T09:30:34+0100</time>
      </trkpt>
      <trkpt lat="43.15711" lon="2.61045">
        <ele>301</ele>
        <time>2019-03-03T09:30:33+0100</time>
      </trkpt>
      <trkpt lat="43.15717" lon="2.61049">
        <ele>299.5</ele>
      </trkpt>
      <trkpt lat="43.15722" lon="2.61052">
        <ele>297.2</ele>
        <time>2019-03-03T09:30:23+0100</time>
      </trkpt>
      <trkpt lat="43.15726" lon="2.61053">
        <ele>298.6</ele>
        <time>2019-03-03T09:30:20+0100</time>
      </trkpt>
      <trkpt lat="43.1573" lon="2.6106">
        <ele>299.1</ele>
        <time>2019-03-03T09:30:15+0100</time>
      </trkpt>
      <trkpt lat="43.1573" lon="2.61067">
        <ele>298.3</ele>
      </trkpt>
      <trkpt lat="43.15729" lon="2.61074">
        <ele>297.6</ele>
        <time>2019-03-03T09:30:08+0100</time>
      </trkpt>
      <trkpt lat="43.15728" lon="2.61078">
        <ele>297.2</ele>
        <time>2019-03-03T09:30:06+0100</time>
      </trkpt>
      <trkpt lat="43.1573" lon="2.61083">
        <ele>297</ele>
        <time>2019-03-03T09:30:03+0100</time>
      </trkpt>
      <trkpt lat="43.15737" lon="2.61086">
        <ele>297.2</ele>
      </trkpt>
      <trkpt lat="43.15744" lon="2.6109">
        <ele>296.8</ele>
        <time>2019-03-03T09:29:54+0100</time>
      </trkpt>
      <trkpt lat="43.15745" lon="2.61091">
        <ele>296.7</ele>
        <time>2019-03-03T09:29:53+0100</time>
      </trkpt>
      <trkpt lat="43.15748" lon="2.61095">
        <ele>296</ele>
        <time>2019-03-03T09:29:49+0100</time>
      </trkpt>
      <trkpt lat="43.15753" lon="2.61099">
        <ele>295</ele>
        <time>2019-03-03T09:29:45+0100</time>
      </trkpt>
      <trkpt lat="43.15758" lon="2.61101">
        <ele>294.3</ele>
      </trkpt>
      <trkpt lat="43.15763" lon="2.61103">
        <ele>293.5</ele>
        <time>2019-03-03T09:29:37+0100</time>
      </trkpt>
      <trkpt lat="43.15769" lon="2.61106">
        <ele>292</ele>
      </trkpt>
      <trkpt lat="43.15776" lon="2.61108">
        <ele>290.2</ele>
        <time>2019-03-03T09:29:28+0100</time>
      </trkpt>
      <trkpt lat="43.15782" lon="2.61108">
        <ele>289.5</ele>
        <time>2019-03-03T09:29:23+0100</time>
      </trkpt>
      <trkpt lat="43.15787" lon="2.61107">
        <ele>289.2</ele>
      </trkpt>
      <trkpt lat="43.15792" lon="2.61106">
        <ele>289</ele>
        <time>2019-03-03T09:29:16+0100</time>
      </trkpt>
      <trkpt lat="43.15798" lon="2.61105">
        <ele>288.4</ele>
      </trkpt>
      <trkpt lat="43.15804" lon="2.61104">
        <ele>287.9</ele>
        <time>2019-03-03T09:29:06+0100</time>
      </trkpt>
      <trkpt lat="43.15809" lon="2.61104">
        <ele>287.4</ele>
        <time>2019-03-03T09:29:02+0100</time>
      </trkpt>
      <trkpt lat="43.15817" lon="2.61103">
        <ele>286.7</ele>
        <time>2019-03-03T09:28:55+0100</time>
      </trkpt>
      <trkpt lat="43.15822" lon="2.61103">
        <ele>286</ele>
      </trkpt>
      <trkpt lat="43.15827" lon="2.61104">
        <ele>285.3</ele>
        <time>2019-03-03T09:28:46+0100</time>
      </trkpt>
      <trkpt lat="43.15835" lon="2.61103">
        <ele>284.4</ele>
        <time>2019-03-03T09:28:40+0100</time>
      </trkpt>
      <trkpt lat="43.15841" lon="2.61101">
        <ele>283.9</ele>
        <time>2019-03-03T09:28:35+0100</time>
      </trkpt>
      <trkpt lat="43.15849" lon="2.61103">
        <ele>282.2</ele>
      </trkpt>
      <trkpt lat="43.15857" lon="2.61104">
        <ele>280.4</ele>
        <time>2019-03-03T09:28:26+0100</time>
      </trkpt>
      <trkpt lat="43.15862" lon="2.61107">
        <ele>278.6</ele>
      </trkpt>
      <trkpt lat="43.15867" lon="2.6111">
        <ele>277.2</ele>
        <time>2019-03-03T09:28:20+0100</time>
      </trkpt>
      <trkpt lat="43.15872" lon="2.61115">
        <ele>277.3</ele>
      </trkpt>
      <trkpt lat="43.15878" lon="2.6112">
        <ele>278.1</ele>
        <time>2019-03-03T09:28:12+0100</time>
      </trkpt>
      <trkpt lat="43.15885" lon="2.61123">
        <ele>278.2</ele>
      </trkpt>
      <trkpt lat="43.15891" lon="2.61126">
        <ele>278</ele>
        <time>2019-03-03T09:28:05+0100</time>
      </trkpt>
      <trkpt lat="43.15897" lon="2.61125">
        <ele>277.3</ele>
      </trkpt>
      <trkpt lat="43.15902" lon="2.61124">
        <ele>276.8</ele>
        <time>2019-03-03T09:27:59+0100</time>
      </trkpt>
      <trkpt lat="43.15908" lon="2.61126">
        <ele>276.1</ele>
      </trkpt>
      <trkpt lat="43.15914" lon="2.61129">
        <ele>275</ele>
        <time>2019-03-03T09:27:52+0100</time>
      </trkpt>
      <trkpt lat="43.15921" lon="2.6113">
        <ele>273.7</ele>
      </trkpt>
      <trkpt lat="43.15928" lon="2.61132">
        <ele>272.5</ele>
        <time>2019-03-03T09:27:44+0100</time>
      </trkpt>
      <trkpt lat="43.15935" lon="2.61135">
        <ele>270.7</ele>
      </trkpt>
      <trkpt lat="43.15942" lon="2.61138">
        <ele>268.8</ele>
        <time>2019-03-03T09:27:35+0100</time>
      </trkpt>
      <trkpt lat="43.15946" lon="2.61138">
        <ele>268.3</ele>
      </trkpt>
      <trkpt lat="43.15951" lon="2.61138">
        <ele>268.2</ele>
        <time>2019-03-03T09:27:29+0100</time>
      </trkpt>
      <trkpt lat="43.15957" lon="2.61137">
        <ele>268.4</ele>
      </trkpt>
      <trkpt lat="43.15963" lon="2.61136">
        <ele>268.4</ele>
        <time>2019-03-03T09:27:19+0100</time>
      </trkpt>
      <trkpt lat="43.15969" lon="2.61133">
        <ele>268.4</ele>
        <time>2019-03-03T09:27:13+0100</time>
      </trkpt>
      <trkpt lat="43.1597" lon="2.61133">
        <ele>268.3</ele>
        <time>2019-03-03T09:27:12+0100</time>
      </trkpt>
      <trkpt lat="43.15976" lon="2.61132">
        <ele>267.8</ele>
        <time>2019-03-03T09:27:07+0100</time>
      </trkpt>
      <trkpt lat="43.15982" lon="2.61131">
        <ele>267.1</ele>
        <time>2019-03-03T09:27:01+0100</time>
      </trkpt>
      <trkpt lat="43.15987" lon="2.61136">
        <ele>265.2</ele>
      </trkpt>
      <trkpt lat="43.15991" lon="2.61141">
        <ele>263.9</ele>
        <time>2019-03-03T09:26:54+0100</time>
      </trkpt>
      <trkpt lat="43.15995" lon="2.61145">
        <ele>263.7</ele>
      </trkpt>
      <trkpt lat="43.15999" lon="2.61149">
        <ele>263.2</ele>
        <time>2019-03-03T09:26:47+0100</time>
      </trkpt>
      <trkpt lat="43.16" lon="2.6115">
        <ele>263.1</ele>
        <time>2019-03-03T09:26:46+0100</time>
      </trkpt>
      <trkpt lat="43.16007" lon="2.61154">
        <ele>263.7</ele>
        <time>2019-03-03T09:26:39+0100</time>
      </trkpt>
      <trkpt lat="43.16013" lon="2.61154">
        <ele>263.7</ele>
      </trkpt>
      <trkpt lat="43.16019" lon="2.61154">
        <ele>263.6</ele>
        <time>2019-03-03T09:26:32+0100</time>
      </trkpt>
      <trkpt lat="43.16026" lon="2.61155">
        <ele>263.2</ele>
      </trkpt>
      <trkpt lat="43.16034" lon="2.61156">
        <ele>263.1</ele>
        <time>2019-03-03T09:26:26+0100</time>
      </trkpt>
      <trkpt lat="43.16036" lon="2.61158">
        <ele>262.4</ele>
        <time>2019-03-03T09:26:25+0100</time>
      </trkpt>
      <trkpt lat="43.16038" lon="2.6116">
        <ele>261.7</ele>
        <time>2019-03-03T09:26:23+0100</time>
      </trkpt>
      <trkpt lat="43.1604" lon="2.61162">
        <ele>260.9</ele>
        <time>2019-03-03T09:26:18+0100</time>
      </trkpt>
      <trkpt lat="43.16042" lon="2.61164">
        <ele>260</ele>
        <time>2019-03-03T09:26:17+0100</time>
      </trkpt>
      <trkpt lat="43.16044" lon="2.61165">
        <ele>259.2</ele>
        <time>2019-03-03T09:26:11+0100</time>
      </trkpt>
      <trkpt lat="43.16046" lon="2.61167">
        <ele>258.4</ele>
        <time>2019-03-03T09:26:09+0100</time>
      </trkpt>
      <trkpt lat="43.16048" lon="2.61169">
        <ele>258.6</ele>
        <time>2019-03-03T09:26:07+0100</time>
      </trkpt>
      <trkpt lat="43.1605" lon="2.61171">
        <ele>258.7</ele>
        <time>2019-03-03T09:26:02+0100</time>
      </trkpt>
      <trkpt lat="43.16054" lon="2.61174">
        <ele>258.7</ele>
      </trkpt>
      <trkpt lat="43.16058" lon="2.61177">
        <ele>258.6</ele>
        <time>2019-03-03T09:25:55+0100</time>
      </trkpt>
      <trkpt lat="43.16063" lon="2.61178">
        <ele>258.2</ele>
      </trkpt>
      <trkpt lat="43.16068" lon="2.6118">
        <ele>257.8</ele>
        <time>2019-03-03T09:25:49+0100</time>
      </trkpt>
      <trkpt lat="43.16076" lon="2.61182">
        <ele>257.2</ele>
        <time>2019-03-03T09:25:42+0100</time>
      </trkpt>
      <trkpt lat="43.16085" lon="2.6118">
        <ele>256.3</ele>
        <time>2019-03-03T09:25:35+0100</time>
      </trkpt>
      <trkpt lat="43.16085" lon="2.61179">
        <ele>256.2</ele>
        <time>2019-03-03T09:25:34+0100</time>
      </trkpt>
      <trkpt lat="43.16089" lon="2.61175">
        <ele>255.4</ele>
        <time>2019-03-03T09:25:29+0100</time>
      </trkpt>
      <trkpt lat="43.16096" lon="2.61172">
        <ele>253.8</ele>
      </trkpt>
      <trkpt lat="43.16104" lon="2.6117">
        <ele>251.7</ele>
        <time>2019-03-03T09:25:21+0100</time>
      </trkpt>
      <trkpt lat="43.1611" lon="2.6117">
        <ele>250.3</ele>
        <time>2019-03-03T09:25:15+0100</time>
      </trkpt>
      <trkpt lat="43.16116" lon="2.61169">
        <ele>250.3</ele>
        <time>2019-03-03T09:25:09+0100</time>
      </trkpt>
      <trkpt lat="43.16123" lon="2.61167">
        <ele>249.9</ele>
        <time>2019-03-03T09:25:05+0100</time>
      </trkpt>
      <trkpt lat="43.16126" lon="2.61164">
        <ele>250.2</ele>
        <time>2019-03-03T09:25:02+0100</time>
      </trkpt>
      <trkpt lat="43.16126" lon="2.61161">
        <ele>250.2</ele>
        <time>2019-03-03T09:25:00+0100</time>
      </trkpt>
      <trkpt lat="43.16127" lon="2.61159">
        <ele>250.2</ele>
        <time>2019-03-03T09:24:58+0100</time>
      </trkpt>
      <trkpt lat="43.16133" lon="2.61154">
        <ele>249</ele>
        <time>2019-03-03T09:24:52+0100</time>
      </trkpt>
      <trkpt lat="43.16135" lon="2.61151">
        <ele>248.1</ele>
        <time>2019-03-03T09:24:49+0100</time>
      </trkpt>
      <trkpt lat="43.16138" lon="2.6115">
        <ele>247</ele>
        <time>2019-03-03T09:24:46+0100</time>
      </trkpt>
      <trkpt lat="43.16141" lon="2.61148">
        <ele>245.9</ele>
        <time>2019-03-03T09:24:42+0100</time>
      </trkpt>
      <trkpt lat="43.16143" lon="2.61146">
        <ele>245.2</ele>
        <time>2019-03-03T09:24:39+0100</time>
      </trkpt>
      <trkpt lat="43.16148" lon="2.61141">
        <ele>243.2</ele>
        <time>2019-03-03T09:24:35+0100</time>
      </trkpt>
      <trkpt lat="43.16156" lon="2.61136">
        <ele>242.2</ele>
        <time>2019-03-03T09:24:27+0100</time>
      </trkpt>
      <trkpt lat="43.16157" lon="2.61136">
        <ele>242</ele>
        <time>2019-03-03T09:24:26+0100</time>
      </trkpt>
      <trkpt lat="43.16161" lon="2.61134">
        <ele>241.6</ele>
        <time>2019-03-03T09:24:22+0100</time>
      </trkpt>
      <trkpt lat="43.16166" lon="2.6113">
        <ele>241.1</ele>
        <time>2019-03-03T09:24:17+0100</time>
      </trkpt>
      <trkpt lat="43.16166" lon="2.61129">
        <ele>241.1</ele>
        <time>2019-03-03T09:24:16+0100</time>
      </trkpt>
      <trkpt lat="43.16169" lon="2.61127">
        <ele>241</ele>
        <time>2019-03-03T09:24:13+0100</time>
      </trkpt>
      <trkpt lat="43.1617" lon="2.61127">
        <ele>240.8</ele>
        <time>2019-03-03T09:24:12+0100</time>
      </trkpt>
      <trkpt lat="43.16171" lon="2.61127">
        <ele>240.7</ele>
        <time>2019-03-03T09:24:11+0100</time>
      </trkpt>
      <trkpt lat="43.16174" lon="2.61127">
        <ele>240.1</ele>
        <time>2019-03-03T09:24:08+0100</time>
      </trkpt>
      <trkpt lat="43.16175" lon="2.61126">
        <ele>240</ele>
        <time>2019-03-03T09:24:06+0100</time>
      </trkpt>
      <trkpt lat="43.16179" lon="2.61128">
        <ele>239</ele>
        <time>2019-03-03T09:24:02+0100</time>
      </trkpt>
      <trkpt lat="43.16184" lon="2.61132">
        <ele>237.2</ele>
      </trkpt>
      <trkpt lat="43.16189" lon="2.61136">
        <ele>235</ele>
        <time>2019-03-03T09:23:54+0100</time>
      </trkpt>
      <trkpt lat="43.16194" lon="2.61138">
        <ele>233.5</ele>
      </trkpt>
      <trkpt lat="43.16199" lon="2.61139">
        <ele>232.5</ele>
        <time>2019-03-03T09:23:48+0100</time>
      </trkpt>
      <trkpt lat="43.16203" lon="2.61143">
        <ele>232.8</ele>
      </trkpt>
      <trkpt lat="43.16206" lon="2.61146">
        <ele>232.9</ele>
        <time>2019-03-03T09:23:43+0100</time>
      </trkpt>
      <trkpt lat="43.16214" lon="2.61151">
        <ele>232.3</ele>
        <time>2019-03-03T09:23:38+0100</time>
      </trkpt>
      <trkpt lat="43.16219" lon="2.61153">
        <ele>231.5</ele>
        <time>2019-03-03T09:23:35+0100</time>
      </trkpt>
      <trkpt lat="43.16225" lon="2.61155">
        <ele>230.4</ele>
        <time>2019-03-03T09:23:30+0100</time>
      </trkpt>
      <trkpt lat="43.1623" lon="2.61152">
        <ele>229.6</ele>
      </trkpt>
      <trkpt lat="43.16235" lon="2.6115">
        <ele>228.8</ele>
        <time>2019-03-03T09:23:23+0100</time>
      </trkpt>
      <trkpt lat="43.1624" lon="2.6115">
        <ele>228.2</ele>
      </trkpt>
      <trkpt lat="43.16244" lon="2.61149">
        <ele>227.5</ele>
        <time>2019-03-03T09:23:17+0100</time>
      </trkpt>
      <trkpt lat="43.1625" lon="2.61146">
        <ele>226.4</ele>
        <time>2019-03-03T09:23:12+0100</time>
      </trkpt>
      <trkpt lat="43.16255" lon="2.61143">
        <ele>225.1</ele>
        <time>2019-03-03T09:23:07+0100</time>
      </trkpt>
      <trkpt lat="43.16261" lon="2.6114">
        <ele>223.4</ele>
        <time>2019-03-03T09:23:02+0100</time>
      </trkpt>
      <trkpt lat="43.16269" lon="2.61137">
        <ele>222</ele>
        <time>2019-03-03T09:22:57+0100</time>
      </trkpt>
      <trkpt lat="43.16271" lon="2.61138">
        <ele>221.6</ele>
        <time>2019-03-03T09:22:55+0100</time>
      </trkpt>
      <trkpt lat="43.16274" lon="2.61137">
        <ele>221.2</ele>
        <time>2019-03-03T09:22:52+0100</time>
      </trkpt>
      <trkpt lat="43.16277" lon="2.61136">
        <ele>220.8</ele>
        <time>2019-03-03T09:22:50+0100</time>
      </trkpt>
      <trkpt lat="43.16282" lon="2.61132">
        <ele>220.8</ele>
        <time>2019-03-03T09:22:46+0100</time>
      </trkpt>
      <trkpt lat="43.16289" lon="2.6113">
        <ele>220.3</ele>
        <time>2019-03-03T09:22:39+0100</time>
      </trkpt>
      <trkpt lat="43.16294" lon="2.61127">
        <ele>219.6</ele>
      </trkpt>
      <trkpt lat="43.16299" lon="2.61124">
        <ele>218.5</ele>
        <time>2019-03-03T09:22:31+0100</time>
      </trkpt>
      <trkpt lat="43.16304" lon="2.61119">
        <ele>216.7</ele>
      </trkpt>
      <trkpt lat="43.1631" lon="2.61114">
        <ele>215.5</ele>
        <time>2019-03-03T09:22:24+0100</time>
      </trkpt>
      <trkpt lat="43.16314" lon="2.6111">
        <ele>215</ele>
      </trkpt>
      <trkpt lat="43.16318" lon="2.61106">
        <ele>215.6</ele>
        <time>2019-03-03T09:22:18+0100</time>
      </trkpt>
      <trkpt lat="43.16324" lon="2.61101">
        <ele>215.6</ele>
        <time>2019-03-03T09:22:12+0100</time>
      </trkpt>
      <trkpt lat="43.16325" lon="2.611">
        <ele>215.5</ele>
        <time>2019-03-03T09:22:11+0100</time>
      </trkpt>
      <trkpt lat="43.16331" lon="2.61094">
        <ele>214.7</ele>
        <time>2019-03-03T09:22:06+0100</time>
      </trkpt>
      <trkpt lat="43.16335" lon="2.61091">
        <ele>213.9</ele>
      </trkpt>
      <trkpt lat="43.16339" lon="2.61089">
        <ele>213.5</ele>
        <time>2019-03-03T09:21:59+0100</time>
      </trkpt>
      <trkpt lat="43.16344" lon="2.61085">
        <ele>212.5</ele>
      </trkpt>
      <trkpt lat="43.16348" lon="2.61081">
        <ele>211.8</ele>
        <time>2019-03-03T09:21:51+0100</time>
      </trkpt>
      <trkpt lat="43.16349" lon="2.6108">
        <ele>211.8</ele>
        <time>2019-03-03T09:21:50+0100</time>
      </trkpt>
      <trkpt lat="43.16355" lon="2.61078">
        <ele>210.9</ele>
        <time>2019-03-03T09:21:46+0100</time>
      </trkpt>
      <trkpt lat="43.16363" lon="2.61072">
        <ele>210.1</ele>
        <time>2019-03-03T09:21:40+0100</time>
      </trkpt>
      <trkpt lat="43.16364" lon="2.61072">
        <ele>210.1</ele>
        <time>2019-03-03T09:21:39+0100</time>
      </trkpt>
      <trkpt lat="43.1637" lon="2.61069">
        <ele>209.7</ele>
        <time>2019-03-03T09:21:34+0100</time>
      </trkpt>
      <trkpt lat="43.16373" lon="2.61067">
        <ele>209.4</ele>
        <time>2019-03-03T09:21:32+0100</time>
      </trkpt>
      <trkpt lat="43.16377" lon="2.61065">
        <ele>208.7</ele>
      </trkpt>
      <trkpt lat="43.16382" lon="2.61064">
        <ele>207.9</ele>
        <time>2019-03-03T09:21:26+0100</time>
      </trkpt>
      <trkpt lat="43.16389" lon="2.6106">
        <ele>205.9</ele>
        <time>2019-03-03T09:21:20+0100</time>
      </trkpt>
      <trkpt lat="43.16394" lon="2.61053">
        <ele>205.4</ele>
        <time>2019-03-03T09:21:14+0100</time>
      </trkpt>
      <trkpt lat="43.164" lon="2.61047">
        <ele>206.2</ele>
        <time>2019-03-03T09:21:08+0100</time>
      </trkpt>
      <trkpt lat="43.16403" lon="2.61043">
        <ele>206.4</ele>
        <time>2019-03-03T09:21:05+0100</time>
      </trkpt>
      <trkpt lat="43.16403" lon="2.61042">
        <ele>206.5</ele>
        <time>2019-03-03T09:21:04+0100</time>
      </trkpt>
      <trkpt lat="43.16407" lon="2.61039">
        <ele>206.1</ele>
        <time>2019-03-03T09:21:01+0100</time>
      </trkpt>
      <trkpt lat="43.16414" lon="2.61036">
        <ele>204.5</ele>
        <time>2019-03-03T09:20:55+0100</time>
      </trkpt>
      <trkpt lat="43.16423" lon="2.61035">
        <ele>203</ele>
        <time>2019-03-03T09:20:49+0100</time>
      </trkpt>
      <trkpt lat="43.16429" lon="2.61035">
        <ele>201.9</ele>
        <time>2019-03-03T09:20:43+0100</time>
      </trkpt>
      <trkpt lat="43.16437" lon="2.61035">
        <ele>200.5</ele>
        <time>2019-03-03T09:20:37+0100</time>
      </trkpt>
      <trkpt lat="43.16445" lon="2.61031">
        <ele>198.4</ele>
        <time>2019-03-03T09:20:31+0100</time>
      </trkpt>
      <trkpt lat="43.1645" lon="2.61029">
        <ele>197.4</ele>
      </trkpt>
      <trkpt lat="43.16454" lon="2.61028">
        <ele>196.2</ele>
        <time>2019-03-03T09:20:24+0100</time>
      </trkpt>
      <trkpt lat="43.1646" lon="2.61027">
        <ele>195.3</ele>
      </trkpt>
      <trkpt lat="43.16465" lon="2.61027">
        <ele>194.5</ele>
        <time>2019-03-03T09:20:16+0100</time>
      </trkpt>
      <trkpt lat="43.1647" lon="2.61027">
        <ele>193.7</ele>
      </trkpt>
      <trkpt lat="43.16475" lon="2.61026">
        <ele>193.2</ele>
        <time>2019-03-03T09:20:09+0100</time>
      </trkpt>
      <trkpt lat="43.16483" lon="2.61025">
        <ele>192.6</ele>
        <time>2019-03-03T09:20:03+0100</time>
      </trkpt>
      <trkpt lat="43.16488" lon="2.61026">
        <ele>192</ele>
      </trkpt>
      <trkpt lat="43.16494" lon="2.61027">
        <ele>191.5</ele>
        <time>2019-03-03T09:19:56+0100</time>
      </trkpt>
      <trkpt lat="43.16497" lon="2.61028">
        <ele>191.3</ele>
        <time>2019-03-03T09:19:54+0100</time>
      </trkpt>
      <trkpt lat="43.16501" lon="2.61027">
        <ele>190.9</ele>
        <time>2019-03-03T09:19:51+0100</time>
      </trkpt>
      <trkpt lat="43.16504" lon="2.61024">
        <ele>190.7</ele>
        <time>2019-03-03T09:19:47+0100</time>
      </trkpt>
      <trkpt lat="43.16504" lon="2.61024">
        <ele>190.6</ele>
        <time>2019-03-03T09:19:46+0100</time>
      </trkpt>
      <trkpt lat="43.16507" lon="2.61022">
        <ele>190.2</ele>
        <time>2019-03-03T09:19:42+0100</time>
      </trkpt>
      <trkpt lat="43.16514" lon="2.6102">
        <ele>189.2</ele>
        <time>2019-03-03T09:19:35+0100</time>
      </trkpt>
      <trkpt lat="43.16522" lon="2.61018">
        <ele>187.8</ele>
      </trkpt>
      <trkpt lat="43.16531" lon="2.61017">
        <ele>186.5</ele>
        <time>2019-03-03T09:19:26+0100</time>
      </trkpt>
      <trkpt lat="43.16536" lon="2.61019">
        <ele>186.1</ele>
      </trkpt>
      <trkpt lat="43.16541" lon="2.6102">
        <ele>185.5</ele>
      </trkpt>
      <trkpt lat="43.16546" lon="2.61022">
        <ele>185</ele>
      </trkpt>
      <trkpt lat="43.16551" lon="2.61024">
        <ele>184.4</ele>
        <time>2019-03-03T09:19:16+0100</time>
      </trkpt>
      <trkpt lat="43.16553" lon="2.61025">
        <ele>184.3</ele>
        <time>2019-03-03T09:19:15+0100</time>
      </trkpt>
      <trkpt lat="43.1656" lon="2.61031">
        <ele>183.5</ele>
        <time>2019-03-03T09:19:11+0100</time>
      </trkpt>
      <trkpt lat="43.16568" lon="2.61036">
        <ele>182.4</ele>
        <time>2019-03-03T09:19:06+0100</time>
      </trkpt>
      <trkpt lat="43.16574" lon="2.61038">
        <ele>181.2</ele>
        <time>2019-03-03T09:19:02+0100</time>
      </trkpt>
      <trkpt lat="43.16579" lon="2.6104">
        <ele>180.3</ele>
      </trkpt>
      <trkpt lat="43.16583" lon="2.61041">
        <ele>179.5</ele>
        <time>2019-03-03T09:18:57+0100</time>
      </trkpt>
      <trkpt lat="43.16591" lon="2.61044">
        <ele>178.7</ele>
      </trkpt>
      <trkpt lat="43.16599" lon="2.61048">
        <ele>177.9</ele>
        <time>2019-03-03T09:18:48+0100</time>
      </trkpt>
      <trkpt lat="43.16604" lon="2.6105">
        <ele>177.2</ele>
      </trkpt>
      <trkpt lat="43.16608" lon="2.61053">
        <ele>176.5</ele>
      </trkpt>
      <trkpt lat="43.16613" lon="2.61056">
        <ele>176</ele>
      </trkpt>
      <trkpt lat="43.16618" lon="2.61059">
        <ele>176.1</ele>
        <time>2019-03-03T09:18:38+0100</time>
      </trkpt>
      <trkpt lat="43.1662" lon="2.6106">
        <ele>176.2</ele>
        <time>2019-03-03T09:18:37+0100</time>
      </trkpt>
      <trkpt lat="43.16626" lon="2.61063">
        <ele>176.5</ele>
        <time>2019-03-03T09:18:35+0100</time>
      </trkpt>
      <trkpt lat="43.16632" lon="2.61066">
        <ele>177.1</ele>
        <time>2019-03-03T09:18:33+0100</time>
      </trkpt>
      <trkpt lat="43.16632" lon="2.61067">
        <ele>177.3</ele>
        <time>2019-03-03T09:18:32+0100</time>
      </trkpt>
      <trkpt lat="43.16632" lon="2.61072">
        <ele>178.2</ele>
        <time>2019-03-03T09:18:30+0100</time>
      </trkpt>
      <trkpt lat="43.16631" lon="2.61079">
        <ele>179.4</ele>
        <time>2019-03-03T09:18:28+0100</time>
      </trkpt>
      <trkpt lat="43.16629" lon="2.61084">
        <ele>180.1</ele>
        <time>2019-03-03T09:18:26+0100</time>
      </trkpt>
      <trkpt lat="43.16628" lon="2.61092">
        <ele>181.4</ele>
        <time>2019-03-03T09:18:24+0100</time>
      </trkpt>
      <trkpt lat="43.16627" lon="2.61099">
        <ele>182.7</ele>
      </trkpt>
      <trkpt lat="43.16627" lon="2.61106">
        <ele>184</ele>
        <time>2019-03-03T09:18:20+0100</time>
      </trkpt>
      <trkpt lat="43.16623" lon="2.61114">
        <ele>184.6</ele>
      </trkpt>
      <trkpt lat="43.16619" lon="2.61122">
        <ele>185</ele>
      </trkpt>
      <trkpt lat="43.16615" lon="2.61131">
        <ele>185.1</ele>
      </trkpt>
      <trkpt lat="43.16611" lon="2.61139">
        <ele>185</ele>
        <time>2019-03-03T09:18:09+0100</time>
      </trkpt>
      <trkpt lat="43.16607" lon="2.61149">
        <ele>186.9</ele>
        <time>2019-03-03T09:18:06+0100</time>
      </trkpt>
      <trkpt lat="43.16605" lon="2.61155">
        <ele>187.8</ele>
      </trkpt>
      <trkpt lat="43.16604" lon="2.61161">
        <ele>188.6</ele>
        <time>2019-03-03T09:18:03+0100</time>
      </trkpt>
      <trkpt lat="43.16602" lon="2.61169">
        <ele>189.7</ele>
        <time>2019-03-03T09:18:01+0100</time>
      </trkpt>
      <trkpt lat="43.166" lon="2.61179">
        <ele>190.8</ele>
        <time>2019-03-03T09:17:58+0100</time>
      </trkpt>
      <trkpt lat="43.16599" lon="2.61186">
        <ele>191.5</ele>
        <time>2019-03-03T09:17:56+0100</time>
      </trkpt>
      <trkpt lat="43.16599" lon="2.6119">
        <ele>191.8</ele>
        <time>2019-03-03T09:17:55+0100</time>
      </trkpt>
      <trkpt lat="43.16598" lon="2.61199">
        <ele>192.7</ele>
        <time>2019-03-03T09:17:53+0100</time>
      </trkpt>
      <trkpt lat="43.16599" lon="2.61211">
        <ele>194.2</ele>
        <time>2019-03-03T09:17:50+0100</time>
      </trkpt>
      <trkpt lat="43.16598" lon="2.6122">
        <ele>195.1</ele>
      </trkpt>
      <trkpt lat="43.16598" lon="2.61229">
        <ele>196.2</ele>
        <time>2019-03-03T09:17:46+0100</time>
      </trkpt>
      <trkpt lat="43.16597" lon="2.61237">
        <ele>196.7</ele>
      </trkpt>
      <trkpt lat="43.16596" lon="2.61244">
        <ele>197.2</ele>
        <time>2019-03-03T09:17:42+0100</time>
      </trkpt>
      <trkpt lat="43.16594" lon="2.61256">
        <ele>197.9</ele>
        <time>2019-03-03T09:17:39+0100</time>
      </trkpt>
      <trkpt lat="43.16593" lon="2.61263">
        <ele>198.7</ele>
        <time>2019-03-03T09:17:37+0100</time>
      </trkpt>
      <trkpt lat="43.16593" lon="2.61272">
        <ele>200.1</ele>
      </trkpt>
      <trkpt lat="43.16594" lon="2.6128">
        <ele>201.5</ele>
        <time>2019-03-03T09:17:33+0100</time>
      </trkpt>
      <trkpt lat="43.16594" lon="2.61287">
        <ele>202.6</ele>
      </trkpt>
      <trkpt lat="43.16594" lon="2.61293">
        <ele>203.8</ele>
        <time>2019-03-03T09:17:30+0100</time>
      </trkpt>
      <trkpt lat="43.16591" lon="2.613">
        <ele>203.9</ele>
      </trkpt>
      <trkpt lat="43.16588" lon="2.61307">
        <ele>204</ele>
        <time>2019-03-03T09:17:26+0100</time>
      </trkpt>
      <trkpt lat="43.16586" lon="2.61313">
        <ele>204.4</ele>
        <time>2019-03-03T09:17:24+0100</time>
      </trkpt>
      <trkpt lat="43.16585" lon="2.6132">
        <ele>205.3</ele>
        <time>2019-03-03T09:17:22+0100</time>
      </trkpt>
      <trkpt lat="43.16585" lon="2.61326">
        <ele>206.2</ele>
        <time>2019-03-03T09:17:20+0100</time>
      </trkpt>
      <trkpt lat="43.16584" lon="2.61328">
        <ele>206.2</ele>
        <time>2019-03-03T09:17:19+0100</time>
      </trkpt>
      <trkpt lat="43.16583" lon="2.6133">
        <ele>206.5</ele>
        <time>2019-03-03T09:17:18+0100</time>
      </trkpt>
      <trkpt lat="43.16581" lon="2.61339">
        <ele>208</ele>
        <time>2019-03-03T09:17:15+0100</time>
      </trkpt>
      <trkpt lat="43.16581" lon="2.61345">
        <ele>209</ele>
        <time>2019-03-03T09:17:13+0100</time>
      </trkpt>
      <trkpt lat="43.16579" lon="2.61352">
        <ele>210.2</ele>
        <time>2019-03-03T09:17:10+0100</time>
      </trkpt>
      <trkpt lat="43.16577" lon="2.61362">
        <ele>211.6</ele>
        <time>2019-03-03T09:17:07+0100</time>
      </trkpt>
      <trkpt lat="43.16576" lon="2.61368">
        <ele>212.6</ele>
        <time>2019-03-03T09:17:05+0100</time>
      </trkpt>
      <trkpt lat="43.16575" lon="2.61374">
        <ele>213.6</ele>
        <time>2019-03-03T09:17:03+0100</time>
      </trkpt>
      <trkpt lat="43.16574" lon="2.61383">
        <ele>214.9</ele>
        <time>2019-03-03T09:17:00+0100</time>
      </trkpt>
      <trkpt lat="43.16573" lon="2.61391">
        <ele>216.1</ele>
        <time>2019-03-03T09:16:57+0100</time>
      </trkpt>
      <trkpt lat="43.16572" lon="2.614">
        <ele>217.5</ele>
        <time>2019-03-03T09:16:54+0100</time>
      </trkpt>
      <trkpt lat="43.16572" lon="2.61409">
        <ele>218.6</ele>
        <time>2019-03-03T09:16:52+0100</time>
      </trkpt>
      <trkpt lat="43.16571" lon="2.61419">
        <ele>220</ele>
        <time>2019-03-03T09:16:49+0100</time>
      </trkpt>
      <trkpt lat="43.16571" lon="2.61425">
        <ele>221</ele>
        <time>2019-03-03T09:16:47+0100</time>
      </trkpt>
      <trkpt lat="43.1657" lon="2.61431">
        <ele>221.9</ele>
        <time>2019-03-03T09:16:45+0100</time>
      </trkpt>
      <trkpt lat="43.16568" lon="2.61437">
        <ele>222.6</ele>
        <time>2019-03-03T09:16:43+0100</time>
      </trkpt>
      <trkpt lat="43.16567" lon="2.61443">
        <ele>223.4</ele>
        <time>2019-03-03T09:16:41+0100</time>
      </trkpt>
      <trkpt lat="43.16566" lon="2.61446">
        <ele>223.6</ele>
        <time>2019-03-03T09:16:40+0100</time>
      </trkpt>
      <trkpt lat="43.16565" lon="2.61449">
        <ele>223.9</ele>
        <time>2019-03-03T09:16:39+0100</time>
      </trkpt>
      <trkpt lat="43.16567" lon="2.61458">
        <ele>225.3</ele>
        <time>2019-03-03T09:16:36+0100</time>
      </trkpt>
      <trkpt lat="43.16568" lon="2.61461">
        <ele>225.9</ele>
        <time>2019-03-03T09:16:35+0100</time>
      </trkpt>
      <trkpt lat="43.1657" lon="2.61463">
        <ele>226.4</ele>
        <time>2019-03-03T09:16:34+0100</time>
      </trkpt>
      <trkpt lat="43.16571" lon="2.61468">
        <ele>227.2</ele>
        <time>2019-03-03T09:16:32+0100</time>
      </trkpt>
      <trkpt lat="43.16575" lon="2.61472">
        <ele>228.4</ele>
        <time>2019-03-03T09:16:30+0100</time>
      </trkpt>
      <trkpt lat="43.16575" lon="2.61475">
        <ele>229</ele>
        <time>2019-03-03T09:16:29+0100</time>
      </trkpt>
      <trkpt lat="43.16575" lon="2.61485">
        <ele>230.4</ele>
        <time>2019-03-03T09:16:26+0100</time>
      </trkpt>
      <trkpt lat="43.16574" lon="2.61493">
        <ele>231.4</ele>
        <time>2019-03-03T09:16:23+0100</time>
      </trkpt>
      <trkpt lat="43.16572" lon="2.61502">
        <ele>232.2</ele>
        <time>2019-03-03T09:16:20+0100</time>
      </trkpt>
      <trkpt lat="43.16572" lon="2.61513">
        <ele>233.3</ele>
        <time>2019-03-03T09:16:17+0100</time>
      </trkpt>
      <trkpt lat="43.1657" lon="2.61522">
        <ele>234</ele>
      </trkpt>
      <trkpt lat="43.16569" lon="2.61531">
        <ele>234.6</ele>
      </trkpt>
      <trkpt lat="43.16568" lon="2.6154">
        <ele>234.9</ele>
      </trkpt>
      <trkpt lat="43.16566" lon="2.6155">
        <ele>235.2</ele>
        <time>2019-03-03T09:16:06+0100</time>
      </trkpt>
      <trkpt lat="43.16569" lon="2.61555">
        <ele>235.9</ele>
      </trkpt>
      <trkpt lat="43.16572" lon="2.6156">
        <ele>235.9</ele>
      </trkpt>
      <trkpt lat="43.16575" lon="2.61565">
        <ele>235.7</ele>
      </trkpt>
      <trkpt lat="43.16577" lon="2.6157">
        <ele>235.4</ele>
        <time>2019-03-03T09:15:58+0100</time>
      </trkpt>
      <trkpt lat="43.1658" lon="2.61576">
        <ele>234.9</ele>
      </trkpt>
      <trkpt lat="43.16582" lon="2.61581">
        <ele>234.2</ele>
        <time>2019-03-03T09:15:53+0100</time>
      </trkpt>
      <trkpt lat="43.16587" lon="2.61589">
        <ele>234.2</ele>
        <time>2019-03-03T09:15:48+0100</time>
      </trkpt>
      <trkpt lat="43.1659" lon="2.61594">
        <ele>234.1</ele>
      </trkpt>
      <trkpt lat="43.16593" lon="2.61599">
        <ele>233.8</ele>
        <time>2019-03-03T09:15:42+0100</time>
      </trkpt>
      <trkpt lat="43.16596" lon="2.61607">
        <ele>232.6</ele>
      </trkpt>
      <trkpt lat="43.16599" lon="2.61615">
        <ele>231.2</ele>
      </trkpt>
      <trkpt lat="43.16602" lon="2.61624">
        <ele>229.6</ele>
      </trkpt>
      <trkpt lat="43.16605" lon="2.61632">
        <ele>228</ele>
        <time>2019-03-03T09:15:22+0100</time>
      </trkpt>
      <trkpt lat="43.1661" lon="2.61634">
        <ele>228.1</ele>
        <time>2019-03-03T09:15:15+0100</time>
      </trkpt>
      <trkpt lat="43.16611" lon="2.61637">
        <ele>227.5</ele>
        <time>2019-03-03T09:15:03+0100</time>
      </trkpt>
      <trkpt lat="43.1661" lon="2.61639">
        <ele>226.8</ele>
        <time>2019-03-03T09:14:18+0100</time>
      </trkpt>
      <trkpt lat="43.16613" lon="2.61635">
        <ele>228.6</ele>
        <time>2019-03-03T09:13:41+0100</time>
      </trkpt>
      <trkpt lat="43.1661" lon="2.61637">
        <ele>227.5</ele>
        <time>2019-03-03T09:13:15+0100</time>
      </trkpt>
      <trkpt lat="43.1661" lon="2.61635">
        <ele>227.8</ele>
        <time>2019-03-03T09:13:07+0100</time>
      </trkpt>
      <trkpt lat="43.16612" lon="2.61636">
        <ele>228</ele>
        <time>2019-03-03T09:12:34+0100</time>
      </trkpt>
      <trkpt lat="43.16611" lon="2.61636">
        <ele>227.7</ele>
        <time>2019-03-03T09:12:26+0100</time>
      </trkpt>
      <trkpt lat="43.16613" lon="2.61639">
        <ele>227.4</ele>
        <time>2019-03-03T09:12:22+0100</time>
      </trkpt>
      <trkpt lat="43.16614" lon="2.61643">
        <ele>226.6</ele>
        <time>2019-03-03T09:12:18+0100</time>
      </trkpt>
      <trkpt lat="43.16615" lon="2.61647">
        <ele>225.6</ele>
        <time>2019-03-03T09:12:14+0100</time>
      </trkpt>
      <trkpt lat="43.16614" lon="2.6165">
        <ele>224.7</ele>
        <time>2019-03-03T09:12:10+0100</time>
      </trkpt>
      <trkpt lat="43.16613" lon="2.61651">
        <ele>224.3</ele>
        <time>2019-03-03T09:12:08+0100</time>
      </trkpt>
      <trkpt lat="43.16613" lon="2.61653">
        <ele>223.8</ele>
        <time>2019-03-03T09:12:06+0100</time>
      </trkpt>
      <trkpt lat="43.16612" lon="2.61657">
        <ele>222.7</ele>
        <time>2019-03-03T09:12:03+0100</time>
      </trkpt>
      <trkpt lat="43.16611" lon="2.61662">
        <ele>221.1</ele>
        <time>2019-03-03T09:11:58+0100</time>
      </trkpt>
      <trkpt lat="43.16611" lon="2.61667">
        <ele>220</ele>
        <time>2019-03-03T09:11:54+0100</time>
      </trkpt>
      <trkpt lat="43.16611" lon="2.61673">
        <ele>218.4</ele>
        <time>2019-03-03T09:11:48+0100</time>
      </trkpt>
      <trkpt lat="43.16609" lon="2.61677">
        <ele>217.5</ele>
        <time>2019-03-03T09:11:43+0100</time>
      </trkpt>
      <trkpt lat="43.16608" lon="2.61679">
        <ele>216.8</ele>
        <time>2019-03-03T09:11:40+0100</time>
      </trkpt>
      <trkpt lat="43.16608" lon="2.61683">
        <ele>215.9</ele>
        <time>2019-03-03T09:11:36+0100</time>
      </trkpt>
      <trkpt lat="43.16608" lon="2.61684">
        <ele>215.8</ele>
        <time>2019-03-03T09:11:35+0100</time>
      </trkpt>
      <trkpt lat="43.16608" lon="2.61686">
        <ele>215.4</ele>
        <time>2019-03-03T09:11:33+0100</time>
      </trkpt>
      <trkpt lat="43.16608" lon="2.61688">
        <ele>215</ele>
        <time>2019-03-03T09:11:31+0100</time>
      </trkpt>
      <trkpt lat="43.16607" lon="2.61692">
        <ele>214.1</ele>
        <time>2019-03-03T09:11:27+0100</time>
      </trkpt>
      <trkpt lat="43.16607" lon="2.61697">
        <ele>212.8</ele>
        <time>2019-03-03T09:11:23+0100</time>
      </trkpt>
      <trkpt lat="43.16605" lon="2.61705">
        <ele>211.1</ele>
        <time>2019-03-03T09:11:19+0100</time>
      </trkpt>
      <trkpt lat="43.16603" lon="2.61711">
        <ele>209.8</ele>
      </trkpt>
      <trkpt lat="43.16601" lon="2.61717">
        <ele>208.5</ele>
        <time>2019-03-03T09:11:11+0100</time>
      </trkpt>
      <trkpt lat="43.16597" lon="2.61725">
        <ele>207.4</ele>
      </trkpt>
      <trkpt lat="43.16593" lon="2.61733">
        <ele>207.6</ele>
        <time>2019-03-03T09:11:04+0100</time>
      </trkpt>
      <trkpt lat="43.16593" lon="2.6174">
        <ele>207.5</ele>
        <time>2019-03-03T09:11:02+0100</time>
      </trkpt>
      <trkpt lat="43.16593" lon="2.61747">
        <ele>207.3</ele>
        <time>2019-03-03T09:11:00+0100</time>
      </trkpt>
      <trkpt lat="43.16593" lon="2.61753">
        <ele>207.8</ele>
        <time>2019-03-03T09:10:58+0100</time>
      </trkpt>
      <trkpt lat="43.16592" lon="2.61758">
        <ele>208.9</ele>
        <time>2019-03-03T09:10:56+0100</time>
      </trkpt>
      <trkpt lat="43.16591" lon="2.61763">
        <ele>210.3</ele>
        <time>2019-03-03T09:10:54+0100</time>
      </trkpt>
      <trkpt lat="43.1659" lon="2.61772">
        <ele>212.4</ele>
        <time>2019-03-03T09:10:51+0100</time>
      </trkpt>
      <trkpt lat="43.16589" lon="2.61784">
        <ele>214.8</ele>
        <time>2019-03-03T09:10:47+0100</time>
      </trkpt>
      <trkpt lat="43.16589" lon="2.61793">
        <ele>216.3</ele>
        <time>2019-03-03T09:10:44+0100</time>
      </trkpt>
      <trkpt lat="43.1659" lon="2.61803">
        <ele>217.5</ele>
      </trkpt>
      <trkpt lat="43.1659" lon="2.61812">
        <ele>218.5</ele>
        <time>2019-03-03T09:10:38+0100</time>
      </trkpt>
      <trkpt lat="43.16594" lon="2.61818">
        <ele>218</ele>
      </trkpt>
      <trkpt lat="43.16597" lon="2.61824">
        <ele>217.5</ele>
      </trkpt>
      <trkpt lat="43.16601" lon="2.6183">
        <ele>217</ele>
      </trkpt>
      <trkpt lat="43.16605" lon="2.61836">
        <ele>216.6</ele>
      </trkpt>
      <trkpt lat="43.16608" lon="2.61842">
        <ele>216.3</ele>
      </trkpt>
      <trkpt lat="43.16612" lon="2.61848">
        <ele>215.9</ele>
      </trkpt>
      <trkpt lat="43.16615" lon="2.61854">
        <ele>215.8</ele>
      </trkpt>
      <trkpt lat="43.16619" lon="2.6186">
        <ele>215.6</ele>
        <time>2019-03-03T09:10:18+0100</time>
      </trkpt>
      <trkpt lat="43.16622" lon="2.61869">
        <ele>216.2</ele>
      </trkpt>
      <trkpt lat="43.16625" lon="2.61878">
        <ele>216.8</ele>
      </trkpt>
      <trkpt lat="43.16628" lon="2.61887">
        <ele>217.5</ele>
      </trkpt>
      <trkpt lat="43.1663" lon="2.61896">
        <ele>217.6</ele>
        <time>2019-03-03T09:10:06+0100</time>
      </trkpt>
      <trkpt lat="43.16631" lon="2.61898">
        <ele>217.5</ele>
        <time>2019-03-03T09:10:05+0100</time>
      </trkpt>
      <trkpt lat="43.16633" lon="2.61903">
        <ele>217.4</ele>
        <time>2019-03-03T09:10:02+0100</time>
      </trkpt>
      <trkpt lat="43.16634" lon="2.61904">
        <ele>217.1</ele>
        <time>2019-03-03T09:10:01+0100</time>
      </trkpt>
      <trkpt lat="43.16638" lon="2.6191">
        <ele>216.1</ele>
        <time>2019-03-03T09:09:57+0100</time>
      </trkpt>
      <trkpt lat="43.16639" lon="2.61911">
        <ele>215.9</ele>
        <time>2019-03-03T09:09:56+0100</time>
      </trkpt>
      <trkpt lat="43.16641" lon="2.61913">
        <ele>215.3</ele>
        <time>2019-03-03T09:09:54+0100</time>
      </trkpt>
      <trkpt lat="43.16643" lon="2.61915">
        <ele>214.4</ele>
        <time>2019-03-03T09:09:51+0100</time>
      </trkpt>
      <trkpt lat="43.16644" lon="2.61916">
        <ele>214</ele>
        <time>2019-03-03T09:09:49+0100</time>
      </trkpt>
      <trkpt lat="43.16647" lon="2.61917">
        <ele>213.1</ele>
        <time>2019-03-03T09:09:46+0100</time>
      </trkpt>
      <trkpt lat="43.16648" lon="2.61917">
        <ele>212.8</ele>
        <time>2019-03-03T09:09:45+0100</time>
      </trkpt>
      <trkpt lat="43.1665" lon="2.61919">
        <ele>211.9</ele>
        <time>2019-03-03T09:09:42+0100</time>
      </trkpt>
      <trkpt lat="43.16653" lon="2.61919">
        <ele>210.9</ele>
        <time>2019-03-03T09:09:38+0100</time>
      </trkpt>
      <trkpt lat="43.16654" lon="2.6192">
        <ele>210.6</ele>
        <time>2019-03-03T09:09:37+0100</time>
      </trkpt>
      <trkpt lat="43.16656" lon="2.6192">
        <ele>209.8</ele>
        <time>2019-03-03T09:09:35+0100</time>
      </trkpt>
      <trkpt lat="43.16659" lon="2.6192">
        <ele>208.9</ele>
        <time>2019-03-03T09:09:32+0100</time>
      </trkpt>
      <trkpt lat="43.16661" lon="2.6192">
        <ele>208</ele>
        <time>2019-03-03T09:09:28+0100</time>
      </trkpt>
      <trkpt lat="43.16663" lon="2.61921">
        <ele>207.6</ele>
        <time>2019-03-03T09:09:25+0100</time>
      </trkpt>
      <trkpt lat="43.16665" lon="2.61921">
        <ele>206.9</ele>
        <time>2019-03-03T09:09:22+0100</time>
      </trkpt>
      <trkpt lat="43.16666" lon="2.61921">
        <ele>206.2</ele>
        <time>2019-03-03T09:09:19+0100</time>
      </trkpt>
      <trkpt lat="43.1667" lon="2.61921">
        <ele>205.4</ele>
        <time>2019-03-03T09:09:15+0100</time>
      </trkpt>
      <trkpt lat="43.16672" lon="2.6192">
        <ele>205.2</ele>
        <time>2019-03-03T09:09:13+0100</time>
      </trkpt>
      <trkpt lat="43.16673" lon="2.6192">
        <ele>204.9</ele>
        <time>2019-03-03T09:09:11+0100</time>
      </trkpt>
      <trkpt lat="43.16678" lon="2.61919">
        <ele>203.9</ele>
      </trkpt>
      <trkpt lat="43.16682" lon="2.61917">
        <ele>202.7</ele>
        <time>2019-03-03T09:09:03+0100</time>
      </trkpt>
      <trkpt lat="43.16688" lon="2.61917">
        <ele>201.5</ele>
        <time>2019-03-03T09:09:00+0100</time>
      </trkpt>
      <trkpt lat="43.16697" lon="2.61921">
        <ele>201.5</ele>
        <time>2019-03-03T09:08:57+0100</time>
      </trkpt>
      <trkpt lat="43.16699" lon="2.61924">
        <ele>202.6</ele>
        <time>2019-03-03T09:08:56+0100</time>
      </trkpt>
      <trkpt lat="43.167" lon="2.61932">
        <ele>204.6</ele>
        <time>2019-03-03T09:08:54+0100</time>
      </trkpt>
      <trkpt lat="43.16702" lon="2.61939">
        <ele>206.4</ele>
        <time>2019-03-03T09:08:52+0100</time>
      </trkpt>
      <trkpt lat="43.16704" lon="2.61947">
        <ele>208.7</ele>
        <time>2019-03-03T09:08:49+0100</time>
      </trkpt>
      <trkpt lat="43.16707" lon="2.61952">
        <ele>210.3</ele>
        <time>2019-03-03T09:08:47+0100</time>
      </trkpt>
      <trkpt lat="43.1671" lon="2.61957">
        <ele>211.7</ele>
        <time>2019-03-03T09:08:45+0100</time>
      </trkpt>
      <trkpt lat="43.16712" lon="2.61963">
        <ele>212.9</ele>
        <time>2019-03-03T09:08:43+0100</time>
      </trkpt>
      <trkpt lat="43.16712" lon="2.61969">
        <ele>214.1</ele>
        <time>2019-03-03T09:08:41+0100</time>
      </trkpt>
      <trkpt lat="43.16712" lon="2.61975">
        <ele>215.2</ele>
        <time>2019-03-03T09:08:39+0100</time>
      </trkpt>
      <trkpt lat="43.16712" lon="2.61981">
        <ele>216.4</ele>
        <time>2019-03-03T09:08:37+0100</time>
      </trkpt>
      <trkpt lat="43.16713" lon="2.61987">
        <ele>217.5</ele>
        <time>2019-03-03T09:08:35+0100</time>
      </trkpt>
      <trkpt lat="43.16714" lon="2.61996">
        <ele>219.1</ele>
        <time>2019-03-03T09:08:32+0100</time>
      </trkpt>
      <trkpt lat="43.16716" lon="2.62006">
        <ele>220.9</ele>
        <time>2019-03-03T09:08:28+0100</time>
      </trkpt>
      <trkpt lat="43.16718" lon="2.62013">
        <ele>222</ele>
        <time>2019-03-03T09:08:25+0100</time>
      </trkpt>
      <trkpt lat="43.16721" lon="2.62019">
        <ele>222.6</ele>
        <time>2019-03-03T09:08:23+0100</time>
      </trkpt>
      <trkpt lat="43.16721" lon="2.62023">
        <ele>223.4</ele>
        <time>2019-03-03T09:08:21+0100</time>
      </trkpt>
      <trkpt lat="43.16721" lon="2.62027">
        <ele>224.1</ele>
        <time>2019-03-03T09:08:19+0100</time>
      </trkpt>
      <trkpt lat="43.16721" lon="2.62031">
        <ele>224.9</ele>
        <time>2019-03-03T09:08:17+0100</time>
      </trkpt>
      <trkpt lat="43.16723" lon="2.62035">
        <ele>225.9</ele>
        <time>2019-03-03T09:08:15+0100</time>
      </trkpt>
      <trkpt lat="43.16724" lon="2.62039">
        <ele>227.2</ele>
        <time>2019-03-03T09:08:13+0100</time>
      </trkpt>
      <trkpt lat="43.16724" lon="2.62043">
        <ele>228.3</ele>
        <time>2019-03-03T09:08:11+0100</time>
      </trkpt>
      <trkpt lat="43.16725" lon="2.62049">
        <ele>229.8</ele>
        <time>2019-03-03T09:08:09+0100</time>
      </trkpt>
      <trkpt lat="43.16724" lon="2.62054">
        <ele>231</ele>
        <time>2019-03-03T09:08:07+0100</time>
      </trkpt>
      <trkpt lat="43.16722" lon="2.6206">
        <ele>231.7</ele>
        <time>2019-03-03T09:08:05+0100</time>
      </trkpt>
      <trkpt lat="43.16721" lon="2.62065">
        <ele>232.9</ele>
        <time>2019-03-03T09:08:03+0100</time>
      </trkpt>
      <trkpt lat="43.16721" lon="2.62072">
        <ele>234.3</ele>
        <time>2019-03-03T09:08:01+0100</time>
      </trkpt>
      <trkpt lat="43.16721" lon="2.62078">
        <ele>235.3</ele>
        <time>2019-03-03T09:07:59+0100</time>
      </trkpt>
      <trkpt lat="43.16721" lon="2.62084">
        <ele>236.4</ele>
        <time>2019-03-03T09:07:57+0100</time>
      </trkpt>
      <trkpt lat="43.16721" lon="2.6209">
        <ele>237.8</ele>
        <time>2019-03-03T09:07:55+0100</time>
      </trkpt>
      <trkpt lat="43.16721" lon="2.62098">
        <ele>239.5</ele>
        <time>2019-03-03T09:07:53+0100</time>
      </trkpt>
      <trkpt lat="43.16722" lon="2.62109">
        <ele>241.7</ele>
        <time>2019-03-03T09:07:50+0100</time>
      </trkpt>
      <trkpt lat="43.16723" lon="2.62118">
        <ele>243.7</ele>
        <time>2019-03-03T09:07:48+0100</time>
      </trkpt>
      <trkpt lat="43.16724" lon="2.62125">
        <ele>245.3</ele>
        <time>2019-03-03T09:07:46+0100</time>
      </trkpt>
      <trkpt lat="43.16723" lon="2.62131">
        <ele>246.6</ele>
        <time>2019-03-03T09:07:44+0100</time>
      </trkpt>
      <trkpt lat="43.16722" lon="2.62136">
        <ele>247.3</ele>
        <time>2019-03-03T09:07:42+0100</time>
      </trkpt>
      <trkpt lat="43.16722" lon="2.62141">
        <ele>248.3</ele>
        <time>2019-03-03T09:07:40+0100</time>
      </trkpt>
      <trkpt lat="43.16721" lon="2.62146">
        <ele>249.7</ele>
        <time>2019-03-03T09:07:38+0100</time>
      </trkpt>
      <trkpt lat="43.16718" lon="2.62152">
        <ele>251.3</ele>
        <time>2019-03-03T09:07:36+0100</time>
      </trkpt>
      <trkpt lat="43.16717" lon="2.62157">
        <ele>252.4</ele>
        <time>2019-03-03T09:07:34+0100</time>
      </trkpt>
      <trkpt lat="43.16719" lon="2.62169">
        <ele>254</ele>
        <time>2019-03-03T09:07:31+0100</time>
      </trkpt>
      <trkpt lat="43.16719" lon="2.62176">
        <ele>255.4</ele>
        <time>2019-03-03T09:07:29+0100</time>
      </trkpt>
      <trkpt lat="43.16718" lon="2.62182">
        <ele>256.6</ele>
        <time>2019-03-03T09:07:27+0100</time>
      </trkpt>
      <trkpt lat="43.16717" lon="2.62188">
        <ele>257.8</ele>
        <time>2019-03-03T09:07:25+0100</time>
      </trkpt>
      <trkpt lat="43.16714" lon="2.62193">
        <ele>259.2</ele>
        <time>2019-03-03T09:07:23+0100</time>
      </trkpt>
      <trkpt lat="43.1671" lon="2.62197">
        <ele>260.4</ele>
        <time>2019-03-03T09:07:21+0100</time>
      </trkpt>
      <trkpt lat="43.16706" lon="2.62202">
        <ele>261.6</ele>
        <time>2019-03-03T09:07:19+0100</time>
      </trkpt>
      <trkpt lat="43.16705" lon="2.62208">
        <ele>262.6</ele>
        <time>2019-03-03T09:07:17+0100</time>
      </trkpt>
      <trkpt lat="43.16703" lon="2.62214">
        <ele>263.5</ele>
        <time>2019-03-03T09:07:15+0100</time>
      </trkpt>
      <trkpt lat="43.16701" lon="2.62219">
        <ele>264.4</ele>
        <time>2019-03-03T09:07:13+0100</time>
      </trkpt>
      <trkpt lat="43.16699" lon="2.62219">
        <ele>264.8</ele>
        <time>2019-03-03T09:07:12+0100</time>
      </trkpt>
      <trkpt lat="43.16691" lon="2.62215">
        <ele>266.1</ele>
        <time>2019-03-03T09:07:08+0100</time>
      </trkpt>
      <trkpt lat="43.16688" lon="2.6221">
        <ele>266.4</ele>
        <time>2019-03-03T09:07:06+0100</time>
      </trkpt>
      <trkpt lat="43.16684" lon="2.62205">
        <ele>267.1</ele>
        <time>2019-03-03T09:07:04+0100</time>
      </trkpt>
      <trkpt lat="43.16682" lon="2.62203">
        <ele>267.6</ele>
        <time>2019-03-03T09:07:03+0100</time>
      </trkpt>
      <trkpt lat="43.16679" lon="2.62201">
        <ele>268.1</ele>
        <time>2019-03-03T09:07:02+0100</time>
      </trkpt>
      <trkpt lat="43.16675" lon="2.622">
        <ele>269.2</ele>
        <time>2019-03-03T09:07:00+0100</time>
      </trkpt>
      <trkpt lat="43.1667" lon="2.62199">
        <ele>270.5</ele>
        <time>2019-03-03T09:06:58+0100</time>
      </trkpt>
      <trkpt lat="43.16664" lon="2.62198">
        <ele>272</ele>
        <time>2019-03-03T09:06:55+0100</time>
      </trkpt>
      <trkpt lat="43.16659" lon="2.62199">
        <ele>273.1</ele>
      </trkpt>
      <trkpt lat="43.16655" lon="2.622">
        <ele>274.3</ele>
        <time>2019-03-03T09:06:51+0100</time>
      </trkpt>
      <trkpt lat="43.1665" lon="2.62201">
        <ele>275.4</ele>
        <time>2019-03-03T09:06:49+0100</time>
      </trkpt>
      <trkpt lat="43.16648" lon="2.62206">
        <ele>276.6</ele>
        <time>2019-03-03T09:06:47+0100</time>
      </trkpt>
      <trkpt lat="43.16649" lon="2.6221">
        <ele>276.9</ele>
        <time>2019-03-03T09:06:46+0100</time>
      </trkpt>
      <trkpt lat="43.1665" lon="2.62213">
        <ele>277.1</ele>
        <time>2019-03-03T09:06:45+0100</time>
      </trkpt>
      <trkpt lat="43.1665" lon="2.6222">
        <ele>278</ele>
        <time>2019-03-03T09:06:43+0100</time>
      </trkpt>
      <trkpt lat="43.16652" lon="2.62227">
        <ele>278.5</ele>
      </trkpt>
      <trkpt lat="43.16653" lon="2.62234">
        <ele>279.1</ele>
        <time>2019-03-03T09:06:39+0100</time>
      </trkpt>
      <trkpt lat="43.16653" lon="2.62241">
        <ele>280.1</ele>
      </trkpt>
      <trkpt lat="43.16654" lon="2.62249">
        <ele>281.1</ele>
        <time>2019-03-03T09:06:35+0100</time>
      </trkpt>
      <trkpt lat="43.1665" lon="2.62253">
        <ele>282.1</ele>
        <time>2019-03-03T09:06:33+0100</time>
      </trkpt>
      <trkpt lat="43.16646" lon="2.62257">
        <ele>283</ele>
        <time>2019-03-03T09:06:31+0100</time>
      </trkpt>
      <trkpt lat="43.16642" lon="2.62259">
        <ele>284</ele>
        <time>2019-03-03T09:06:29+0100</time>
      </trkpt>
      <trkpt lat="43.16637" lon="2.62259">
        <ele>285.2</ele>
        <time>2019-03-03T09:06:27+0100</time>
      </trkpt>
      <trkpt lat="43.16633" lon="2.62259">
        <ele>286.3</ele>
        <time>2019-03-03T09:06:25+0100</time>
      </trkpt>
      <trkpt lat="43.16631" lon="2.62259">
        <ele>286.8</ele>
        <time>2019-03-03T09:06:24+0100</time>
      </trkpt>
      <trkpt lat="43.16627" lon="2.62263">
        <ele>287.5</ele>
        <time>2019-03-03T09:06:22+0100</time>
      </trkpt>
      <trkpt lat="43.16622" lon="2.62266">
        <ele>288.6</ele>
        <time>2019-03-03T09:06:20+0100</time>
      </trkpt>
      <trkpt lat="43.16617" lon="2.62269">
        <ele>289.8</ele>
        <time>2019-03-03T09:06:18+0100</time>
      </trkpt>
      <trkpt lat="43.16613" lon="2.62271">
        <ele>290.9</ele>
        <time>2019-03-03T09:06:16+0100</time>
      </trkpt>
      <trkpt lat="43.16609" lon="2.62275">
        <ele>291.8</ele>
        <time>2019-03-03T09:06:14+0100</time>
      </trkpt>
      <trkpt lat="43.16605" lon="2.62279">
        <ele>292.6</ele>
        <time>2019-03-03T09:06:12+0100</time>
      </trkpt>
      <trkpt lat="43.16598" lon="2.62284">
        <ele>294.1</ele>
        <time>2019-03-03T09:06:09+0100</time>
      </trkpt>
      <trkpt lat="43.16594" lon="2.62288">
        <ele>295.1</ele>
        <time>2019-03-03T09:06:07+0100</time>
      </trkpt>
      <trkpt lat="43.1659" lon="2.62291">
        <ele>296.2</ele>
        <time>2019-03-03T09:06:05+0100</time>
      </trkpt>
      <trkpt lat="43.16586" lon="2.62296">
        <ele>297.3</ele>
        <time>2019-03-03T09:06:03+0100</time>
      </trkpt>
      <trkpt lat="43.16582" lon="2.623">
        <ele>298.6</ele>
        <time>2019-03-03T09:06:01+0100</time>
      </trkpt>
      <trkpt lat="43.1658" lon="2.62301">
        <ele>299.3</ele>
        <time>2019-03-03T09:06:00+0100</time>
      </trkpt>
      <trkpt lat="43.16578" lon="2.62302">
        <ele>299.9</ele>
        <time>2019-03-03T09:05:59+0100</time>
      </trkpt>
      <trkpt lat="43.16574" lon="2.62304">
        <ele>301.3</ele>
        <time>2019-03-03T09:05:57+0100</time>
      </trkpt>
      <trkpt lat="43.1657" lon="2.62308">
        <ele>302.8</ele>
        <time>2019-03-03T09:05:55+0100</time>
      </trkpt>
      <trkpt lat="43.16565" lon="2.62314">
        <ele>304.8</ele>
      </trkpt>
      <trkpt lat="43.16559" lon="2.62321">
        <ele>306.7</ele>
        <time>2019-03-03T09:05:49+0100</time>
      </trkpt>
      <trkpt lat="43.16558" lon="2.62331">
        <ele>307.2</ele>
        <time>2019-03-03T09:05:46+0100</time>
      </trkpt>
      <trkpt lat="43.16557" lon="2.62343">
        <ele>307.2</ele>
        <time>2019-03-03T09:05:43+0100</time>
      </trkpt>
      <trkpt lat="43.16557" lon="2.62346">
        <ele>307.1</ele>
        <time>2019-03-03T09:05:42+0100</time>
      </trkpt>
      <trkpt lat="43.16556" lon="2.62353">
        <ele>307.2</ele>
        <time>2019-03-03T09:05:40+0100</time>
      </trkpt>
      <trkpt lat="43.16554" lon="2.62359">
        <ele>307.9</ele>
        <time>2019-03-03T09:05:38+0100</time>
      </trkpt>
      <trkpt lat="43.16549" lon="2.62364">
        <ele>309.4</ele>
        <time>2019-03-03T09:05:35+0100</time>
      </trkpt>
      <trkpt lat="43.16546" lon="2.62368">
        <ele>310.3</ele>
        <time>2019-03-03T09:05:33+0100</time>
      </trkpt>
      <trkpt lat="43.16544" lon="2.62373">
        <ele>311.1</ele>
      </trkpt>
      <trkpt lat="43.16541" lon="2.62378">
        <ele>311.9</ele>
        <time>2019-03-03T09:05:29+0100</time>
      </trkpt>
      <trkpt lat="43.16538" lon="2.62384">
        <ele>312.7</ele>
        <time>2019-03-03T09:05:27+0100</time>
      </trkpt>
      <trkpt lat="43.16532" lon="2.62392">
        <ele>314.9</ele>
        <time>2019-03-03T09:05:24+0100</time>
      </trkpt>
      <trkpt lat="43.16528" lon="2.62397">
        <ele>316.6</ele>
        <time>2019-03-03T09:05:22+0100</time>
      </trkpt>
      <trkpt lat="43.16524" lon="2.62401">
        <ele>318.2</ele>
        <time>2019-03-03T09:05:20+0100</time>
      </trkpt>
      <trkpt lat="43.1652" lon="2.62406">
        <ele>319.6</ele>
        <time>2019-03-03T09:05:18+0100</time>
      </trkpt>
      <trkpt lat="43.16516" lon="2.62409">
        <ele>320.9</ele>
        <time>2019-03-03T09:05:16+0100</time>
      </trkpt>
      <trkpt lat="43.16512" lon="2.62412">
        <ele>322</ele>
        <time>2019-03-03T09:05:14+0100</time>
      </trkpt>
      <trkpt lat="43.16508" lon="2.62415">
        <ele>323.2</ele>
        <time>2019-03-03T09:05:12+0100</time>
      </trkpt>
      <trkpt lat="43.16503" lon="2.62417">
        <ele>324.4</ele>
        <time>2019-03-03T09:05:10+0100</time>
      </trkpt>
      <trkpt lat="43.16499" lon="2.6242">
        <ele>325.9</ele>
        <time>2019-03-03T09:05:08+0100</time>
      </trkpt>
      <trkpt lat="43.16495" lon="2.62423">
        <ele>327.8</ele>
        <time>2019-03-03T09:05:06+0100</time>
      </trkpt>
      <trkpt lat="43.1649" lon="2.62427">
        <ele>329.6</ele>
        <time>2019-03-03T09:05:04+0100</time>
      </trkpt>
      <trkpt lat="43.16486" lon="2.62428">
        <ele>331</ele>
        <time>2019-03-03T09:05:02+0100</time>
      </trkpt>
      <trkpt lat="43.16481" lon="2.62429">
        <ele>332.3</ele>
        <time>2019-03-03T09:05:00+0100</time>
      </trkpt>
      <trkpt lat="43.16476" lon="2.62431">
        <ele>333.6</ele>
        <time>2019-03-03T09:04:58+0100</time>
      </trkpt>
      <trkpt lat="43.16471" lon="2.62432">
        <ele>335</ele>
        <time>2019-03-03T09:04:56+0100</time>
      </trkpt>
      <trkpt lat="43.16465" lon="2.62438">
        <ele>336.7</ele>
        <time>2019-03-03T09:04:53+0100</time>
      </trkpt>
      <trkpt lat="43.16462" lon="2.62443">
        <ele>337.3</ele>
        <time>2019-03-03T09:04:51+0100</time>
      </trkpt>
      <trkpt lat="43.16458" lon="2.62448">
        <ele>338.9</ele>
        <time>2019-03-03T09:04:49+0100</time>
      </trkpt>
      <trkpt lat="43.16454" lon="2.62453">
        <ele>340.9</ele>
        <time>2019-03-03T09:04:47+0100</time>
      </trkpt>
      <trkpt lat="43.1645" lon="2.62456">
        <ele>342.3</ele>
        <time>2019-03-03T09:04:45+0100</time>
      </trkpt>
      <trkpt lat="43.16445" lon="2.62459">
        <ele>343.6</ele>
        <time>2019-03-03T09:04:43+0100</time>
      </trkpt>
      <trkpt lat="43.1644" lon="2.62462">
        <ele>344.7</ele>
        <time>2019-03-03T09:04:41+0100</time>
      </trkpt>
      <trkpt lat="43.16435" lon="2.62466">
        <ele>345.7</ele>
        <time>2019-03-03T09:04:39+0100</time>
      </trkpt>
      <trkpt lat="43.16431" lon="2.62469">
        <ele>346.3</ele>
        <time>2019-03-03T09:04:37+0100</time>
      </trkpt>
      <trkpt lat="43.16427" lon="2.62472">
        <ele>346.6</ele>
        <time>2019-03-03T09:04:35+0100</time>
      </trkpt>
      <trkpt lat="43.16422" lon="2.62475">
        <ele>347.2</ele>
        <time>2019-03-03T09:04:33+0100</time>
      </trkpt>
      <trkpt lat="43.16418" lon="2.62479">
        <ele>347.9</ele>
        <time>2019-03-03T09:04:31+0100</time>
      </trkpt>
      <trkpt lat="43.16414" lon="2.62482">
        <ele>348.9</ele>
        <time>2019-03-03T09:04:29+0100</time>
      </trkpt>
      <trkpt lat="43.16407" lon="2.62487">
        <ele>350.3</ele>
      </trkpt>
      <trkpt lat="43.164" lon="2.62491">
        <ele>351.3</ele>
        <time>2019-03-03T09:04:23+0100</time>
      </trkpt>
      <trkpt lat="43.16392" lon="2.62489">
        <ele>352.1</ele>
        <time>2019-03-03T09:04:20+0100</time>
      </trkpt>
      <trkpt lat="43.16386" lon="2.6249">
        <ele>352.7</ele>
      </trkpt>
      <trkpt lat="43.1638" lon="2.62491">
        <ele>353.3</ele>
        <time>2019-03-03T09:04:16+0100</time>
      </trkpt>
      <trkpt lat="43.16371" lon="2.62492">
        <ele>354.2</ele>
      </trkpt>
      <trkpt lat="43.16362" lon="2.62493">
        <ele>355.2</ele>
        <time>2019-03-03T09:04:10+0100</time>
      </trkpt>
      <trkpt lat="43.16356" lon="2.62494">
        <ele>355.8</ele>
      </trkpt>
      <trkpt lat="43.16351" lon="2.62494">
        <ele>356.3</ele>
        <time>2019-03-03T09:04:06+0100</time>
      </trkpt>
      <trkpt lat="43.16345" lon="2.62495">
        <ele>356.9</ele>
        <time>2019-03-03T09:04:04+0100</time>
      </trkpt>
      <trkpt lat="43.16336" lon="2.62495">
        <ele>357.9</ele>
        <time>2019-03-03T09:04:01+0100</time>
      </trkpt>
      <trkpt lat="43.16329" lon="2.62495">
        <ele>358.7</ele>
      </trkpt>
      <trkpt lat="43.16322" lon="2.62494">
        <ele>359.4</ele>
        <time>2019-03-03T09:03:56+0100</time>
      </trkpt>
      <trkpt lat="43.16316" lon="2.62494">
        <ele>360.1</ele>
      </trkpt>
      <trkpt lat="43.1631" lon="2.62493">
        <ele>360.8</ele>
        <time>2019-03-03T09:03:52+0100</time>
      </trkpt>
      <trkpt lat="43.16305" lon="2.62491">
        <ele>361.4</ele>
        <time>2019-03-03T09:03:50+0100</time>
      </trkpt>
      <trkpt lat="43.16297" lon="2.62491">
        <ele>362.6</ele>
        <time>2019-03-03T09:03:47+0100</time>
      </trkpt>
      <trkpt lat="43.16289" lon="2.6249">
        <ele>363.8</ele>
        <time>2019-03-03T09:03:44+0100</time>
      </trkpt>
      <trkpt lat="43.16281" lon="2.62488">
        <ele>365</ele>
        <time>2019-03-03T09:03:41+0100</time>
      </trkpt>
      <trkpt lat="43.16275" lon="2.62486">
        <ele>365.9</ele>
        <time>2019-03-03T09:03:39+0100</time>
      </trkpt>
      <trkpt lat="43.16267" lon="2.62483">
        <ele>367.1</ele>
        <time>2019-03-03T09:03:36+0100</time>
      </trkpt>
      <trkpt lat="43.16262" lon="2.62481">
        <ele>368</ele>
        <time>2019-03-03T09:03:34+0100</time>
      </trkpt>
      <trkpt lat="43.16256" lon="2.62482">
        <ele>368.8</ele>
        <time>2019-03-03T09:03:32+0100</time>
      </trkpt>
      <trkpt lat="43.16251" lon="2.62483">
        <ele>369.5</ele>
        <time>2019-03-03T09:03:30+0100</time>
      </trkpt>
      <trkpt lat="43.16244" lon="2.62482">
        <ele>370.7</ele>
        <time>2019-03-03T09:03:27+0100</time>
      </trkpt>
      <trkpt lat="43.16241" lon="2.62481">
        <ele>371.1</ele>
        <time>2019-03-03T09:03:26+0100</time>
      </trkpt>
      <trkpt lat="43.16236" lon="2.62479">
        <ele>371.9</ele>
      </trkpt>
      <trkpt lat="43.16231" lon="2.62476">
        <ele>372.7</ele>
        <time>2019-03-03T09:03:22+0100</time>
      </trkpt>
      <trkpt lat="43.16226" lon="2.62477">
        <ele>373.4</ele>
      </trkpt>
      <trkpt lat="43.16222" lon="2.62478">
        <ele>374.1</ele>
        <time>2019-03-03T09:03:19+0100</time>
      </trkpt>
      <trkpt lat="43.16215" lon="2.62479">
        <ele>374.9</ele>
        <time>2019-03-03T09:03:17+0100</time>
      </trkpt>
      <trkpt lat="43.16211" lon="2.62478">
        <ele>375.4</ele>
      </trkpt>
      <trkpt lat="43.16206" lon="2.62477">
        <ele>376</ele>
        <time>2019-03-03T09:03:14+0100</time>
      </trkpt>
      <trkpt lat="43.162" lon="2.62478">
        <ele>376.7</ele>
        <time>2019-03-03T09:03:12+0100</time>
      </trkpt>
      <trkpt lat="43.16191" lon="2.62481">
        <ele>378</ele>
        <time>2019-03-03T09:03:09+0100</time>
      </trkpt>
      <trkpt lat="43.16183" lon="2.6248">
        <ele>379</ele>
        <time>2019-03-03T09:03:06+0100</time>
      </trkpt>
      <trkpt lat="43.16174" lon="2.6248">
        <ele>380.1</ele>
        <time>2019-03-03T09:03:03+0100</time>
      </trkpt>
      <trkpt lat="43.16169" lon="2.6248">
        <ele>380.8</ele>
      </trkpt>
      <trkpt lat="43.16163" lon="2.62479">
        <ele>381.7</ele>
        <time>2019-03-03T09:02:59+0100</time>
      </trkpt>
      <trkpt lat="43.16155" lon="2.62479">
        <ele>383.1</ele>
        <time>2019-03-03T09:02:56+0100</time>
      </trkpt>
      <trkpt lat="43.16147" lon="2.62478">
        <ele>384.4</ele>
        <time>2019-03-03T09:02:53+0100</time>
      </trkpt>
      <trkpt lat="43.16144" lon="2.62478">
        <ele>384.9</ele>
        <time>2019-03-03T09:02:52+0100</time>
      </trkpt>
      <trkpt lat="43.16141" lon="2.62479">
        <ele>385.5</ele>
        <time>2019-03-03T09:02:51+0100</time>
      </trkpt>
      <trkpt lat="43.16134" lon="2.62483">
        <ele>387.3</ele>
        <time>2019-03-03T09:02:48+0100</time>
      </trkpt>
      <trkpt lat="43.16128" lon="2.62483">
        <ele>388.1</ele>
        <time>2019-03-03T09:02:46+0100</time>
      </trkpt>
      <trkpt lat="43.16123" lon="2.62483">
        <ele>388.9</ele>
        <time>2019-03-03T09:02:44+0100</time>
      </trkpt>
      <trkpt lat="43.16118" lon="2.62486">
        <ele>390</ele>
      </trkpt>
      <trkpt lat="43.16113" lon="2.62489">
        <ele>391.1</ele>
        <time>2019-03-03T09:02:40+0100</time>
      </trkpt>
      <trkpt lat="43.16108" lon="2.62491">
        <ele>392.1</ele>
        <time>2019-03-03T09:02:37+0100</time>
      </trkpt>
      <trkpt lat="43.161" lon="2.62494">
        <ele>393.4</ele>
        <time>2019-03-03T09:02:34+0100</time>
      </trkpt>
      <trkpt lat="43.16095" lon="2.62496">
        <ele>394.2</ele>
      </trkpt>
      <trkpt lat="43.1609" lon="2.62498">
        <ele>395</ele>
        <time>2019-03-03T09:02:30+0100</time>
      </trkpt>
      <trkpt lat="43.16082" lon="2.62499">
        <ele>396</ele>
        <time>2019-03-03T09:02:27+0100</time>
      </trkpt>
      <trkpt lat="43.16074" lon="2.625">
        <ele>397</ele>
        <time>2019-03-03T09:02:24+0100</time>
      </trkpt>
      <trkpt lat="43.16065" lon="2.62502">
        <ele>398.2</ele>
        <time>2019-03-03T09:02:21+0100</time>
      </trkpt>
      <trkpt lat="43.16062" lon="2.62503">
        <ele>398.6</ele>
        <time>2019-03-03T09:02:20+0100</time>
      </trkpt>
      <trkpt lat="43.16057" lon="2.62507">
        <ele>399.6</ele>
        <time>2019-03-03T09:02:18+0100</time>
      </trkpt>
      <trkpt lat="43.16052" lon="2.62512">
        <ele>400.7</ele>
        <time>2019-03-03T09:02:16+0100</time>
      </trkpt>
      <trkpt lat="43.16048" lon="2.62518">
        <ele>401.7</ele>
        <time>2019-03-03T09:02:14+0100</time>
      </trkpt>
      <trkpt lat="43.16042" lon="2.62523">
        <ele>402.9</ele>
      </trkpt>
      <trkpt lat="43.16035" lon="2.62528">
        <ele>404.2</ele>
        <time>2019-03-03T09:02:09+0100</time>
      </trkpt>
      <trkpt lat="43.1603" lon="2.62527">
        <ele>404.7</ele>
      </trkpt>
      <trkpt lat="43.16025" lon="2.62527">
        <ele>405.2</ele>
        <time>2019-03-03T09:02:05+0100</time>
      </trkpt>
      <trkpt lat="43.16017" lon="2.62524">
        <ele>405.6</ele>
        <time>2019-03-03T09:02:02+0100</time>
      </trkpt>
      <trkpt lat="43.16008" lon="2.62527">
        <ele>406.9</ele>
        <time>2019-03-03T09:01:59+0100</time>
      </trkpt>
      <trkpt lat="43.16006" lon="2.62533">
        <ele>407.9</ele>
      </trkpt>
      <trkpt lat="43.16003" lon="2.6254">
        <ele>409</ele>
        <time>2019-03-03T09:01:55+0100</time>
      </trkpt>
      <trkpt lat="43.15999" lon="2.62547">
        <ele>410.1</ele>
      </trkpt>
      <trkpt lat="43.15995" lon="2.62554">
        <ele>411.2</ele>
        <time>2019-03-03T09:01:50+0100</time>
      </trkpt>
      <trkpt lat="43.15991" lon="2.6256">
        <ele>411.7</ele>
      </trkpt>
      <trkpt lat="43.15987" lon="2.62567">
        <ele>412.2</ele>
      </trkpt>
      <trkpt lat="43.15982" lon="2.62573">
        <ele>412.7</ele>
      </trkpt>
      <trkpt lat="43.15978" lon="2.62579">
        <ele>413.2</ele>
        <time>2019-03-03T09:01:38+0100</time>
        <extensions>
          <visugpx:TrkExtension xmlns:visugpx="https://www.visugpx.com/editgpx/">
            <visugpx:node>6</visugpx:node>
            </visugpx:TrkExtension>
        </extensions>
      </trkpt>
      <trkpt lat="43.15975" lon="2.62584">
        <ele>413.6</ele>
      </trkpt>
      <trkpt lat="43.15972" lon="2.62589">
        <ele>413.6</ele>
      </trkpt>
      <trkpt lat="43.15969" lon="2.62594">
        <ele>413.7</ele>
      </trkpt>
      <trkpt lat="43.15965" lon="2.62599">
        <ele>413.7</ele>
        <time>2020-08-30T10:15:42+0200</time>
        <extensions>
          <visugpx:TrkExtension xmlns:visugpx="https://www.visugpx.com/editgpx/">
            <visugpx:node>7</visugpx:node>
            </visugpx:TrkExtension>
        </extensions>
      </trkpt>
      <trkpt lat="43.15963" lon="2.62599">
        <ele>414</ele>
        <time>2020-08-30T10:15:43+0200</time>
      </trkpt>
      <trkpt lat="43.15962" lon="2.62599">
        <ele>414.2</ele>
        <time>2020-08-30T10:15:44+0200</time>
      </trkpt>
      <trkpt lat="43.15961" lon="2.626">
        <ele>414.2</ele>
        <time>2020-08-30T10:15:46+0200</time>
      </trkpt>
      <trkpt lat="43.15961" lon="2.62601">
        <ele>414.3</ele>
        <time>2020-08-30T10:15:48+0200</time>
      </trkpt>
      <trkpt lat="43.1596" lon="2.62602">
        <ele>414.3</ele>
        <time>2020-08-30T10:15:49+0200</time>
      </trkpt>
      <trkpt lat="43.1596" lon="2.62603">
        <ele>414.3</ele>
        <time>2020-08-30T10:15:51+0200</time>
      </trkpt>
      <trkpt lat="43.15959" lon="2.62605">
        <ele>414.3</ele>
        <time>2020-08-30T10:15:52+0200</time>
      </trkpt>
      <trkpt lat="43.15957" lon="2.62607">
        <ele>414.4</ele>
        <time>2020-08-30T10:15:54+0200</time>
      </trkpt>
      <trkpt lat="43.15955" lon="2.6261">
        <ele>414.5</ele>
        <time>2020-08-30T10:15:55+0200</time>
      </trkpt>
      <trkpt lat="43.15955" lon="2.62611">
        <ele>414.6</ele>
        <time>2020-08-30T10:15:56+0200</time>
      </trkpt>
      <trkpt lat="43.15954" lon="2.62612">
        <ele>414.5</ele>
        <time>2020-08-30T10:15:57+0200</time>
      </trkpt>
      <trkpt lat="43.15952" lon="2.62614">
        <ele>414.4</ele>
        <time>2020-08-30T10:15:58+0200</time>
      </trkpt>
      <trkpt lat="43.15951" lon="2.62617">
        <ele>414.2</ele>
        <time>2020-08-30T10:16:00+0200</time>
      </trkpt>
      <trkpt lat="43.15949" lon="2.6262">
        <ele>413.8</ele>
        <time>2020-08-30T10:16:01+0200</time>
      </trkpt>
      <trkpt lat="43.15947" lon="2.62623">
        <ele>413.6</ele>
        <time>2020-08-30T10:16:02+0200</time>
      </trkpt>
      <trkpt lat="43.15944" lon="2.62627">
        <ele>413.1</ele>
        <time>2020-08-30T10:16:04+0200</time>
      </trkpt>
      <trkpt lat="43.15942" lon="2.62631">
        <ele>412.7</ele>
        <time>2020-08-30T10:16:05+0200</time>
      </trkpt>
      <trkpt lat="43.15942" lon="2.62632">
        <ele>412.5</ele>
        <time>2020-08-30T10:16:06+0200</time>
      </trkpt>
      <trkpt lat="43.15939" lon="2.62637">
        <ele>412</ele>
        <time>2020-08-30T10:16:07+0200</time>
      </trkpt>
      <trkpt lat="43.15937" lon="2.6264">
        <ele>411.7</ele>
        <time>2020-08-30T10:16:08+0200</time>
      </trkpt>
      <trkpt lat="43.15934" lon="2.62644">
        <ele>411.2</ele>
        <time>2020-08-30T10:16:10+0200</time>
      </trkpt>
      <trkpt lat="43.1593" lon="2.62649">
        <ele>410.8</ele>
        <time>2020-08-30T10:16:11+0200</time>
      </trkpt>
      <trkpt lat="43.15928" lon="2.62652">
        <ele>410.4</ele>
        <time>2020-08-30T10:16:12+0200</time>
      </trkpt>
      <trkpt lat="43.15926" lon="2.62655">
        <ele>410.2</ele>
        <time>2020-08-30T10:16:14+0200</time>
      </trkpt>
      <trkpt lat="43.15923" lon="2.62658">
        <ele>409.9</ele>
        <time>2020-08-30T10:16:15+0200</time>
      </trkpt>
      <trkpt lat="43.1592" lon="2.62661">
        <ele>409.7</ele>
        <time>2020-08-30T10:16:16+0200</time>
      </trkpt>
      <trkpt lat="43.15918" lon="2.62664">
        <ele>409.4</ele>
        <time>2020-08-30T10:16:18+0200</time>
      </trkpt>
      <trkpt lat="43.15917" lon="2.62666">
        <ele>409.1</ele>
        <time>2020-08-30T10:16:19+0200</time>
      </trkpt>
      <trkpt lat="43.15916" lon="2.62669">
        <ele>408.8</ele>
        <time>2020-08-30T10:16:21+0200</time>
      </trkpt>
      <trkpt lat="43.15915" lon="2.62671">
        <ele>408.5</ele>
        <time>2020-08-30T10:16:22+0200</time>
      </trkpt>
      <trkpt lat="43.15913" lon="2.62675">
        <ele>408.2</ele>
        <time>2020-08-30T10:16:24+0200</time>
      </trkpt>
      <trkpt lat="43.15911" lon="2.62677">
        <ele>408.2</ele>
        <time>2020-08-30T10:16:25+0200</time>
      </trkpt>
      <trkpt lat="43.1591" lon="2.6268">
        <ele>407.9</ele>
        <time>2020-08-30T10:16:27+0200</time>
      </trkpt>
      <trkpt lat="43.15909" lon="2.62681">
        <ele>407.9</ele>
        <time>2020-08-30T10:16:28+0200</time>
      </trkpt>
      <trkpt lat="43.15908" lon="2.62683">
        <ele>407.8</ele>
        <time>2020-08-30T10:16:30+0200</time>
      </trkpt>
      <trkpt lat="43.15908" lon="2.62685">
        <ele>407.7</ele>
        <time>2020-08-30T10:16:31+0200</time>
      </trkpt>
      <trkpt lat="43.15907" lon="2.62686">
        <ele>407.4</ele>
        <time>2020-08-30T10:16:32+0200</time>
      </trkpt>
      <trkpt lat="43.15907" lon="2.62687">
        <ele>407.3</ele>
        <time>2020-08-30T10:16:33+0200</time>
      </trkpt>
      <trkpt lat="43.15906" lon="2.6269">
        <ele>407.1</ele>
        <time>2020-08-30T10:16:34+0200</time>
      </trkpt>
      <trkpt lat="43.15906" lon="2.62691">
        <ele>407</ele>
        <time>2020-08-30T10:16:35+0200</time>
      </trkpt>
      <trkpt lat="43.15905" lon="2.62693">
        <ele>406.8</ele>
        <time>2020-08-30T10:16:37+0200</time>
      </trkpt>
      <trkpt lat="43.15905" lon="2.62695">
        <ele>406.5</ele>
        <time>2020-08-30T10:16:38+0200</time>
      </trkpt>
      <trkpt lat="43.15905" lon="2.62696">
        <ele>406.3</ele>
        <time>2020-08-30T10:16:39+0200</time>
      </trkpt>
      <trkpt lat="43.15904" lon="2.62697">
        <ele>406.2</ele>
        <time>2020-08-30T10:16:40+0200</time>
      </trkpt>
      <trkpt lat="43.15904" lon="2.62697">
        <ele>406.1</ele>
        <time>2020-08-30T10:16:41+0200</time>
      </trkpt>
      <trkpt lat="43.15904" lon="2.62698">
        <ele>405.9</ele>
        <time>2020-08-30T10:16:42+0200</time>
      </trkpt>
      <trkpt lat="43.15904" lon="2.62699">
        <ele>405.7</ele>
        <time>2020-08-30T10:16:44+0200</time>
      </trkpt>
      <trkpt lat="43.15904" lon="2.62699">
        <ele>405.6</ele>
        <time>2020-08-30T10:16:45+0200</time>
      </trkpt>
      <trkpt lat="43.15905" lon="2.62698">
        <ele>405.6</ele>
        <time>2020-08-30T10:16:46+0200</time>
      </trkpt>
      <trkpt lat="43.15907" lon="2.62698">
        <ele>405.2</ele>
        <time>2020-08-30T10:16:47+0200</time>
      </trkpt>
      <trkpt lat="43.15914" lon="2.62697">
        <ele>404</ele>
        <time>2020-08-30T10:16:48+0200</time>
      </trkpt>
      <trkpt lat="43.15918" lon="2.62696">
        <ele>403.5</ele>
        <time>2020-08-30T10:16:50+0200</time>
      </trkpt>
      <trkpt lat="43.15922" lon="2.62695">
        <ele>403.2</ele>
        <time>2020-08-30T10:16:51+0200</time>
      </trkpt>
      <trkpt lat="43.15926" lon="2.62695">
        <ele>402.5</ele>
        <time>2020-08-30T10:16:52+0200</time>
      </trkpt>
      <trkpt lat="43.15929" lon="2.62695">
        <ele>402.1</ele>
        <time>2020-08-30T10:16:53+0200</time>
      </trkpt>
      <trkpt lat="43.1593" lon="2.62695">
        <ele>401.9</ele>
        <time>2020-08-30T10:16:54+0200</time>
      </trkpt>
      <trkpt lat="43.15932" lon="2.62696">
        <ele>401.5</ele>
        <time>2020-08-30T10:16:55+0200</time>
      </trkpt>
      <trkpt lat="43.15933" lon="2.62696">
        <ele>401.2</ele>
        <time>2020-08-30T10:16:56+0200</time>
      </trkpt>
      <trkpt lat="43.15936" lon="2.62698">
        <ele>400.4</ele>
        <time>2020-08-30T10:16:57+0200</time>
      </trkpt>
      <trkpt lat="43.15937" lon="2.62699">
        <ele>400</ele>
        <time>2020-08-30T10:16:59+0200</time>
      </trkpt>
      <trkpt lat="43.15938" lon="2.62699">
        <ele>399.7</ele>
        <time>2020-08-30T10:17:00+0200</time>
      </trkpt>
      <trkpt lat="43.1594" lon="2.627">
        <ele>399.3</ele>
        <time>2020-08-30T10:17:01+0200</time>
      </trkpt>
      <trkpt lat="43.15943" lon="2.62703">
        <ele>398.1</ele>
        <time>2020-08-30T10:17:02+0200</time>
      </trkpt>
      <trkpt lat="43.15945" lon="2.62703">
        <ele>398</ele>
        <time>2020-08-30T10:17:03+0200</time>
      </trkpt>
      <trkpt lat="43.15946" lon="2.62703">
        <ele>397.8</ele>
        <time>2020-08-30T10:17:04+0200</time>
      </trkpt>
      <trkpt lat="43.15949" lon="2.62702">
        <ele>397.6</ele>
        <time>2020-08-30T10:17:05+0200</time>
      </trkpt>
      <trkpt lat="43.1595" lon="2.62702">
        <ele>397.6</ele>
        <time>2020-08-30T10:17:06+0200</time>
      </trkpt>
      <trkpt lat="43.15953" lon="2.627">
        <ele>397.6</ele>
        <time>2020-08-30T10:17:08+0200</time>
      </trkpt>
      <trkpt lat="43.15954" lon="2.627">
        <ele>397.6</ele>
        <time>2020-08-30T10:17:09+0200</time>
      </trkpt>
      <trkpt lat="43.15957" lon="2.62699">
        <ele>397.5</ele>
        <time>2020-08-30T10:17:10+0200</time>
      </trkpt>
      <trkpt lat="43.15958" lon="2.62699">
        <ele>397.4</ele>
        <time>2020-08-30T10:17:11+0200</time>
      </trkpt>
      <trkpt lat="43.15961" lon="2.62699">
        <ele>397.1</ele>
        <time>2020-08-30T10:17:12+0200</time>
      </trkpt>
      <trkpt lat="43.15962" lon="2.62699">
        <ele>397</ele>
        <time>2020-08-30T10:17:13+0200</time>
      </trkpt>
      <trkpt lat="43.15966" lon="2.62701">
        <ele>396.1</ele>
        <time>2020-08-30T10:17:14+0200</time>
      </trkpt>
      <trkpt lat="43.15968" lon="2.62701">
        <ele>395.8</ele>
        <time>2020-08-30T10:17:15+0200</time>
      </trkpt>
      <trkpt lat="43.15971" lon="2.62703">
        <ele>395</ele>
        <time>2020-08-30T10:17:17+0200</time>
      </trkpt>
      <trkpt lat="43.15972" lon="2.62704">
        <ele>394.7</ele>
        <time>2020-08-30T10:17:18+0200</time>
      </trkpt>
      <trkpt lat="43.15973" lon="2.62706">
        <ele>394.1</ele>
        <time>2020-08-30T10:17:19+0200</time>
      </trkpt>
      <trkpt lat="43.15975" lon="2.62706">
        <ele>393.8</ele>
        <time>2020-08-30T10:17:21+0200</time>
      </trkpt>
      <trkpt lat="43.15976" lon="2.62707">
        <ele>393.5</ele>
        <time>2020-08-30T10:17:22+0200</time>
      </trkpt>
      <trkpt lat="43.15976" lon="2.62709">
        <ele>393.2</ele>
        <time>2020-08-30T10:17:24+0200</time>
      </trkpt>
      <trkpt lat="43.15975" lon="2.6271">
        <ele>392.9</ele>
        <time>2020-08-30T10:17:25+0200</time>
      </trkpt>
      <trkpt lat="43.15974" lon="2.62713">
        <ele>392.2</ele>
        <time>2020-08-30T10:17:27+0200</time>
      </trkpt>
      <trkpt lat="43.15975" lon="2.62717">
        <ele>391.2</ele>
        <time>2020-08-30T10:17:29+0200</time>
      </trkpt>
      <trkpt lat="43.15975" lon="2.62724">
        <ele>389.4</ele>
        <time>2020-08-30T10:17:31+0200</time>
      </trkpt>
      <trkpt lat="43.15976" lon="2.62726">
        <ele>388.9</ele>
        <time>2020-08-30T10:17:32+0200</time>
      </trkpt>
      <trkpt lat="43.15976" lon="2.62728">
        <ele>388.4</ele>
        <time>2020-08-30T10:17:33+0200</time>
      </trkpt>
      <trkpt lat="43.15977" lon="2.6273">
        <ele>387.7</ele>
        <time>2020-08-30T10:17:34+0200</time>
      </trkpt>
      <trkpt lat="43.15976" lon="2.62733">
        <ele>387.1</ele>
        <time>2020-08-30T10:17:36+0200</time>
      </trkpt>
      <trkpt lat="43.15979" lon="2.62737">
        <ele>386.1</ele>
        <time>2020-08-30T10:17:38+0200</time>
      </trkpt>
      <trkpt lat="43.1598" lon="2.62738">
        <ele>385.7</ele>
        <time>2020-08-30T10:17:39+0200</time>
      </trkpt>
      <trkpt lat="43.15982" lon="2.62741">
        <ele>384.9</ele>
        <time>2020-08-30T10:17:40+0200</time>
      </trkpt>
      <trkpt lat="43.15985" lon="2.62746">
        <ele>383.4</ele>
        <time>2020-08-30T10:17:41+0200</time>
      </trkpt>
      <trkpt lat="43.1599" lon="2.62749">
        <ele>382.5</ele>
        <time>2020-08-30T10:17:42+0200</time>
      </trkpt>
      <trkpt lat="43.15995" lon="2.62751">
        <ele>381.8</ele>
      </trkpt>
      <trkpt lat="43.15999" lon="2.62753">
        <ele>381</ele>
        <time>2020-08-30T10:17:43+0200</time>
      </trkpt>
      <trkpt lat="43.16006" lon="2.62756">
        <ele>380.8</ele>
        <time>2020-08-30T10:17:44+0200</time>
      </trkpt>
      <trkpt lat="43.1601" lon="2.62758">
        <ele>380.7</ele>
        <time>2020-08-30T10:17:46+0200</time>
      </trkpt>
      <trkpt lat="43.16013" lon="2.6276">
        <ele>380.6</ele>
        <time>2020-08-30T10:17:47+0200</time>
      </trkpt>
      <trkpt lat="43.16016" lon="2.62762">
        <ele>380.7</ele>
        <time>2020-08-30T10:17:48+0200</time>
      </trkpt>
      <trkpt lat="43.16019" lon="2.62764">
        <ele>380.8</ele>
        <time>2020-08-30T10:17:49+0200</time>
      </trkpt>
      <trkpt lat="43.16022" lon="2.62765">
        <ele>380.9</ele>
        <time>2020-08-30T10:17:50+0200</time>
      </trkpt>
      <trkpt lat="43.16025" lon="2.62768">
        <ele>381.2</ele>
        <time>2020-08-30T10:17:51+0200</time>
      </trkpt>
      <trkpt lat="43.16028" lon="2.62771">
        <ele>381.5</ele>
        <time>2020-08-30T10:17:52+0200</time>
      </trkpt>
      <trkpt lat="43.16029" lon="2.62772">
        <ele>381.6</ele>
        <time>2020-08-30T10:17:53+0200</time>
      </trkpt>
      <trkpt lat="43.16031" lon="2.62773">
        <ele>381.6</ele>
        <time>2020-08-30T10:17:54+0200</time>
      </trkpt>
      <trkpt lat="43.16034" lon="2.62775">
        <ele>381.7</ele>
        <time>2020-08-30T10:17:56+0200</time>
      </trkpt>
      <trkpt lat="43.16036" lon="2.62777">
        <ele>381.9</ele>
        <time>2020-08-30T10:17:57+0200</time>
      </trkpt>
      <trkpt lat="43.16036" lon="2.62778">
        <ele>381.9</ele>
        <time>2020-08-30T10:17:58+0200</time>
      </trkpt>
      <trkpt lat="43.16039" lon="2.62782">
        <ele>381.8</ele>
        <time>2020-08-30T10:17:59+0200</time>
      </trkpt>
      <trkpt lat="43.1604" lon="2.62784">
        <ele>381.8</ele>
        <time>2020-08-30T10:18:00+0200</time>
      </trkpt>
      <trkpt lat="43.16041" lon="2.62786">
        <ele>381.8</ele>
        <time>2020-08-30T10:18:01+0200</time>
      </trkpt>
      <trkpt lat="43.16043" lon="2.62788">
        <ele>381.9</ele>
        <time>2020-08-30T10:18:03+0200</time>
      </trkpt>
      <trkpt lat="43.16045" lon="2.62793">
        <ele>381.9</ele>
        <time>2020-08-30T10:18:04+0200</time>
      </trkpt>
      <trkpt lat="43.16046" lon="2.62794">
        <ele>381.9</ele>
        <time>2020-08-30T10:18:05+0200</time>
      </trkpt>
      <trkpt lat="43.16047" lon="2.62796">
        <ele>382</ele>
        <time>2020-08-30T10:18:06+0200</time>
      </trkpt>
      <trkpt lat="43.16048" lon="2.62799">
        <ele>382</ele>
        <time>2020-08-30T10:18:08+0200</time>
      </trkpt>
      <trkpt lat="43.16049" lon="2.62801">
        <ele>382.1</ele>
        <time>2020-08-30T10:18:09+0200</time>
      </trkpt>
      <trkpt lat="43.1605" lon="2.62802">
        <ele>382.1</ele>
        <time>2020-08-30T10:18:10+0200</time>
      </trkpt>
      <trkpt lat="43.1605" lon="2.62804">
        <ele>382.1</ele>
        <time>2020-08-30T10:18:11+0200</time>
      </trkpt>
      <trkpt lat="43.16052" lon="2.62807">
        <ele>382.2</ele>
        <time>2020-08-30T10:18:13+0200</time>
      </trkpt>
      <trkpt lat="43.16055" lon="2.6281">
        <ele>382.3</ele>
        <time>2020-08-30T10:18:14+0200</time>
      </trkpt>
      <trkpt lat="43.16056" lon="2.62812">
        <ele>382.4</ele>
        <time>2020-08-30T10:18:15+0200</time>
      </trkpt>
      <trkpt lat="43.16058" lon="2.62815">
        <ele>382.2</ele>
        <time>2020-08-30T10:18:16+0200</time>
      </trkpt>
      <trkpt lat="43.16059" lon="2.62817">
        <ele>382.1</ele>
        <time>2020-08-30T10:18:17+0200</time>
      </trkpt>
      <trkpt lat="43.16061" lon="2.6282">
        <ele>381.9</ele>
        <time>2020-08-30T10:18:18+0200</time>
      </trkpt>
      <trkpt lat="43.16062" lon="2.62822">
        <ele>381.8</ele>
        <time>2020-08-30T10:18:19+0200</time>
      </trkpt>
      <trkpt lat="43.16065" lon="2.62828">
        <ele>381.4</ele>
        <time>2020-08-30T10:18:21+0200</time>
      </trkpt>
      <trkpt lat="43.16066" lon="2.6283">
        <ele>381.1</ele>
        <time>2020-08-30T10:18:22+0200</time>
      </trkpt>
      <trkpt lat="43.16068" lon="2.62833">
        <ele>380.9</ele>
        <time>2020-08-30T10:18:23+0200</time>
      </trkpt>
      <trkpt lat="43.16068" lon="2.62834">
        <ele>380.8</ele>
        <time>2020-08-30T10:18:24+0200</time>
      </trkpt>
      <trkpt lat="43.16072" lon="2.62838">
        <ele>380.5</ele>
        <time>2020-08-30T10:18:25+0200</time>
      </trkpt>
      <trkpt lat="43.16074" lon="2.6284">
        <ele>380.4</ele>
        <time>2020-08-30T10:18:26+0200</time>
      </trkpt>
      <trkpt lat="43.16077" lon="2.62845">
        <ele>380.2</ele>
        <time>2020-08-30T10:18:28+0200</time>
      </trkpt>
      <trkpt lat="43.16078" lon="2.62846">
        <ele>380.2</ele>
        <time>2020-08-30T10:18:29+0200</time>
      </trkpt>
      <trkpt lat="43.16079" lon="2.62848">
        <ele>380.2</ele>
        <time>2020-08-30T10:18:30+0200</time>
      </trkpt>
      <trkpt lat="43.1608" lon="2.62853">
        <ele>379.9</ele>
        <time>2020-08-30T10:18:31+0200</time>
      </trkpt>
      <trkpt lat="43.1608" lon="2.62855">
        <ele>379.8</ele>
        <time>2020-08-30T10:18:32+0200</time>
      </trkpt>
      <trkpt lat="43.16083" lon="2.62861">
        <ele>379.8</ele>
        <time>2020-08-30T10:18:34+0200</time>
      </trkpt>
      <trkpt lat="43.16083" lon="2.62864">
        <ele>379.7</ele>
        <time>2020-08-30T10:18:35+0200</time>
      </trkpt>
      <trkpt lat="43.16084" lon="2.62866">
        <ele>379.6</ele>
        <time>2020-08-30T10:18:36+0200</time>
      </trkpt>
      <trkpt lat="43.16086" lon="2.6287">
        <ele>379.4</ele>
        <time>2020-08-30T10:18:37+0200</time>
      </trkpt>
      <trkpt lat="43.16087" lon="2.62872">
        <ele>379.3</ele>
        <time>2020-08-30T10:18:38+0200</time>
      </trkpt>
      <trkpt lat="43.16089" lon="2.62876">
        <ele>379.3</ele>
        <time>2020-08-30T10:18:40+0200</time>
      </trkpt>
      <trkpt lat="43.16091" lon="2.62879">
        <ele>379.2</ele>
        <time>2020-08-30T10:18:41+0200</time>
      </trkpt>
      <trkpt lat="43.16092" lon="2.6288">
        <ele>379.2</ele>
        <time>2020-08-30T10:18:42+0200</time>
      </trkpt>
      <trkpt lat="43.16093" lon="2.62884">
        <ele>379.1</ele>
        <time>2020-08-30T10:18:43+0200</time>
      </trkpt>
      <trkpt lat="43.16093" lon="2.62886">
        <ele>379</ele>
        <time>2020-08-30T10:18:44+0200</time>
      </trkpt>
      <trkpt lat="43.16094" lon="2.6289">
        <ele>378.7</ele>
        <time>2020-08-30T10:18:45+0200</time>
      </trkpt>
      <trkpt lat="43.16094" lon="2.62893">
        <ele>378.4</ele>
        <time>2020-08-30T10:18:46+0200</time>
      </trkpt>
      <trkpt lat="43.16095" lon="2.62896">
        <ele>378</ele>
        <time>2020-08-30T10:18:48+0200</time>
      </trkpt>
      <trkpt lat="43.16096" lon="2.629">
        <ele>377.7</ele>
        <time>2020-08-30T10:18:49+0200</time>
      </trkpt>
      <trkpt lat="43.16097" lon="2.62901">
        <ele>377.7</ele>
        <time>2020-08-30T10:18:50+0200</time>
      </trkpt>
      <trkpt lat="43.161" lon="2.62903">
        <ele>378</ele>
        <time>2020-08-30T10:18:51+0200</time>
      </trkpt>
      <trkpt lat="43.16101" lon="2.62904">
        <ele>378.2</ele>
        <time>2020-08-30T10:18:52+0200</time>
      </trkpt>
      <trkpt lat="43.16104" lon="2.62906">
        <ele>378.5</ele>
        <time>2020-08-30T10:18:53+0200</time>
      </trkpt>
      <trkpt lat="43.16107" lon="2.62908">
        <ele>378.9</ele>
        <time>2020-08-30T10:18:54+0200</time>
      </trkpt>
      <trkpt lat="43.16108" lon="2.62909">
        <ele>379.1</ele>
        <time>2020-08-30T10:18:55+0200</time>
      </trkpt>
      <trkpt lat="43.16111" lon="2.62911">
        <ele>379.6</ele>
        <time>2020-08-30T10:18:56+0200</time>
      </trkpt>
      <trkpt lat="43.16112" lon="2.62912">
        <ele>379.6</ele>
        <time>2020-08-30T10:18:57+0200</time>
      </trkpt>
      <trkpt lat="43.16114" lon="2.62914">
        <ele>379.4</ele>
        <time>2020-08-30T10:18:59+0200</time>
      </trkpt>
      <trkpt lat="43.16118" lon="2.62918">
        <ele>379.1</ele>
        <time>2020-08-30T10:19:00+0200</time>
      </trkpt>
      <trkpt lat="43.1612" lon="2.6292">
        <ele>378.9</ele>
        <time>2020-08-30T10:19:01+0200</time>
      </trkpt>
      <trkpt lat="43.16122" lon="2.62924">
        <ele>378.6</ele>
        <time>2020-08-30T10:19:03+0200</time>
      </trkpt>
      <trkpt lat="43.16123" lon="2.62925">
        <ele>378.5</ele>
        <time>2020-08-30T10:19:04+0200</time>
      </trkpt>
      <trkpt lat="43.16124" lon="2.62929">
        <ele>378.3</ele>
        <time>2020-08-30T10:19:05+0200</time>
      </trkpt>
      <trkpt lat="43.16126" lon="2.62934">
        <ele>378.2</ele>
        <time>2020-08-30T10:19:06+0200</time>
      </trkpt>
      <trkpt lat="43.16127" lon="2.62935">
        <ele>378.2</ele>
        <time>2020-08-30T10:19:07+0200</time>
      </trkpt>
      <trkpt lat="43.16129" lon="2.62939">
        <ele>378.2</ele>
        <time>2020-08-30T10:19:08+0200</time>
      </trkpt>
      <trkpt lat="43.1613" lon="2.62941">
        <ele>378.2</ele>
        <time>2020-08-30T10:19:09+0200</time>
      </trkpt>
      <trkpt lat="43.16132" lon="2.62945">
        <ele>378.4</ele>
        <time>2020-08-30T10:19:10+0200</time>
      </trkpt>
      <trkpt lat="43.16132" lon="2.62946">
        <ele>378.4</ele>
        <time>2020-08-30T10:19:11+0200</time>
      </trkpt>
      <trkpt lat="43.16135" lon="2.62951">
        <ele>378.7</ele>
        <time>2020-08-30T10:19:13+0200</time>
      </trkpt>
      <trkpt lat="43.16136" lon="2.62952">
        <ele>378.9</ele>
        <time>2020-08-30T10:19:14+0200</time>
      </trkpt>
      <trkpt lat="43.16139" lon="2.62956">
        <ele>379.5</ele>
        <time>2020-08-30T10:19:15+0200</time>
      </trkpt>
      <trkpt lat="43.16139" lon="2.62957">
        <ele>379.7</ele>
        <time>2020-08-30T10:19:16+0200</time>
      </trkpt>
      <trkpt lat="43.16142" lon="2.62959">
        <ele>380</ele>
        <time>2020-08-30T10:19:17+0200</time>
      </trkpt>
      <trkpt lat="43.16144" lon="2.62964">
        <ele>380.3</ele>
        <time>2020-08-30T10:19:18+0200</time>
      </trkpt>
      <trkpt lat="43.16144" lon="2.62966">
        <ele>380.3</ele>
        <time>2020-08-30T10:19:19+0200</time>
      </trkpt>
      <trkpt lat="43.16144" lon="2.62969">
        <ele>380.2</ele>
        <time>2020-08-30T10:19:21+0200</time>
      </trkpt>
      <trkpt lat="43.16143" lon="2.62973">
        <ele>379.9</ele>
        <time>2020-08-30T10:19:22+0200</time>
      </trkpt>
      <trkpt lat="43.16142" lon="2.62976">
        <ele>379.4</ele>
        <time>2020-08-30T10:19:23+0200</time>
      </trkpt>
      <trkpt lat="43.16142" lon="2.62978">
        <ele>379.1</ele>
        <time>2020-08-30T10:19:25+0200</time>
      </trkpt>
      <trkpt lat="43.16142" lon="2.62981">
        <ele>378.9</ele>
        <time>2020-08-30T10:19:26+0200</time>
      </trkpt>
      <trkpt lat="43.16142" lon="2.62983">
        <ele>378.7</ele>
        <time>2020-08-30T10:19:27+0200</time>
      </trkpt>
      <trkpt lat="43.16143" lon="2.62986">
        <ele>378.4</ele>
        <time>2020-08-30T10:19:28+0200</time>
      </trkpt>
      <trkpt lat="43.16143" lon="2.62987">
        <ele>378.4</ele>
        <time>2020-08-30T10:19:29+0200</time>
      </trkpt>
      <trkpt lat="43.16143" lon="2.62988">
        <ele>378.4</ele>
        <time>2020-08-30T10:19:30+0200</time>
      </trkpt>
      <trkpt lat="43.16144" lon="2.6299">
        <ele>378.6</ele>
        <time>2020-08-30T10:19:31+0200</time>
      </trkpt>
      <trkpt lat="43.16146" lon="2.62991">
        <ele>378.8</ele>
        <time>2020-08-30T10:19:32+0200</time>
      </trkpt>
      <trkpt lat="43.16147" lon="2.62994">
        <ele>379</ele>
        <time>2020-08-30T10:19:33+0200</time>
      </trkpt>
      <trkpt lat="43.16149" lon="2.62996">
        <ele>379.2</ele>
        <time>2020-08-30T10:19:35+0200</time>
      </trkpt>
      <trkpt lat="43.16151" lon="2.63001">
        <ele>379.3</ele>
        <time>2020-08-30T10:19:36+0200</time>
      </trkpt>
      <trkpt lat="43.16151" lon="2.63003">
        <ele>379</ele>
        <time>2020-08-30T10:19:37+0200</time>
      </trkpt>
      <trkpt lat="43.16153" lon="2.63008">
        <ele>378.6</ele>
        <time>2020-08-30T10:19:39+0200</time>
      </trkpt>
      <trkpt lat="43.16156" lon="2.63013">
        <ele>378.7</ele>
        <time>2020-08-30T10:19:41+0200</time>
      </trkpt>
      <trkpt lat="43.16157" lon="2.63017">
        <ele>378.7</ele>
        <time>2020-08-30T10:19:42+0200</time>
      </trkpt>
      <trkpt lat="43.16158" lon="2.63019">
        <ele>378.6</ele>
        <time>2020-08-30T10:19:43+0200</time>
      </trkpt>
      <trkpt lat="43.16159" lon="2.63023">
        <ele>378.4</ele>
        <time>2020-08-30T10:19:44+0200</time>
      </trkpt>
      <trkpt lat="43.16159" lon="2.63025">
        <ele>378.2</ele>
        <time>2020-08-30T10:19:45+0200</time>
      </trkpt>
      <trkpt lat="43.1616" lon="2.63027">
        <ele>378.4</ele>
        <time>2020-08-30T10:19:46+0200</time>
      </trkpt>
      <trkpt lat="43.16163" lon="2.63029">
        <ele>378.9</ele>
        <time>2020-08-30T10:19:48+0200</time>
      </trkpt>
      <trkpt lat="43.16165" lon="2.63032">
        <ele>379.3</ele>
        <time>2020-08-30T10:19:49+0200</time>
      </trkpt>
      <trkpt lat="43.16166" lon="2.63033">
        <ele>379.4</ele>
        <time>2020-08-30T10:19:50+0200</time>
      </trkpt>
      <trkpt lat="43.16168" lon="2.63036">
        <ele>379.5</ele>
        <time>2020-08-30T10:19:51+0200</time>
      </trkpt>
      <trkpt lat="43.16169" lon="2.63038">
        <ele>379.5</ele>
        <time>2020-08-30T10:19:53+0200</time>
      </trkpt>
      <trkpt lat="43.1617" lon="2.6304">
        <ele>379.5</ele>
        <time>2020-08-30T10:19:54+0200</time>
      </trkpt>
      <trkpt lat="43.16172" lon="2.63043">
        <ele>379.7</ele>
        <time>2020-08-30T10:19:55+0200</time>
      </trkpt>
      <trkpt lat="43.16173" lon="2.63044">
        <ele>379.8</ele>
        <time>2020-08-30T10:19:56+0200</time>
      </trkpt>
      <trkpt lat="43.16174" lon="2.63045">
        <ele>379.9</ele>
        <time>2020-08-30T10:19:57+0200</time>
      </trkpt>
      <trkpt lat="43.16175" lon="2.63047">
        <ele>380.2</ele>
        <time>2020-08-30T10:19:58+0200</time>
      </trkpt>
      <trkpt lat="43.16177" lon="2.63048">
        <ele>380.5</ele>
        <time>2020-08-30T10:20:00+0200</time>
      </trkpt>
      <trkpt lat="43.16178" lon="2.63049">
        <ele>380.9</ele>
        <time>2020-08-30T10:20:01+0200</time>
      </trkpt>
      <trkpt lat="43.16178" lon="2.6305">
        <ele>380.8</ele>
        <time>2020-08-30T10:20:02+0200</time>
      </trkpt>
      <trkpt lat="43.16179" lon="2.63051">
        <ele>381.2</ele>
        <time>2020-08-30T10:20:04+0200</time>
      </trkpt>
      <trkpt lat="43.1618" lon="2.63052">
        <ele>381.3</ele>
        <time>2020-08-30T10:20:05+0200</time>
      </trkpt>
      <trkpt lat="43.16181" lon="2.63053">
        <ele>381.7</ele>
        <time>2020-08-30T10:20:06+0200</time>
      </trkpt>
      <trkpt lat="43.16183" lon="2.63054">
        <ele>382.2</ele>
        <time>2020-08-30T10:20:07+0200</time>
      </trkpt>
      <trkpt lat="43.16185" lon="2.63055">
        <ele>382.9</ele>
        <time>2020-08-30T10:20:08+0200</time>
      </trkpt>
      <trkpt lat="43.16187" lon="2.63056">
        <ele>383.6</ele>
        <time>2020-08-30T10:20:10+0200</time>
      </trkpt>
      <trkpt lat="43.16189" lon="2.63057">
        <ele>384.3</ele>
        <time>2020-08-30T10:20:11+0200</time>
      </trkpt>
      <trkpt lat="43.1619" lon="2.63058">
        <ele>384.6</ele>
        <time>2020-08-30T10:20:12+0200</time>
      </trkpt>
      <trkpt lat="43.16191" lon="2.63059">
        <ele>384.8</ele>
        <time>2020-08-30T10:20:14+0200</time>
      </trkpt>
      <trkpt lat="43.16192" lon="2.63061">
        <ele>385.2</ele>
        <time>2020-08-30T10:20:15+0200</time>
      </trkpt>
      <trkpt lat="43.16194" lon="2.63062">
        <ele>385.7</ele>
        <time>2020-08-30T10:20:16+0200</time>
      </trkpt>
      <trkpt lat="43.16197" lon="2.63064">
        <ele>386.1</ele>
        <time>2020-08-30T10:20:18+0200</time>
      </trkpt>
      <trkpt lat="43.162" lon="2.63065">
        <ele>386.7</ele>
        <time>2020-08-30T10:20:19+0200</time>
      </trkpt>
      <trkpt lat="43.16201" lon="2.63066">
        <ele>386.8</ele>
        <time>2020-08-30T10:20:20+0200</time>
      </trkpt>
      <trkpt lat="43.16202" lon="2.63067">
        <ele>386.9</ele>
        <time>2020-08-30T10:20:21+0200</time>
      </trkpt>
      <trkpt lat="43.16204" lon="2.63068">
        <ele>386.9</ele>
        <time>2020-08-30T10:20:22+0200</time>
      </trkpt>
      <trkpt lat="43.16206" lon="2.63072">
        <ele>386.9</ele>
        <time>2020-08-30T10:20:23+0200</time>
      </trkpt>
      <trkpt lat="43.16207" lon="2.63074">
        <ele>386.9</ele>
        <time>2020-08-30T10:20:24+0200</time>
      </trkpt>
      <trkpt lat="43.16209" lon="2.63077">
        <ele>386.9</ele>
        <time>2020-08-30T10:20:26+0200</time>
      </trkpt>
      <trkpt lat="43.16211" lon="2.6308">
        <ele>386.9</ele>
        <time>2020-08-30T10:20:27+0200</time>
      </trkpt>
      <trkpt lat="43.16213" lon="2.63084">
        <ele>387</ele>
        <time>2020-08-30T10:20:28+0200</time>
      </trkpt>
      <trkpt lat="43.16214" lon="2.63085">
        <ele>387.1</ele>
        <time>2020-08-30T10:20:29+0200</time>
      </trkpt>
      <trkpt lat="43.16216" lon="2.63087">
        <ele>387.6</ele>
        <time>2020-08-30T10:20:30+0200</time>
      </trkpt>
      <trkpt lat="43.16219" lon="2.63089">
        <ele>388.1</ele>
        <time>2020-08-30T10:20:31+0200</time>
      </trkpt>
      <trkpt lat="43.16221" lon="2.63092">
        <ele>388.8</ele>
        <time>2020-08-30T10:20:32+0200</time>
      </trkpt>
      <trkpt lat="43.16222" lon="2.63093">
        <ele>389</ele>
        <time>2020-08-30T10:20:33+0200</time>
      </trkpt>
      <trkpt lat="43.16225" lon="2.63097">
        <ele>388.7</ele>
        <time>2020-08-30T10:20:34+0200</time>
      </trkpt>
      <trkpt lat="43.16225" lon="2.63098">
        <ele>388.6</ele>
        <time>2020-08-30T10:20:35+0200</time>
      </trkpt>
      <trkpt lat="43.16227" lon="2.63101">
        <ele>388.4</ele>
        <time>2020-08-30T10:20:36+0200</time>
      </trkpt>
      <trkpt lat="43.16228" lon="2.63103">
        <ele>388.4</ele>
        <time>2020-08-30T10:20:37+0200</time>
      </trkpt>
      <trkpt lat="43.1623" lon="2.63107">
        <ele>388.3</ele>
        <time>2020-08-30T10:20:39+0200</time>
      </trkpt>
      <trkpt lat="43.1623" lon="2.63109">
        <ele>388.4</ele>
        <time>2020-08-30T10:20:40+0200</time>
      </trkpt>
      <trkpt lat="43.16232" lon="2.63113">
        <ele>388.3</ele>
        <time>2020-08-30T10:20:41+0200</time>
      </trkpt>
      <trkpt lat="43.16232" lon="2.63115">
        <ele>388.3</ele>
        <time>2020-08-30T10:20:42+0200</time>
      </trkpt>
      <trkpt lat="43.16233" lon="2.63119">
        <ele>388.2</ele>
        <time>2020-08-30T10:20:43+0200</time>
      </trkpt>
      <trkpt lat="43.16235" lon="2.63122">
        <ele>388.2</ele>
        <time>2020-08-30T10:20:45+0200</time>
      </trkpt>
      <trkpt lat="43.16235" lon="2.63124">
        <ele>388.2</ele>
        <time>2020-08-30T10:20:46+0200</time>
      </trkpt>
      <trkpt lat="43.16237" lon="2.63127">
        <ele>388.3</ele>
        <time>2020-08-30T10:20:47+0200</time>
      </trkpt>
      <trkpt lat="43.16238" lon="2.63129">
        <ele>388.4</ele>
        <time>2020-08-30T10:20:48+0200</time>
      </trkpt>
      <trkpt lat="43.16238" lon="2.63131">
        <ele>388.5</ele>
        <time>2020-08-30T10:20:50+0200</time>
      </trkpt>
      <trkpt lat="43.16239" lon="2.63133">
        <ele>388.6</ele>
        <time>2020-08-30T10:20:51+0200</time>
      </trkpt>
      <trkpt lat="43.1624" lon="2.63135">
        <ele>388.8</ele>
        <time>2020-08-30T10:20:52+0200</time>
      </trkpt>
      <trkpt lat="43.16241" lon="2.63137">
        <ele>388.9</ele>
        <time>2020-08-30T10:20:53+0200</time>
      </trkpt>
      <trkpt lat="43.16242" lon="2.63138">
        <ele>389.1</ele>
        <time>2020-08-30T10:20:54+0200</time>
      </trkpt>
      <trkpt lat="43.16243" lon="2.6314">
        <ele>389.3</ele>
        <time>2020-08-30T10:20:55+0200</time>
      </trkpt>
      <trkpt lat="43.16244" lon="2.63141">
        <ele>389.5</ele>
        <time>2020-08-30T10:20:56+0200</time>
      </trkpt>
      <trkpt lat="43.16245" lon="2.63143">
        <ele>389.8</ele>
        <time>2020-08-30T10:20:57+0200</time>
      </trkpt>
      <trkpt lat="43.16247" lon="2.63145">
        <ele>390.3</ele>
        <time>2020-08-30T10:20:58+0200</time>
      </trkpt>
      <trkpt lat="43.16248" lon="2.63148">
        <ele>390.7</ele>
        <time>2020-08-30T10:21:00+0200</time>
      </trkpt>
      <trkpt lat="43.16249" lon="2.63151">
        <ele>391.2</ele>
        <time>2020-08-30T10:21:01+0200</time>
      </trkpt>
      <trkpt lat="43.1625" lon="2.63153">
        <ele>391.5</ele>
        <time>2020-08-30T10:21:02+0200</time>
      </trkpt>
      <trkpt lat="43.1625" lon="2.63156">
        <ele>391.8</ele>
        <time>2020-08-30T10:21:03+0200</time>
      </trkpt>
      <trkpt lat="43.16251" lon="2.6316">
        <ele>392.1</ele>
        <time>2020-08-30T10:21:05+0200</time>
      </trkpt>
      <trkpt lat="43.16251" lon="2.63164">
        <ele>392.6</ele>
        <time>2020-08-30T10:21:06+0200</time>
      </trkpt>
      <trkpt lat="43.16251" lon="2.63167">
        <ele>392.9</ele>
        <time>2020-08-30T10:21:07+0200</time>
      </trkpt>
      <trkpt lat="43.16251" lon="2.6317">
        <ele>393</ele>
        <time>2020-08-30T10:21:09+0200</time>
      </trkpt>
      <trkpt lat="43.1625" lon="2.63176">
        <ele>393.2</ele>
        <time>2020-08-30T10:21:10+0200</time>
      </trkpt>
      <trkpt lat="43.16251" lon="2.63178">
        <ele>393.3</ele>
        <time>2020-08-30T10:21:11+0200</time>
      </trkpt>
      <trkpt lat="43.16251" lon="2.63181">
        <ele>393.4</ele>
        <time>2020-08-30T10:21:12+0200</time>
      </trkpt>
      <trkpt lat="43.1625" lon="2.63183">
        <ele>393.5</ele>
        <time>2020-08-30T10:21:14+0200</time>
      </trkpt>
      <trkpt lat="43.16251" lon="2.63188">
        <ele>393.6</ele>
        <time>2020-08-30T10:21:15+0200</time>
      </trkpt>
      <trkpt lat="43.16251" lon="2.6319">
        <ele>393.7</ele>
        <time>2020-08-30T10:21:16+0200</time>
      </trkpt>
      <trkpt lat="43.16251" lon="2.63194">
        <ele>393.6</ele>
        <time>2020-08-30T10:21:17+0200</time>
      </trkpt>
      <trkpt lat="43.16251" lon="2.63195">
        <ele>393.6</ele>
        <time>2020-08-30T10:21:18+0200</time>
      </trkpt>
      <trkpt lat="43.16251" lon="2.632">
        <ele>393.1</ele>
        <time>2020-08-30T10:21:19+0200</time>
      </trkpt>
      <trkpt lat="43.16251" lon="2.63201">
        <ele>393</ele>
        <time>2020-08-30T10:21:20+0200</time>
      </trkpt>
      <trkpt lat="43.16251" lon="2.63206">
        <ele>392.6</ele>
        <time>2020-08-30T10:21:21+0200</time>
      </trkpt>
      <trkpt lat="43.16251" lon="2.63207">
        <ele>392.5</ele>
        <time>2020-08-30T10:21:22+0200</time>
      </trkpt>
      <trkpt lat="43.16251" lon="2.6321">
        <ele>392.2</ele>
        <time>2020-08-30T10:21:23+0200</time>
      </trkpt>
      <trkpt lat="43.16251" lon="2.63213">
        <ele>391.8</ele>
        <time>2020-08-30T10:21:25+0200</time>
      </trkpt>
      <trkpt lat="43.16251" lon="2.63218">
        <ele>391.4</ele>
        <time>2020-08-30T10:21:26+0200</time>
      </trkpt>
      <trkpt lat="43.16251" lon="2.6322">
        <ele>391.2</ele>
        <time>2020-08-30T10:21:27+0200</time>
      </trkpt>
      <trkpt lat="43.1625" lon="2.63224">
        <ele>391</ele>
        <time>2020-08-30T10:21:28+0200</time>
      </trkpt>
      <trkpt lat="43.16251" lon="2.63229">
        <ele>391.1</ele>
        <time>2020-08-30T10:21:30+0200</time>
      </trkpt>
      <trkpt lat="43.16251" lon="2.6323">
        <ele>391.1</ele>
        <time>2020-08-30T10:21:31+0200</time>
      </trkpt>
      <trkpt lat="43.16252" lon="2.63234">
        <ele>391.2</ele>
        <time>2020-08-30T10:21:32+0200</time>
      </trkpt>
      <trkpt lat="43.16252" lon="2.63236">
        <ele>391.2</ele>
        <time>2020-08-30T10:21:33+0200</time>
      </trkpt>
      <trkpt lat="43.16253" lon="2.63238">
        <ele>391.3</ele>
        <time>2020-08-30T10:21:34+0200</time>
      </trkpt>
      <trkpt lat="43.16254" lon="2.63241">
        <ele>391.4</ele>
        <time>2020-08-30T10:21:36+0200</time>
      </trkpt>
      <trkpt lat="43.16255" lon="2.63245">
        <ele>391.5</ele>
        <time>2020-08-30T10:21:37+0200</time>
      </trkpt>
      <trkpt lat="43.16255" lon="2.63246">
        <ele>391.6</ele>
        <time>2020-08-30T10:21:38+0200</time>
      </trkpt>
      <trkpt lat="43.16256" lon="2.63248">
        <ele>391.7</ele>
        <time>2020-08-30T10:21:39+0200</time>
      </trkpt>
      <trkpt lat="43.16257" lon="2.6325">
        <ele>391.8</ele>
        <time>2020-08-30T10:21:40+0200</time>
      </trkpt>
      <trkpt lat="43.16257" lon="2.63252">
        <ele>391.9</ele>
        <time>2020-08-30T10:21:42+0200</time>
      </trkpt>
      <trkpt lat="43.16258" lon="2.63254">
        <ele>392.1</ele>
        <time>2020-08-30T10:21:43+0200</time>
      </trkpt>
      <trkpt lat="43.16259" lon="2.63256">
        <ele>392.4</ele>
        <time>2020-08-30T10:21:44+0200</time>
      </trkpt>
      <trkpt lat="43.16259" lon="2.63257">
        <ele>392.5</ele>
        <time>2020-08-30T10:21:45+0200</time>
      </trkpt>
      <trkpt lat="43.16259" lon="2.63258">
        <ele>392.7</ele>
        <time>2020-08-30T10:21:46+0200</time>
      </trkpt>
      <trkpt lat="43.1626" lon="2.6326">
        <ele>392.9</ele>
        <time>2020-08-30T10:21:47+0200</time>
      </trkpt>
      <trkpt lat="43.16261" lon="2.63262">
        <ele>393.2</ele>
        <time>2020-08-30T10:21:49+0200</time>
      </trkpt>
      <trkpt lat="43.16262" lon="2.63264">
        <ele>393.6</ele>
        <time>2020-08-30T10:21:50+0200</time>
      </trkpt>
      <trkpt lat="43.16263" lon="2.63266">
        <ele>394</ele>
        <time>2020-08-30T10:21:51+0200</time>
      </trkpt>
      <trkpt lat="43.16263" lon="2.63268">
        <ele>394.4</ele>
        <time>2020-08-30T10:21:52+0200</time>
      </trkpt>
      <trkpt lat="43.16264" lon="2.63269">
        <ele>394.7</ele>
        <time>2020-08-30T10:21:53+0200</time>
      </trkpt>
      <trkpt lat="43.16265" lon="2.63271">
        <ele>395.2</ele>
        <time>2020-08-30T10:21:54+0200</time>
      </trkpt>
      <trkpt lat="43.16266" lon="2.63272">
        <ele>395.4</ele>
        <time>2020-08-30T10:21:55+0200</time>
      </trkpt>
      <trkpt lat="43.16266" lon="2.63273">
        <ele>395.7</ele>
        <time>2020-08-30T10:21:56+0200</time>
      </trkpt>
      <trkpt lat="43.16267" lon="2.63275">
        <ele>396</ele>
        <time>2020-08-30T10:21:57+0200</time>
      </trkpt>
      <trkpt lat="43.16267" lon="2.63277">
        <ele>396.4</ele>
        <time>2020-08-30T10:21:59+0200</time>
      </trkpt>
      <trkpt lat="43.16267" lon="2.63278">
        <ele>396.7</ele>
        <time>2020-08-30T10:22:00+0200</time>
      </trkpt>
      <trkpt lat="43.16268" lon="2.63281">
        <ele>397.4</ele>
        <time>2020-08-30T10:22:01+0200</time>
      </trkpt>
      <trkpt lat="43.16269" lon="2.63282">
        <ele>397.8</ele>
        <time>2020-08-30T10:22:03+0200</time>
      </trkpt>
      <trkpt lat="43.1627" lon="2.63284">
        <ele>398.3</ele>
        <time>2020-08-30T10:22:04+0200</time>
      </trkpt>
      <trkpt lat="43.1627" lon="2.63284">
        <ele>398.4</ele>
        <time>2020-08-30T10:22:05+0200</time>
      </trkpt>
      <trkpt lat="43.1627" lon="2.63285">
        <ele>398.6</ele>
        <time>2020-08-30T10:22:06+0200</time>
      </trkpt>
      <trkpt lat="43.1627" lon="2.63286">
        <ele>398.8</ele>
        <time>2020-08-30T10:22:07+0200</time>
      </trkpt>
      <trkpt lat="43.16269" lon="2.63287">
        <ele>398.8</ele>
        <time>2020-08-30T10:22:09+0200</time>
      </trkpt>
      <trkpt lat="43.16269" lon="2.63289">
        <ele>398.8</ele>
        <time>2020-08-30T10:22:10+0200</time>
      </trkpt>
      <trkpt lat="43.16267" lon="2.63291">
        <ele>398.4</ele>
        <time>2020-08-30T10:22:11+0200</time>
      </trkpt>
      <trkpt lat="43.16266" lon="2.63293">
        <ele>398.1</ele>
        <time>2020-08-30T10:22:12+0200</time>
      </trkpt>
      <trkpt lat="43.16265" lon="2.63293">
        <ele>397.8</ele>
        <time>2020-08-30T10:22:13+0200</time>
      </trkpt>
      <trkpt lat="43.16265" lon="2.63294">
        <ele>397.8</ele>
        <time>2020-08-30T10:22:14+0200</time>
      </trkpt>
      <trkpt lat="43.16265" lon="2.63294">
        <ele>397.8</ele>
        <time>2020-08-30T10:22:16+0200</time>
      </trkpt>
      <trkpt lat="43.16265" lon="2.63295">
        <ele>398</ele>
        <time>2020-08-30T10:22:17+0200</time>
      </trkpt>
      <trkpt lat="43.16266" lon="2.63295">
        <ele>398.2</ele>
        <time>2020-08-30T10:22:18+0200</time>
      </trkpt>
      <trkpt lat="43.16266" lon="2.63296">
        <ele>398.4</ele>
        <time>2020-08-30T10:22:19+0200</time>
      </trkpt>
      <trkpt lat="43.16267" lon="2.63296">
        <ele>398.9</ele>
        <time>2020-08-30T10:22:21+0200</time>
      </trkpt>
      <trkpt lat="43.16268" lon="2.63297">
        <ele>399.8</ele>
        <time>2020-08-30T10:22:22+0200</time>
      </trkpt>
      <trkpt lat="43.16269" lon="2.63297">
        <ele>400.4</ele>
        <time>2020-08-30T10:22:23+0200</time>
      </trkpt>
      <trkpt lat="43.1627" lon="2.63299">
        <ele>401.1</ele>
        <time>2020-08-30T10:22:25+0200</time>
      </trkpt>
      <trkpt lat="43.1627" lon="2.633">
        <ele>401.5</ele>
        <time>2020-08-30T10:22:26+0200</time>
      </trkpt>
      <trkpt lat="43.16271" lon="2.63301">
        <ele>402</ele>
        <time>2020-08-30T10:22:27+0200</time>
      </trkpt>
      <trkpt lat="43.16271" lon="2.63303">
        <ele>402.3</ele>
        <time>2020-08-30T10:22:28+0200</time>
      </trkpt>
      <trkpt lat="43.16271" lon="2.63305">
        <ele>403.2</ele>
        <time>2020-08-30T10:22:30+0200</time>
      </trkpt>
      <trkpt lat="43.16272" lon="2.63306">
        <ele>403.6</ele>
        <time>2020-08-30T10:22:31+0200</time>
      </trkpt>
      <trkpt lat="43.16273" lon="2.63309">
        <ele>404.5</ele>
        <time>2020-08-30T10:22:32+0200</time>
      </trkpt>
      <trkpt lat="43.16273" lon="2.63311">
        <ele>404.7</ele>
        <time>2020-08-30T10:22:33+0200</time>
      </trkpt>
      <trkpt lat="43.16274" lon="2.63314">
        <ele>405.5</ele>
        <time>2020-08-30T10:22:34+0200</time>
      </trkpt>
      <trkpt lat="43.16274" lon="2.63315">
        <ele>406</ele>
        <time>2020-08-30T10:22:36+0200</time>
      </trkpt>
      <trkpt lat="43.16275" lon="2.63316">
        <ele>406.5</ele>
        <time>2020-08-30T10:22:37+0200</time>
      </trkpt>
      <trkpt lat="43.16276" lon="2.63317">
        <ele>407.5</ele>
        <time>2020-08-30T10:22:38+0200</time>
      </trkpt>
      <trkpt lat="43.16277" lon="2.63318">
        <ele>408.3</ele>
        <time>2020-08-30T10:22:39+0200</time>
      </trkpt>
      <trkpt lat="43.16278" lon="2.63319">
        <ele>409.4</ele>
        <time>2020-08-30T10:22:41+0200</time>
      </trkpt>
      <trkpt lat="43.1628" lon="2.63321">
        <ele>409.4</ele>
        <time>2020-08-30T10:22:42+0200</time>
      </trkpt>
      <trkpt lat="43.16281" lon="2.63321">
        <ele>409.4</ele>
        <time>2020-08-30T10:22:44+0200</time>
      </trkpt>
      <trkpt lat="43.16282" lon="2.63322">
        <ele>409.5</ele>
        <time>2020-08-30T10:22:46+0200</time>
      </trkpt>
      <trkpt lat="43.16283" lon="2.63323">
        <ele>409.6</ele>
        <time>2020-08-30T10:22:47+0200</time>
      </trkpt>
      <trkpt lat="43.16283" lon="2.63324">
        <ele>409.7</ele>
        <time>2020-08-30T10:22:48+0200</time>
      </trkpt>
      <trkpt lat="43.16284" lon="2.63326">
        <ele>409.9</ele>
        <time>2020-08-30T10:22:49+0200</time>
      </trkpt>
      <trkpt lat="43.16284" lon="2.63327">
        <ele>410.1</ele>
        <time>2020-08-30T10:22:50+0200</time>
      </trkpt>
      <trkpt lat="43.16285" lon="2.63328">
        <ele>410.3</ele>
        <time>2020-08-30T10:22:51+0200</time>
      </trkpt>
      <trkpt lat="43.16285" lon="2.6333">
        <ele>410.4</ele>
        <time>2020-08-30T10:22:52+0200</time>
      </trkpt>
      <trkpt lat="43.16286" lon="2.63331">
        <ele>410.6</ele>
        <time>2020-08-30T10:22:54+0200</time>
      </trkpt>
      <trkpt lat="43.16287" lon="2.63332">
        <ele>410.7</ele>
        <time>2020-08-30T10:22:56+0200</time>
      </trkpt>
      <trkpt lat="43.16287" lon="2.63333">
        <ele>410.9</ele>
        <time>2020-08-30T10:22:57+0200</time>
      </trkpt>
      <trkpt lat="43.1629" lon="2.63336">
        <ele>410.6</ele>
        <time>2020-08-30T10:22:59+0200</time>
      </trkpt>
      <trkpt lat="43.1629" lon="2.63337">
        <ele>410.5</ele>
        <time>2020-08-30T10:23:00+0200</time>
      </trkpt>
      <trkpt lat="43.16292" lon="2.63339">
        <ele>410.3</ele>
        <time>2020-08-30T10:23:01+0200</time>
      </trkpt>
      <trkpt lat="43.16293" lon="2.63342">
        <ele>410</ele>
        <time>2020-08-30T10:23:03+0200</time>
      </trkpt>
      <trkpt lat="43.16293" lon="2.63343">
        <ele>409.9</ele>
        <time>2020-08-30T10:23:04+0200</time>
      </trkpt>
      <trkpt lat="43.16293" lon="2.63345">
        <ele>409.8</ele>
        <time>2020-08-30T10:23:06+0200</time>
      </trkpt>
      <trkpt lat="43.16293" lon="2.63346">
        <ele>409.7</ele>
        <time>2020-08-30T10:23:07+0200</time>
      </trkpt>
      <trkpt lat="43.16293" lon="2.63348">
        <ele>409.6</ele>
        <time>2020-08-30T10:23:08+0200</time>
      </trkpt>
      <trkpt lat="43.16294" lon="2.63349">
        <ele>409.6</ele>
        <time>2020-08-30T10:23:09+0200</time>
      </trkpt>
      <trkpt lat="43.16295" lon="2.6335">
        <ele>409.6</ele>
        <time>2020-08-30T10:23:10+0200</time>
      </trkpt>
      <trkpt lat="43.16296" lon="2.63352">
        <ele>409.7</ele>
        <time>2020-08-30T10:23:11+0200</time>
      </trkpt>
      <trkpt lat="43.16297" lon="2.63355">
        <ele>409.9</ele>
        <time>2020-08-30T10:23:13+0200</time>
      </trkpt>
      <trkpt lat="43.16297" lon="2.63356">
        <ele>409.9</ele>
        <time>2020-08-30T10:23:14+0200</time>
      </trkpt>
      <trkpt lat="43.16298" lon="2.63358">
        <ele>409.9</ele>
        <time>2020-08-30T10:23:15+0200</time>
      </trkpt>
      <trkpt lat="43.16298" lon="2.63361">
        <ele>410.1</ele>
        <time>2020-08-30T10:23:17+0200</time>
      </trkpt>
      <trkpt lat="43.163" lon="2.63364">
        <ele>410.6</ele>
        <time>2020-08-30T10:23:18+0200</time>
      </trkpt>
      <trkpt lat="43.16301" lon="2.63365">
        <ele>410.9</ele>
        <time>2020-08-30T10:23:19+0200</time>
      </trkpt>
      <trkpt lat="43.16303" lon="2.63368">
        <ele>411.8</ele>
        <time>2020-08-30T10:23:20+0200</time>
      </trkpt>
      <trkpt lat="43.16304" lon="2.63369">
        <ele>412.3</ele>
        <time>2020-08-30T10:23:22+0200</time>
      </trkpt>
      <trkpt lat="43.16305" lon="2.63371">
        <ele>412.8</ele>
        <time>2020-08-30T10:23:23+0200</time>
      </trkpt>
      <trkpt lat="43.16306" lon="2.63372">
        <ele>413.4</ele>
        <time>2020-08-30T10:23:24+0200</time>
      </trkpt>
      <trkpt lat="43.16306" lon="2.63374">
        <ele>413.3</ele>
        <time>2020-08-30T10:23:25+0200</time>
      </trkpt>
      <trkpt lat="43.16308" lon="2.63377">
        <ele>413.1</ele>
        <time>2020-08-30T10:23:27+0200</time>
      </trkpt>
      <trkpt lat="43.16309" lon="2.63381">
        <ele>413</ele>
        <time>2020-08-30T10:23:28+0200</time>
      </trkpt>
      <trkpt lat="43.16309" lon="2.63382">
        <ele>412.9</ele>
        <time>2020-08-30T10:23:29+0200</time>
      </trkpt>
      <trkpt lat="43.16311" lon="2.63386">
        <ele>412.8</ele>
        <time>2020-08-30T10:23:30+0200</time>
      </trkpt>
      <trkpt lat="43.16311" lon="2.63388">
        <ele>412.8</ele>
        <time>2020-08-30T10:23:31+0200</time>
      </trkpt>
      <trkpt lat="43.16314" lon="2.63394">
        <ele>410.5</ele>
        <time>2020-08-30T10:23:32+0200</time>
      </trkpt>
      <trkpt lat="43.16315" lon="2.63397">
        <ele>409.2</ele>
        <time>2020-08-30T10:23:33+0200</time>
      </trkpt>
      <trkpt lat="43.16316" lon="2.63399">
        <ele>408.7</ele>
        <time>2020-08-30T10:23:34+0200</time>
      </trkpt>
      <trkpt lat="43.16318" lon="2.63403">
        <ele>407.7</ele>
        <time>2020-08-30T10:23:35+0200</time>
      </trkpt>
      <trkpt lat="43.16319" lon="2.63405">
        <ele>407.5</ele>
        <time>2020-08-30T10:23:36+0200</time>
      </trkpt>
      <trkpt lat="43.1632" lon="2.63407">
        <ele>407.2</ele>
        <time>2020-08-30T10:23:37+0200</time>
      </trkpt>
      <trkpt lat="43.16321" lon="2.6341">
        <ele>406.8</ele>
        <time>2020-08-30T10:23:39+0200</time>
      </trkpt>
      <trkpt lat="43.16321" lon="2.63411">
        <ele>406.7</ele>
        <time>2020-08-30T10:23:40+0200</time>
      </trkpt>
      <trkpt lat="43.16322" lon="2.63414">
        <ele>406.6</ele>
        <time>2020-08-30T10:23:41+0200</time>
      </trkpt>
      <trkpt lat="43.16324" lon="2.63417">
        <ele>406.8</ele>
        <time>2020-08-30T10:23:42+0200</time>
      </trkpt>
      <trkpt lat="43.16325" lon="2.63418">
        <ele>406.8</ele>
        <time>2020-08-30T10:23:43+0200</time>
      </trkpt>
      <trkpt lat="43.16327" lon="2.63422">
        <ele>406.8</ele>
        <time>2020-08-30T10:23:44+0200</time>
      </trkpt>
      <trkpt lat="43.16328" lon="2.63423">
        <ele>406.8</ele>
        <time>2020-08-30T10:23:45+0200</time>
      </trkpt>
      <trkpt lat="43.16331" lon="2.63425">
        <ele>407.5</ele>
        <time>2020-08-30T10:23:46+0200</time>
      </trkpt>
      <trkpt lat="43.16332" lon="2.63426">
        <ele>407.8</ele>
        <time>2020-08-30T10:23:47+0200</time>
      </trkpt>
      <trkpt lat="43.16335" lon="2.63428">
        <ele>407.6</ele>
        <time>2020-08-30T10:23:48+0200</time>
      </trkpt>
      <trkpt lat="43.16338" lon="2.63432">
        <ele>406.5</ele>
        <time>2020-08-30T10:23:50+0200</time>
      </trkpt>
      <trkpt lat="43.16339" lon="2.63434">
        <ele>406.1</ele>
        <time>2020-08-30T10:23:51+0200</time>
      </trkpt>
      <trkpt lat="43.1634" lon="2.63435">
        <ele>405.7</ele>
        <time>2020-08-30T10:23:52+0200</time>
      </trkpt>
      <trkpt lat="43.16342" lon="2.6344">
        <ele>404.9</ele>
        <time>2020-08-30T10:23:53+0200</time>
      </trkpt>
      <trkpt lat="43.16343" lon="2.63442">
        <ele>404.5</ele>
        <time>2020-08-30T10:23:54+0200</time>
      </trkpt>
      <trkpt lat="43.16344" lon="2.63444">
        <ele>404.3</ele>
        <time>2020-08-30T10:23:56+0200</time>
      </trkpt>
      <trkpt lat="43.16345" lon="2.63445">
        <ele>404.2</ele>
        <time>2020-08-30T10:23:57+0200</time>
      </trkpt>
      <trkpt lat="43.16347" lon="2.63445">
        <ele>404.2</ele>
        <time>2020-08-30T10:23:58+0200</time>
      </trkpt>
      <trkpt lat="43.16349" lon="2.63446">
        <ele>404.3</ele>
        <time>2020-08-30T10:23:59+0200</time>
      </trkpt>
      <trkpt lat="43.16352" lon="2.63446">
        <ele>404.6</ele>
        <time>2020-08-30T10:24:00+0200</time>
      </trkpt>
      <trkpt lat="43.16353" lon="2.63446">
        <ele>404.7</ele>
        <time>2020-08-30T10:24:01+0200</time>
      </trkpt>
      <trkpt lat="43.16355" lon="2.63446">
        <ele>404.9</ele>
        <time>2020-08-30T10:24:02+0200</time>
      </trkpt>
      <trkpt lat="43.16358" lon="2.63447">
        <ele>405.1</ele>
        <time>2020-08-30T10:24:04+0200</time>
      </trkpt>
      <trkpt lat="43.16361" lon="2.63449">
        <ele>405.1</ele>
        <time>2020-08-30T10:24:05+0200</time>
      </trkpt>
      <trkpt lat="43.16362" lon="2.63449">
        <ele>404.7</ele>
        <time>2020-08-30T10:24:06+0200</time>
      </trkpt>
      <trkpt lat="43.16365" lon="2.63451">
        <ele>403.7</ele>
        <time>2020-08-30T10:24:07+0200</time>
      </trkpt>
      <trkpt lat="43.16368" lon="2.63454">
        <ele>402.6</ele>
        <time>2020-08-30T10:24:08+0200</time>
      </trkpt>
      <trkpt lat="43.16369" lon="2.63454">
        <ele>402.3</ele>
        <time>2020-08-30T10:24:09+0200</time>
      </trkpt>
      <trkpt lat="43.16373" lon="2.63457">
        <ele>401</ele>
        <time>2020-08-30T10:24:11+0200</time>
      </trkpt>
      <trkpt lat="43.16375" lon="2.63457">
        <ele>400.7</ele>
        <time>2020-08-30T10:24:12+0200</time>
      </trkpt>
      <trkpt lat="43.16376" lon="2.63458">
        <ele>400.4</ele>
        <time>2020-08-30T10:24:13+0200</time>
      </trkpt>
      <trkpt lat="43.16378" lon="2.63459">
        <ele>399.9</ele>
        <time>2020-08-30T10:24:14+0200</time>
      </trkpt>
      <trkpt lat="43.16382" lon="2.63459">
        <ele>399.2</ele>
        <time>2020-08-30T10:24:16+0200</time>
      </trkpt>
      <trkpt lat="43.16384" lon="2.6346">
        <ele>398.8</ele>
        <time>2020-08-30T10:24:17+0200</time>
      </trkpt>
      <trkpt lat="43.16387" lon="2.63461">
        <ele>398.2</ele>
        <time>2020-08-30T10:24:19+0200</time>
      </trkpt>
      <trkpt lat="43.1639" lon="2.63463">
        <ele>397.6</ele>
        <time>2020-08-30T10:24:20+0200</time>
      </trkpt>
      <trkpt lat="43.16391" lon="2.63464">
        <ele>397.4</ele>
        <time>2020-08-30T10:24:21+0200</time>
      </trkpt>
      <trkpt lat="43.16394" lon="2.63466">
        <ele>396.9</ele>
        <time>2020-08-30T10:24:23+0200</time>
      </trkpt>
      <trkpt lat="43.16396" lon="2.63467">
        <ele>396.7</ele>
        <time>2020-08-30T10:24:24+0200</time>
      </trkpt>
      <trkpt lat="43.16397" lon="2.63467">
        <ele>396.6</ele>
        <time>2020-08-30T10:24:25+0200</time>
      </trkpt>
      <trkpt lat="43.16398" lon="2.63467">
        <ele>396.4</ele>
        <time>2020-08-30T10:24:26+0200</time>
      </trkpt>
      <trkpt lat="43.16399" lon="2.63467">
        <ele>396.4</ele>
        <time>2020-08-30T10:24:27+0200</time>
      </trkpt>
      <trkpt lat="43.164" lon="2.63466">
        <ele>396.3</ele>
        <time>2020-08-30T10:24:28+0200</time>
      </trkpt>
      <trkpt lat="43.16402" lon="2.63465">
        <ele>396.1</ele>
        <time>2020-08-30T10:24:30+0200</time>
      </trkpt>
      <trkpt lat="43.16402" lon="2.63463">
        <ele>396.1</ele>
        <time>2020-08-30T10:24:31+0200</time>
      </trkpt>
      <trkpt lat="43.16404" lon="2.63461">
        <ele>395.8</ele>
        <time>2020-08-30T10:24:32+0200</time>
      </trkpt>
      <trkpt lat="43.16405" lon="2.6346">
        <ele>395.7</ele>
        <time>2020-08-30T10:24:33+0200</time>
      </trkpt>
      <trkpt lat="43.16408" lon="2.63458">
        <ele>395.2</ele>
        <time>2020-08-30T10:24:35+0200</time>
      </trkpt>
      <trkpt lat="43.16409" lon="2.63458">
        <ele>395.1</ele>
        <time>2020-08-30T10:24:36+0200</time>
      </trkpt>
      <trkpt lat="43.16413" lon="2.63457">
        <ele>394.5</ele>
        <time>2020-08-30T10:24:37+0200</time>
      </trkpt>
      <trkpt lat="43.16416" lon="2.63456">
        <ele>394</ele>
        <time>2020-08-30T10:24:38+0200</time>
      </trkpt>
      <trkpt lat="43.16418" lon="2.63456">
        <ele>393.7</ele>
        <time>2020-08-30T10:24:40+0200</time>
      </trkpt>
      <trkpt lat="43.16419" lon="2.63456">
        <ele>393.5</ele>
        <time>2020-08-30T10:24:41+0200</time>
      </trkpt>
      <trkpt lat="43.16421" lon="2.63456">
        <ele>393.2</ele>
        <time>2020-08-30T10:24:42+0200</time>
      </trkpt>
      <trkpt lat="43.16424" lon="2.63457">
        <ele>392.7</ele>
        <time>2020-08-30T10:24:43+0200</time>
      </trkpt>
      <trkpt lat="43.16428" lon="2.63457">
        <ele>392.1</ele>
        <time>2020-08-30T10:24:44+0200</time>
      </trkpt>
      <trkpt lat="43.16431" lon="2.63459">
        <ele>391.7</ele>
        <time>2020-08-30T10:24:46+0200</time>
      </trkpt>
      <trkpt lat="43.16432" lon="2.6346">
        <ele>391.6</ele>
        <time>2020-08-30T10:24:47+0200</time>
      </trkpt>
      <trkpt lat="43.16435" lon="2.63462">
        <ele>391.3</ele>
        <time>2020-08-30T10:24:48+0200</time>
      </trkpt>
      <trkpt lat="43.16438" lon="2.63463">
        <ele>391</ele>
        <time>2020-08-30T10:24:50+0200</time>
      </trkpt>
      <trkpt lat="43.16439" lon="2.63464">
        <ele>390.9</ele>
        <time>2020-08-30T10:24:51+0200</time>
      </trkpt>
      <trkpt lat="43.16443" lon="2.63466">
        <ele>390.6</ele>
        <time>2020-08-30T10:24:52+0200</time>
      </trkpt>
      <trkpt lat="43.16444" lon="2.63467">
        <ele>390.5</ele>
        <time>2020-08-30T10:24:53+0200</time>
      </trkpt>
      <trkpt lat="43.16446" lon="2.63469">
        <ele>390.3</ele>
        <time>2020-08-30T10:24:54+0200</time>
      </trkpt>
      <trkpt lat="43.16449" lon="2.6347">
        <ele>390</ele>
        <time>2020-08-30T10:24:55+0200</time>
      </trkpt>
      <trkpt lat="43.16452" lon="2.63472">
        <ele>389.6</ele>
        <time>2020-08-30T10:24:56+0200</time>
      </trkpt>
      <trkpt lat="43.16453" lon="2.63472">
        <ele>389.5</ele>
        <time>2020-08-30T10:24:57+0200</time>
      </trkpt>
      <trkpt lat="43.16455" lon="2.63473">
        <ele>389</ele>
        <time>2020-08-30T10:24:58+0200</time>
      </trkpt>
      <trkpt lat="43.16457" lon="2.63475">
        <ele>388.3</ele>
        <time>2020-08-30T10:25:00+0200</time>
      </trkpt>
      <trkpt lat="43.16459" lon="2.63477">
        <ele>387.6</ele>
        <time>2020-08-30T10:25:01+0200</time>
      </trkpt>
      <trkpt lat="43.1646" lon="2.63478">
        <ele>387.3</ele>
        <time>2020-08-30T10:25:02+0200</time>
      </trkpt>
      <trkpt lat="43.16463" lon="2.6348">
        <ele>386.6</ele>
        <time>2020-08-30T10:25:03+0200</time>
      </trkpt>
      <trkpt lat="43.16464" lon="2.63481">
        <ele>386.4</ele>
        <time>2020-08-30T10:25:04+0200</time>
      </trkpt>
      <trkpt lat="43.16467" lon="2.63483">
        <ele>385.8</ele>
        <time>2020-08-30T10:25:05+0200</time>
      </trkpt>
      <trkpt lat="43.16467" lon="2.63484">
        <ele>385.6</ele>
        <time>2020-08-30T10:25:06+0200</time>
      </trkpt>
      <trkpt lat="43.1647" lon="2.63487">
        <ele>385.2</ele>
        <time>2020-08-30T10:25:08+0200</time>
      </trkpt>
      <trkpt lat="43.1647" lon="2.63488">
        <ele>385</ele>
        <time>2020-08-30T10:25:09+0200</time>
      </trkpt>
      <trkpt lat="43.16473" lon="2.6349">
        <ele>384.6</ele>
        <time>2020-08-30T10:25:10+0200</time>
      </trkpt>
      <trkpt lat="43.16474" lon="2.63491">
        <ele>384.5</ele>
        <time>2020-08-30T10:25:11+0200</time>
      </trkpt>
      <trkpt lat="43.16475" lon="2.63493">
        <ele>384.2</ele>
        <time>2020-08-30T10:25:12+0200</time>
      </trkpt>
      <trkpt lat="43.16477" lon="2.63496">
        <ele>383.9</ele>
        <time>2020-08-30T10:25:14+0200</time>
      </trkpt>
      <trkpt lat="43.16479" lon="2.635">
        <ele>383.5</ele>
        <time>2020-08-30T10:25:15+0200</time>
      </trkpt>
      <trkpt lat="43.1648" lon="2.63501">
        <ele>383.2</ele>
        <time>2020-08-30T10:25:16+0200</time>
      </trkpt>
      <trkpt lat="43.16482" lon="2.63503">
        <ele>382.3</ele>
        <time>2020-08-30T10:25:17+0200</time>
      </trkpt>
      <trkpt lat="43.16485" lon="2.63507">
        <ele>381.2</ele>
        <time>2020-08-30T10:25:19+0200</time>
      </trkpt>
      <trkpt lat="43.16485" lon="2.63508">
        <ele>380.9</ele>
        <time>2020-08-30T10:25:20+0200</time>
      </trkpt>
      <trkpt lat="43.16488" lon="2.63512">
        <ele>379.9</ele>
        <time>2020-08-30T10:25:21+0200</time>
      </trkpt>
      <trkpt lat="43.16488" lon="2.63513">
        <ele>379.7</ele>
        <time>2020-08-30T10:25:22+0200</time>
      </trkpt>
      <trkpt lat="43.16491" lon="2.63517">
        <ele>378.8</ele>
        <time>2020-08-30T10:25:23+0200</time>
      </trkpt>
      <trkpt lat="43.16492" lon="2.63519">
        <ele>378.6</ele>
        <time>2020-08-30T10:25:24+0200</time>
      </trkpt>
      <trkpt lat="43.16494" lon="2.63521">
        <ele>378.2</ele>
        <time>2020-08-30T10:25:26+0200</time>
      </trkpt>
      <trkpt lat="43.16496" lon="2.63525">
        <ele>377.8</ele>
        <time>2020-08-30T10:25:27+0200</time>
      </trkpt>
      <trkpt lat="43.16498" lon="2.63528">
        <ele>377.5</ele>
        <time>2020-08-30T10:25:28+0200</time>
      </trkpt>
      <trkpt lat="43.16499" lon="2.63531">
        <ele>376.9</ele>
        <time>2020-08-30T10:25:29+0200</time>
      </trkpt>
      <trkpt lat="43.16502" lon="2.63536">
        <ele>375.8</ele>
        <time>2020-08-30T10:25:30+0200</time>
      </trkpt>
      <trkpt lat="43.16503" lon="2.63537">
        <ele>375.3</ele>
        <time>2020-08-30T10:25:31+0200</time>
      </trkpt>
      <trkpt lat="43.16504" lon="2.63539">
        <ele>374.9</ele>
        <time>2020-08-30T10:25:33+0200</time>
      </trkpt>
      <trkpt lat="43.16505" lon="2.6354">
        <ele>374.7</ele>
        <time>2020-08-30T10:25:34+0200</time>
      </trkpt>
      <trkpt lat="43.16509" lon="2.63542">
        <ele>374.4</ele>
        <time>2020-08-30T10:25:35+0200</time>
      </trkpt>
      <trkpt lat="43.1651" lon="2.63543">
        <ele>374.3</ele>
        <time>2020-08-30T10:25:36+0200</time>
      </trkpt>
      <trkpt lat="43.16511" lon="2.63544">
        <ele>374.2</ele>
        <time>2020-08-30T10:25:37+0200</time>
      </trkpt>
      <trkpt lat="43.16512" lon="2.63545">
        <ele>374.1</ele>
        <time>2020-08-30T10:25:38+0200</time>
      </trkpt>
      <trkpt lat="43.16515" lon="2.63548">
        <ele>373.9</ele>
        <time>2020-08-30T10:25:40+0200</time>
      </trkpt>
      <trkpt lat="43.16516" lon="2.63548">
        <ele>373.9</ele>
        <time>2020-08-30T10:25:41+0200</time>
      </trkpt>
      <trkpt lat="43.16518" lon="2.63551">
        <ele>373.8</ele>
        <time>2020-08-30T10:25:42+0200</time>
      </trkpt>
      <trkpt lat="43.16522" lon="2.63555">
        <ele>374</ele>
        <time>2020-08-30T10:25:44+0200</time>
      </trkpt>
      <trkpt lat="43.16523" lon="2.63556">
        <ele>374.1</ele>
        <time>2020-08-30T10:25:45+0200</time>
      </trkpt>
      <trkpt lat="43.16524" lon="2.63557">
        <ele>374.1</ele>
        <time>2020-08-30T10:25:46+0200</time>
      </trkpt>
      <trkpt lat="43.16527" lon="2.6356">
        <ele>374.1</ele>
        <time>2020-08-30T10:25:47+0200</time>
      </trkpt>
      <trkpt lat="43.16528" lon="2.63561">
        <ele>374.1</ele>
        <time>2020-08-30T10:25:48+0200</time>
      </trkpt>
      <trkpt lat="43.16531" lon="2.63564">
        <ele>373.1</ele>
        <time>2020-08-30T10:25:49+0200</time>
      </trkpt>
      <trkpt lat="43.16532" lon="2.63565">
        <ele>372.8</ele>
        <time>2020-08-30T10:25:50+0200</time>
      </trkpt>
      <trkpt lat="43.16533" lon="2.63566">
        <ele>372.3</ele>
        <time>2020-08-30T10:25:51+0200</time>
      </trkpt>
      <trkpt lat="43.16535" lon="2.63568">
        <ele>371.8</ele>
        <time>2020-08-30T10:25:53+0200</time>
      </trkpt>
      <trkpt lat="43.16536" lon="2.6357">
        <ele>371.3</ele>
        <time>2020-08-30T10:25:54+0200</time>
      </trkpt>
      <trkpt lat="43.16538" lon="2.63573">
        <ele>370.8</ele>
        <time>2020-08-30T10:25:56+0200</time>
      </trkpt>
      <trkpt lat="43.16539" lon="2.63574">
        <ele>370.4</ele>
        <time>2020-08-30T10:25:57+0200</time>
      </trkpt>
      <trkpt lat="43.16541" lon="2.63578">
        <ele>369.8</ele>
        <time>2020-08-30T10:25:59+0200</time>
      </trkpt>
      <trkpt lat="43.16542" lon="2.63579">
        <ele>369.5</ele>
        <time>2020-08-30T10:26:00+0200</time>
      </trkpt>
      <trkpt lat="43.16543" lon="2.6358">
        <ele>369.2</ele>
        <time>2020-08-30T10:26:01+0200</time>
      </trkpt>
      <trkpt lat="43.16544" lon="2.63584">
        <ele>368.7</ele>
        <time>2020-08-30T10:26:02+0200</time>
      </trkpt>
      <trkpt lat="43.16544" lon="2.63586">
        <ele>368.2</ele>
        <time>2020-08-30T10:26:04+0200</time>
      </trkpt>
      <trkpt lat="43.16544" lon="2.63588">
        <ele>367.8</ele>
        <time>2020-08-30T10:26:05+0200</time>
      </trkpt>
      <trkpt lat="43.16545" lon="2.6359">
        <ele>367.4</ele>
        <time>2020-08-30T10:26:06+0200</time>
      </trkpt>
      <trkpt lat="43.16549" lon="2.63592">
        <ele>366.7</ele>
        <time>2020-08-30T10:26:08+0200</time>
      </trkpt>
      <trkpt lat="43.1655" lon="2.63592">
        <ele>366.6</ele>
        <time>2020-08-30T10:26:09+0200</time>
      </trkpt>
      <trkpt lat="43.16552" lon="2.63592">
        <ele>366.7</ele>
        <time>2020-08-30T10:26:10+0200</time>
      </trkpt>
      <trkpt lat="43.16554" lon="2.63592">
        <ele>366.5</ele>
        <time>2020-08-30T10:26:12+0200</time>
      </trkpt>
      <trkpt lat="43.16556" lon="2.63594">
        <ele>365.9</ele>
        <time>2020-08-30T10:26:13+0200</time>
      </trkpt>
      <trkpt lat="43.16559" lon="2.63597">
        <ele>364.3</ele>
        <time>2020-08-30T10:26:15+0200</time>
      </trkpt>
      <trkpt lat="43.16561" lon="2.63597">
        <ele>363.7</ele>
        <time>2020-08-30T10:26:16+0200</time>
      </trkpt>
      <trkpt lat="43.16563" lon="2.63596">
        <ele>363.3</ele>
        <time>2020-08-30T10:26:18+0200</time>
      </trkpt>
      <trkpt lat="43.16564" lon="2.63597">
        <ele>362.7</ele>
        <time>2020-08-30T10:26:19+0200</time>
      </trkpt>
      <trkpt lat="43.16565" lon="2.63599">
        <ele>361.9</ele>
        <time>2020-08-30T10:26:20+0200</time>
      </trkpt>
      <trkpt lat="43.16566" lon="2.63602">
        <ele>361</ele>
        <time>2020-08-30T10:26:21+0200</time>
      </trkpt>
      <trkpt lat="43.16568" lon="2.63605">
        <ele>360</ele>
        <time>2020-08-30T10:26:23+0200</time>
      </trkpt>
      <trkpt lat="43.16569" lon="2.63608">
        <ele>359.3</ele>
        <time>2020-08-30T10:26:24+0200</time>
      </trkpt>
      <trkpt lat="43.16569" lon="2.63608">
        <ele>359.1</ele>
        <time>2020-08-30T10:26:25+0200</time>
      </trkpt>
      <trkpt lat="43.1657" lon="2.63607">
        <ele>358.8</ele>
        <time>2020-08-30T10:26:26+0200</time>
      </trkpt>
      <trkpt lat="43.16573" lon="2.63609">
        <ele>357.7</ele>
        <time>2020-08-30T10:26:27+0200</time>
      </trkpt>
      <trkpt lat="43.16574" lon="2.63611">
        <ele>357</ele>
        <time>2020-08-30T10:26:29+0200</time>
      </trkpt>
      <trkpt lat="43.16576" lon="2.63613">
        <ele>356.2</ele>
        <time>2020-08-30T10:26:30+0200</time>
      </trkpt>
      <trkpt lat="43.16577" lon="2.63614">
        <ele>355.4</ele>
        <time>2020-08-30T10:26:31+0200</time>
      </trkpt>
      <trkpt lat="43.16579" lon="2.63617">
        <ele>354.3</ele>
        <time>2020-08-30T10:26:32+0200</time>
      </trkpt>
      <trkpt lat="43.16581" lon="2.63619">
        <ele>353.3</ele>
        <time>2020-08-30T10:26:34+0200</time>
      </trkpt>
      <trkpt lat="43.16583" lon="2.63622">
        <ele>352.1</ele>
        <time>2020-08-30T10:26:35+0200</time>
      </trkpt>
      <trkpt lat="43.16584" lon="2.63623">
        <ele>351.6</ele>
        <time>2020-08-30T10:26:36+0200</time>
      </trkpt>
      <trkpt lat="43.16586" lon="2.63628">
        <ele>350.1</ele>
        <time>2020-08-30T10:26:37+0200</time>
      </trkpt>
      <trkpt lat="43.16586" lon="2.6363">
        <ele>349.7</ele>
        <time>2020-08-30T10:26:38+0200</time>
      </trkpt>
      <trkpt lat="43.16587" lon="2.63634">
        <ele>348.8</ele>
        <time>2020-08-30T10:26:40+0200</time>
      </trkpt>
      <trkpt lat="43.16587" lon="2.63639">
        <ele>348</ele>
        <time>2020-08-30T10:26:41+0200</time>
      </trkpt>
      <trkpt lat="43.16586" lon="2.63642">
        <ele>347</ele>
        <time>2020-08-30T10:26:42+0200</time>
      </trkpt>
      <trkpt lat="43.16585" lon="2.63647">
        <ele>345.9</ele>
        <time>2020-08-30T10:26:43+0200</time>
      </trkpt>
      <trkpt lat="43.16585" lon="2.63648">
        <ele>345.6</ele>
        <time>2020-08-30T10:26:44+0200</time>
      </trkpt>
      <trkpt lat="43.16583" lon="2.63652">
        <ele>344.8</ele>
        <time>2020-08-30T10:26:45+0200</time>
      </trkpt>
      <trkpt lat="43.16582" lon="2.63653">
        <ele>344.5</ele>
        <time>2020-08-30T10:26:46+0200</time>
      </trkpt>
      <trkpt lat="43.16581" lon="2.63656">
        <ele>343.6</ele>
        <time>2020-08-30T10:26:47+0200</time>
      </trkpt>
      <trkpt lat="43.1658" lon="2.6366">
        <ele>342.5</ele>
        <time>2020-08-30T10:26:49+0200</time>
      </trkpt>
      <trkpt lat="43.16577" lon="2.63664">
        <ele>341.4</ele>
        <time>2020-08-30T10:26:50+0200</time>
      </trkpt>
      <trkpt lat="43.16576" lon="2.63665">
        <ele>341.1</ele>
        <time>2020-08-30T10:26:51+0200</time>
      </trkpt>
      <trkpt lat="43.16574" lon="2.63668">
        <ele>340.4</ele>
        <time>2020-08-30T10:26:52+0200</time>
      </trkpt>
      <trkpt lat="43.16573" lon="2.6367">
        <ele>339.7</ele>
        <time>2020-08-30T10:26:54+0200</time>
      </trkpt>
      <trkpt lat="43.16572" lon="2.63671">
        <ele>339.1</ele>
        <time>2020-08-30T10:26:55+0200</time>
      </trkpt>
      <trkpt lat="43.16573" lon="2.63673">
        <ele>338.4</ele>
        <time>2020-08-30T10:26:56+0200</time>
      </trkpt>
      <trkpt lat="43.16575" lon="2.63675">
        <ele>337.8</ele>
        <time>2020-08-30T10:26:58+0200</time>
      </trkpt>
      <trkpt lat="43.16576" lon="2.63675">
        <ele>337.4</ele>
        <time>2020-08-30T10:26:59+0200</time>
      </trkpt>
      <trkpt lat="43.16579" lon="2.63677">
        <ele>336.6</ele>
        <time>2020-08-30T10:27:01+0200</time>
      </trkpt>
      <trkpt lat="43.16582" lon="2.63678">
        <ele>336</ele>
        <time>2020-08-30T10:27:02+0200</time>
      </trkpt>
      <trkpt lat="43.16584" lon="2.63679">
        <ele>335.4</ele>
        <time>2020-08-30T10:27:03+0200</time>
      </trkpt>
      <trkpt lat="43.16585" lon="2.6368">
        <ele>335</ele>
        <time>2020-08-30T10:27:04+0200</time>
      </trkpt>
      <trkpt lat="43.16586" lon="2.6368">
        <ele>334.5</ele>
        <time>2020-08-30T10:27:05+0200</time>
      </trkpt>
      <trkpt lat="43.16589" lon="2.63682">
        <ele>333.5</ele>
        <time>2020-08-30T10:27:07+0200</time>
      </trkpt>
      <trkpt lat="43.16592" lon="2.63682">
        <ele>332.7</ele>
        <time>2020-08-30T10:27:08+0200</time>
      </trkpt>
      <trkpt lat="43.16593" lon="2.63682">
        <ele>332.5</ele>
        <time>2020-08-30T10:27:09+0200</time>
      </trkpt>
      <trkpt lat="43.16597" lon="2.63682">
        <ele>331.9</ele>
        <time>2020-08-30T10:27:10+0200</time>
      </trkpt>
      <trkpt lat="43.16599" lon="2.63681">
        <ele>331.8</ele>
        <time>2020-08-30T10:27:11+0200</time>
      </trkpt>
      <trkpt lat="43.16602" lon="2.6368">
        <ele>331.4</ele>
        <time>2020-08-30T10:27:12+0200</time>
      </trkpt>
      <trkpt lat="43.16603" lon="2.6368">
        <ele>331.3</ele>
        <time>2020-08-30T10:27:13+0200</time>
      </trkpt>
      <trkpt lat="43.16607" lon="2.6368">
        <ele>330.6</ele>
        <time>2020-08-30T10:27:15+0200</time>
      </trkpt>
      <trkpt lat="43.16608" lon="2.6368">
        <ele>330.4</ele>
        <time>2020-08-30T10:27:16+0200</time>
      </trkpt>
      <trkpt lat="43.16611" lon="2.63679">
        <ele>330</ele>
        <time>2020-08-30T10:27:17+0200</time>
      </trkpt>
      <trkpt lat="43.16613" lon="2.63679">
        <ele>329.3</ele>
        <time>2020-08-30T10:27:19+0200</time>
      </trkpt>
      <trkpt lat="43.16616" lon="2.63682">
        <ele>327.9</ele>
        <time>2020-08-30T10:27:20+0200</time>
      </trkpt>
      <trkpt lat="43.1662" lon="2.63685">
        <ele>326</ele>
        <time>2020-08-30T10:27:21+0200</time>
      </trkpt>
      <trkpt lat="43.16621" lon="2.63686">
        <ele>325.3</ele>
        <time>2020-08-30T10:27:22+0200</time>
      </trkpt>
      <trkpt lat="43.16624" lon="2.63687">
        <ele>324.4</ele>
        <time>2020-08-30T10:27:23+0200</time>
      </trkpt>
      <trkpt lat="43.16626" lon="2.63688">
        <ele>323.7</ele>
        <time>2020-08-30T10:27:25+0200</time>
      </trkpt>
      <trkpt lat="43.16627" lon="2.63689">
        <ele>322.9</ele>
        <time>2020-08-30T10:27:26+0200</time>
      </trkpt>
      <trkpt lat="43.16631" lon="2.63692">
        <ele>321.5</ele>
        <time>2020-08-30T10:27:28+0200</time>
      </trkpt>
      <trkpt lat="43.16633" lon="2.63696">
        <ele>319.6</ele>
        <time>2020-08-30T10:27:29+0200</time>
      </trkpt>
      <trkpt lat="43.16634" lon="2.63699">
        <ele>318.7</ele>
        <time>2020-08-30T10:27:30+0200</time>
      </trkpt>
      <trkpt lat="43.16636" lon="2.63702">
        <ele>317.2</ele>
        <time>2020-08-30T10:27:31+0200</time>
      </trkpt>
      <trkpt lat="43.16638" lon="2.63706">
        <ele>315.4</ele>
        <time>2020-08-30T10:27:33+0200</time>
      </trkpt>
      <trkpt lat="43.16641" lon="2.63709">
        <ele>314</ele>
        <time>2020-08-30T10:27:34+0200</time>
      </trkpt>
      <trkpt lat="43.16642" lon="2.63709">
        <ele>313.5</ele>
        <time>2020-08-30T10:27:35+0200</time>
      </trkpt>
      <trkpt lat="43.16644" lon="2.6371">
        <ele>313</ele>
        <time>2020-08-30T10:27:36+0200</time>
      </trkpt>
      <trkpt lat="43.16646" lon="2.63709">
        <ele>312.6</ele>
        <time>2020-08-30T10:27:38+0200</time>
      </trkpt>
      <trkpt lat="43.1665" lon="2.63707">
        <ele>312.2</ele>
        <time>2020-08-30T10:27:39+0200</time>
      </trkpt>
      <trkpt lat="43.16651" lon="2.63706">
        <ele>312.1</ele>
        <time>2020-08-30T10:27:40+0200</time>
      </trkpt>
      <trkpt lat="43.16653" lon="2.63706">
        <ele>311.7</ele>
        <time>2020-08-30T10:27:41+0200</time>
      </trkpt>
      <trkpt lat="43.16657" lon="2.63706">
        <ele>311</ele>
        <time>2020-08-30T10:27:43+0200</time>
      </trkpt>
      <trkpt lat="43.1666" lon="2.63707">
        <ele>309.9</ele>
        <time>2020-08-30T10:27:44+0200</time>
      </trkpt>
      <trkpt lat="43.16661" lon="2.63708">
        <ele>309.4</ele>
        <time>2020-08-30T10:27:45+0200</time>
      </trkpt>
      <trkpt lat="43.16664" lon="2.63711">
        <ele>308.3</ele>
        <time>2020-08-30T10:27:46+0200</time>
      </trkpt>
      <trkpt lat="43.16664" lon="2.63712">
        <ele>308</ele>
        <time>2020-08-30T10:27:47+0200</time>
      </trkpt>
      <trkpt lat="43.16666" lon="2.63714">
        <ele>307.2</ele>
        <time>2020-08-30T10:27:48+0200</time>
      </trkpt>
      <trkpt lat="43.16668" lon="2.63717">
        <ele>306.4</ele>
        <time>2020-08-30T10:27:50+0200</time>
      </trkpt>
      <trkpt lat="43.16671" lon="2.6372">
        <ele>305.2</ele>
        <time>2020-08-30T10:27:51+0200</time>
      </trkpt>
      <trkpt lat="43.16672" lon="2.63721">
        <ele>304.8</ele>
        <time>2020-08-30T10:27:52+0200</time>
      </trkpt>
      <trkpt lat="43.16675" lon="2.63723">
        <ele>303.7</ele>
        <time>2020-08-30T10:27:54+0200</time>
      </trkpt>
      <trkpt lat="43.16676" lon="2.63724">
        <ele>303.2</ele>
        <time>2020-08-30T10:27:55+0200</time>
      </trkpt>
      <trkpt lat="43.16677" lon="2.63725">
        <ele>302.5</ele>
        <time>2020-08-30T10:27:56+0200</time>
      </trkpt>
      <trkpt lat="43.16679" lon="2.63726">
        <ele>301.8</ele>
        <time>2020-08-30T10:27:57+0200</time>
      </trkpt>
      <trkpt lat="43.16682" lon="2.63729">
        <ele>300.3</ele>
        <time>2020-08-30T10:27:59+0200</time>
      </trkpt>
      <trkpt lat="43.16683" lon="2.6373">
        <ele>299.7</ele>
        <time>2020-08-30T10:28:00+0200</time>
      </trkpt>
      <trkpt lat="43.16684" lon="2.63733">
        <ele>298.7</ele>
        <time>2020-08-30T10:28:01+0200</time>
      </trkpt>
      <trkpt lat="43.16686" lon="2.63735">
        <ele>297.7</ele>
        <time>2020-08-30T10:28:03+0200</time>
      </trkpt>
      <trkpt lat="43.16688" lon="2.63737">
        <ele>296.9</ele>
        <time>2020-08-30T10:28:04+0200</time>
      </trkpt>
      <trkpt lat="43.1669" lon="2.63739">
        <ele>296.1</ele>
        <time>2020-08-30T10:28:06+0200</time>
      </trkpt>
      <trkpt lat="43.16692" lon="2.63741">
        <ele>295.4</ele>
        <time>2020-08-30T10:28:07+0200</time>
      </trkpt>
      <trkpt lat="43.16693" lon="2.63742">
        <ele>295.1</ele>
        <time>2020-08-30T10:28:09+0200</time>
      </trkpt>
      <trkpt lat="43.16693" lon="2.63743">
        <ele>294.8</ele>
        <time>2020-08-30T10:28:10+0200</time>
      </trkpt>
      <trkpt lat="43.16696" lon="2.63746">
        <ele>293.7</ele>
        <time>2020-08-30T10:28:12+0200</time>
      </trkpt>
      <trkpt lat="43.16697" lon="2.63747">
        <ele>293.2</ele>
        <time>2020-08-30T10:28:13+0200</time>
      </trkpt>
      <trkpt lat="43.16698" lon="2.63748">
        <ele>292.8</ele>
        <time>2020-08-30T10:28:15+0200</time>
      </trkpt>
      <trkpt lat="43.16699" lon="2.6375">
        <ele>292.5</ele>
        <time>2020-08-30T10:28:16+0200</time>
      </trkpt>
      <trkpt lat="43.167" lon="2.63751">
        <ele>292</ele>
        <time>2020-08-30T10:28:17+0200</time>
      </trkpt>
      <trkpt lat="43.16702" lon="2.63752">
        <ele>291.5</ele>
        <time>2020-08-30T10:28:18+0200</time>
      </trkpt>
      <trkpt lat="43.16704" lon="2.63753">
        <ele>290.7</ele>
        <time>2020-08-30T10:28:20+0200</time>
      </trkpt>
      <trkpt lat="43.16708" lon="2.63754">
        <ele>289.7</ele>
        <time>2020-08-30T10:28:21+0200</time>
      </trkpt>
      <trkpt lat="43.16709" lon="2.63756">
        <ele>289.2</ele>
        <time>2020-08-30T10:28:22+0200</time>
      </trkpt>
      <trkpt lat="43.1671" lon="2.63756">
        <ele>288.9</ele>
        <time>2020-08-30T10:28:23+0200</time>
      </trkpt>
      <trkpt lat="43.16712" lon="2.63756">
        <ele>288.6</ele>
        <time>2020-08-30T10:28:24+0200</time>
      </trkpt>
      <trkpt lat="43.16715" lon="2.63755">
        <ele>288.6</ele>
        <time>2020-08-30T10:28:26+0200</time>
      </trkpt>
      <trkpt lat="43.16719" lon="2.63755">
        <ele>288</ele>
        <time>2020-08-30T10:28:27+0200</time>
      </trkpt>
      <trkpt lat="43.16721" lon="2.63755">
        <ele>287.8</ele>
        <time>2020-08-30T10:28:28+0200</time>
      </trkpt>
      <trkpt lat="43.16725" lon="2.63755">
        <ele>287.2</ele>
        <time>2020-08-30T10:28:29+0200</time>
      </trkpt>
      <trkpt lat="43.16726" lon="2.63755">
        <ele>287</ele>
        <time>2020-08-30T10:28:30+0200</time>
      </trkpt>
      <trkpt lat="43.1673" lon="2.63755">
        <ele>286.2</ele>
        <time>2020-08-30T10:28:32+0200</time>
      </trkpt>
      <trkpt lat="43.16732" lon="2.63755">
        <ele>285.8</ele>
        <time>2020-08-30T10:28:33+0200</time>
      </trkpt>
      <trkpt lat="43.16736" lon="2.63756">
        <ele>284.7</ele>
        <time>2020-08-30T10:28:34+0200</time>
      </trkpt>
      <trkpt lat="43.16739" lon="2.63758">
        <ele>283.8</ele>
        <time>2020-08-30T10:28:35+0200</time>
      </trkpt>
      <trkpt lat="43.16742" lon="2.63762">
        <ele>282.8</ele>
        <time>2020-08-30T10:28:37+0200</time>
      </trkpt>
      <trkpt lat="43.16745" lon="2.63765">
        <ele>282</ele>
        <time>2020-08-30T10:28:38+0200</time>
      </trkpt>
      <trkpt lat="43.16747" lon="2.63769">
        <ele>281.2</ele>
        <time>2020-08-30T10:28:40+0200</time>
      </trkpt>
      <trkpt lat="43.16749" lon="2.63772">
        <ele>280.7</ele>
        <time>2020-08-30T10:28:41+0200</time>
      </trkpt>
      <trkpt lat="43.16751" lon="2.63776">
        <ele>280</ele>
        <time>2020-08-30T10:28:42+0200</time>
      </trkpt>
      <trkpt lat="43.16752" lon="2.63777">
        <ele>279.7</ele>
        <time>2020-08-30T10:28:43+0200</time>
      </trkpt>
      <trkpt lat="43.16754" lon="2.6378">
        <ele>278.3</ele>
        <time>2020-08-30T10:28:44+0200</time>
      </trkpt>
      <trkpt lat="43.16755" lon="2.6378">
        <ele>277.9</ele>
        <time>2020-08-30T10:28:45+0200</time>
      </trkpt>
      <trkpt lat="43.16756" lon="2.63781">
        <ele>277.3</ele>
        <time>2020-08-30T10:28:46+0200</time>
      </trkpt>
      <trkpt lat="43.16758" lon="2.63781">
        <ele>276.8</ele>
        <time>2020-08-30T10:28:47+0200</time>
      </trkpt>
      <trkpt lat="43.16761" lon="2.63781">
        <ele>276.1</ele>
        <time>2020-08-30T10:28:48+0200</time>
      </trkpt>
      <trkpt lat="43.16762" lon="2.63781">
        <ele>276</ele>
        <time>2020-08-30T10:28:49+0200</time>
      </trkpt>
      <trkpt lat="43.16766" lon="2.63781">
        <ele>275.2</ele>
        <time>2020-08-30T10:28:51+0200</time>
      </trkpt>
      <trkpt lat="43.16767" lon="2.63781">
        <ele>274.7</ele>
        <time>2020-08-30T10:28:52+0200</time>
      </trkpt>
      <trkpt lat="43.1677" lon="2.63781">
        <ele>273.9</ele>
        <time>2020-08-30T10:28:53+0200</time>
      </trkpt>
      <trkpt lat="43.16774" lon="2.63783">
        <ele>272.6</ele>
        <time>2020-08-30T10:28:55+0200</time>
      </trkpt>
      <trkpt lat="43.16776" lon="2.63783">
        <ele>272.1</ele>
        <time>2020-08-30T10:28:56+0200</time>
      </trkpt>
      <trkpt lat="43.1678" lon="2.63785">
        <ele>270.6</ele>
        <time>2020-08-30T10:28:58+0200</time>
      </trkpt>
      <trkpt lat="43.16781" lon="2.63785">
        <ele>270</ele>
        <time>2020-08-30T10:28:59+0200</time>
      </trkpt>
      <trkpt lat="43.16784" lon="2.63787">
        <ele>268.7</ele>
        <time>2020-08-30T10:29:01+0200</time>
      </trkpt>
      <trkpt lat="43.16785" lon="2.63787">
        <ele>268.4</ele>
        <time>2020-08-30T10:29:02+0200</time>
      </trkpt>
      <trkpt lat="43.16789" lon="2.63789">
        <ele>267</ele>
        <time>2020-08-30T10:29:03+0200</time>
      </trkpt>
      <trkpt lat="43.1679" lon="2.6379">
        <ele>266.4</ele>
        <time>2020-08-30T10:29:04+0200</time>
      </trkpt>
      <trkpt lat="43.16792" lon="2.63791">
        <ele>265.7</ele>
        <time>2020-08-30T10:29:05+0200</time>
      </trkpt>
      <trkpt lat="43.16795" lon="2.63794">
        <ele>264.3</ele>
        <time>2020-08-30T10:29:07+0200</time>
      </trkpt>
      <trkpt lat="43.16798" lon="2.63797">
        <ele>262.9</ele>
        <time>2020-08-30T10:29:08+0200</time>
      </trkpt>
      <trkpt lat="43.16799" lon="2.63798">
        <ele>262.6</ele>
        <time>2020-08-30T10:29:09+0200</time>
      </trkpt>
      <trkpt lat="43.16803" lon="2.63799">
        <ele>261.4</ele>
        <time>2020-08-30T10:29:10+0200</time>
      </trkpt>
      <trkpt lat="43.16804" lon="2.638">
        <ele>261.1</ele>
        <time>2020-08-30T10:29:11+0200</time>
      </trkpt>
      <trkpt lat="43.16808" lon="2.63802">
        <ele>259.8</ele>
        <time>2020-08-30T10:29:13+0200</time>
      </trkpt>
      <trkpt lat="43.16809" lon="2.63803">
        <ele>259.4</ele>
        <time>2020-08-30T10:29:14+0200</time>
      </trkpt>
      <trkpt lat="43.16811" lon="2.63804">
        <ele>259</ele>
        <time>2020-08-30T10:29:15+0200</time>
      </trkpt>
      <trkpt lat="43.16813" lon="2.63805">
        <ele>258.4</ele>
        <time>2020-08-30T10:29:16+0200</time>
      </trkpt>
      <trkpt lat="43.16814" lon="2.63806">
        <ele>258.1</ele>
        <time>2020-08-30T10:29:17+0200</time>
      </trkpt>
      <trkpt lat="43.16817" lon="2.63808">
        <ele>257</ele>
        <time>2020-08-30T10:29:19+0200</time>
      </trkpt>
      <trkpt lat="43.16818" lon="2.63808">
        <ele>256.6</ele>
        <time>2020-08-30T10:29:20+0200</time>
      </trkpt>
      <trkpt lat="43.1682" lon="2.63809">
        <ele>255.8</ele>
        <time>2020-08-30T10:29:21+0200</time>
      </trkpt>
      <trkpt lat="43.16821" lon="2.63809">
        <ele>255.6</ele>
        <time>2020-08-30T10:29:22+0200</time>
      </trkpt>
      <trkpt lat="43.16825" lon="2.6381">
        <ele>254.8</ele>
        <time>2020-08-30T10:29:23+0200</time>
      </trkpt>
      <trkpt lat="43.16828" lon="2.6381">
        <ele>254.1</ele>
        <time>2020-08-30T10:29:25+0200</time>
      </trkpt>
      <trkpt lat="43.16832" lon="2.6381">
        <ele>253.4</ele>
        <time>2020-08-30T10:29:26+0200</time>
      </trkpt>
      <trkpt lat="43.16837" lon="2.63811">
        <ele>251.9</ele>
        <time>2020-08-30T10:29:28+0200</time>
      </trkpt>
      <trkpt lat="43.1684" lon="2.63811">
        <ele>251.2</ele>
        <time>2020-08-30T10:29:29+0200</time>
      </trkpt>
      <trkpt lat="43.16843" lon="2.63812">
        <ele>250.4</ele>
        <time>2020-08-30T10:29:30+0200</time>
      </trkpt>
      <trkpt lat="43.16846" lon="2.63813">
        <ele>249.7</ele>
        <time>2020-08-30T10:29:32+0200</time>
      </trkpt>
      <trkpt lat="43.16847" lon="2.63813">
        <ele>249.4</ele>
        <time>2020-08-30T10:29:33+0200</time>
      </trkpt>
      <trkpt lat="43.1685" lon="2.63815">
        <ele>248.6</ele>
        <time>2020-08-30T10:29:34+0200</time>
      </trkpt>
      <trkpt lat="43.16851" lon="2.63815">
        <ele>248.3</ele>
        <time>2020-08-30T10:29:35+0200</time>
      </trkpt>
      <trkpt lat="43.16855" lon="2.63817">
        <ele>247.6</ele>
        <time>2020-08-30T10:29:36+0200</time>
      </trkpt>
      <trkpt lat="43.16856" lon="2.63818">
        <ele>247.3</ele>
        <time>2020-08-30T10:29:37+0200</time>
      </trkpt>
      <trkpt lat="43.16859" lon="2.63821">
        <ele>246.9</ele>
        <time>2020-08-30T10:29:38+0200</time>
      </trkpt>
      <trkpt lat="43.1686" lon="2.63822">
        <ele>246.7</ele>
        <time>2020-08-30T10:29:39+0200</time>
      </trkpt>
      <trkpt lat="43.16863" lon="2.63825">
        <ele>246.6</ele>
        <time>2020-08-30T10:29:40+0200</time>
      </trkpt>
      <trkpt lat="43.16864" lon="2.63826">
        <ele>246.6</ele>
        <time>2020-08-30T10:29:41+0200</time>
      </trkpt>
      <trkpt lat="43.16867" lon="2.6383">
        <ele>246.8</ele>
        <time>2020-08-30T10:29:43+0200</time>
      </trkpt>
      <trkpt lat="43.16868" lon="2.63832">
        <ele>246.8</ele>
        <time>2020-08-30T10:29:44+0200</time>
      </trkpt>
      <trkpt lat="43.1687" lon="2.63833">
        <ele>247</ele>
        <time>2020-08-30T10:29:45+0200</time>
      </trkpt>
      <trkpt lat="43.16872" lon="2.63835">
        <ele>246.4</ele>
        <time>2020-08-30T10:29:46+0200</time>
      </trkpt>
      <trkpt lat="43.16875" lon="2.63838">
        <ele>245.1</ele>
        <time>2020-08-30T10:29:47+0200</time>
      </trkpt>
      <trkpt lat="43.16876" lon="2.63839">
        <ele>244.5</ele>
        <time>2020-08-30T10:29:48+0200</time>
      </trkpt>
      <trkpt lat="43.1688" lon="2.63844">
        <ele>242.5</ele>
        <time>2020-08-30T10:29:50+0200</time>
      </trkpt>
      <trkpt lat="43.16881" lon="2.63846">
        <ele>241.6</ele>
        <time>2020-08-30T10:29:51+0200</time>
      </trkpt>
      <trkpt lat="43.16882" lon="2.63848">
        <ele>240.7</ele>
        <time>2020-08-30T10:29:52+0200</time>
      </trkpt>
      <trkpt lat="43.16884" lon="2.63851">
        <ele>239.3</ele>
        <time>2020-08-30T10:29:54+0200</time>
      </trkpt>
      <trkpt lat="43.16887" lon="2.63856">
        <ele>237.3</ele>
        <time>2020-08-30T10:29:55+0200</time>
      </trkpt>
      <trkpt lat="43.16889" lon="2.63859">
        <ele>235.9</ele>
        <time>2020-08-30T10:29:57+0200</time>
      </trkpt>
      <trkpt lat="43.16891" lon="2.63862">
        <ele>235</ele>
        <time>2020-08-30T10:29:58+0200</time>
      </trkpt>
      <trkpt lat="43.16893" lon="2.63866">
        <ele>233.8</ele>
        <time>2020-08-30T10:29:59+0200</time>
      </trkpt>
      <trkpt lat="43.16894" lon="2.63867">
        <ele>233.3</ele>
        <time>2020-08-30T10:30:00+0200</time>
      </trkpt>
      <trkpt lat="43.16897" lon="2.63871">
        <ele>231.9</ele>
        <time>2020-08-30T10:30:02+0200</time>
      </trkpt>
      <trkpt lat="43.16897" lon="2.63873">
        <ele>231.5</ele>
        <time>2020-08-30T10:30:03+0200</time>
      </trkpt>
      <trkpt lat="43.16899" lon="2.63876">
        <ele>230</ele>
        <time>2020-08-30T10:30:05+0200</time>
      </trkpt>
      <trkpt lat="43.16902" lon="2.63881">
        <ele>228.4</ele>
        <time>2020-08-30T10:30:06+0200</time>
      </trkpt>
      <trkpt lat="43.16903" lon="2.63883">
        <ele>227.2</ele>
        <time>2020-08-30T10:30:07+0200</time>
      </trkpt>
      <trkpt lat="43.16905" lon="2.63887">
        <ele>225.8</ele>
        <time>2020-08-30T10:30:09+0200</time>
      </trkpt>
      <trkpt lat="43.16908" lon="2.63888">
        <ele>225.4</ele>
        <time>2020-08-30T10:30:10+0200</time>
      </trkpt>
      <trkpt lat="43.16911" lon="2.63889">
        <ele>225.3</ele>
        <time>2020-08-30T10:30:12+0200</time>
      </trkpt>
      <trkpt lat="43.16912" lon="2.6389">
        <ele>225.2</ele>
        <time>2020-08-30T10:30:13+0200</time>
      </trkpt>
      <trkpt lat="43.16913" lon="2.63891">
        <ele>225</ele>
        <time>2020-08-30T10:30:14+0200</time>
      </trkpt>
      <trkpt lat="43.16915" lon="2.63892">
        <ele>224.8</ele>
        <time>2020-08-30T10:30:16+0200</time>
      </trkpt>
      <trkpt lat="43.16917" lon="2.63893">
        <ele>224.6</ele>
        <time>2020-08-30T10:30:17+0200</time>
      </trkpt>
      <trkpt lat="43.1692" lon="2.63894">
        <ele>224.2</ele>
        <time>2020-08-30T10:30:19+0200</time>
      </trkpt>
      <trkpt lat="43.16923" lon="2.63895">
        <ele>223.9</ele>
        <time>2020-08-30T10:30:20+0200</time>
      </trkpt>
      <trkpt lat="43.16923" lon="2.63896">
        <ele>223.9</ele>
        <time>2020-08-30T10:30:21+0200</time>
      </trkpt>
      <trkpt lat="43.16925" lon="2.63897">
        <ele>223.4</ele>
        <time>2020-08-30T10:30:23+0200</time>
      </trkpt>
      <trkpt lat="43.16925" lon="2.639">
        <ele>222.3</ele>
        <time>2020-08-30T10:30:25+0200</time>
      </trkpt>
      <trkpt lat="43.16925" lon="2.63902">
        <ele>221.7</ele>
        <time>2020-08-30T10:30:26+0200</time>
      </trkpt>
      <trkpt lat="43.16925" lon="2.63905">
        <ele>220.5</ele>
        <time>2020-08-30T10:30:27+0200</time>
      </trkpt>
      <trkpt lat="43.16925" lon="2.63907">
        <ele>219.7</ele>
        <time>2020-08-30T10:30:28+0200</time>
      </trkpt>
      <trkpt lat="43.16926" lon="2.6391">
        <ele>218.8</ele>
        <time>2020-08-30T10:30:30+0200</time>
      </trkpt>
      <trkpt lat="43.16926" lon="2.63915">
        <ele>217.1</ele>
        <time>2020-08-30T10:30:31+0200</time>
      </trkpt>
      <trkpt lat="43.16926" lon="2.63916">
        <ele>216.6</ele>
        <time>2020-08-30T10:30:32+0200</time>
      </trkpt>
      <trkpt lat="43.16925" lon="2.63918">
        <ele>215.9</ele>
        <time>2020-08-30T10:30:33+0200</time>
      </trkpt>
      <trkpt lat="43.16925" lon="2.6392">
        <ele>215.2</ele>
        <time>2020-08-30T10:30:34+0200</time>
      </trkpt>
      <trkpt lat="43.16924" lon="2.63922">
        <ele>214.5</ele>
        <time>2020-08-30T10:30:35+0200</time>
      </trkpt>
      <trkpt lat="43.16923" lon="2.63925">
        <ele>213.5</ele>
        <time>2020-08-30T10:30:37+0200</time>
      </trkpt>
      <trkpt lat="43.16921" lon="2.63929">
        <ele>212.3</ele>
        <time>2020-08-30T10:30:38+0200</time>
      </trkpt>
      <trkpt lat="43.1692" lon="2.6393">
        <ele>211.9</ele>
        <time>2020-08-30T10:30:39+0200</time>
      </trkpt>
      <trkpt lat="43.16919" lon="2.63932">
        <ele>211.3</ele>
        <time>2020-08-30T10:30:40+0200</time>
      </trkpt>
      <trkpt lat="43.16919" lon="2.63933">
        <ele>210.7</ele>
        <time>2020-08-30T10:30:41+0200</time>
      </trkpt>
      <trkpt lat="43.16918" lon="2.63935">
        <ele>210.1</ele>
        <time>2020-08-30T10:30:43+0200</time>
      </trkpt>
      <trkpt lat="43.16918" lon="2.63937">
        <ele>209.6</ele>
        <time>2020-08-30T10:30:44+0200</time>
      </trkpt>
      <trkpt lat="43.16919" lon="2.63938">
        <ele>209.1</ele>
        <time>2020-08-30T10:30:45+0200</time>
      </trkpt>
      <trkpt lat="43.16919" lon="2.63942">
        <ele>208</ele>
        <time>2020-08-30T10:30:46+0200</time>
      </trkpt>
      <trkpt lat="43.16919" lon="2.63943">
        <ele>207.5</ele>
        <time>2020-08-30T10:30:47+0200</time>
      </trkpt>
      <trkpt lat="43.16919" lon="2.63945">
        <ele>206.9</ele>
        <time>2020-08-30T10:30:48+0200</time>
      </trkpt>
      <trkpt lat="43.16919" lon="2.6395">
        <ele>205.7</ele>
        <time>2020-08-30T10:30:50+0200</time>
      </trkpt>
      <trkpt lat="43.16919" lon="2.63952">
        <ele>205.1</ele>
        <time>2020-08-30T10:30:51+0200</time>
      </trkpt>
      <trkpt lat="43.16919" lon="2.63954">
        <ele>204.8</ele>
        <time>2020-08-30T10:30:52+0200</time>
      </trkpt>
      <trkpt lat="43.16919" lon="2.63955">
        <ele>204.4</ele>
        <time>2020-08-30T10:30:53+0200</time>
      </trkpt>
      <trkpt lat="43.16918" lon="2.63957">
        <ele>203.9</ele>
        <time>2020-08-30T10:30:54+0200</time>
      </trkpt>
      <trkpt lat="43.16917" lon="2.63959">
        <ele>203.3</ele>
        <time>2020-08-30T10:30:55+0200</time>
      </trkpt>
      <trkpt lat="43.16917" lon="2.63961">
        <ele>202.8</ele>
        <time>2020-08-30T10:30:56+0200</time>
      </trkpt>
      <trkpt lat="43.16915" lon="2.63966">
        <ele>201.5</ele>
        <time>2020-08-30T10:30:58+0200</time>
      </trkpt>
      <trkpt lat="43.16914" lon="2.63971">
        <ele>200.1</ele>
        <time>2020-08-30T10:30:59+0200</time>
      </trkpt>
      <trkpt lat="43.16913" lon="2.63973">
        <ele>199.7</ele>
        <time>2020-08-30T10:31:00+0200</time>
      </trkpt>
      <trkpt lat="43.16912" lon="2.63977">
        <ele>199</ele>
        <time>2020-08-30T10:31:01+0200</time>
      </trkpt>
      <trkpt lat="43.1691" lon="2.63982">
        <ele>198</ele>
        <time>2020-08-30T10:31:03+0200</time>
      </trkpt>
      <trkpt lat="43.16909" lon="2.63984">
        <ele>197.6</ele>
        <time>2020-08-30T10:31:04+0200</time>
      </trkpt>
      <trkpt lat="43.16908" lon="2.63986">
        <ele>197.3</ele>
        <time>2020-08-30T10:31:05+0200</time>
      </trkpt>
      <trkpt lat="43.16905" lon="2.63991">
        <ele>196.3</ele>
        <time>2020-08-30T10:31:07+0200</time>
      </trkpt>
      <trkpt lat="43.16903" lon="2.63996">
        <ele>195.3</ele>
        <time>2020-08-30T10:31:08+0200</time>
      </trkpt>
      <trkpt lat="43.16902" lon="2.63999">
        <ele>194.8</ele>
        <time>2020-08-30T10:31:09+0200</time>
      </trkpt>
      <trkpt lat="43.169" lon="2.64005">
        <ele>193.5</ele>
        <time>2020-08-30T10:31:11+0200</time>
      </trkpt>
      <trkpt lat="43.169" lon="2.64007">
        <ele>193</ele>
        <time>2020-08-30T10:31:12+0200</time>
      </trkpt>
      <trkpt lat="43.16899" lon="2.64009">
        <ele>192.5</ele>
        <time>2020-08-30T10:31:13+0200</time>
      </trkpt>
      <trkpt lat="43.16898" lon="2.64014">
        <ele>191.5</ele>
        <time>2020-08-30T10:31:14+0200</time>
      </trkpt>
      <trkpt lat="43.16895" lon="2.64017">
        <ele>190.6</ele>
        <time>2020-08-30T10:31:15+0200</time>
      </trkpt>
      <trkpt lat="43.16895" lon="2.64019">
        <ele>190.3</ele>
        <time>2020-08-30T10:31:16+0200</time>
      </trkpt>
      <trkpt lat="43.16892" lon="2.64021">
        <ele>189.6</ele>
        <time>2020-08-30T10:31:17+0200</time>
      </trkpt>
      <trkpt lat="43.1689" lon="2.64024">
        <ele>189</ele>
        <time>2020-08-30T10:31:18+0200</time>
      </trkpt>
      <trkpt lat="43.16888" lon="2.64025">
        <ele>188.6</ele>
        <time>2020-08-30T10:31:20+0200</time>
      </trkpt>
      <trkpt lat="43.16886" lon="2.64028">
        <ele>187.9</ele>
        <time>2020-08-30T10:31:21+0200</time>
      </trkpt>
      <trkpt lat="43.16885" lon="2.6403">
        <ele>187.8</ele>
        <time>2020-08-30T10:31:22+0200</time>
      </trkpt>
      <trkpt lat="43.16882" lon="2.64032">
        <ele>187.3</ele>
        <time>2020-08-30T10:31:23+0200</time>
      </trkpt>
      <trkpt lat="43.16879" lon="2.64035">
        <ele>186.7</ele>
        <time>2020-08-30T10:31:24+0200</time>
      </trkpt>
      <trkpt lat="43.16877" lon="2.64036">
        <ele>186.5</ele>
        <time>2020-08-30T10:31:25+0200</time>
      </trkpt>
      <trkpt lat="43.16875" lon="2.64037">
        <ele>186.2</ele>
        <time>2020-08-30T10:31:26+0200</time>
      </trkpt>
      <trkpt lat="43.16873" lon="2.64038">
        <ele>185.8</ele>
        <time>2020-08-30T10:31:28+0200</time>
      </trkpt>
      <trkpt lat="43.1687" lon="2.6404">
        <ele>185.1</ele>
        <time>2020-08-30T10:31:29+0200</time>
      </trkpt>
      <trkpt lat="43.16869" lon="2.64043">
        <ele>184.3</ele>
        <time>2020-08-30T10:31:31+0200</time>
      </trkpt>
      <trkpt lat="43.16867" lon="2.64047">
        <ele>183.2</ele>
        <time>2020-08-30T10:31:33+0200</time>
      </trkpt>
      <trkpt lat="43.16865" lon="2.64051">
        <ele>182.1</ele>
        <time>2020-08-30T10:31:34+0200</time>
      </trkpt>
      <trkpt lat="43.16864" lon="2.64053">
        <ele>181.1</ele>
        <time>2020-08-30T10:31:35+0200</time>
      </trkpt>
      <trkpt lat="43.16861" lon="2.64058">
        <ele>179.6</ele>
        <time>2020-08-30T10:31:37+0200</time>
      </trkpt>
      <trkpt lat="43.16859" lon="2.64062">
        <ele>178.9</ele>
        <time>2020-08-30T10:31:38+0200</time>
      </trkpt>
      <trkpt lat="43.16858" lon="2.64063">
        <ele>178.7</ele>
        <time>2020-08-30T10:31:39+0200</time>
      </trkpt>
      <trkpt lat="43.16856" lon="2.64067">
        <ele>178</ele>
        <time>2020-08-30T10:31:40+0200</time>
      </trkpt>
      <trkpt lat="43.16853" lon="2.64072">
        <ele>177</ele>
        <time>2020-08-30T10:31:42+0200</time>
      </trkpt>
      <trkpt lat="43.16852" lon="2.64077">
        <ele>176.2</ele>
        <time>2020-08-30T10:31:43+0200</time>
      </trkpt>
      <trkpt lat="43.1685" lon="2.64082">
        <ele>175.3</ele>
        <time>2020-08-30T10:31:44+0200</time>
      </trkpt>
      <trkpt lat="43.1685" lon="2.64083">
        <ele>175</ele>
        <time>2020-08-30T10:31:45+0200</time>
      </trkpt>
      <trkpt lat="43.1685" lon="2.64089">
        <ele>174.3</ele>
        <time>2020-08-30T10:31:46+0200</time>
      </trkpt>
      <trkpt lat="43.16849" lon="2.64091">
        <ele>174</ele>
        <time>2020-08-30T10:31:47+0200</time>
      </trkpt>
      <trkpt lat="43.16849" lon="2.64097">
        <ele>173.2</ele>
        <time>2020-08-30T10:31:49+0200</time>
      </trkpt>
      <trkpt lat="43.16848" lon="2.64099">
        <ele>173</ele>
        <time>2020-08-30T10:31:50+0200</time>
      </trkpt>
      <trkpt lat="43.16848" lon="2.64101">
        <ele>172.7</ele>
        <time>2020-08-30T10:31:51+0200</time>
      </trkpt>
      <trkpt lat="43.16847" lon="2.64105">
        <ele>172.2</ele>
        <time>2020-08-30T10:31:52+0200</time>
      </trkpt>
      <trkpt lat="43.16846" lon="2.64107">
        <ele>172.1</ele>
        <time>2020-08-30T10:31:53+0200</time>
      </trkpt>
      <trkpt lat="43.16845" lon="2.64111">
        <ele>171.5</ele>
        <time>2020-08-30T10:31:54+0200</time>
      </trkpt>
      <trkpt lat="43.16845" lon="2.64113">
        <ele>171.3</ele>
        <time>2020-08-30T10:31:55+0200</time>
      </trkpt>
      <trkpt lat="43.16844" lon="2.64118">
        <ele>170.8</ele>
        <time>2020-08-30T10:31:57+0200</time>
      </trkpt>
      <trkpt lat="43.16844" lon="2.64122">
        <ele>170.2</ele>
        <time>2020-08-30T10:31:58+0200</time>
      </trkpt>
      <trkpt lat="43.16843" lon="2.64126">
        <ele>169.7</ele>
        <time>2020-08-30T10:31:59+0200</time>
      </trkpt>
      <trkpt lat="43.16842" lon="2.64132">
        <ele>169</ele>
        <time>2020-08-30T10:32:01+0200</time>
      </trkpt>
      <trkpt lat="43.16842" lon="2.64134">
        <ele>168.6</ele>
        <time>2020-08-30T10:32:03+0200</time>
      </trkpt>
      <trkpt lat="43.16842" lon="2.64135">
        <ele>168.5</ele>
        <time>2020-08-30T10:32:04+0200</time>
      </trkpt>
      <trkpt lat="43.16842" lon="2.64135">
        <ele>168.5</ele>
        <time>2020-08-30T10:32:05+0200</time>
      </trkpt>
      <trkpt lat="43.16843" lon="2.64135">
        <ele>168.5</ele>
        <time>2020-08-30T10:32:06+0200</time>
      </trkpt>
      <trkpt lat="43.16843" lon="2.64135">
        <ele>168.5</ele>
        <time>2020-08-30T10:32:08+0200</time>
      </trkpt>
      <trkpt lat="43.16843" lon="2.64135">
        <ele>168.6</ele>
        <time>2020-08-30T10:32:10+0200</time>
      </trkpt>
      <trkpt lat="43.16843" lon="2.64136">
        <ele>168.4</ele>
        <time>2020-08-30T10:32:11+0200</time>
      </trkpt>
      <trkpt lat="43.16843" lon="2.64135">
        <ele>168.5</ele>
        <time>2020-08-30T10:32:12+0200</time>
      </trkpt>
      <trkpt lat="43.16843" lon="2.64135">
        <ele>168.5</ele>
        <time>2020-08-30T10:32:13+0200</time>
      </trkpt>
      <trkpt lat="43.16843" lon="2.64134">
        <ele>168.6</ele>
        <time>2020-08-30T10:32:15+0200</time>
      </trkpt>
      <trkpt lat="43.16843" lon="2.64134">
        <ele>168.6</ele>
        <time>2020-08-30T10:32:16+0200</time>
      </trkpt>
      <trkpt lat="43.16843" lon="2.64134">
        <ele>168.6</ele>
        <time>2020-08-30T10:32:17+0200</time>
      </trkpt>
      <trkpt lat="43.16843" lon="2.64134">
        <ele>168.7</ele>
        <time>2020-08-30T10:32:18+0200</time>
      </trkpt>
      <trkpt lat="43.16843" lon="2.64135">
        <ele>168.5</ele>
        <time>2020-08-30T10:32:20+0200</time>
      </trkpt>
      <trkpt lat="43.16843" lon="2.64138">
        <ele>168.2</ele>
        <time>2020-08-30T10:32:22+0200</time>
      </trkpt>
      <trkpt lat="43.16844" lon="2.64138">
        <ele>168.1</ele>
        <time>2020-08-30T10:32:23+0200</time>
      </trkpt>
      <trkpt lat="43.16844" lon="2.64138">
        <ele>168.1</ele>
        <time>2020-08-30T10:32:24+0200</time>
      </trkpt>
      <trkpt lat="43.16844" lon="2.64137">
        <ele>168.2</ele>
        <time>2020-08-30T10:32:26+0200</time>
      </trkpt>
      <trkpt lat="43.16844" lon="2.64137">
        <ele>168.2</ele>
        <time>2020-08-30T10:32:27+0200</time>
      </trkpt>
      <trkpt lat="43.16844" lon="2.64137">
        <ele>168.2</ele>
        <time>2020-08-30T10:32:29+0200</time>
      </trkpt>
      <trkpt lat="43.16844" lon="2.64137">
        <ele>168.2</ele>
        <time>2020-08-30T10:32:31+0200</time>
      </trkpt>
      <trkpt lat="43.16845" lon="2.64137">
        <ele>168.2</ele>
        <time>2020-08-30T10:32:32+0200</time>
      </trkpt>
      <trkpt lat="43.16845" lon="2.64137">
        <ele>168.2</ele>
        <time>2020-08-30T10:32:33+0200</time>
      </trkpt>
      <trkpt lat="43.16845" lon="2.64137">
        <ele>168.2</ele>
        <time>2020-08-30T10:32:34+0200</time>
      </trkpt>
      <trkpt lat="43.16846" lon="2.64137">
        <ele>168.2</ele>
        <time>2020-08-30T10:32:35+0200</time>
      </trkpt>
      <trkpt lat="43.16846" lon="2.64137">
        <ele>168.3</ele>
        <time>2020-08-30T10:32:37+0200</time>
      </trkpt>
      <trkpt lat="43.16846" lon="2.64137">
        <ele>168.3</ele>
        <time>2020-08-30T10:32:38+0200</time>
      </trkpt>
      <trkpt lat="43.16846" lon="2.64137">
        <ele>168.3</ele>
        <time>2020-08-30T10:32:40+0200</time>
      </trkpt>
      <trkpt lat="43.16847" lon="2.64136">
        <ele>168.4</ele>
        <time>2020-08-30T10:32:42+0200</time>
      </trkpt>
      <trkpt lat="43.16847" lon="2.64135">
        <ele>168.5</ele>
        <time>2020-08-30T10:32:44+0200</time>
      </trkpt>
      <trkpt lat="43.16847" lon="2.64135">
        <ele>168.5</ele>
        <time>2020-08-30T10:32:45+0200</time>
      </trkpt>
      <trkpt lat="43.16847" lon="2.64135">
        <ele>168.5</ele>
        <time>2020-08-30T10:32:47+0200</time>
      </trkpt>
      <trkpt lat="43.16847" lon="2.64135">
        <ele>168.5</ele>
        <time>2020-08-30T10:32:48+0200</time>
      </trkpt>
      <trkpt lat="43.16847" lon="2.64135">
        <ele>168.5</ele>
        <time>2020-08-30T10:32:49+0200</time>
      </trkpt>
      <trkpt lat="43.16847" lon="2.64135">
        <ele>168.5</ele>
        <time>2020-08-30T10:32:51+0200</time>
      </trkpt>
      <trkpt lat="43.16849" lon="2.64136">
        <ele>168.4</ele>
        <time>2020-08-30T10:32:53+0200</time>
      </trkpt>
      <trkpt lat="43.16849" lon="2.64137">
        <ele>168.2</ele>
        <time>2020-08-30T10:32:54+0200</time>
      </trkpt>
      <trkpt lat="43.16849" lon="2.64139">
        <ele>168</ele>
        <time>2020-08-30T10:32:55+0200</time>
      </trkpt>
      <trkpt lat="43.16849" lon="2.64141">
        <ele>167.8</ele>
        <time>2020-08-30T10:32:57+0200</time>
      </trkpt>
      <trkpt lat="43.1685" lon="2.64142">
        <ele>167.6</ele>
        <time>2020-08-30T10:32:59+0200</time>
      </trkpt>
      <trkpt lat="43.1685" lon="2.64142">
        <ele>167.6</ele>
        <time>2020-08-30T10:33:00+0200</time>
      </trkpt>
      <trkpt lat="43.16851" lon="2.64143">
        <ele>167.5</ele>
        <time>2020-08-30T10:33:02+0200</time>
      </trkpt>
      <trkpt lat="43.16851" lon="2.64143">
        <ele>167.5</ele>
        <time>2020-08-30T10:33:04+0200</time>
      </trkpt>
      <trkpt lat="43.16852" lon="2.64143">
        <ele>167.5</ele>
        <time>2020-08-30T10:33:05+0200</time>
      </trkpt>
      <trkpt lat="43.16852" lon="2.64143">
        <ele>167.5</ele>
        <time>2020-08-30T10:33:07+0200</time>
      </trkpt>
      <trkpt lat="43.16852" lon="2.64143">
        <ele>167.5</ele>
        <time>2020-08-30T10:33:08+0200</time>
      </trkpt>
      <trkpt lat="43.16853" lon="2.64145">
        <ele>167.3</ele>
        <time>2020-08-30T10:33:10+0200</time>
      </trkpt>
      <trkpt lat="43.16853" lon="2.64146">
        <ele>167.2</ele>
        <time>2020-08-30T10:33:11+0200</time>
      </trkpt>
      <trkpt lat="43.16855" lon="2.64149">
        <ele>166.8</ele>
        <time>2020-08-30T10:33:12+0200</time>
      </trkpt>
      <trkpt lat="43.16856" lon="2.6415">
        <ele>166.7</ele>
        <time>2020-08-30T10:33:14+0200</time>
      </trkpt>
      <trkpt lat="43.16857" lon="2.64152">
        <ele>166.6</ele>
        <time>2020-08-30T10:33:15+0200</time>
      </trkpt>
      <trkpt lat="43.16859" lon="2.64153">
        <ele>166.5</ele>
        <time>2020-08-30T10:33:16+0200</time>
      </trkpt>
      <trkpt lat="43.16862" lon="2.64155">
        <ele>166.2</ele>
        <time>2020-08-30T10:33:17+0200</time>
      </trkpt>
      <trkpt lat="43.16863" lon="2.64156">
        <ele>166.1</ele>
        <time>2020-08-30T10:33:18+0200</time>
      </trkpt>
      <trkpt lat="43.16866" lon="2.64156">
        <ele>165.9</ele>
        <time>2020-08-30T10:33:19+0200</time>
      </trkpt>
      <trkpt lat="43.16869" lon="2.64158">
        <ele>165.7</ele>
        <time>2020-08-30T10:33:21+0200</time>
      </trkpt>
      <trkpt lat="43.16875" lon="2.6416">
        <ele>165.3</ele>
        <time>2020-08-30T10:33:22+0200</time>
      </trkpt>
      <trkpt lat="43.16878" lon="2.6416">
        <ele>165.1</ele>
        <time>2020-08-30T10:33:23+0200</time>
      </trkpt>
      <trkpt lat="43.16881" lon="2.64162">
        <ele>164.8</ele>
        <time>2020-08-30T10:33:24+0200</time>
      </trkpt>
      <trkpt lat="43.16884" lon="2.64163">
        <ele>164.6</ele>
        <time>2020-08-30T10:33:25+0200</time>
      </trkpt>
      <trkpt lat="43.16887" lon="2.64164">
        <ele>164.3</ele>
        <time>2020-08-30T10:33:27+0200</time>
      </trkpt>
      <trkpt lat="43.16889" lon="2.64166">
        <ele>164.1</ele>
        <time>2020-08-30T10:33:28+0200</time>
      </trkpt>
      <trkpt lat="43.16892" lon="2.64168">
        <ele>163.9</ele>
        <time>2020-08-30T10:33:29+0200</time>
      </trkpt>
      <trkpt lat="43.16895" lon="2.64169">
        <ele>163.7</ele>
        <time>2020-08-30T10:33:30+0200</time>
      </trkpt>
      <trkpt lat="43.16898" lon="2.64171">
        <ele>163.5</ele>
        <time>2020-08-30T10:33:31+0200</time>
      </trkpt>
      <trkpt lat="43.16902" lon="2.64172">
        <ele>163.2</ele>
        <time>2020-08-30T10:33:32+0200</time>
      </trkpt>
      <trkpt lat="43.16905" lon="2.64174">
        <ele>162.9</ele>
        <time>2020-08-30T10:33:33+0200</time>
      </trkpt>
      <trkpt lat="43.16906" lon="2.64175">
        <ele>162.7</ele>
        <time>2020-08-30T10:33:34+0200</time>
      </trkpt>
      <trkpt lat="43.16909" lon="2.64177">
        <ele>162.4</ele>
        <time>2020-08-30T10:33:36+0200</time>
      </trkpt>
      <trkpt lat="43.16912" lon="2.64178">
        <ele>162.1</ele>
        <time>2020-08-30T10:33:37+0200</time>
      </trkpt>
      <trkpt lat="43.16915" lon="2.6418">
        <ele>161.6</ele>
        <time>2020-08-30T10:33:38+0200</time>
      </trkpt>
      <trkpt lat="43.16919" lon="2.64183">
        <ele>161</ele>
        <time>2020-08-30T10:33:39+0200</time>
      </trkpt>
      <trkpt lat="43.16922" lon="2.64185">
        <ele>160.4</ele>
        <time>2020-08-30T10:33:41+0200</time>
      </trkpt>
      <trkpt lat="43.16924" lon="2.64186">
        <ele>160.2</ele>
        <time>2020-08-30T10:33:42+0200</time>
      </trkpt>
      <trkpt lat="43.16926" lon="2.64188">
        <ele>159.8</ele>
        <time>2020-08-30T10:33:43+0200</time>
      </trkpt>
      <trkpt lat="43.16929" lon="2.6419">
        <ele>159.4</ele>
        <time>2020-08-30T10:33:44+0200</time>
      </trkpt>
      <trkpt lat="43.16932" lon="2.64192">
        <ele>158.9</ele>
        <time>2020-08-30T10:33:45+0200</time>
      </trkpt>
      <trkpt lat="43.16935" lon="2.64195">
        <ele>158.3</ele>
        <time>2020-08-30T10:33:46+0200</time>
      </trkpt>
      <trkpt lat="43.16936" lon="2.64195">
        <ele>158.2</ele>
        <time>2020-08-30T10:33:47+0200</time>
      </trkpt>
      <trkpt lat="43.1694" lon="2.64198">
        <ele>157.6</ele>
        <time>2020-08-30T10:33:48+0200</time>
      </trkpt>
      <trkpt lat="43.16941" lon="2.642">
        <ele>157.4</ele>
        <time>2020-08-30T10:33:49+0200</time>
      </trkpt>
      <trkpt lat="43.16945" lon="2.64203">
        <ele>156.7</ele>
        <time>2020-08-30T10:33:51+0200</time>
      </trkpt>
      <trkpt lat="43.16947" lon="2.64204">
        <ele>156.5</ele>
        <time>2020-08-30T10:33:52+0200</time>
      </trkpt>
      <trkpt lat="43.16948" lon="2.64205">
        <ele>156.2</ele>
        <time>2020-08-30T10:33:53+0200</time>
      </trkpt>
      <trkpt lat="43.1695" lon="2.64206">
        <ele>155.9</ele>
        <time>2020-08-30T10:33:54+0200</time>
      </trkpt>
      <trkpt lat="43.16954" lon="2.64207">
        <ele>155.5</ele>
        <time>2020-08-30T10:33:56+0200</time>
      </trkpt>
      <trkpt lat="43.16957" lon="2.64208">
        <ele>155.1</ele>
        <time>2020-08-30T10:33:57+0200</time>
      </trkpt>
      <trkpt lat="43.16961" lon="2.64209">
        <ele>154.7</ele>
        <time>2020-08-30T10:33:58+0200</time>
      </trkpt>
      <trkpt lat="43.16965" lon="2.6421">
        <ele>154.4</ele>
        <time>2020-08-30T10:34:00+0200</time>
      </trkpt>
      <trkpt lat="43.16969" lon="2.64211">
        <ele>153.9</ele>
        <time>2020-08-30T10:34:01+0200</time>
      </trkpt>
      <trkpt lat="43.16972" lon="2.64211">
        <ele>153.6</ele>
        <time>2020-08-30T10:34:02+0200</time>
      </trkpt>
      <trkpt lat="43.16975" lon="2.64212">
        <ele>153.3</ele>
        <time>2020-08-30T10:34:03+0200</time>
      </trkpt>
      <trkpt lat="43.16978" lon="2.64212">
        <ele>153</ele>
        <time>2020-08-30T10:34:04+0200</time>
      </trkpt>
      <trkpt lat="43.1698" lon="2.64212">
        <ele>152.6</ele>
        <time>2020-08-30T10:34:06+0200</time>
      </trkpt>
      <trkpt lat="43.16983" lon="2.64213">
        <ele>152.3</ele>
        <time>2020-08-30T10:34:07+0200</time>
      </trkpt>
      <trkpt lat="43.16987" lon="2.64213">
        <ele>151.9</ele>
        <time>2020-08-30T10:34:08+0200</time>
      </trkpt>
      <trkpt lat="43.1699" lon="2.64214">
        <ele>151.5</ele>
        <time>2020-08-30T10:34:10+0200</time>
      </trkpt>
      <trkpt lat="43.16994" lon="2.64214">
        <ele>151.1</ele>
        <time>2020-08-30T10:34:11+0200</time>
      </trkpt>
      <trkpt lat="43.16998" lon="2.64216">
        <ele>150.4</ele>
        <time>2020-08-30T10:34:12+0200</time>
      </trkpt>
      <trkpt lat="43.17001" lon="2.64216">
        <ele>150</ele>
        <time>2020-08-30T10:34:13+0200</time>
      </trkpt>
      <trkpt lat="43.17003" lon="2.64217">
        <ele>149.7</ele>
        <time>2020-08-30T10:34:14+0200</time>
      </trkpt>
      <trkpt lat="43.17008" lon="2.64218">
        <ele>149.4</ele>
        <time>2020-08-30T10:34:16+0200</time>
      </trkpt>
      <trkpt lat="43.17011" lon="2.64219">
        <ele>149.1</ele>
        <time>2020-08-30T10:34:18+0200</time>
      </trkpt>
      <trkpt lat="43.17012" lon="2.6422">
        <ele>149</ele>
        <time>2020-08-30T10:34:19+0200</time>
      </trkpt>
      <trkpt lat="43.17014" lon="2.6422">
        <ele>148.8</ele>
        <time>2020-08-30T10:34:20+0200</time>
      </trkpt>
      <trkpt lat="43.17018" lon="2.64221">
        <ele>148.5</ele>
        <time>2020-08-30T10:34:22+0200</time>
      </trkpt>
      <trkpt lat="43.17022" lon="2.64222">
        <ele>148.2</ele>
        <time>2020-08-30T10:34:23+0200</time>
      </trkpt>
      <trkpt lat="43.17023" lon="2.64223">
        <ele>148.1</ele>
        <time>2020-08-30T10:34:24+0200</time>
      </trkpt>
      <trkpt lat="43.17027" lon="2.64224">
        <ele>147.8</ele>
        <time>2020-08-30T10:34:25+0200</time>
      </trkpt>
      <trkpt lat="43.17031" lon="2.64225">
        <ele>147.6</ele>
        <time>2020-08-30T10:34:27+0200</time>
      </trkpt>
      <trkpt lat="43.17034" lon="2.64226">
        <ele>147.4</ele>
        <time>2020-08-30T10:34:28+0200</time>
      </trkpt>
      <trkpt lat="43.17037" lon="2.64227">
        <ele>147.2</ele>
        <time>2020-08-30T10:34:29+0200</time>
      </trkpt>
      <trkpt lat="43.17042" lon="2.64228">
        <ele>146.9</ele>
        <time>2020-08-30T10:34:30+0200</time>
      </trkpt>
      <trkpt lat="43.17045" lon="2.64228">
        <ele>146.7</ele>
        <time>2020-08-30T10:34:32+0200</time>
      </trkpt>
      <trkpt lat="43.17049" lon="2.64229">
        <ele>146.5</ele>
        <time>2020-08-30T10:34:33+0200</time>
      </trkpt>
      <trkpt lat="43.17053" lon="2.64231">
        <ele>146.1</ele>
        <time>2020-08-30T10:34:34+0200</time>
      </trkpt>
      <trkpt lat="43.17054" lon="2.64232">
        <ele>146</ele>
        <time>2020-08-30T10:34:35+0200</time>
      </trkpt>
      <trkpt lat="43.17057" lon="2.64233">
        <ele>145.8</ele>
        <time>2020-08-30T10:34:36+0200</time>
      </trkpt>
      <trkpt lat="43.1706" lon="2.64234">
        <ele>145.5</ele>
        <time>2020-08-30T10:34:38+0200</time>
      </trkpt>
      <trkpt lat="43.17063" lon="2.64235">
        <ele>145.2</ele>
        <time>2020-08-30T10:34:39+0200</time>
      </trkpt>
      <trkpt lat="43.17066" lon="2.64236">
        <ele>144.9</ele>
        <time>2020-08-30T10:34:40+0200</time>
      </trkpt>
      <trkpt lat="43.17069" lon="2.64237">
        <ele>144.7</ele>
        <time>2020-08-30T10:34:41+0200</time>
      </trkpt>
      <trkpt lat="43.17073" lon="2.64238">
        <ele>144.4</ele>
        <time>2020-08-30T10:34:42+0200</time>
      </trkpt>
      <trkpt lat="43.17077" lon="2.6424">
        <ele>144.1</ele>
        <time>2020-08-30T10:34:44+0200</time>
      </trkpt>
      <trkpt lat="43.17081" lon="2.64241">
        <ele>143.8</ele>
        <time>2020-08-30T10:34:45+0200</time>
      </trkpt>
      <trkpt lat="43.17086" lon="2.64243">
        <ele>143.5</ele>
        <time>2020-08-30T10:34:46+0200</time>
      </trkpt>
      <trkpt lat="43.17089" lon="2.64244">
        <ele>143.4</ele>
        <time>2020-08-30T10:34:47+0200</time>
      </trkpt>
      <trkpt lat="43.17092" lon="2.64245">
        <ele>143.3</ele>
        <time>2020-08-30T10:34:49+0200</time>
      </trkpt>
      <trkpt lat="43.17095" lon="2.64246">
        <ele>143.3</ele>
        <time>2020-08-30T10:34:50+0200</time>
      </trkpt>
      <trkpt lat="43.17098" lon="2.64246">
        <ele>143.2</ele>
        <time>2020-08-30T10:34:51+0200</time>
      </trkpt>
      <trkpt lat="43.17101" lon="2.64247">
        <ele>143.1</ele>
        <time>2020-08-30T10:34:52+0200</time>
      </trkpt>
      <trkpt lat="43.17104" lon="2.64248">
        <ele>143.1</ele>
        <time>2020-08-30T10:34:53+0200</time>
      </trkpt>
      <trkpt lat="43.17107" lon="2.64249">
        <ele>143</ele>
        <time>2020-08-30T10:34:54+0200</time>
      </trkpt>
      <trkpt lat="43.1711" lon="2.64251">
        <ele>143</ele>
        <time>2020-08-30T10:34:55+0200</time>
      </trkpt>
      <trkpt lat="43.17112" lon="2.64251">
        <ele>142.9</ele>
        <time>2020-08-30T10:34:56+0200</time>
      </trkpt>
      <trkpt lat="43.17115" lon="2.64252">
        <ele>142.8</ele>
        <time>2020-08-30T10:34:57+0200</time>
      </trkpt>
      <trkpt lat="43.17116" lon="2.64252">
        <ele>142.8</ele>
        <time>2020-08-30T10:34:58+0200</time>
      </trkpt>
      <trkpt lat="43.17117" lon="2.64253">
        <ele>142.7</ele>
        <time>2020-08-30T10:35:00+0200</time>
      </trkpt>
      <trkpt lat="43.17119" lon="2.64253">
        <ele>142.6</ele>
        <time>2020-08-30T10:35:01+0200</time>
      </trkpt>
      <trkpt lat="43.17122" lon="2.64253">
        <ele>142.5</ele>
        <time>2020-08-30T10:35:02+0200</time>
      </trkpt>
      <trkpt lat="43.17125" lon="2.64255">
        <ele>142.3</ele>
        <time>2020-08-30T10:35:03+0200</time>
      </trkpt>
      <trkpt lat="43.17126" lon="2.64255">
        <ele>142.3</ele>
        <time>2020-08-30T10:35:04+0200</time>
      </trkpt>
      <trkpt lat="43.1713" lon="2.64258">
        <ele>142.1</ele>
        <time>2020-08-30T10:35:06+0200</time>
      </trkpt>
      <trkpt lat="43.17131" lon="2.64258">
        <ele>142</ele>
        <time>2020-08-30T10:35:07+0200</time>
      </trkpt>
      <trkpt lat="43.17133" lon="2.6426">
        <ele>141.8</ele>
        <time>2020-08-30T10:35:08+0200</time>
      </trkpt>
      <trkpt lat="43.17136" lon="2.64264">
        <ele>141.6</ele>
        <time>2020-08-30T10:35:09+0200</time>
      </trkpt>
      <trkpt lat="43.17137" lon="2.64265">
        <ele>141.5</ele>
        <time>2020-08-30T10:35:10+0200</time>
      </trkpt>
      <trkpt lat="43.1714" lon="2.64268">
        <ele>141.4</ele>
        <time>2020-08-30T10:35:11+0200</time>
      </trkpt>
      <trkpt lat="43.17143" lon="2.6427">
        <ele>141.4</ele>
        <time>2020-08-30T10:35:12+0200</time>
      </trkpt>
      <trkpt lat="43.17147" lon="2.64272">
        <ele>141.3</ele>
        <time>2020-08-30T10:35:13+0200</time>
      </trkpt>
      <trkpt lat="43.17148" lon="2.64272">
        <ele>141.3</ele>
        <time>2020-08-30T10:35:14+0200</time>
      </trkpt>
      <trkpt lat="43.17151" lon="2.64273">
        <ele>141.3</ele>
        <time>2020-08-30T10:35:16+0200</time>
      </trkpt>
      <trkpt lat="43.17155" lon="2.64274">
        <ele>141.3</ele>
        <time>2020-08-30T10:35:18+0200</time>
      </trkpt>
      <trkpt lat="43.1716" lon="2.64274">
        <ele>141.3</ele>
        <time>2020-08-30T10:35:19+0200</time>
      </trkpt>
      <trkpt lat="43.17163" lon="2.64275">
        <ele>141.3</ele>
        <time>2020-08-30T10:35:20+0200</time>
      </trkpt>
      <trkpt lat="43.17166" lon="2.64275">
        <ele>141.3</ele>
        <time>2020-08-30T10:35:22+0200</time>
      </trkpt>
      <trkpt lat="43.1717" lon="2.64274">
        <ele>141.3</ele>
        <time>2020-08-30T10:35:23+0200</time>
      </trkpt>
      <trkpt lat="43.17174" lon="2.64275">
        <ele>141.2</ele>
        <time>2020-08-30T10:35:24+0200</time>
      </trkpt>
      <trkpt lat="43.17177" lon="2.64275">
        <ele>141</ele>
        <time>2020-08-30T10:35:25+0200</time>
      </trkpt>
      <trkpt lat="43.1718" lon="2.64275">
        <ele>141</ele>
        <time>2020-08-30T10:35:27+0200</time>
      </trkpt>
      <trkpt lat="43.17184" lon="2.64274">
        <ele>140.9</ele>
        <time>2020-08-30T10:35:28+0200</time>
      </trkpt>
      <trkpt lat="43.17188" lon="2.64274">
        <ele>140.9</ele>
        <time>2020-08-30T10:35:29+0200</time>
      </trkpt>
      <trkpt lat="43.17191" lon="2.64273">
        <ele>140.9</ele>
        <time>2020-08-30T10:35:30+0200</time>
      </trkpt>
      <trkpt lat="43.17195" lon="2.64272">
        <ele>140.9</ele>
        <time>2020-08-30T10:35:32+0200</time>
      </trkpt>
      <trkpt lat="43.17197" lon="2.64272">
        <ele>140.7</ele>
        <time>2020-08-30T10:35:33+0200</time>
      </trkpt>
      <trkpt lat="43.172" lon="2.64271">
        <ele>140.4</ele>
        <time>2020-08-30T10:35:34+0200</time>
      </trkpt>
      <trkpt lat="43.17203" lon="2.64271">
        <ele>140.1</ele>
        <time>2020-08-30T10:35:35+0200</time>
      </trkpt>
      <trkpt lat="43.17204" lon="2.64271">
        <ele>140</ele>
        <time>2020-08-30T10:35:36+0200</time>
      </trkpt>
      <trkpt lat="43.1721" lon="2.64269">
        <ele>139.4</ele>
        <time>2020-08-30T10:35:38+0200</time>
      </trkpt>
      <trkpt lat="43.17213" lon="2.64269">
        <ele>139</ele>
        <time>2020-08-30T10:35:39+0200</time>
      </trkpt>
      <trkpt lat="43.17216" lon="2.64268">
        <ele>138.7</ele>
        <time>2020-08-30T10:35:40+0200</time>
      </trkpt>
      <trkpt lat="43.17217" lon="2.64268">
        <ele>138.5</ele>
        <time>2020-08-30T10:35:41+0200</time>
      </trkpt>
      <trkpt lat="43.17221" lon="2.64267">
        <ele>137.9</ele>
        <time>2020-08-30T10:35:43+0200</time>
      </trkpt>
      <trkpt lat="43.17223" lon="2.64266">
        <ele>137.7</ele>
        <time>2020-08-30T10:35:44+0200</time>
      </trkpt>
      <trkpt lat="43.17227" lon="2.64265">
        <ele>137.2</ele>
        <time>2020-08-30T10:35:45+0200</time>
      </trkpt>
      <trkpt lat="43.17228" lon="2.64265">
        <ele>137.1</ele>
        <time>2020-08-30T10:35:46+0200</time>
      </trkpt>
      <trkpt lat="43.17231" lon="2.64265">
        <ele>136.7</ele>
        <time>2020-08-30T10:35:47+0200</time>
      </trkpt>
      <trkpt lat="43.17234" lon="2.64264">
        <ele>136.3</ele>
        <time>2020-08-30T10:35:49+0200</time>
      </trkpt>
      <trkpt lat="43.17238" lon="2.64263">
        <ele>135.7</ele>
        <time>2020-08-30T10:35:50+0200</time>
      </trkpt>
      <trkpt lat="43.1724" lon="2.64262">
        <ele>135.5</ele>
        <time>2020-08-30T10:35:51+0200</time>
      </trkpt>
      <trkpt lat="43.17242" lon="2.64261">
        <ele>135.2</ele>
        <time>2020-08-30T10:35:52+0200</time>
      </trkpt>
      <trkpt lat="43.1725" lon="2.64259">
        <ele>134</ele>
        <time>2020-08-30T10:35:54+0200</time>
      </trkpt>
      <trkpt lat="43.17253" lon="2.64258">
        <ele>133.8</ele>
        <time>2020-08-30T10:35:55+0200</time>
      </trkpt>
      <trkpt lat="43.17254" lon="2.64258">
        <ele>133.7</ele>
        <time>2020-08-30T10:35:56+0200</time>
      </trkpt>
      <trkpt lat="43.17257" lon="2.64257">
        <ele>133.6</ele>
        <time>2020-08-30T10:35:57+0200</time>
      </trkpt>
      <trkpt lat="43.17259" lon="2.64257">
        <ele>133.4</ele>
        <time>2020-08-30T10:35:58+0200</time>
      </trkpt>
      <trkpt lat="43.17262" lon="2.64256">
        <ele>133.2</ele>
        <time>2020-08-30T10:36:00+0200</time>
      </trkpt>
      <trkpt lat="43.17266" lon="2.64255">
        <ele>133</ele>
        <time>2020-08-30T10:36:01+0200</time>
      </trkpt>
      <trkpt lat="43.17267" lon="2.64255">
        <ele>132.9</ele>
        <time>2020-08-30T10:36:02+0200</time>
      </trkpt>
      <trkpt lat="43.17271" lon="2.64254">
        <ele>132.6</ele>
        <time>2020-08-30T10:36:03+0200</time>
      </trkpt>
      <trkpt lat="43.17277" lon="2.64253">
        <ele>132.2</ele>
        <time>2020-08-30T10:36:04+0200</time>
      </trkpt>
      <trkpt lat="43.1728" lon="2.64252">
        <ele>131.8</ele>
        <time>2020-08-30T10:36:05+0200</time>
      </trkpt>
      <trkpt lat="43.17282" lon="2.64252">
        <ele>131.7</ele>
        <time>2020-08-30T10:36:06+0200</time>
      </trkpt>
      <trkpt lat="43.17285" lon="2.64252">
        <ele>131.3</ele>
        <time>2020-08-30T10:36:07+0200</time>
      </trkpt>
      <trkpt lat="43.17289" lon="2.64251">
        <ele>130.8</ele>
        <time>2020-08-30T10:36:08+0200</time>
      </trkpt>
      <trkpt lat="43.1729" lon="2.64251">
        <ele>130.7</ele>
        <time>2020-08-30T10:36:09+0200</time>
      </trkpt>
      <trkpt lat="43.17294" lon="2.64251">
        <ele>130.3</ele>
        <time>2020-08-30T10:36:11+0200</time>
      </trkpt>
      <trkpt lat="43.17295" lon="2.64251">
        <ele>130.2</ele>
        <time>2020-08-30T10:36:12+0200</time>
      </trkpt>
      <trkpt lat="43.17303" lon="2.64251">
        <ele>129.4</ele>
        <time>2020-08-30T10:36:14+0200</time>
      </trkpt>
      <trkpt lat="43.17305" lon="2.64251">
        <ele>129.1</ele>
        <time>2020-08-30T10:36:15+0200</time>
      </trkpt>
      <trkpt lat="43.17307" lon="2.64251">
        <ele>129</ele>
        <time>2020-08-30T10:36:16+0200</time>
      </trkpt>
      <trkpt lat="43.17311" lon="2.64251">
        <ele>128.7</ele>
        <time>2020-08-30T10:36:18+0200</time>
      </trkpt>
      <trkpt lat="43.17314" lon="2.64251">
        <ele>128.4</ele>
        <time>2020-08-30T10:36:19+0200</time>
      </trkpt>
      <trkpt lat="43.17316" lon="2.64251">
        <ele>128.3</ele>
        <time>2020-08-30T10:36:20+0200</time>
      </trkpt>
      <trkpt lat="43.17319" lon="2.64251">
        <ele>128.1</ele>
        <time>2020-08-30T10:36:21+0200</time>
      </trkpt>
      <trkpt lat="43.17322" lon="2.6425">
        <ele>127.8</ele>
        <time>2020-08-30T10:36:22+0200</time>
      </trkpt>
      <trkpt lat="43.17325" lon="2.6425">
        <ele>127.6</ele>
        <time>2020-08-30T10:36:23+0200</time>
      </trkpt>
      <trkpt lat="43.17331" lon="2.64249">
        <ele>127.2</ele>
        <time>2020-08-30T10:36:24+0200</time>
      </trkpt>
      <trkpt lat="43.17333" lon="2.64249">
        <ele>127.1</ele>
        <time>2020-08-30T10:36:25+0200</time>
      </trkpt>
      <trkpt lat="43.17335" lon="2.64248">
        <ele>127</ele>
        <time>2020-08-30T10:36:27+0200</time>
      </trkpt>
      <trkpt lat="43.17339" lon="2.64247">
        <ele>126.7</ele>
        <time>2020-08-30T10:36:28+0200</time>
      </trkpt>
      <trkpt lat="43.1734" lon="2.64247">
        <ele>126.6</ele>
        <time>2020-08-30T10:36:29+0200</time>
      </trkpt>
      <trkpt lat="43.17344" lon="2.64246">
        <ele>126.4</ele>
        <time>2020-08-30T10:36:30+0200</time>
      </trkpt>
      <trkpt lat="43.17347" lon="2.64245">
        <ele>126.2</ele>
        <time>2020-08-30T10:36:32+0200</time>
      </trkpt>
      <trkpt lat="43.1735" lon="2.64245">
        <ele>126</ele>
        <time>2020-08-30T10:36:33+0200</time>
      </trkpt>
      <trkpt lat="43.17357" lon="2.64244">
        <ele>125.6</ele>
        <time>2020-08-30T10:36:34+0200</time>
      </trkpt>
      <trkpt lat="43.17359" lon="2.64243">
        <ele>125.4</ele>
        <time>2020-08-30T10:36:35+0200</time>
      </trkpt>
      <trkpt lat="43.17362" lon="2.64244">
        <ele>125.2</ele>
        <time>2020-08-30T10:36:37+0200</time>
      </trkpt>
      <trkpt lat="43.17366" lon="2.64244">
        <ele>124.9</ele>
        <time>2020-08-30T10:36:38+0200</time>
      </trkpt>
      <trkpt lat="43.17369" lon="2.64244">
        <ele>124.7</ele>
        <time>2020-08-30T10:36:40+0200</time>
      </trkpt>
      <trkpt lat="43.17372" lon="2.64244">
        <ele>124.5</ele>
        <time>2020-08-30T10:36:41+0200</time>
      </trkpt>
      <trkpt lat="43.17375" lon="2.64245">
        <ele>124.3</ele>
        <time>2020-08-30T10:36:42+0200</time>
      </trkpt>
      <trkpt lat="43.17379" lon="2.64245">
        <ele>124</ele>
        <time>2020-08-30T10:36:43+0200</time>
      </trkpt>
      <trkpt lat="43.17386" lon="2.64247">
        <ele>123.4</ele>
        <time>2020-08-30T10:36:44+0200</time>
      </trkpt>
      <trkpt lat="43.17389" lon="2.64248">
        <ele>123.1</ele>
        <time>2020-08-30T10:36:45+0200</time>
      </trkpt>
      <trkpt lat="43.1739" lon="2.64249">
        <ele>123.1</ele>
        <time>2020-08-30T10:36:46+0200</time>
      </trkpt>
      <trkpt lat="43.17395" lon="2.6425">
        <ele>123</ele>
        <time>2020-08-30T10:36:47+0200</time>
      </trkpt>
      <trkpt lat="43.17399" lon="2.64252">
        <ele>122.9</ele>
        <time>2020-08-30T10:36:48+0200</time>
      </trkpt>
      <trkpt lat="43.17403" lon="2.64254">
        <ele>122.8</ele>
        <time>2020-08-30T10:36:49+0200</time>
      </trkpt>
      <trkpt lat="43.17405" lon="2.64255">
        <ele>122.7</ele>
        <time>2020-08-30T10:36:50+0200</time>
      </trkpt>
      <trkpt lat="43.17408" lon="2.64257">
        <ele>122.6</ele>
        <time>2020-08-30T10:36:52+0200</time>
      </trkpt>
      <trkpt lat="43.17412" lon="2.64258">
        <ele>122.5</ele>
        <time>2020-08-30T10:36:53+0200</time>
      </trkpt>
      <trkpt lat="43.17413" lon="2.64259">
        <ele>122.4</ele>
        <time>2020-08-30T10:36:54+0200</time>
      </trkpt>
      <trkpt lat="43.17416" lon="2.6426">
        <ele>122.3</ele>
        <time>2020-08-30T10:36:55+0200</time>
      </trkpt>
      <trkpt lat="43.17417" lon="2.64261">
        <ele>122.2</ele>
        <time>2020-08-30T10:36:56+0200</time>
      </trkpt>
      <trkpt lat="43.17419" lon="2.64262">
        <ele>122</ele>
        <time>2020-08-30T10:36:58+0200</time>
      </trkpt>
      <trkpt lat="43.17422" lon="2.64264">
        <ele>121.8</ele>
        <time>2020-08-30T10:36:59+0200</time>
      </trkpt>
      <trkpt lat="43.17423" lon="2.64265">
        <ele>121.7</ele>
        <time>2020-08-30T10:37:00+0200</time>
      </trkpt>
      <trkpt lat="43.17425" lon="2.64268">
        <ele>121.4</ele>
        <time>2020-08-30T10:37:01+0200</time>
      </trkpt>
      <trkpt lat="43.17426" lon="2.64272">
        <ele>121.1</ele>
        <time>2020-08-30T10:37:02+0200</time>
      </trkpt>
      <trkpt lat="43.17427" lon="2.64276">
        <ele>120.8</ele>
        <time>2020-08-30T10:37:03+0200</time>
      </trkpt>
      <trkpt lat="43.17427" lon="2.64281">
        <ele>120.7</ele>
        <time>2020-08-30T10:37:04+0200</time>
      </trkpt>
      <trkpt lat="43.17427" lon="2.64283">
        <ele>120.7</ele>
        <time>2020-08-30T10:37:05+0200</time>
      </trkpt>
      <trkpt lat="43.17427" lon="2.64287">
        <ele>120.8</ele>
        <time>2020-08-30T10:37:06+0200</time>
      </trkpt>
      <trkpt lat="43.17427" lon="2.64291">
        <ele>120.8</ele>
        <time>2020-08-30T10:37:07+0200</time>
      </trkpt>
      <trkpt lat="43.17426" lon="2.64296">
        <ele>120.9</ele>
        <time>2020-08-30T10:37:09+0200</time>
      </trkpt>
      <trkpt lat="43.17426" lon="2.64298">
        <ele>120.9</ele>
        <time>2020-08-30T10:37:10+0200</time>
      </trkpt>
      <trkpt lat="43.17426" lon="2.64303">
        <ele>121</ele>
        <time>2020-08-30T10:37:11+0200</time>
      </trkpt>
      <trkpt lat="43.17425" lon="2.64307">
        <ele>121.1</ele>
        <time>2020-08-30T10:37:12+0200</time>
      </trkpt>
      <trkpt lat="43.17424" lon="2.64311">
        <ele>121.4</ele>
        <time>2020-08-30T10:37:13+0200</time>
      </trkpt>
      <trkpt lat="43.17423" lon="2.64316">
        <ele>121.7</ele>
        <time>2020-08-30T10:37:15+0200</time>
      </trkpt>
      <trkpt lat="43.17423" lon="2.64317">
        <ele>121.8</ele>
        <time>2020-08-30T10:37:16+0200</time>
      </trkpt>
      <trkpt lat="43.17422" lon="2.64321">
        <ele>122.1</ele>
        <time>2020-08-30T10:37:18+0200</time>
      </trkpt>
      <trkpt lat="43.17421" lon="2.64324">
        <ele>122.3</ele>
        <time>2020-08-30T10:37:19+0200</time>
      </trkpt>
      <trkpt lat="43.17421" lon="2.64328">
        <ele>122.6</ele>
        <time>2020-08-30T10:37:21+0200</time>
      </trkpt>
      <trkpt lat="43.17421" lon="2.64332">
        <ele>122.9</ele>
        <time>2020-08-30T10:37:23+0200</time>
      </trkpt>
      <trkpt lat="43.1742" lon="2.64334">
        <ele>123.2</ele>
        <time>2020-08-30T10:37:25+0200</time>
      </trkpt>
      <trkpt lat="43.17419" lon="2.64335">
        <ele>123.5</ele>
        <time>2020-08-30T10:37:26+0200</time>
      </trkpt>
      <trkpt lat="43.17419" lon="2.64336">
        <ele>123.7</ele>
        <time>2020-08-30T10:37:27+0200</time>
      </trkpt>
      <trkpt lat="43.17419" lon="2.64337">
        <ele>123.9</ele>
        <time>2020-08-30T10:37:28+0200</time>
      </trkpt>
      <trkpt lat="43.17418" lon="2.64339">
        <ele>124.5</ele>
        <time>2020-08-30T10:37:30+0200</time>
      </trkpt>
      <trkpt lat="43.17418" lon="2.64339">
        <ele>124.4</ele>
        <time>2020-08-30T10:37:32+0200</time>
      </trkpt>
      <trkpt lat="43.17418" lon="2.64339">
        <ele>124.3</ele>
        <time>2020-08-30T10:37:34+0200</time>
      </trkpt>
      <trkpt lat="43.17418" lon="2.64339">
        <ele>124.3</ele>
        <time>2020-08-30T10:37:35+0200</time>
        <extensions>
          <visugpx:TrkExtension xmlns:visugpx="https://www.visugpx.com/editgpx/">
            <visugpx:node>8</visugpx:node>
            </visugpx:TrkExtension>
        </extensions>
      </trkpt>
    </trkseg>
  </trk>
</gpx>